<?xml version="1.0" encoding="UTF-8" standalone="no" ?>
<gpx xmlns="http://www.topografix.com/GPX/1/1" xmlns:xsi="http://www.w3.org/2001/XMLSchema-instance" xsi:schemaLocation="http://www.topografix.com/GPX/1/1 http://www.topografix.com/GPX/1/1/gpx.xsd" version="1.1" creator="VisuGPX - https://www.visugpx.com">
  <metadata>
    <name>Roscoff à Nantes EV1</name>
  </metadata>
  <trk>
    <name><![CDATA[Roscoff_Nantes_EV1]]></name>
    <extensions>
      <line xmlns="http://www.topografix.com/GPX/gpx_style/0/2">
        <color>0000FF</color>
        <width>4</width>
      </line>
    </extensions>
    <trkseg>
      <trkpt lat="48.72386" lon="-3.9821">
        <ele>8.3</ele>
        <time>2008-01-20T00:38:54Z</time>
      </trkpt>
      <trkpt lat="48.72312" lon="-3.98124">
        <ele>8.3</ele>
        <time>2008-01-20T00:39:16Z</time>
      </trkpt>
      <trkpt lat="48.72252" lon="-3.98021">
        <ele>8</ele>
        <time>2008-01-20T00:39:37Z</time>
      </trkpt>
      <trkpt lat="48.72217" lon="-3.97892">
        <ele>8.5</ele>
        <time>2008-01-20T00:39:59Z</time>
      </trkpt>
      <trkpt lat="48.72201" lon="-3.97757">
        <ele>7.5</ele>
        <time>2008-01-20T00:40:54Z</time>
      </trkpt>
      <trkpt lat="48.7222" lon="-3.97625">
        <ele>9.47</ele>
        <time>2008-01-20T00:41:12Z</time>
      </trkpt>
      <trkpt lat="48.72298" lon="-3.97561">
        <ele>1.4</ele>
        <time>2008-01-20T00:45:00Z</time>
      </trkpt>
      <trkpt lat="48.72341" lon="-3.97443">
        <ele>5.9</ele>
        <time>2008-01-20T00:45:28Z</time>
      </trkpt>
      <trkpt lat="48.72419" lon="-3.97411">
        <ele>2.53</ele>
        <time>2008-01-20T00:45:52Z</time>
      </trkpt>
      <trkpt lat="48.72454" lon="-3.97324">
        <ele>4</ele>
        <time>2008-01-20T00:46:17Z</time>
      </trkpt>
      <trkpt lat="48.72471" lon="-3.97187">
        <ele>9.13</ele>
        <time>2008-01-20T00:46:41Z</time>
      </trkpt>
      <trkpt lat="48.72404" lon="-3.97144">
        <ele>11.47</ele>
        <time>2008-01-20T00:49:13Z</time>
      </trkpt>
      <trkpt lat="48.72314" lon="-3.97122">
        <ele>13.1</ele>
        <time>2008-01-20T00:49:36Z</time>
      </trkpt>
      <trkpt lat="48.72221" lon="-3.97109">
        <ele>15.37</ele>
        <time>2008-01-20T00:49:57Z</time>
      </trkpt>
      <trkpt lat="48.72128" lon="-3.97124">
        <ele>16.8</ele>
        <time>2008-01-20T00:55:17Z</time>
      </trkpt>
      <trkpt lat="48.72039" lon="-3.97166">
        <ele>17.2</ele>
        <time>2008-01-20T00:55:39Z</time>
      </trkpt>
      <trkpt lat="48.71973" lon="-3.97252">
        <ele>18.28</ele>
        <time>2008-01-20T00:56:01Z</time>
      </trkpt>
      <trkpt lat="48.71892" lon="-3.97263">
        <ele>11.23</ele>
        <time>2008-01-20T00:57:48Z</time>
      </trkpt>
      <trkpt lat="48.7181" lon="-3.97216">
        <ele>24.17</ele>
        <time>2008-01-20T01:00:02Z</time>
      </trkpt>
      <trkpt lat="48.71725" lon="-3.97224">
        <ele>20.17</ele>
        <time>2008-01-20T01:01:55Z</time>
      </trkpt>
      <trkpt lat="48.71652" lon="-3.97242">
        <ele>18.4</ele>
        <time>2008-01-20T01:02:34Z</time>
      </trkpt>
      <trkpt lat="48.71565" lon="-3.97216">
        <ele>15.7</ele>
        <time>2008-01-20T01:02:50Z</time>
      </trkpt>
      <trkpt lat="48.71484" lon="-3.97275">
        <ele>18.8</ele>
        <time>2008-01-20T01:03:08Z</time>
      </trkpt>
      <trkpt lat="48.71423" lon="-3.97364">
        <ele>18.6</ele>
        <time>2008-01-20T01:03:30Z</time>
      </trkpt>
      <trkpt lat="48.71412" lon="-3.97502">
        <ele>28.8</ele>
        <time>2008-01-20T01:05:18Z</time>
      </trkpt>
      <trkpt lat="48.71323" lon="-3.97492">
        <ele>30.7</ele>
        <time>2008-01-20T01:05:50Z</time>
      </trkpt>
      <trkpt lat="48.7125" lon="-3.9743">
        <ele>29.6</ele>
        <time>2008-01-20T01:06:15Z</time>
      </trkpt>
      <trkpt lat="48.71174" lon="-3.97372">
        <ele>22.5</ele>
        <time>2008-01-20T01:07:52Z</time>
      </trkpt>
      <trkpt lat="48.71116" lon="-3.97459">
        <ele>20.91</ele>
        <time>2008-01-20T01:08:09Z</time>
      </trkpt>
      <trkpt lat="48.71077" lon="-3.97579">
        <ele>23.7</ele>
        <time>2008-01-20T01:09:18Z</time>
      </trkpt>
      <trkpt lat="48.71006" lon="-3.97666">
        <ele>22.1</ele>
        <time>2008-01-20T01:09:59Z</time>
      </trkpt>
      <trkpt lat="48.70911" lon="-3.97664">
        <ele>17.9</ele>
        <time>2008-01-20T01:10:13Z</time>
      </trkpt>
      <trkpt lat="48.70834" lon="-3.97644">
        <ele>17.97</ele>
        <time>2008-01-20T01:11:13Z</time>
      </trkpt>
      <trkpt lat="48.70842" lon="-3.97781">
        <ele>20.5</ele>
        <time>2008-01-20T01:11:42Z</time>
      </trkpt>
      <trkpt lat="48.70823" lon="-3.97909">
        <ele>25</ele>
        <time>2008-01-20T01:12:07Z</time>
      </trkpt>
      <trkpt lat="48.70746" lon="-3.97997">
        <ele>27.13</ele>
        <time>2008-01-20T01:12:36Z</time>
      </trkpt>
      <trkpt lat="48.70657" lon="-3.97977">
        <ele>24.5</ele>
        <time>2008-01-20T01:12:56Z</time>
      </trkpt>
      <trkpt lat="48.70586" lon="-3.98019">
        <ele>17.43</ele>
        <time>2008-01-20T01:20:13Z</time>
      </trkpt>
      <trkpt lat="48.70502" lon="-3.98003">
        <ele>27.63</ele>
        <time>2008-01-20T01:20:45Z</time>
      </trkpt>
      <trkpt lat="48.70428" lon="-3.97933">
        <ele>34.57</ele>
        <time>2008-01-20T01:21:13Z</time>
      </trkpt>
      <trkpt lat="48.70355" lon="-3.97971">
        <ele>35.57</ele>
        <time>2008-01-20T01:21:39Z</time>
      </trkpt>
      <trkpt lat="48.70289" lon="-3.98055">
        <ele>36.8</ele>
        <time>2008-01-20T01:21:58Z</time>
      </trkpt>
      <trkpt lat="48.7027" lon="-3.98193">
        <ele>36.3</ele>
        <time>2008-01-20T01:22:16Z</time>
      </trkpt>
      <trkpt lat="48.70191" lon="-3.98188">
        <ele>37.4</ele>
        <time>2008-01-20T01:22:35Z</time>
      </trkpt>
      <trkpt lat="48.70102" lon="-3.9819">
        <ele>38</ele>
        <time>2008-01-20T01:22:53Z</time>
      </trkpt>
      <trkpt lat="48.70005" lon="-3.98199">
        <ele>33.9</ele>
        <time>2008-01-20T01:24:37Z</time>
      </trkpt>
      <trkpt lat="48.69914" lon="-3.98169">
        <ele>21.5</ele>
        <time>2008-01-20T01:25:33Z</time>
      </trkpt>
      <trkpt lat="48.69826" lon="-3.98195">
        <ele>11.9</ele>
        <time>2008-01-20T01:25:51Z</time>
      </trkpt>
      <trkpt lat="48.69745" lon="-3.98255">
        <ele>15.9</ele>
        <time>2008-01-20T01:26:08Z</time>
      </trkpt>
      <trkpt lat="48.69655" lon="-3.98269">
        <ele>23.37</ele>
        <time>2008-01-20T01:27:27Z</time>
      </trkpt>
      <trkpt lat="48.69563" lon="-3.98256">
        <ele>27.67</ele>
        <time>2008-01-20T01:27:58Z</time>
      </trkpt>
      <trkpt lat="48.6947" lon="-3.98273">
        <ele>36.82</ele>
        <time>2008-01-20T01:28:37Z</time>
      </trkpt>
      <trkpt lat="48.6938" lon="-3.98281">
        <ele>46</ele>
        <time>2008-01-20T01:29:17Z</time>
      </trkpt>
      <trkpt lat="48.69297" lon="-3.98346">
        <ele>47.1</ele>
        <time>2008-01-20T01:29:39Z</time>
      </trkpt>
      <trkpt lat="48.6921" lon="-3.98391">
        <ele>49.5</ele>
        <time>2008-01-20T01:29:57Z</time>
      </trkpt>
      <trkpt lat="48.6913" lon="-3.98447">
        <ele>48.93</ele>
        <time>2008-01-20T01:30:49Z</time>
      </trkpt>
      <trkpt lat="48.69038" lon="-3.98446">
        <ele>48.3</ele>
        <time>2008-01-20T01:31:11Z</time>
      </trkpt>
      <trkpt lat="48.68947" lon="-3.98476">
        <ele>46.6</ele>
        <time>2008-01-20T01:31:31Z</time>
      </trkpt>
      <trkpt lat="48.6886" lon="-3.98523">
        <ele>50.83</ele>
        <time>2008-01-20T01:32:39Z</time>
      </trkpt>
      <trkpt lat="48.68774" lon="-3.98575">
        <ele>54</ele>
        <time>2008-01-20T01:33:03Z</time>
      </trkpt>
      <trkpt lat="48.6873" lon="-3.98679">
        <ele>46.43</ele>
        <time>2008-01-20T02:04:04Z</time>
      </trkpt>
      <trkpt lat="48.6864" lon="-3.98672">
        <ele>46.7</ele>
        <time>2008-01-20T02:04:29Z</time>
      </trkpt>
      <trkpt lat="48.68564" lon="-3.98704">
        <ele>21.2</ele>
        <time>2008-01-20T02:08:04Z</time>
      </trkpt>
      <trkpt lat="48.68499" lon="-3.98751">
        <ele>22.77</ele>
        <time>2008-01-20T02:08:33Z</time>
      </trkpt>
      <trkpt lat="48.68441" lon="-3.98658">
        <ele>42.6</ele>
        <time>2008-01-20T02:10:40Z</time>
      </trkpt>
      <trkpt lat="48.68351" lon="-3.9868">
        <ele>48.9</ele>
        <time>2008-01-20T02:11:01Z</time>
      </trkpt>
      <trkpt lat="48.68284" lon="-3.98641">
        <ele>41.4</ele>
        <time>2008-01-20T02:18:19Z</time>
      </trkpt>
      <trkpt lat="48.68242" lon="-3.98514">
        <ele>38</ele>
        <time>2008-01-20T02:36:05Z</time>
      </trkpt>
      <trkpt lat="48.682" lon="-3.9839">
        <ele>34.6</ele>
        <time>2008-01-20T02:36:21Z</time>
      </trkpt>
      <trkpt lat="48.68113" lon="-3.98358">
        <ele>29.8</ele>
        <time>2008-01-20T02:36:39Z</time>
      </trkpt>
      <trkpt lat="48.68037" lon="-3.98282">
        <ele>26.9</ele>
        <time>2008-01-20T02:36:53Z</time>
      </trkpt>
      <trkpt lat="48.6796" lon="-3.98205">
        <ele>23.9</ele>
        <time>2008-01-20T02:37:06Z</time>
      </trkpt>
      <trkpt lat="48.67878" lon="-3.98148">
        <ele>19.3</ele>
        <time>2008-01-20T02:37:18Z</time>
      </trkpt>
      <trkpt lat="48.67787" lon="-3.98108">
        <ele>14.7</ele>
        <time>2008-01-20T02:37:31Z</time>
      </trkpt>
      <trkpt lat="48.67696" lon="-3.98091">
        <ele>14.1</ele>
        <time>2008-01-20T02:37:43Z</time>
      </trkpt>
      <trkpt lat="48.67643" lon="-3.98012">
        <ele>13.6</ele>
        <time>2008-01-20T02:37:58Z</time>
      </trkpt>
      <trkpt lat="48.67612" lon="-3.97882">
        <ele>11.3</ele>
        <time>2008-01-20T02:38:12Z</time>
      </trkpt>
      <trkpt lat="48.67565" lon="-3.97767">
        <ele>14.9</ele>
        <time>2008-01-20T02:38:25Z</time>
      </trkpt>
      <trkpt lat="48.67505" lon="-3.97655">
        <ele>17.9</ele>
        <time>2008-01-20T02:38:38Z</time>
      </trkpt>
      <trkpt lat="48.67435" lon="-3.9757">
        <ele>14.3</ele>
        <time>2008-01-20T02:38:51Z</time>
      </trkpt>
      <trkpt lat="48.67354" lon="-3.97497">
        <ele>15.6</ele>
        <time>2008-01-20T02:39:06Z</time>
      </trkpt>
      <trkpt lat="48.67275" lon="-3.97428">
        <ele>14.6</ele>
        <time>2008-01-20T02:39:20Z</time>
      </trkpt>
      <trkpt lat="48.67213" lon="-3.97332">
        <ele>8.9</ele>
        <time>2008-01-20T02:39:31Z</time>
      </trkpt>
      <trkpt lat="48.67168" lon="-3.97206">
        <ele>6.7</ele>
        <time>2008-01-20T02:39:42Z</time>
      </trkpt>
      <trkpt lat="48.67123" lon="-3.97084">
        <ele>10.8</ele>
        <time>2008-01-20T02:39:57Z</time>
      </trkpt>
      <trkpt lat="48.6708" lon="-3.9696">
        <ele>13.4</ele>
        <time>2008-01-20T02:40:17Z</time>
      </trkpt>
      <trkpt lat="48.67033" lon="-3.96841">
        <ele>15.3</ele>
        <time>2008-01-20T02:40:37Z</time>
      </trkpt>
      <trkpt lat="48.66954" lon="-3.96784">
        <ele>16.7</ele>
        <time>2008-01-20T02:40:56Z</time>
      </trkpt>
      <trkpt lat="48.66876" lon="-3.96708">
        <ele>19.4</ele>
        <time>2008-01-20T02:41:14Z</time>
      </trkpt>
      <trkpt lat="48.66829" lon="-3.96587">
        <ele>20.5</ele>
        <time>2008-01-20T02:41:33Z</time>
      </trkpt>
      <trkpt lat="48.66755" lon="-3.96507">
        <ele>25.3</ele>
        <time>2008-01-20T02:41:56Z</time>
      </trkpt>
      <trkpt lat="48.66682" lon="-3.96437">
        <ele>31.8</ele>
        <time>2008-01-20T02:42:31Z</time>
      </trkpt>
      <trkpt lat="48.66617" lon="-3.96345">
        <ele>32.7</ele>
        <time>2008-01-20T02:42:57Z</time>
      </trkpt>
      <trkpt lat="48.66539" lon="-3.96266">
        <ele>33</ele>
        <time>2008-01-20T02:43:17Z</time>
      </trkpt>
      <trkpt lat="48.66459" lon="-3.96208">
        <ele>32.3</ele>
        <time>2008-01-20T02:43:37Z</time>
      </trkpt>
      <trkpt lat="48.66399" lon="-3.96106">
        <ele>31.7</ele>
        <time>2008-01-20T02:43:57Z</time>
      </trkpt>
      <trkpt lat="48.66353" lon="-3.95982">
        <ele>26.4</ele>
        <time>2008-01-20T02:44:16Z</time>
      </trkpt>
      <trkpt lat="48.663" lon="-3.95862">
        <ele>21</ele>
        <time>2008-01-20T02:44:30Z</time>
      </trkpt>
      <trkpt lat="48.66244" lon="-3.95755">
        <ele>23.3</ele>
        <time>2008-01-20T02:44:47Z</time>
      </trkpt>
      <trkpt lat="48.66164" lon="-3.95692">
        <ele>25.6</ele>
        <time>2008-01-20T02:45:06Z</time>
      </trkpt>
      <trkpt lat="48.66097" lon="-3.95606">
        <ele>26.4</ele>
        <time>2008-01-20T02:45:27Z</time>
      </trkpt>
      <trkpt lat="48.66048" lon="-3.955">
        <ele>23.1</ele>
        <time>2008-01-20T02:45:43Z</time>
      </trkpt>
      <trkpt lat="48.65962" lon="-3.95452">
        <ele>23.65</ele>
        <time>2008-01-20T02:46:28Z</time>
      </trkpt>
      <trkpt lat="48.65875" lon="-3.95428">
        <ele>18.3</ele>
        <time>2008-01-20T02:47:56Z</time>
      </trkpt>
      <trkpt lat="48.65796" lon="-3.95483">
        <ele>19.6</ele>
        <time>2008-01-20T02:48:14Z</time>
      </trkpt>
      <trkpt lat="48.6571" lon="-3.95546">
        <ele>17.6</ele>
        <time>2008-01-20T02:48:33Z</time>
      </trkpt>
      <trkpt lat="48.65621" lon="-3.95591">
        <ele>16.5</ele>
        <time>2008-01-20T02:48:48Z</time>
      </trkpt>
      <trkpt lat="48.65526" lon="-3.9561">
        <ele>15</ele>
        <time>2008-01-20T02:49:02Z</time>
      </trkpt>
      <trkpt lat="48.65441" lon="-3.95669">
        <ele>20.6</ele>
        <time>2008-01-20T02:49:22Z</time>
      </trkpt>
      <trkpt lat="48.65356" lon="-3.95734">
        <ele>23.4</ele>
        <time>2008-01-20T02:50:22Z</time>
      </trkpt>
      <trkpt lat="48.65271" lon="-3.95797">
        <ele>19.6</ele>
        <time>2008-01-20T02:50:36Z</time>
      </trkpt>
      <trkpt lat="48.65189" lon="-3.95859">
        <ele>16.7</ele>
        <time>2008-01-20T02:50:50Z</time>
      </trkpt>
      <trkpt lat="48.6515" lon="-3.95769">
        <ele>16.3</ele>
        <time>2008-01-20T02:52:04Z</time>
      </trkpt>
      <trkpt lat="48.65079" lon="-3.95788">
        <ele>15.5</ele>
        <time>2008-01-20T02:52:59Z</time>
      </trkpt>
      <trkpt lat="48.64991" lon="-3.95774">
        <ele>11.5</ele>
        <time>2008-01-20T02:53:27Z</time>
      </trkpt>
      <trkpt lat="48.64929" lon="-3.95678">
        <ele>12.1</ele>
        <time>2008-01-20T02:54:33Z</time>
      </trkpt>
      <trkpt lat="48.64869" lon="-3.95657">
        <ele>6.5</ele>
        <time>2008-01-20T02:56:09Z</time>
      </trkpt>
      <trkpt lat="48.64823" lon="-3.95775">
        <ele>11.8</ele>
        <time>2008-01-20T02:57:14Z</time>
      </trkpt>
      <trkpt lat="48.64777" lon="-3.95705">
        <ele>11.2</ele>
        <time>2008-01-20T02:58:42Z</time>
      </trkpt>
      <trkpt lat="48.64702" lon="-3.95636">
        <ele>10.7</ele>
        <time>2008-01-20T02:59:37Z</time>
      </trkpt>
      <trkpt lat="48.64619" lon="-3.95576">
        <ele>9.4</ele>
        <time>2008-01-20T02:59:55Z</time>
      </trkpt>
      <trkpt lat="48.64553" lon="-3.95477">
        <ele>13.3</ele>
        <time>2008-01-20T03:00:14Z</time>
      </trkpt>
      <trkpt lat="48.6449" lon="-3.9537">
        <ele>13.1</ele>
        <time>2008-01-20T03:00:38Z</time>
      </trkpt>
      <trkpt lat="48.64492" lon="-3.95451">
        <ele>15.4</ele>
        <time>2008-01-20T03:55:28Z</time>
      </trkpt>
      <trkpt lat="48.64535" lon="-3.95575">
        <ele>14.8</ele>
        <time>2008-01-20T03:56:20Z</time>
      </trkpt>
      <trkpt lat="48.64539" lon="-3.95689">
        <ele>19.2</ele>
        <time>2008-01-20T03:59:48Z</time>
      </trkpt>
      <trkpt lat="48.64469" lon="-3.9578">
        <ele>26.5</ele>
        <time>2008-01-20T04:00:24Z</time>
      </trkpt>
      <trkpt lat="48.64405" lon="-3.95877">
        <ele>32.9</ele>
        <time>2008-01-20T04:01:00Z</time>
      </trkpt>
      <trkpt lat="48.64357" lon="-3.95993">
        <ele>33.7</ele>
        <time>2008-01-20T04:01:36Z</time>
      </trkpt>
      <trkpt lat="48.64355" lon="-3.96132">
        <ele>42.9</ele>
        <time>2008-01-20T04:02:39Z</time>
      </trkpt>
      <trkpt lat="48.6435" lon="-3.96254">
        <ele>46.4</ele>
        <time>2008-01-20T04:04:20Z</time>
      </trkpt>
      <trkpt lat="48.64286" lon="-3.96351">
        <ele>52.3</ele>
        <time>2008-01-20T04:05:21Z</time>
      </trkpt>
      <trkpt lat="48.6422" lon="-3.96449">
        <ele>47.2</ele>
        <time>2008-01-20T04:05:48Z</time>
      </trkpt>
      <trkpt lat="48.64154" lon="-3.9655">
        <ele>38.4</ele>
        <time>2008-01-20T04:06:12Z</time>
      </trkpt>
      <trkpt lat="48.64088" lon="-3.96649">
        <ele>33.7</ele>
        <time>2008-01-20T04:06:35Z</time>
      </trkpt>
      <trkpt lat="48.64021" lon="-3.9675">
        <ele>27.9</ele>
        <time>2008-01-20T04:07:19Z</time>
      </trkpt>
      <trkpt lat="48.63955" lon="-3.96844">
        <ele>34.7</ele>
        <time>2008-01-20T04:07:41Z</time>
      </trkpt>
      <trkpt lat="48.63879" lon="-3.96932">
        <ele>36</ele>
        <time>2008-01-20T04:07:58Z</time>
      </trkpt>
      <trkpt lat="48.63788" lon="-3.96939">
        <ele>32.1</ele>
        <time>2008-01-20T04:08:27Z</time>
      </trkpt>
      <trkpt lat="48.63703" lon="-3.96887">
        <ele>28.4</ele>
        <time>2008-01-20T04:08:38Z</time>
      </trkpt>
      <trkpt lat="48.63616" lon="-3.96834">
        <ele>26</ele>
        <time>2008-01-20T04:08:48Z</time>
      </trkpt>
      <trkpt lat="48.63526" lon="-3.96779">
        <ele>22.1</ele>
        <time>2008-01-20T04:08:58Z</time>
      </trkpt>
      <trkpt lat="48.63445" lon="-3.96719">
        <ele>19.8</ele>
        <time>2008-01-20T04:09:07Z</time>
      </trkpt>
      <trkpt lat="48.63354" lon="-3.96657">
        <ele>21.7</ele>
        <time>2008-01-20T04:09:17Z</time>
      </trkpt>
      <trkpt lat="48.63265" lon="-3.96596">
        <ele>18.8</ele>
        <time>2008-01-20T04:09:27Z</time>
      </trkpt>
      <trkpt lat="48.63176" lon="-3.96534">
        <ele>14.4</ele>
        <time>2008-01-20T04:09:37Z</time>
      </trkpt>
      <trkpt lat="48.63097" lon="-3.9645">
        <ele>15.6</ele>
        <time>2008-01-20T04:09:47Z</time>
      </trkpt>
      <trkpt lat="48.63015" lon="-3.96395">
        <ele>13.4</ele>
        <time>2008-01-20T04:09:57Z</time>
      </trkpt>
      <trkpt lat="48.6293" lon="-3.96338">
        <ele>11</ele>
        <time>2008-01-20T04:10:07Z</time>
      </trkpt>
      <trkpt lat="48.62844" lon="-3.96266">
        <ele>11.4</ele>
        <time>2008-01-20T04:11:59Z</time>
      </trkpt>
      <trkpt lat="48.62773" lon="-3.96175">
        <ele>7.3</ele>
        <time>2008-01-20T04:12:18Z</time>
      </trkpt>
      <trkpt lat="48.62695" lon="-3.961">
        <ele>6.9</ele>
        <time>2008-01-20T04:12:32Z</time>
      </trkpt>
      <trkpt lat="48.62669" lon="-3.95964">
        <ele>9.4</ele>
        <time>2008-01-20T04:12:46Z</time>
      </trkpt>
      <trkpt lat="48.62657" lon="-3.95827">
        <ele>10.3</ele>
        <time>2008-01-20T04:13:00Z</time>
      </trkpt>
      <trkpt lat="48.62657" lon="-3.95688">
        <ele>9.6</ele>
        <time>2008-01-20T04:13:14Z</time>
      </trkpt>
      <trkpt lat="48.62657" lon="-3.95528">
        <ele>13.9</ele>
        <time>2008-01-20T04:14:18Z</time>
      </trkpt>
      <trkpt lat="48.62589" lon="-3.95455">
        <ele>11</ele>
        <time>2008-01-20T04:14:31Z</time>
      </trkpt>
      <trkpt lat="48.62495" lon="-3.95438">
        <ele>11.7</ele>
        <time>2008-01-20T04:14:45Z</time>
      </trkpt>
      <trkpt lat="48.62404" lon="-3.95427">
        <ele>12.6</ele>
        <time>2008-01-20T04:14:58Z</time>
      </trkpt>
      <trkpt lat="48.62309" lon="-3.95414">
        <ele>13.5</ele>
        <time>2008-01-20T04:15:12Z</time>
      </trkpt>
      <trkpt lat="48.62221" lon="-3.95363">
        <ele>13.7</ele>
        <time>2008-01-20T04:15:27Z</time>
      </trkpt>
      <trkpt lat="48.62129" lon="-3.9535">
        <ele>13.4</ele>
        <time>2008-01-20T04:15:42Z</time>
      </trkpt>
      <trkpt lat="48.62036" lon="-3.95356">
        <ele>13</ele>
        <time>2008-01-20T04:15:58Z</time>
      </trkpt>
      <trkpt lat="48.61936" lon="-3.95375">
        <ele>1.5</ele>
        <time>2008-01-20T04:16:08Z</time>
      </trkpt>
      <trkpt lat="48.6185" lon="-3.95322">
        <ele>-1.8</ele>
        <time>2008-01-20T04:16:32Z</time>
      </trkpt>
      <trkpt lat="48.61801" lon="-3.952">
        <ele>7.5</ele>
        <time>2008-01-20T04:16:48Z</time>
      </trkpt>
      <trkpt lat="48.61756" lon="-3.95081">
        <ele>12.3</ele>
        <time>2008-01-20T04:17:05Z</time>
      </trkpt>
      <trkpt lat="48.61697" lon="-3.94972">
        <ele>11.6</ele>
        <time>2008-01-20T04:17:22Z</time>
      </trkpt>
      <trkpt lat="48.61613" lon="-3.94913">
        <ele>13.3</ele>
        <time>2008-01-20T04:17:39Z</time>
      </trkpt>
      <trkpt lat="48.61542" lon="-3.94832">
        <ele>13.8</ele>
        <time>2008-01-20T04:17:56Z</time>
      </trkpt>
      <trkpt lat="48.61479" lon="-3.94727">
        <ele>15.7</ele>
        <time>2008-01-20T04:18:13Z</time>
      </trkpt>
      <trkpt lat="48.61397" lon="-3.94658">
        <ele>13.3</ele>
        <time>2008-01-20T04:18:30Z</time>
      </trkpt>
      <trkpt lat="48.61314" lon="-3.94598">
        <ele>6.5</ele>
        <time>2008-01-20T04:18:47Z</time>
      </trkpt>
      <trkpt lat="48.61236" lon="-3.94529">
        <ele>11.6</ele>
        <time>2008-01-20T04:19:03Z</time>
      </trkpt>
      <trkpt lat="48.61162" lon="-3.94439">
        <ele>12.2</ele>
        <time>2008-01-20T04:19:19Z</time>
      </trkpt>
      <trkpt lat="48.61081" lon="-3.94368">
        <ele>11.8</ele>
        <time>2008-01-20T04:19:34Z</time>
      </trkpt>
      <trkpt lat="48.61002" lon="-3.94294">
        <ele>9.8</ele>
        <time>2008-01-20T04:19:49Z</time>
      </trkpt>
      <trkpt lat="48.60917" lon="-3.94248">
        <ele>10</ele>
        <time>2008-01-20T04:20:04Z</time>
      </trkpt>
      <trkpt lat="48.60833" lon="-3.94188">
        <ele>9.3</ele>
        <time>2008-01-20T04:20:20Z</time>
      </trkpt>
      <trkpt lat="48.60748" lon="-3.94137">
        <ele>7.6</ele>
        <time>2008-01-20T04:20:36Z</time>
      </trkpt>
      <trkpt lat="48.60658" lon="-3.94136">
        <ele>8</ele>
        <time>2008-01-20T04:20:51Z</time>
      </trkpt>
      <trkpt lat="48.60566" lon="-3.94155">
        <ele>6.9</ele>
        <time>2008-01-20T04:21:07Z</time>
      </trkpt>
      <trkpt lat="48.60476" lon="-3.94186">
        <ele>10.1</ele>
        <time>2008-01-20T04:21:23Z</time>
      </trkpt>
      <trkpt lat="48.60383" lon="-3.94169">
        <ele>15.6</ele>
        <time>2008-01-20T04:21:38Z</time>
      </trkpt>
      <trkpt lat="48.60297" lon="-3.94127">
        <ele>10.9</ele>
        <time>2008-01-20T04:21:54Z</time>
      </trkpt>
      <trkpt lat="48.60216" lon="-3.94063">
        <ele>8.7</ele>
        <time>2008-01-20T04:22:10Z</time>
      </trkpt>
      <trkpt lat="48.60141" lon="-3.93988">
        <ele>8.4</ele>
        <time>2008-01-20T04:22:26Z</time>
      </trkpt>
      <trkpt lat="48.60074" lon="-3.93887">
        <ele>10</ele>
        <time>2008-01-20T04:22:42Z</time>
      </trkpt>
      <trkpt lat="48.60018" lon="-3.93781">
        <ele>9.3</ele>
        <time>2008-01-20T04:22:57Z</time>
      </trkpt>
      <trkpt lat="48.59963" lon="-3.93666">
        <ele>8.4</ele>
        <time>2008-01-20T04:23:13Z</time>
      </trkpt>
      <trkpt lat="48.59889" lon="-3.93579">
        <ele>6.1</ele>
        <time>2008-01-20T04:23:29Z</time>
      </trkpt>
      <trkpt lat="48.59817" lon="-3.93503">
        <ele>9.2</ele>
        <time>2008-01-20T04:26:04Z</time>
      </trkpt>
      <trkpt lat="48.59762" lon="-3.93389">
        <ele>5.7</ele>
        <time>2008-01-20T04:28:46Z</time>
      </trkpt>
      <trkpt lat="48.59679" lon="-3.93328">
        <ele>7.7</ele>
        <time>2008-01-20T04:29:12Z</time>
      </trkpt>
      <trkpt lat="48.59588" lon="-3.9325">
        <ele>17.8</ele>
        <time>2008-01-20T04:32:07Z</time>
      </trkpt>
      <trkpt lat="48.59504" lon="-3.93166">
        <ele>17.7</ele>
        <time>2008-01-20T04:32:15Z</time>
      </trkpt>
      <trkpt lat="48.59494" lon="-3.92987">
        <ele>19.1</ele>
        <time>2008-01-20T04:32:29Z</time>
      </trkpt>
      <trkpt lat="48.59564" lon="-3.92759">
        <ele>25.7</ele>
        <time>2008-01-20T04:34:25Z</time>
      </trkpt>
      <trkpt lat="48.59603" lon="-3.92569">
        <ele>48.2</ele>
        <time>2008-01-20T04:36:35Z</time>
      </trkpt>
      <trkpt lat="48.59575" lon="-3.92271">
        <ele>48.2</ele>
        <time>2008-01-20T04:36:43Z</time>
      </trkpt>
      <trkpt lat="48.59546" lon="-3.92038">
        <ele>48.1</ele>
        <time>2008-01-20T04:36:47Z</time>
      </trkpt>
      <trkpt lat="48.59525" lon="-3.91879">
        <ele>48.9</ele>
        <time>2008-01-20T04:36:51Z</time>
      </trkpt>
      <trkpt lat="48.59512" lon="-3.91662">
        <ele>57.1</ele>
        <time>2008-01-20T04:38:13Z</time>
      </trkpt>
      <trkpt lat="48.59501" lon="-3.91479">
        <ele>57</ele>
        <time>2008-01-20T04:38:17Z</time>
      </trkpt>
      <trkpt lat="48.595" lon="-3.91311">
        <ele>66.2</ele>
        <time>2008-01-20T04:40:03Z</time>
      </trkpt>
      <trkpt lat="48.59518" lon="-3.91177">
        <ele>67.1</ele>
        <time>2008-01-20T04:42:09Z</time>
      </trkpt>
      <trkpt lat="48.59513" lon="-3.91041">
        <ele>67.1</ele>
        <time>2008-01-20T04:42:31Z</time>
      </trkpt>
      <trkpt lat="48.59475" lon="-3.90909">
        <ele>70.1</ele>
        <time>2008-01-20T04:42:57Z</time>
      </trkpt>
      <trkpt lat="48.59453" lon="-3.90772">
        <ele>75.3</ele>
        <time>2008-01-20T04:43:29Z</time>
      </trkpt>
      <trkpt lat="48.59464" lon="-3.90635">
        <ele>79.4</ele>
        <time>2008-01-20T04:44:05Z</time>
      </trkpt>
      <trkpt lat="48.59463" lon="-3.90499">
        <ele>82.4</ele>
        <time>2008-01-20T04:44:41Z</time>
      </trkpt>
      <trkpt lat="48.5946" lon="-3.90357">
        <ele>86.7</ele>
        <time>2008-01-20T04:45:16Z</time>
      </trkpt>
      <trkpt lat="48.59464" lon="-3.90222">
        <ele>88.5</ele>
        <time>2008-01-20T04:48:14Z</time>
      </trkpt>
      <trkpt lat="48.59441" lon="-3.90088">
        <ele>87.2</ele>
        <time>2008-01-20T04:49:20Z</time>
      </trkpt>
      <trkpt lat="48.59403" lon="-3.89964">
        <ele>87.9</ele>
        <time>2008-01-20T04:49:56Z</time>
      </trkpt>
      <trkpt lat="48.5935" lon="-3.8985">
        <ele>87.3</ele>
        <time>2008-01-20T04:50:17Z</time>
      </trkpt>
      <trkpt lat="48.59305" lon="-3.89729">
        <ele>87.8</ele>
        <time>2008-01-20T04:50:36Z</time>
      </trkpt>
      <trkpt lat="48.59273" lon="-3.89596">
        <ele>87.5</ele>
        <time>2008-01-20T04:50:56Z</time>
      </trkpt>
      <trkpt lat="48.59217" lon="-3.89494">
        <ele>86.8</ele>
        <time>2008-01-20T04:51:13Z</time>
      </trkpt>
      <trkpt lat="48.59139" lon="-3.89425">
        <ele>94.6</ele>
        <time>2008-01-20T04:51:31Z</time>
      </trkpt>
      <trkpt lat="48.5906" lon="-3.89352">
        <ele>91.2</ele>
        <time>2008-01-20T04:51:47Z</time>
      </trkpt>
      <trkpt lat="48.58979" lon="-3.89276">
        <ele>84.7</ele>
        <time>2008-01-20T04:52:04Z</time>
      </trkpt>
      <trkpt lat="48.589" lon="-3.892">
        <ele>86.1</ele>
        <time>2008-01-20T04:52:21Z</time>
      </trkpt>
      <trkpt lat="48.58838" lon="-3.89105">
        <ele>79.1</ele>
        <time>2008-01-20T04:52:34Z</time>
      </trkpt>
      <trkpt lat="48.58789" lon="-3.88995">
        <ele>73.6</ele>
        <time>2008-01-20T04:52:51Z</time>
      </trkpt>
      <trkpt lat="48.58718" lon="-3.88896">
        <ele>70.6</ele>
        <time>2008-01-20T04:53:05Z</time>
      </trkpt>
      <trkpt lat="48.58661" lon="-3.88789">
        <ele>71.2</ele>
        <time>2008-01-20T04:53:18Z</time>
      </trkpt>
      <trkpt lat="48.5863" lon="-3.88661">
        <ele>76.4</ele>
        <time>2008-01-20T04:53:43Z</time>
      </trkpt>
      <trkpt lat="48.58595" lon="-3.88532">
        <ele>84.7</ele>
        <time>2008-01-20T04:54:17Z</time>
      </trkpt>
      <trkpt lat="48.58554" lon="-3.88409">
        <ele>86.1</ele>
        <time>2008-01-20T04:54:44Z</time>
      </trkpt>
      <trkpt lat="48.58519" lon="-3.88278">
        <ele>85.4</ele>
        <time>2008-01-20T04:55:04Z</time>
      </trkpt>
      <trkpt lat="48.58497" lon="-3.88148">
        <ele>81.2</ele>
        <time>2008-01-20T04:55:21Z</time>
      </trkpt>
      <trkpt lat="48.58498" lon="-3.88008">
        <ele>74.7</ele>
        <time>2008-01-20T04:55:38Z</time>
      </trkpt>
      <trkpt lat="48.58408" lon="-3.87997">
        <ele>70.3</ele>
        <time>2008-01-20T04:55:52Z</time>
      </trkpt>
      <trkpt lat="48.58315" lon="-3.88001">
        <ele>66.6</ele>
        <time>2008-01-20T04:56:03Z</time>
      </trkpt>
      <trkpt lat="48.58232" lon="-3.8796">
        <ele>61.1</ele>
        <time>2008-01-20T04:56:13Z</time>
      </trkpt>
      <trkpt lat="48.58215" lon="-3.87827">
        <ele>57.2</ele>
        <time>2008-01-20T04:56:23Z</time>
      </trkpt>
      <trkpt lat="48.5827" lon="-3.87717">
        <ele>51.1</ele>
        <time>2008-01-20T04:56:32Z</time>
      </trkpt>
      <trkpt lat="48.58283" lon="-3.87582">
        <ele>44.6</ele>
        <time>2008-01-20T04:56:41Z</time>
      </trkpt>
      <trkpt lat="48.58261" lon="-3.87443">
        <ele>40.8</ele>
        <time>2008-01-20T04:56:51Z</time>
      </trkpt>
      <trkpt lat="48.5819" lon="-3.87361">
        <ele>36.8</ele>
        <time>2008-01-20T04:57:06Z</time>
      </trkpt>
      <trkpt lat="48.58253" lon="-3.8728">
        <ele>37.5</ele>
        <time>2008-01-20T04:57:29Z</time>
      </trkpt>
      <trkpt lat="48.5831" lon="-3.87175">
        <ele>42</ele>
        <time>2008-01-20T05:00:11Z</time>
      </trkpt>
      <trkpt lat="48.58295" lon="-3.8705">
        <ele>40.7</ele>
        <time>2008-01-20T05:00:34Z</time>
      </trkpt>
      <trkpt lat="48.58275" lon="-3.86919">
        <ele>44.7</ele>
        <time>2008-01-20T05:00:58Z</time>
      </trkpt>
      <trkpt lat="48.58247" lon="-3.868">
        <ele>46.7</ele>
        <time>2008-01-20T05:01:25Z</time>
      </trkpt>
      <trkpt lat="48.58374" lon="-3.86658">
        <ele>66.9</ele>
        <time>2008-01-20T05:04:33Z</time>
      </trkpt>
      <trkpt lat="48.58448" lon="-3.86576">
        <ele>75.75</ele>
        <time>2008-01-20T05:05:37Z</time>
      </trkpt>
      <trkpt lat="48.58509" lon="-3.86472">
        <ele>78.5</ele>
        <time>2008-01-20T05:06:28Z</time>
      </trkpt>
      <trkpt lat="48.58568" lon="-3.86364">
        <ele>83.8</ele>
        <time>2008-01-20T05:07:16Z</time>
      </trkpt>
      <trkpt lat="48.58652" lon="-3.86294">
        <ele>94.5</ele>
        <time>2008-01-20T05:07:53Z</time>
      </trkpt>
      <trkpt lat="48.58727" lon="-3.86215">
        <ele>93.7</ele>
        <time>2008-01-20T05:08:17Z</time>
      </trkpt>
      <trkpt lat="48.58671" lon="-3.86117">
        <ele>89.9</ele>
        <time>2008-01-20T05:08:40Z</time>
      </trkpt>
      <trkpt lat="48.5861" lon="-3.86009">
        <ele>87.8</ele>
        <time>2008-01-20T05:08:58Z</time>
      </trkpt>
      <trkpt lat="48.58547" lon="-3.85906">
        <ele>87.8</ele>
        <time>2008-01-20T05:09:15Z</time>
      </trkpt>
      <trkpt lat="48.58499" lon="-3.85788">
        <ele>89.4</ele>
        <time>2008-01-20T05:09:33Z</time>
      </trkpt>
      <trkpt lat="48.58424" lon="-3.85706">
        <ele>88.6</ele>
        <time>2008-01-20T05:09:51Z</time>
      </trkpt>
      <trkpt lat="48.58344" lon="-3.85634">
        <ele>87.7</ele>
        <time>2008-01-20T05:10:09Z</time>
      </trkpt>
      <trkpt lat="48.58253" lon="-3.85618">
        <ele>85.6</ele>
        <time>2008-01-20T05:10:26Z</time>
      </trkpt>
      <trkpt lat="48.58163" lon="-3.85593">
        <ele>84.9</ele>
        <time>2008-01-20T05:10:43Z</time>
      </trkpt>
      <trkpt lat="48.58193" lon="-3.8547">
        <ele>88</ele>
        <time>2008-01-20T05:11:03Z</time>
      </trkpt>
      <trkpt lat="48.58239" lon="-3.85348">
        <ele>87.8</ele>
        <time>2008-01-20T05:11:21Z</time>
      </trkpt>
      <trkpt lat="48.58304" lon="-3.85257">
        <ele>84.5</ele>
        <time>2008-01-20T05:11:37Z</time>
      </trkpt>
      <trkpt lat="48.58382" lon="-3.85182">
        <ele>79.7</ele>
        <time>2008-01-20T05:11:54Z</time>
      </trkpt>
      <trkpt lat="48.58473" lon="-3.85188">
        <ele>80.3</ele>
        <time>2008-01-20T05:12:11Z</time>
      </trkpt>
      <trkpt lat="48.58544" lon="-3.85097">
        <ele>77.4</ele>
        <time>2008-01-20T05:12:27Z</time>
      </trkpt>
      <trkpt lat="48.58595" lon="-3.84984">
        <ele>68.4</ele>
        <time>2008-01-20T05:12:43Z</time>
      </trkpt>
      <trkpt lat="48.58531" lon="-3.84889">
        <ele>63.5</ele>
        <time>2008-01-20T05:12:55Z</time>
      </trkpt>
      <trkpt lat="48.58443" lon="-3.8485">
        <ele>56.5</ele>
        <time>2008-01-20T05:13:06Z</time>
      </trkpt>
      <trkpt lat="48.58355" lon="-3.84804">
        <ele>52.7</ele>
        <time>2008-01-20T05:13:19Z</time>
      </trkpt>
      <trkpt lat="48.58278" lon="-3.84724">
        <ele>51.2</ele>
        <time>2008-01-20T05:13:33Z</time>
      </trkpt>
      <trkpt lat="48.58233" lon="-3.84647">
        <ele>51.4</ele>
        <time>2008-01-20T05:14:18Z</time>
      </trkpt>
      <trkpt lat="48.58319" lon="-3.84589">
        <ele>43.2</ele>
        <time>2008-01-20T05:14:36Z</time>
      </trkpt>
      <trkpt lat="48.58397" lon="-3.84511">
        <ele>36.8</ele>
        <time>2008-01-20T05:14:47Z</time>
      </trkpt>
      <trkpt lat="48.58474" lon="-3.84431">
        <ele>31.1</ele>
        <time>2008-01-20T05:14:58Z</time>
      </trkpt>
      <trkpt lat="48.58554" lon="-3.8435">
        <ele>31</ele>
        <time>2008-01-20T05:15:11Z</time>
      </trkpt>
      <trkpt lat="48.5859" lon="-3.84228">
        <ele>31</ele>
        <time>2008-01-20T05:18:30Z</time>
      </trkpt>
      <trkpt lat="48.58611" lon="-3.84092">
        <ele>15</ele>
        <time>2008-01-20T05:20:13Z</time>
      </trkpt>
      <trkpt lat="48.58655" lon="-3.83967">
        <ele>11.5</ele>
        <time>2008-01-20T05:20:32Z</time>
      </trkpt>
      <trkpt lat="48.58691" lon="-3.83834">
        <ele>7.1</ele>
        <time>2008-01-20T05:20:47Z</time>
      </trkpt>
      <trkpt lat="48.58641" lon="-3.83738">
        <ele>7.4</ele>
        <time>2008-01-20T05:22:34Z</time>
      </trkpt>
      <trkpt lat="48.58552" lon="-3.83713">
        <ele>1.6</ele>
        <time>2008-01-20T05:22:58Z</time>
      </trkpt>
      <trkpt lat="48.58473" lon="-3.83645">
        <ele>7</ele>
        <time>2008-01-20T05:23:19Z</time>
      </trkpt>
      <trkpt lat="48.58428" lon="-3.83542">
        <ele>6.5</ele>
        <time>2008-01-20T05:23:42Z</time>
      </trkpt>
      <trkpt lat="48.58365" lon="-3.83447">
        <ele>8.77</ele>
        <time>2008-01-20T05:26:33Z</time>
      </trkpt>
      <trkpt lat="48.58285" lon="-3.83374">
        <ele>11.2</ele>
        <time>2008-01-20T05:28:05Z</time>
      </trkpt>
      <trkpt lat="48.58203" lon="-3.83313">
        <ele>9.4</ele>
        <time>2008-01-20T05:28:24Z</time>
      </trkpt>
      <trkpt lat="48.58139" lon="-3.8322">
        <ele>17.2</ele>
        <time>2008-01-20T05:28:49Z</time>
      </trkpt>
      <trkpt lat="48.58075" lon="-3.8312">
        <ele>10.2</ele>
        <time>2008-01-20T05:32:47Z</time>
      </trkpt>
      <trkpt lat="48.57994" lon="-3.83039">
        <ele>10.4</ele>
        <time>2008-01-20T05:33:34Z</time>
      </trkpt>
      <trkpt lat="48.57908" lon="-3.82984">
        <ele>11.3</ele>
        <time>2008-01-20T05:34:00Z</time>
      </trkpt>
      <trkpt lat="48.57836" lon="-3.82925">
        <ele>5.3</ele>
        <time>2008-01-20T05:38:57Z</time>
      </trkpt>
      <trkpt lat="48.57789" lon="-3.82821">
        <ele>21.7</ele>
        <time>2008-01-20T05:40:48Z</time>
      </trkpt>
      <trkpt lat="48.57767" lon="-3.82709">
        <ele>7.4</ele>
        <time>2008-01-20T05:48:46Z</time>
      </trkpt>
      <trkpt lat="48.57724" lon="-3.82551">
        <ele>18.1</ele>
        <time>2008-01-20T05:51:20Z</time>
      </trkpt>
      <trkpt lat="48.57705" lon="-3.82416">
        <ele>23.25</ele>
        <time>2008-01-20T05:54:32Z</time>
      </trkpt>
      <trkpt lat="48.5768" lon="-3.82283">
        <ele>29.85</ele>
        <time>2008-01-20T05:56:41Z</time>
      </trkpt>
      <trkpt lat="48.57678" lon="-3.82155">
        <ele>38.7</ele>
        <time>2008-01-20T05:59:00Z</time>
      </trkpt>
      <trkpt lat="48.57698" lon="-3.82021">
        <ele>52.4</ele>
        <time>2008-01-20T06:00:32Z</time>
      </trkpt>
      <trkpt lat="48.57725" lon="-3.81892">
        <ele>61.2</ele>
        <time>2008-01-20T06:01:32Z</time>
      </trkpt>
      <trkpt lat="48.57778" lon="-3.81776">
        <ele>67.8</ele>
        <time>2008-01-20T06:02:33Z</time>
      </trkpt>
      <trkpt lat="48.57725" lon="-3.8167">
        <ele>71.58</ele>
        <time>2008-01-20T06:14:46Z</time>
      </trkpt>
      <trkpt lat="48.57652" lon="-3.81582">
        <ele>65.6</ele>
        <time>2008-01-20T06:16:12Z</time>
      </trkpt>
      <trkpt lat="48.57572" lon="-3.81505">
        <ele>61.9</ele>
        <time>2008-01-20T06:16:54Z</time>
      </trkpt>
      <trkpt lat="48.57504" lon="-3.81416">
        <ele>60.4</ele>
        <time>2008-01-20T06:17:15Z</time>
      </trkpt>
      <trkpt lat="48.57453" lon="-3.81293">
        <ele>66.92</ele>
        <time>2008-01-20T06:17:37Z</time>
      </trkpt>
      <trkpt lat="48.574" lon="-3.81169">
        <ele>60.7</ele>
        <time>2008-01-20T06:17:45Z</time>
      </trkpt>
      <trkpt lat="48.57332" lon="-3.81076">
        <ele>65.65</ele>
        <time>2008-01-20T06:19:34Z</time>
      </trkpt>
      <trkpt lat="48.57253" lon="-3.81">
        <ele>62.9</ele>
        <time>2008-01-20T06:20:02Z</time>
      </trkpt>
      <trkpt lat="48.57182" lon="-3.80913">
        <ele>60.7</ele>
        <time>2008-01-20T06:20:42Z</time>
      </trkpt>
      <trkpt lat="48.57133" lon="-3.80792">
        <ele>55</ele>
        <time>2008-01-20T06:21:25Z</time>
      </trkpt>
      <trkpt lat="48.57123" lon="-3.80658">
        <ele>46</ele>
        <time>2008-01-20T06:23:03Z</time>
      </trkpt>
      <trkpt lat="48.57124" lon="-3.80516">
        <ele>42.5</ele>
        <time>2008-01-20T06:23:47Z</time>
      </trkpt>
      <trkpt lat="48.57097" lon="-3.80387">
        <ele>46.8</ele>
        <time>2008-01-20T06:24:03Z</time>
      </trkpt>
      <trkpt lat="48.57046" lon="-3.80275">
        <ele>44.3</ele>
        <time>2008-01-20T06:25:01Z</time>
      </trkpt>
      <trkpt lat="48.56976" lon="-3.80191">
        <ele>46.4</ele>
        <time>2008-01-20T06:25:48Z</time>
      </trkpt>
      <trkpt lat="48.56895" lon="-3.80129">
        <ele>41</ele>
        <time>2008-01-20T06:26:08Z</time>
      </trkpt>
      <trkpt lat="48.5681" lon="-3.80062">
        <ele>35.9</ele>
        <time>2008-01-20T06:27:10Z</time>
      </trkpt>
      <trkpt lat="48.5673" lon="-3.79997">
        <ele>41.4</ele>
        <time>2008-01-20T06:27:47Z</time>
      </trkpt>
      <trkpt lat="48.56656" lon="-3.79926">
        <ele>27</ele>
        <time>2012-02-13T04:12:27Z</time>
      </trkpt>
      <trkpt lat="48.56551" lon="-3.79909">
        <ele>24.6</ele>
      </trkpt>
      <trkpt lat="48.56442" lon="-3.79821">
        <ele>27.7</ele>
      </trkpt>
      <trkpt lat="48.563" lon="-3.79771">
        <ele>30</ele>
        <time>2012-02-13T04:14:30Z</time>
      </trkpt>
      <trkpt lat="48.56162" lon="-3.7974">
        <ele>32</ele>
        <time>2012-02-13T04:14:30Z</time>
      </trkpt>
      <trkpt lat="48.56074" lon="-3.79694">
        <ele>28.7</ele>
      </trkpt>
      <trkpt lat="48.56" lon="-3.79601">
        <ele>29.9</ele>
      </trkpt>
      <trkpt lat="48.55944" lon="-3.79483">
        <ele>32.2</ele>
      </trkpt>
      <trkpt lat="48.5588" lon="-3.79378">
        <ele>36.5</ele>
      </trkpt>
      <trkpt lat="48.55803" lon="-3.79299">
        <ele>35.3</ele>
      </trkpt>
      <trkpt lat="48.55714" lon="-3.79216">
        <ele>38.8</ele>
      </trkpt>
      <trkpt lat="48.55646" lon="-3.79126">
        <ele>39.5</ele>
      </trkpt>
      <trkpt lat="48.55581" lon="-3.78998">
        <ele>44.9</ele>
      </trkpt>
      <trkpt lat="48.55518" lon="-3.78867">
        <ele>45.8</ele>
      </trkpt>
      <trkpt lat="48.55426" lon="-3.78735">
        <ele>49.2</ele>
      </trkpt>
      <trkpt lat="48.5535" lon="-3.78628">
        <ele>47.2</ele>
      </trkpt>
      <trkpt lat="48.55282" lon="-3.78536">
        <ele>52</ele>
      </trkpt>
      <trkpt lat="48.55233" lon="-3.7842">
        <ele>61</ele>
      </trkpt>
      <trkpt lat="48.55194" lon="-3.78295">
        <ele>57.7</ele>
      </trkpt>
      <trkpt lat="48.5515" lon="-3.7816">
        <ele>59.5</ele>
      </trkpt>
      <trkpt lat="48.55086" lon="-3.78057">
        <ele>63.2</ele>
      </trkpt>
      <trkpt lat="48.55012" lon="-3.77962">
        <ele>61.3</ele>
      </trkpt>
      <trkpt lat="48.54938" lon="-3.77882">
        <ele>70</ele>
      </trkpt>
      <trkpt lat="48.54867" lon="-3.77798">
        <ele>73.5</ele>
      </trkpt>
      <trkpt lat="48.54793" lon="-3.77712">
        <ele>71</ele>
      </trkpt>
      <trkpt lat="48.54727" lon="-3.77609">
        <ele>72.3</ele>
      </trkpt>
      <trkpt lat="48.54671" lon="-3.77499">
        <ele>74.1</ele>
      </trkpt>
      <trkpt lat="48.54621" lon="-3.7737">
        <ele>78.4</ele>
      </trkpt>
      <trkpt lat="48.54567" lon="-3.77251">
        <ele>83.2</ele>
      </trkpt>
      <trkpt lat="48.54474" lon="-3.77164">
        <ele>81.9</ele>
      </trkpt>
      <trkpt lat="48.54389" lon="-3.77105">
        <ele>83.2</ele>
      </trkpt>
      <trkpt lat="48.54306" lon="-3.77049">
        <ele>84.7</ele>
      </trkpt>
      <trkpt lat="48.54214" lon="-3.76991">
        <ele>87</ele>
        <time>2012-02-13T04:21:37Z</time>
      </trkpt>
      <trkpt lat="48.54124" lon="-3.76926">
        <ele>85.4</ele>
      </trkpt>
      <trkpt lat="48.54063" lon="-3.76813">
        <ele>85.9</ele>
      </trkpt>
      <trkpt lat="48.54038" lon="-3.76678">
        <ele>86.6</ele>
      </trkpt>
      <trkpt lat="48.53992" lon="-3.76558">
        <ele>84.7</ele>
      </trkpt>
      <trkpt lat="48.53905" lon="-3.76492">
        <ele>85.7</ele>
      </trkpt>
      <trkpt lat="48.53813" lon="-3.76476">
        <ele>88.8</ele>
      </trkpt>
      <trkpt lat="48.5372" lon="-3.76452">
        <ele>88.6</ele>
      </trkpt>
      <trkpt lat="48.53637" lon="-3.76385">
        <ele>86.7</ele>
      </trkpt>
      <trkpt lat="48.53562" lon="-3.7631">
        <ele>81.6</ele>
      </trkpt>
      <trkpt lat="48.53465" lon="-3.76295">
        <ele>87.8</ele>
      </trkpt>
      <trkpt lat="48.53374" lon="-3.76335">
        <ele>94.5</ele>
      </trkpt>
      <trkpt lat="48.53279" lon="-3.76373">
        <ele>95.5</ele>
      </trkpt>
      <trkpt lat="48.53192" lon="-3.76345">
        <ele>94.2</ele>
      </trkpt>
      <trkpt lat="48.5311" lon="-3.76273">
        <ele>97.3</ele>
      </trkpt>
      <trkpt lat="48.5302" lon="-3.76217">
        <ele>101.6</ele>
      </trkpt>
      <trkpt lat="48.52928" lon="-3.76243">
        <ele>102.9</ele>
      </trkpt>
      <trkpt lat="48.52855" lon="-3.76333">
        <ele>105.5</ele>
      </trkpt>
      <trkpt lat="48.52774" lon="-3.76434">
        <ele>107.9</ele>
      </trkpt>
      <trkpt lat="48.52688" lon="-3.76485">
        <ele>108.2</ele>
      </trkpt>
      <trkpt lat="48.52589" lon="-3.76533">
        <ele>107.7</ele>
      </trkpt>
      <trkpt lat="48.52498" lon="-3.7658">
        <ele>113.2</ele>
      </trkpt>
      <trkpt lat="48.52407" lon="-3.76614">
        <ele>115.4</ele>
      </trkpt>
      <trkpt lat="48.52301" lon="-3.76548">
        <ele>116.3</ele>
      </trkpt>
      <trkpt lat="48.52222" lon="-3.76503">
        <ele>115.8</ele>
      </trkpt>
      <trkpt lat="48.5212" lon="-3.76427">
        <ele>114</ele>
      </trkpt>
      <trkpt lat="48.5204" lon="-3.76363">
        <ele>113.9</ele>
      </trkpt>
      <trkpt lat="48.51951" lon="-3.76326">
        <ele>115</ele>
      </trkpt>
      <trkpt lat="48.51855" lon="-3.76311">
        <ele>117.2</ele>
      </trkpt>
      <trkpt lat="48.51765" lon="-3.76302">
        <ele>118.1</ele>
      </trkpt>
      <trkpt lat="48.51667" lon="-3.76289">
        <ele>119.4</ele>
      </trkpt>
      <trkpt lat="48.5157" lon="-3.7624">
        <ele>120.4</ele>
      </trkpt>
      <trkpt lat="48.5149" lon="-3.76157">
        <ele>120.7</ele>
      </trkpt>
      <trkpt lat="48.51404" lon="-3.76068">
        <ele>120</ele>
      </trkpt>
      <trkpt lat="48.51326" lon="-3.7598">
        <ele>123.3</ele>
      </trkpt>
      <trkpt lat="48.51253" lon="-3.75897">
        <ele>125.7</ele>
      </trkpt>
      <trkpt lat="48.51184" lon="-3.75807">
        <ele>128.7</ele>
      </trkpt>
      <trkpt lat="48.51091" lon="-3.75712">
        <ele>124.3</ele>
      </trkpt>
      <trkpt lat="48.50998" lon="-3.75651">
        <ele>124.7</ele>
      </trkpt>
      <trkpt lat="48.50905" lon="-3.75591">
        <ele>127.6</ele>
      </trkpt>
      <trkpt lat="48.50809" lon="-3.7555">
        <ele>137</ele>
      </trkpt>
      <trkpt lat="48.50717" lon="-3.75512">
        <ele>142.6</ele>
      </trkpt>
      <trkpt lat="48.50626" lon="-3.75495">
        <ele>143.2</ele>
      </trkpt>
      <trkpt lat="48.50525" lon="-3.75509">
        <ele>141</ele>
      </trkpt>
      <trkpt lat="48.50424" lon="-3.75552">
        <ele>142.6</ele>
      </trkpt>
      <trkpt lat="48.50336" lon="-3.75601">
        <ele>150.3</ele>
      </trkpt>
      <trkpt lat="48.50249" lon="-3.75644">
        <ele>155.2</ele>
      </trkpt>
      <trkpt lat="48.50142" lon="-3.7569">
        <ele>155.1</ele>
      </trkpt>
      <trkpt lat="48.50033" lon="-3.75695">
        <ele>155</ele>
      </trkpt>
      <trkpt lat="48.49932" lon="-3.7568">
        <ele>157</ele>
      </trkpt>
      <trkpt lat="48.49835" lon="-3.75664">
        <ele>154.5</ele>
      </trkpt>
      <trkpt lat="48.49738" lon="-3.75669">
        <ele>152.5</ele>
      </trkpt>
      <trkpt lat="48.49644" lon="-3.75699">
        <ele>154.4</ele>
      </trkpt>
      <trkpt lat="48.49548" lon="-3.75728">
        <ele>160.8</ele>
      </trkpt>
      <trkpt lat="48.49451" lon="-3.75751">
        <ele>158.8</ele>
      </trkpt>
      <trkpt lat="48.49352" lon="-3.75745">
        <ele>160.7</ele>
      </trkpt>
      <trkpt lat="48.49253" lon="-3.75722">
        <ele>164.9</ele>
      </trkpt>
      <trkpt lat="48.49153" lon="-3.75697">
        <ele>165.3</ele>
      </trkpt>
      <trkpt lat="48.49045" lon="-3.75692">
        <ele>169</ele>
      </trkpt>
      <trkpt lat="48.48945" lon="-3.75722">
        <ele>171.1</ele>
      </trkpt>
      <trkpt lat="48.48863" lon="-3.75783">
        <ele>174.3</ele>
      </trkpt>
      <trkpt lat="48.48778" lon="-3.75857">
        <ele>178.3</ele>
      </trkpt>
      <trkpt lat="48.48682" lon="-3.75906">
        <ele>175.9</ele>
      </trkpt>
      <trkpt lat="48.48583" lon="-3.75924">
        <ele>176.7</ele>
      </trkpt>
      <trkpt lat="48.4849" lon="-3.75905">
        <ele>178.1</ele>
      </trkpt>
      <trkpt lat="48.48408" lon="-3.75848">
        <ele>180.1</ele>
      </trkpt>
      <trkpt lat="48.48313" lon="-3.75781">
        <ele>182.4</ele>
      </trkpt>
      <trkpt lat="48.48223" lon="-3.75719">
        <ele>183</ele>
      </trkpt>
      <trkpt lat="48.48136" lon="-3.75661">
        <ele>188</ele>
      </trkpt>
      <trkpt lat="48.48052" lon="-3.75577">
        <ele>187.4</ele>
      </trkpt>
      <trkpt lat="48.47977" lon="-3.7546">
        <ele>192.1</ele>
      </trkpt>
      <trkpt lat="48.47917" lon="-3.75345">
        <ele>199</ele>
      </trkpt>
      <trkpt lat="48.4785" lon="-3.75229">
        <ele>200</ele>
      </trkpt>
      <trkpt lat="48.47768" lon="-3.75136">
        <ele>198.3</ele>
      </trkpt>
      <trkpt lat="48.47667" lon="-3.75065">
        <ele>197.3</ele>
      </trkpt>
      <trkpt lat="48.47572" lon="-3.75027">
        <ele>202.8</ele>
      </trkpt>
      <trkpt lat="48.47483" lon="-3.75001">
        <ele>209.3</ele>
      </trkpt>
      <trkpt lat="48.47379" lon="-3.74992">
        <ele>211.7</ele>
      </trkpt>
      <trkpt lat="48.47288" lon="-3.75001">
        <ele>211.7</ele>
      </trkpt>
      <trkpt lat="48.47196" lon="-3.75018">
        <ele>212.7</ele>
      </trkpt>
      <trkpt lat="48.47093" lon="-3.75027">
        <ele>214</ele>
      </trkpt>
      <trkpt lat="48.46993" lon="-3.75026">
        <ele>215</ele>
      </trkpt>
      <trkpt lat="48.46901" lon="-3.75007">
        <ele>215.3</ele>
      </trkpt>
      <trkpt lat="48.46814" lon="-3.74931">
        <ele>214.8</ele>
      </trkpt>
      <trkpt lat="48.46741" lon="-3.74826">
        <ele>216.2</ele>
      </trkpt>
      <trkpt lat="48.46669" lon="-3.74737">
        <ele>218</ele>
      </trkpt>
      <trkpt lat="48.46601" lon="-3.74649">
        <ele>220.5</ele>
      </trkpt>
      <trkpt lat="48.46543" lon="-3.74514">
        <ele>223.2</ele>
      </trkpt>
      <trkpt lat="48.46516" lon="-3.74369">
        <ele>221.1</ele>
      </trkpt>
      <trkpt lat="48.46511" lon="-3.74219">
        <ele>215.8</ele>
      </trkpt>
      <trkpt lat="48.4653" lon="-3.74071">
        <ele>209.5</ele>
      </trkpt>
      <trkpt lat="48.46569" lon="-3.73929">
        <ele>206.3</ele>
      </trkpt>
      <trkpt lat="48.46608" lon="-3.73791">
        <ele>206.1</ele>
      </trkpt>
      <trkpt lat="48.46634" lon="-3.73642">
        <ele>204.5</ele>
      </trkpt>
      <trkpt lat="48.46655" lon="-3.73508">
        <ele>202.5</ele>
      </trkpt>
      <trkpt lat="48.46674" lon="-3.73342">
        <ele>196.7</ele>
      </trkpt>
      <trkpt lat="48.46676" lon="-3.7319">
        <ele>196.7</ele>
      </trkpt>
      <trkpt lat="48.46664" lon="-3.73051">
        <ele>193.8</ele>
      </trkpt>
      <trkpt lat="48.46647" lon="-3.72908">
        <ele>188.7</ele>
      </trkpt>
      <trkpt lat="48.46619" lon="-3.72777">
        <ele>190.6</ele>
      </trkpt>
      <trkpt lat="48.46581" lon="-3.72631">
        <ele>193.2</ele>
      </trkpt>
      <trkpt lat="48.4654" lon="-3.72501">
        <ele>193</ele>
      </trkpt>
      <trkpt lat="48.46502" lon="-3.72362">
        <ele>183.1</ele>
      </trkpt>
      <trkpt lat="48.46435" lon="-3.72255">
        <ele>176.1</ele>
      </trkpt>
      <trkpt lat="48.46345" lon="-3.72214">
        <ele>174.2</ele>
      </trkpt>
      <trkpt lat="48.46252" lon="-3.72246">
        <ele>175.3</ele>
      </trkpt>
      <trkpt lat="48.46168" lon="-3.72327">
        <ele>170.5</ele>
      </trkpt>
      <trkpt lat="48.46093" lon="-3.72421">
        <ele>167.4</ele>
      </trkpt>
      <trkpt lat="48.46004" lon="-3.72481">
        <ele>165.8</ele>
      </trkpt>
      <trkpt lat="48.45897" lon="-3.72496">
        <ele>163.9</ele>
      </trkpt>
      <trkpt lat="48.45786" lon="-3.72486">
        <ele>162.8</ele>
      </trkpt>
      <trkpt lat="48.45692" lon="-3.72473">
        <ele>163.8</ele>
      </trkpt>
      <trkpt lat="48.45603" lon="-3.7243">
        <ele>161.9</ele>
      </trkpt>
      <trkpt lat="48.45519" lon="-3.72376">
        <ele>159.5</ele>
      </trkpt>
      <trkpt lat="48.45426" lon="-3.72324">
        <ele>157.3</ele>
      </trkpt>
      <trkpt lat="48.45328" lon="-3.72307">
        <ele>158</ele>
      </trkpt>
      <trkpt lat="48.45244" lon="-3.72358">
        <ele>158.8</ele>
      </trkpt>
      <trkpt lat="48.45172" lon="-3.72459">
        <ele>158.6</ele>
      </trkpt>
      <trkpt lat="48.45091" lon="-3.72572">
        <ele>154.4</ele>
      </trkpt>
      <trkpt lat="48.45008" lon="-3.7265">
        <ele>151.5</ele>
      </trkpt>
      <trkpt lat="48.4492" lon="-3.72662">
        <ele>151.5</ele>
      </trkpt>
      <trkpt lat="48.44835" lon="-3.72615">
        <ele>150.8</ele>
      </trkpt>
      <trkpt lat="48.44761" lon="-3.72533">
        <ele>149.6</ele>
      </trkpt>
      <trkpt lat="48.44692" lon="-3.72444">
        <ele>148.8</ele>
      </trkpt>
      <trkpt lat="48.44613" lon="-3.72363">
        <ele>146</ele>
      </trkpt>
      <trkpt lat="48.44521" lon="-3.72322">
        <ele>148.3</ele>
      </trkpt>
      <trkpt lat="48.44433" lon="-3.72282">
        <ele>145.9</ele>
      </trkpt>
      <trkpt lat="48.4434" lon="-3.72242">
        <ele>145.8</ele>
      </trkpt>
      <trkpt lat="48.44248" lon="-3.72203">
        <ele>145.5</ele>
      </trkpt>
      <trkpt lat="48.44159" lon="-3.72169">
        <ele>143.3</ele>
      </trkpt>
      <trkpt lat="48.4407" lon="-3.72157">
        <ele>141</ele>
      </trkpt>
      <trkpt lat="48.43979" lon="-3.72193">
        <ele>138.1</ele>
      </trkpt>
      <trkpt lat="48.43911" lon="-3.72288">
        <ele>138.9</ele>
      </trkpt>
      <trkpt lat="48.43848" lon="-3.72389">
        <ele>139.4</ele>
      </trkpt>
      <trkpt lat="48.43777" lon="-3.72509">
        <ele>135.7</ele>
      </trkpt>
      <trkpt lat="48.43715" lon="-3.72611">
        <ele>136.3</ele>
      </trkpt>
      <trkpt lat="48.43637" lon="-3.72729">
        <ele>135.8</ele>
      </trkpt>
      <trkpt lat="48.43564" lon="-3.72829">
        <ele>131.5</ele>
      </trkpt>
      <trkpt lat="48.43471" lon="-3.72864">
        <ele>128.9</ele>
      </trkpt>
      <trkpt lat="48.43374" lon="-3.72833">
        <ele>130.5</ele>
      </trkpt>
      <trkpt lat="48.43288" lon="-3.72787">
        <ele>129.1</ele>
      </trkpt>
      <trkpt lat="48.4319" lon="-3.72768">
        <ele>127.7</ele>
      </trkpt>
      <trkpt lat="48.43087" lon="-3.72783">
        <ele>126.8</ele>
      </trkpt>
      <trkpt lat="48.42994" lon="-3.72754">
        <ele>127</ele>
      </trkpt>
      <trkpt lat="48.42917" lon="-3.7268">
        <ele>125</ele>
      </trkpt>
      <trkpt lat="48.42832" lon="-3.72601">
        <ele>124.4</ele>
      </trkpt>
      <trkpt lat="48.42755" lon="-3.72524">
        <ele>124.1</ele>
      </trkpt>
      <trkpt lat="48.42684" lon="-3.7241">
        <ele>124.7</ele>
      </trkpt>
      <trkpt lat="48.42659" lon="-3.72268">
        <ele>123.9</ele>
      </trkpt>
      <trkpt lat="48.42636" lon="-3.72121">
        <ele>125.1</ele>
      </trkpt>
      <trkpt lat="48.42594" lon="-3.71991">
        <ele>126.1</ele>
      </trkpt>
      <trkpt lat="48.42521" lon="-3.71887">
        <ele>122.6</ele>
      </trkpt>
      <trkpt lat="48.42435" lon="-3.71824">
        <ele>122.4</ele>
      </trkpt>
      <trkpt lat="48.42342" lon="-3.71784">
        <ele>122</ele>
      </trkpt>
      <trkpt lat="48.42246" lon="-3.71745">
        <ele>121.2</ele>
      </trkpt>
      <trkpt lat="48.42151" lon="-3.71719">
        <ele>116.1</ele>
      </trkpt>
      <trkpt lat="48.42053" lon="-3.71681">
        <ele>116.6</ele>
      </trkpt>
      <trkpt lat="48.4196" lon="-3.71639">
        <ele>119.5</ele>
      </trkpt>
      <trkpt lat="48.41863" lon="-3.71647">
        <ele>120</ele>
      </trkpt>
      <trkpt lat="48.41772" lon="-3.7164">
        <ele>118.5</ele>
      </trkpt>
      <trkpt lat="48.41702" lon="-3.71547">
        <ele>120.2</ele>
      </trkpt>
      <trkpt lat="48.4165" lon="-3.71425">
        <ele>119.2</ele>
      </trkpt>
      <trkpt lat="48.41602" lon="-3.71301">
        <ele>119</ele>
      </trkpt>
      <trkpt lat="48.41545" lon="-3.71184">
        <ele>117.6</ele>
      </trkpt>
      <trkpt lat="48.41473" lon="-3.71078">
        <ele>116.8</ele>
      </trkpt>
      <trkpt lat="48.41412" lon="-3.70976">
        <ele>117</ele>
      </trkpt>
      <trkpt lat="48.41381" lon="-3.70846">
        <ele>116.3</ele>
      </trkpt>
      <trkpt lat="48.4136" lon="-3.70707">
        <ele>115.4</ele>
      </trkpt>
      <trkpt lat="48.41339" lon="-3.70572">
        <ele>116.2</ele>
      </trkpt>
      <trkpt lat="48.41304" lon="-3.70438">
        <ele>113.9</ele>
      </trkpt>
      <trkpt lat="48.41255" lon="-3.70302">
        <ele>114</ele>
      </trkpt>
      <trkpt lat="48.41192" lon="-3.70163">
        <ele>113.7</ele>
      </trkpt>
      <trkpt lat="48.41132" lon="-3.69991">
        <ele>111</ele>
      </trkpt>
      <trkpt lat="48.41094" lon="-3.69839">
        <ele>112</ele>
      </trkpt>
      <trkpt lat="48.41048" lon="-3.69681">
        <ele>113.7</ele>
      </trkpt>
      <trkpt lat="48.40979" lon="-3.69587">
        <ele>112.3</ele>
      </trkpt>
      <trkpt lat="48.40861" lon="-3.69492">
        <ele>110.6</ele>
      </trkpt>
      <trkpt lat="48.40764" lon="-3.69397">
        <ele>110.2</ele>
      </trkpt>
      <trkpt lat="48.40712" lon="-3.69231">
        <ele>108.3</ele>
      </trkpt>
      <trkpt lat="48.40688" lon="-3.69094">
        <ele>107.2</ele>
      </trkpt>
      <trkpt lat="48.40631" lon="-3.6896">
        <ele>105.3</ele>
      </trkpt>
      <trkpt lat="48.40518" lon="-3.68894">
        <ele>106.8</ele>
      </trkpt>
      <trkpt lat="48.40406" lon="-3.68871">
        <ele>107.5</ele>
      </trkpt>
      <trkpt lat="48.40304" lon="-3.6882">
        <ele>108.5</ele>
      </trkpt>
      <trkpt lat="48.40189" lon="-3.68748">
        <ele>107.1</ele>
      </trkpt>
      <trkpt lat="48.40078" lon="-3.68737">
        <ele>107.4</ele>
      </trkpt>
      <trkpt lat="48.39962" lon="-3.6868">
        <ele>106.4</ele>
      </trkpt>
      <trkpt lat="48.39855" lon="-3.6859">
        <ele>105.2</ele>
      </trkpt>
      <trkpt lat="48.39769" lon="-3.6854">
        <ele>103.2</ele>
      </trkpt>
      <trkpt lat="48.39655" lon="-3.68497">
        <ele>105.1</ele>
      </trkpt>
      <trkpt lat="48.39569" lon="-3.68443">
        <ele>103.9</ele>
      </trkpt>
      <trkpt lat="48.39477" lon="-3.68409">
        <ele>104.5</ele>
      </trkpt>
      <trkpt lat="48.39365" lon="-3.68409">
        <ele>99</ele>
      </trkpt>
      <trkpt lat="48.39268" lon="-3.68456">
        <ele>100.5</ele>
      </trkpt>
      <trkpt lat="48.39176" lon="-3.685">
        <ele>99.3</ele>
      </trkpt>
      <trkpt lat="48.39083" lon="-3.68543">
        <ele>98.7</ele>
      </trkpt>
      <trkpt lat="48.38982" lon="-3.68638">
        <ele>99.9</ele>
      </trkpt>
      <trkpt lat="48.3887" lon="-3.68743">
        <ele>97.3</ele>
      </trkpt>
      <trkpt lat="48.38765" lon="-3.68839">
        <ele>99.6</ele>
      </trkpt>
      <trkpt lat="48.38679" lon="-3.68882">
        <ele>97.8</ele>
      </trkpt>
      <trkpt lat="48.38538" lon="-3.68886">
        <ele>98.6</ele>
      </trkpt>
      <trkpt lat="48.38388" lon="-3.68876">
        <ele>97</ele>
      </trkpt>
      <trkpt lat="48.38248" lon="-3.6886">
        <ele>96</ele>
      </trkpt>
      <trkpt lat="48.3814" lon="-3.68847">
        <ele>97</ele>
      </trkpt>
      <trkpt lat="48.38028" lon="-3.68829">
        <ele>96</ele>
      </trkpt>
      <trkpt lat="48.37889" lon="-3.68769">
        <ele>95</ele>
      </trkpt>
      <trkpt lat="48.37751" lon="-3.68697">
        <ele>95</ele>
      </trkpt>
      <trkpt lat="48.37598" lon="-3.68617">
        <ele>95.1</ele>
      </trkpt>
      <trkpt lat="48.37477" lon="-3.68557">
        <ele>93.1</ele>
      </trkpt>
      <trkpt lat="48.37362" lon="-3.68497">
        <ele>94.7</ele>
      </trkpt>
      <trkpt lat="48.37293" lon="-3.68398">
        <ele>95.6</ele>
      </trkpt>
      <trkpt lat="48.37224" lon="-3.682">
        <ele>89.9</ele>
      </trkpt>
      <trkpt lat="48.37155" lon="-3.6809">
        <ele>96.8</ele>
      </trkpt>
      <trkpt lat="48.37044" lon="-3.6804">
        <ele>88.5</ele>
      </trkpt>
      <trkpt lat="48.3693" lon="-3.68128">
        <ele>90.9</ele>
      </trkpt>
      <trkpt lat="48.3686" lon="-3.68221">
        <ele>89.9</ele>
      </trkpt>
      <trkpt lat="48.36779" lon="-3.68322">
        <ele>88.6</ele>
      </trkpt>
      <trkpt lat="48.36702" lon="-3.68422">
        <ele>91.4</ele>
      </trkpt>
      <trkpt lat="48.36616" lon="-3.68466">
        <ele>88.9</ele>
      </trkpt>
      <trkpt lat="48.36485" lon="-3.68527">
        <ele>89</ele>
      </trkpt>
      <trkpt lat="48.36379" lon="-3.68584">
        <ele>89.4</ele>
      </trkpt>
      <trkpt lat="48.36285" lon="-3.68617">
        <ele>89.6</ele>
      </trkpt>
      <trkpt lat="48.36177" lon="-3.68612">
        <ele>91.2</ele>
      </trkpt>
      <trkpt lat="48.36064" lon="-3.68577">
        <ele>93.3</ele>
      </trkpt>
      <trkpt lat="48.3594" lon="-3.68526">
        <ele>97</ele>
      </trkpt>
      <trkpt lat="48.35842" lon="-3.68453">
        <ele>85.6</ele>
      </trkpt>
      <trkpt lat="48.35762" lon="-3.68389">
        <ele>88.3</ele>
      </trkpt>
      <trkpt lat="48.35649" lon="-3.68315">
        <ele>87.6</ele>
      </trkpt>
      <trkpt lat="48.35523" lon="-3.6831">
        <ele>85.1</ele>
      </trkpt>
      <trkpt lat="48.35423" lon="-3.68343">
        <ele>85.6</ele>
      </trkpt>
      <trkpt lat="48.35313" lon="-3.68385">
        <ele>86</ele>
      </trkpt>
      <trkpt lat="48.35224" lon="-3.68402">
        <ele>86</ele>
      </trkpt>
      <trkpt lat="48.35094" lon="-3.68399">
        <ele>86.1</ele>
      </trkpt>
      <trkpt lat="48.34975" lon="-3.68417">
        <ele>84.2</ele>
      </trkpt>
      <trkpt lat="48.3487" lon="-3.68435">
        <ele>86.4</ele>
      </trkpt>
      <trkpt lat="48.3478" lon="-3.68429">
        <ele>87.6</ele>
      </trkpt>
      <trkpt lat="48.34674" lon="-3.68407">
        <ele>95.7</ele>
      </trkpt>
      <trkpt lat="48.34561" lon="-3.68347">
        <ele>101.1</ele>
      </trkpt>
      <trkpt lat="48.34477" lon="-3.68256">
        <ele>96.6</ele>
      </trkpt>
      <trkpt lat="48.34373" lon="-3.68178">
        <ele>91.5</ele>
      </trkpt>
      <trkpt lat="48.34224" lon="-3.68114">
        <ele>93.6</ele>
      </trkpt>
      <trkpt lat="48.34152" lon="-3.68017">
        <ele>81.7</ele>
      </trkpt>
      <trkpt lat="48.34115" lon="-3.67882">
        <ele>85.1</ele>
      </trkpt>
      <trkpt lat="48.34109" lon="-3.67705">
        <ele>92.2</ele>
      </trkpt>
      <trkpt lat="48.34146" lon="-3.67564">
        <ele>90.8</ele>
      </trkpt>
      <trkpt lat="48.34215" lon="-3.67429">
        <ele>92.8</ele>
      </trkpt>
      <trkpt lat="48.34257" lon="-3.67308">
        <ele>98.3</ele>
      </trkpt>
      <trkpt lat="48.3428" lon="-3.67122">
        <ele>99.5</ele>
      </trkpt>
      <trkpt lat="48.34288" lon="-3.66953">
        <ele>106.3</ele>
      </trkpt>
      <trkpt lat="48.34319" lon="-3.66793">
        <ele>105.6</ele>
      </trkpt>
      <trkpt lat="48.34296" lon="-3.66638">
        <ele>104.4</ele>
      </trkpt>
      <trkpt lat="48.34284" lon="-3.66494">
        <ele>110.4</ele>
      </trkpt>
      <trkpt lat="48.34289" lon="-3.66357">
        <ele>111.8</ele>
      </trkpt>
      <trkpt lat="48.34293" lon="-3.66222">
        <ele>111.5</ele>
      </trkpt>
      <trkpt lat="48.34298" lon="-3.66082">
        <ele>115</ele>
      </trkpt>
      <trkpt lat="48.34274" lon="-3.65925">
        <ele>122.5</ele>
      </trkpt>
      <trkpt lat="48.34223" lon="-3.65784">
        <ele>122.5</ele>
      </trkpt>
      <trkpt lat="48.34171" lon="-3.65643">
        <ele>123.4</ele>
      </trkpt>
      <trkpt lat="48.34062" lon="-3.65559">
        <ele>128.1</ele>
      </trkpt>
      <trkpt lat="48.33989" lon="-3.65477">
        <ele>128.9</ele>
      </trkpt>
      <trkpt lat="48.33957" lon="-3.65336">
        <ele>124.5</ele>
      </trkpt>
      <trkpt lat="48.33983" lon="-3.65144">
        <ele>131.5</ele>
      </trkpt>
      <trkpt lat="48.34" lon="-3.64939">
        <ele>136.2</ele>
      </trkpt>
      <trkpt lat="48.33965" lon="-3.64803">
        <ele>138.8</ele>
      </trkpt>
      <trkpt lat="48.33899" lon="-3.64696">
        <ele>142.9</ele>
      </trkpt>
      <trkpt lat="48.33813" lon="-3.64595">
        <ele>144.4</ele>
      </trkpt>
      <trkpt lat="48.33736" lon="-3.64497">
        <ele>144.2</ele>
      </trkpt>
      <trkpt lat="48.33683" lon="-3.64335">
        <ele>147.7</ele>
      </trkpt>
      <trkpt lat="48.33681" lon="-3.64197">
        <ele>156.4</ele>
        <time>2012-01-31T09:19:44Z</time>
      </trkpt>
      <trkpt lat="48.3369" lon="-3.64056">
        <ele>159.1</ele>
        <time>2012-01-31T09:20:56Z</time>
      </trkpt>
      <trkpt lat="48.33695" lon="-3.6392">
        <ele>161.8</ele>
        <time>2012-01-31T09:21:34Z</time>
      </trkpt>
      <trkpt lat="48.33667" lon="-3.63793">
        <ele>165.8</ele>
        <time>2012-01-31T09:24:04Z</time>
      </trkpt>
      <trkpt lat="48.33617" lon="-3.63676">
        <ele>167.6</ele>
        <time>2012-01-31T09:24:37Z</time>
      </trkpt>
      <trkpt lat="48.33555" lon="-3.63582">
        <ele>165.6</ele>
        <time>2012-01-31T09:25:08Z</time>
      </trkpt>
      <trkpt lat="48.33514" lon="-3.63464">
        <ele>168.8</ele>
        <time>2012-01-31T09:26:42Z</time>
      </trkpt>
      <trkpt lat="48.33475" lon="-3.63337">
        <ele>165.2</ele>
        <time>2012-01-31T09:27:42Z</time>
      </trkpt>
      <trkpt lat="48.33425" lon="-3.63216">
        <ele>167.9</ele>
        <time>2012-01-31T09:28:08Z</time>
      </trkpt>
      <trkpt lat="48.33378" lon="-3.63101">
        <ele>171.23</ele>
        <time>2012-01-31T09:28:37Z</time>
      </trkpt>
      <trkpt lat="48.33314" lon="-3.63007">
        <ele>168.1</ele>
        <time>2012-01-31T09:29:04Z</time>
      </trkpt>
      <trkpt lat="48.33246" lon="-3.62917">
        <ele>165.2</ele>
        <time>2012-01-31T09:31:09Z</time>
      </trkpt>
      <trkpt lat="48.33182" lon="-3.62823">
        <ele>170.43</ele>
        <time>2012-01-31T09:31:37Z</time>
      </trkpt>
      <trkpt lat="48.33134" lon="-3.62712">
        <ele>164.71</ele>
        <time>2012-01-31T09:34:03Z</time>
      </trkpt>
      <trkpt lat="48.33102" lon="-3.62582">
        <ele>165.9</ele>
        <time>2012-01-31T09:34:32Z</time>
      </trkpt>
      <trkpt lat="48.33082" lon="-3.62443">
        <ele>163.8</ele>
        <time>2012-01-31T09:34:58Z</time>
      </trkpt>
      <trkpt lat="48.33064" lon="-3.62308">
        <ele>162.5</ele>
        <time>2012-01-31T09:35:53Z</time>
      </trkpt>
      <trkpt lat="48.33045" lon="-3.62174">
        <ele>166.6</ele>
        <time>2012-01-31T09:36:17Z</time>
      </trkpt>
      <trkpt lat="48.3303" lon="-3.62039">
        <ele>163.5</ele>
        <time>2012-01-31T09:38:05Z</time>
      </trkpt>
      <trkpt lat="48.33011" lon="-3.61904">
        <ele>171.9</ele>
        <time>2012-01-31T09:38:50Z</time>
      </trkpt>
      <trkpt lat="48.32994" lon="-3.6177">
        <ele>164.2</ele>
        <time>2012-01-31T09:39:17Z</time>
      </trkpt>
      <trkpt lat="48.32978" lon="-3.61632">
        <ele>160.2</ele>
        <time>2012-01-31T09:39:42Z</time>
      </trkpt>
      <trkpt lat="48.3296" lon="-3.61495">
        <ele>158.1</ele>
        <time>2012-01-31T09:40:07Z</time>
      </trkpt>
      <trkpt lat="48.32942" lon="-3.61358">
        <ele>158.4</ele>
        <time>2012-01-31T09:40:33Z</time>
      </trkpt>
      <trkpt lat="48.32925" lon="-3.61225">
        <ele>161</ele>
        <time>2012-01-31T09:41:00Z</time>
      </trkpt>
      <trkpt lat="48.32908" lon="-3.61088">
        <ele>160.6</ele>
        <time>2012-01-31T09:41:32Z</time>
      </trkpt>
      <trkpt lat="48.3289" lon="-3.60951">
        <ele>160.8</ele>
        <time>2012-01-31T09:41:53Z</time>
      </trkpt>
      <trkpt lat="48.32872" lon="-3.60816">
        <ele>161.6</ele>
        <time>2012-01-31T09:42:18Z</time>
      </trkpt>
      <trkpt lat="48.32855" lon="-3.6068">
        <ele>159.8</ele>
        <time>2012-01-31T09:42:42Z</time>
      </trkpt>
      <trkpt lat="48.32828" lon="-3.6055">
        <ele>162.7</ele>
        <time>2012-01-31T09:43:09Z</time>
      </trkpt>
      <trkpt lat="48.32767" lon="-3.60447">
        <ele>155.2</ele>
        <time>2012-01-31T09:44:38Z</time>
      </trkpt>
      <trkpt lat="48.32677" lon="-3.60403">
        <ele>149</ele>
        <time>2012-01-31T09:45:01Z</time>
      </trkpt>
      <trkpt lat="48.32592" lon="-3.60342">
        <ele>156</ele>
        <time>2012-01-31T09:45:23Z</time>
      </trkpt>
      <trkpt lat="48.32535" lon="-3.60239">
        <ele>155.9</ele>
        <time>2012-01-31T09:45:45Z</time>
      </trkpt>
      <trkpt lat="48.32509" lon="-3.6011">
        <ele>154</ele>
        <time>2012-01-31T09:46:05Z</time>
      </trkpt>
      <trkpt lat="48.32453" lon="-3.59997">
        <ele>154.4</ele>
        <time>2012-01-31T09:46:27Z</time>
      </trkpt>
      <trkpt lat="48.32381" lon="-3.59908">
        <ele>147.9</ele>
        <time>2012-01-31T09:46:45Z</time>
      </trkpt>
      <trkpt lat="48.3231" lon="-3.59816">
        <ele>145</ele>
        <time>2012-01-31T09:47:05Z</time>
      </trkpt>
      <trkpt lat="48.32238" lon="-3.59729">
        <ele>139.9</ele>
        <time>2012-01-31T09:47:25Z</time>
      </trkpt>
      <trkpt lat="48.3215" lon="-3.59681">
        <ele>136.1</ele>
        <time>2012-01-31T09:47:53Z</time>
      </trkpt>
      <trkpt lat="48.32061" lon="-3.59711">
        <ele>134.7</ele>
        <time>2012-01-31T09:48:19Z</time>
      </trkpt>
      <trkpt lat="48.31984" lon="-3.59784">
        <ele>133.9</ele>
        <time>2012-01-31T09:48:43Z</time>
      </trkpt>
      <trkpt lat="48.31908" lon="-3.5986">
        <ele>144.3</ele>
        <time>2012-01-31T09:49:09Z</time>
      </trkpt>
      <trkpt lat="48.31826" lon="-3.59936">
        <ele>143.5</ele>
        <time>2012-01-31T09:49:34Z</time>
      </trkpt>
      <trkpt lat="48.31742" lon="-3.59985">
        <ele>139.18</ele>
        <time>2012-01-31T09:50:29Z</time>
      </trkpt>
      <trkpt lat="48.3165" lon="-3.59987">
        <ele>140.7</ele>
        <time>2012-01-31T09:51:25Z</time>
      </trkpt>
      <trkpt lat="48.31563" lon="-3.59944">
        <ele>137.6</ele>
        <time>2012-01-31T09:51:47Z</time>
      </trkpt>
      <trkpt lat="48.31489" lon="-3.59861">
        <ele>136.9</ele>
        <time>2012-01-31T09:52:12Z</time>
      </trkpt>
      <trkpt lat="48.31439" lon="-3.59747">
        <ele>131.8</ele>
        <time>2012-01-31T09:52:37Z</time>
      </trkpt>
      <trkpt lat="48.31406" lon="-3.59619">
        <ele>133.8</ele>
        <time>2012-01-31T09:52:58Z</time>
      </trkpt>
      <trkpt lat="48.31373" lon="-3.5949">
        <ele>138.3</ele>
        <time>2012-01-31T09:53:22Z</time>
      </trkpt>
      <trkpt lat="48.31342" lon="-3.59359">
        <ele>137.2</ele>
        <time>2012-01-31T09:53:47Z</time>
      </trkpt>
      <trkpt lat="48.3131" lon="-3.59228">
        <ele>135.3</ele>
        <time>2012-01-31T09:54:12Z</time>
      </trkpt>
      <trkpt lat="48.31278" lon="-3.59099">
        <ele>136.9</ele>
        <time>2012-01-31T09:54:35Z</time>
      </trkpt>
      <trkpt lat="48.31244" lon="-3.5897">
        <ele>140.2</ele>
        <time>2012-01-31T09:55:04Z</time>
      </trkpt>
      <trkpt lat="48.31211" lon="-3.58841">
        <ele>148.6</ele>
        <time>2012-01-31T09:56:30Z</time>
      </trkpt>
      <trkpt lat="48.31181" lon="-3.58718">
        <ele>150.3</ele>
        <time>2012-01-31T09:57:28Z</time>
      </trkpt>
      <trkpt lat="48.31148" lon="-3.5859">
        <ele>137.7</ele>
        <time>2012-01-31T10:05:55Z</time>
      </trkpt>
      <trkpt lat="48.31119" lon="-3.58457">
        <ele>138.4</ele>
        <time>2012-01-31T10:06:23Z</time>
      </trkpt>
      <trkpt lat="48.31087" lon="-3.58326">
        <ele>136.5</ele>
        <time>2012-01-31T10:06:47Z</time>
      </trkpt>
      <trkpt lat="48.31055" lon="-3.58198">
        <ele>140.2</ele>
        <time>2012-01-31T10:07:12Z</time>
      </trkpt>
      <trkpt lat="48.31022" lon="-3.5807">
        <ele>144.9</ele>
        <time>2012-01-31T10:07:38Z</time>
      </trkpt>
      <trkpt lat="48.30991" lon="-3.57942">
        <ele>136.7</ele>
        <time>2012-01-31T10:08:48Z</time>
      </trkpt>
      <trkpt lat="48.30954" lon="-3.57809">
        <ele>132.2</ele>
        <time>2012-01-31T10:09:23Z</time>
      </trkpt>
      <trkpt lat="48.30909" lon="-3.57688">
        <ele>130.1</ele>
        <time>2012-01-31T10:09:48Z</time>
      </trkpt>
      <trkpt lat="48.30858" lon="-3.57573">
        <ele>142.4</ele>
        <time>2012-01-31T10:10:41Z</time>
      </trkpt>
      <trkpt lat="48.30804" lon="-3.57463">
        <ele>137.6</ele>
        <time>2012-01-31T10:11:17Z</time>
      </trkpt>
      <trkpt lat="48.30749" lon="-3.5735">
        <ele>132.4</ele>
        <time>2012-01-31T10:11:39Z</time>
      </trkpt>
      <trkpt lat="48.30683" lon="-3.57259">
        <ele>123.5</ele>
        <time>2012-01-31T10:12:02Z</time>
      </trkpt>
      <trkpt lat="48.30598" lon="-3.5721">
        <ele>121.8</ele>
        <time>2012-01-31T10:12:23Z</time>
      </trkpt>
      <trkpt lat="48.30507" lon="-3.57208">
        <ele>120</ele>
        <time>2012-01-31T10:12:42Z</time>
      </trkpt>
      <trkpt lat="48.30418" lon="-3.57179">
        <ele>125.5</ele>
        <time>2012-01-31T10:13:03Z</time>
      </trkpt>
      <trkpt lat="48.30345" lon="-3.57095">
        <ele>115.3</ele>
        <time>2012-01-31T10:13:24Z</time>
      </trkpt>
      <trkpt lat="48.30307" lon="-3.56972">
        <ele>121.4</ele>
        <time>2012-01-31T10:13:47Z</time>
      </trkpt>
      <trkpt lat="48.30275" lon="-3.56842">
        <ele>115.6</ele>
        <time>2012-01-31T10:15:48Z</time>
      </trkpt>
      <trkpt lat="48.30239" lon="-3.56713">
        <ele>110.3</ele>
        <time>2012-01-31T10:16:14Z</time>
      </trkpt>
      <trkpt lat="48.30196" lon="-3.56593">
        <ele>111.9</ele>
        <time>2012-01-31T10:16:33Z</time>
      </trkpt>
      <trkpt lat="48.30134" lon="-3.56488">
        <ele>108.7</ele>
        <time>2012-01-31T10:16:52Z</time>
      </trkpt>
      <trkpt lat="48.30069" lon="-3.56388">
        <ele>109</ele>
        <time>2012-01-31T10:17:12Z</time>
      </trkpt>
      <trkpt lat="48.30005" lon="-3.56291">
        <ele>108.6</ele>
        <time>2012-01-31T10:17:28Z</time>
      </trkpt>
      <trkpt lat="48.29942" lon="-3.56194">
        <ele>105</ele>
        <time>2012-01-31T10:18:32Z</time>
      </trkpt>
      <trkpt lat="48.29878" lon="-3.56093">
        <ele>102.3</ele>
        <time>2012-01-31T10:18:57Z</time>
      </trkpt>
      <trkpt lat="48.29814" lon="-3.55997">
        <ele>108.8</ele>
        <time>2012-01-31T10:19:14Z</time>
      </trkpt>
      <trkpt lat="48.2975" lon="-3.559">
        <ele>103.4</ele>
        <time>2012-01-31T10:19:32Z</time>
      </trkpt>
      <trkpt lat="48.29687" lon="-3.55801">
        <ele>102.4</ele>
        <time>2012-01-31T10:19:52Z</time>
      </trkpt>
      <trkpt lat="48.29622" lon="-3.55699">
        <ele>101.6</ele>
        <time>2012-01-31T10:20:17Z</time>
      </trkpt>
      <trkpt lat="48.2955" lon="-3.55606">
        <ele>103.7</ele>
        <time>2012-01-31T10:20:44Z</time>
      </trkpt>
      <trkpt lat="48.29475" lon="-3.55538">
        <ele>100.7</ele>
        <time>2012-01-31T10:22:33Z</time>
      </trkpt>
      <trkpt lat="48.2941" lon="-3.55484">
        <ele>96.03</ele>
        <time>2012-01-31T10:30:12Z</time>
      </trkpt>
      <trkpt lat="48.29323" lon="-3.55533">
        <ele>97</ele>
        <time>2012-01-31T10:30:38Z</time>
      </trkpt>
      <trkpt lat="48.29242" lon="-3.55589">
        <ele>99.1</ele>
        <time>2012-01-31T10:31:10Z</time>
      </trkpt>
      <trkpt lat="48.2915" lon="-3.5562">
        <ele>101.6</ele>
        <time>2012-01-31T10:31:40Z</time>
      </trkpt>
      <trkpt lat="48.29059" lon="-3.55658">
        <ele>103.25</ele>
        <time>2012-01-31T10:32:49Z</time>
      </trkpt>
      <trkpt lat="48.28971" lon="-3.55698">
        <ele>104.3</ele>
        <time>2012-01-31T10:33:39Z</time>
      </trkpt>
      <trkpt lat="48.28886" lon="-3.55756">
        <ele>107.2</ele>
        <time>2012-01-31T10:34:09Z</time>
      </trkpt>
      <trkpt lat="48.28821" lon="-3.55845">
        <ele>110.5</ele>
        <time>2012-01-31T10:35:53Z</time>
      </trkpt>
      <trkpt lat="48.2877" lon="-3.55963">
        <ele>119.4</ele>
        <time>2012-01-31T10:38:40Z</time>
      </trkpt>
      <trkpt lat="48.28719" lon="-3.56081">
        <ele>122.2</ele>
        <time>2012-01-31T10:39:12Z</time>
      </trkpt>
      <trkpt lat="48.28655" lon="-3.56177">
        <ele>121.1</ele>
        <time>2012-01-31T10:39:38Z</time>
      </trkpt>
      <trkpt lat="48.28568" lon="-3.56218">
        <ele>122.3</ele>
        <time>2012-01-31T10:40:08Z</time>
      </trkpt>
      <trkpt lat="48.28479" lon="-3.56202">
        <ele>121.3</ele>
        <time>2012-01-31T10:40:34Z</time>
      </trkpt>
      <trkpt lat="48.28405" lon="-3.56184">
        <ele>124.4</ele>
        <time>2012-01-31T10:42:14Z</time>
      </trkpt>
      <trkpt lat="48.28311" lon="-3.56192">
        <ele>126.3</ele>
        <time>2012-01-31T10:51:35Z</time>
      </trkpt>
      <trkpt lat="48.28216" lon="-3.5619">
        <ele>128.7</ele>
        <time>2012-01-31T10:52:02Z</time>
      </trkpt>
      <trkpt lat="48.28124" lon="-3.56172">
        <ele>131.8</ele>
        <time>2012-01-31T10:52:29Z</time>
      </trkpt>
      <trkpt lat="48.28033" lon="-3.56155">
        <ele>135.6</ele>
        <time>2012-01-31T10:52:59Z</time>
      </trkpt>
      <trkpt lat="48.27942" lon="-3.56142">
        <ele>138.2</ele>
        <time>2012-01-31T10:53:37Z</time>
      </trkpt>
      <trkpt lat="48.27871" lon="-3.56223">
        <ele>137.1</ele>
        <time>2012-01-31T10:54:05Z</time>
      </trkpt>
      <trkpt lat="48.27799" lon="-3.56304">
        <ele>144.3</ele>
        <time>2012-01-31T10:57:01Z</time>
      </trkpt>
      <trkpt lat="48.27728" lon="-3.56389">
        <ele>141.1</ele>
        <time>2012-01-31T10:57:30Z</time>
      </trkpt>
      <trkpt lat="48.27654" lon="-3.56413">
        <ele>130.59</ele>
        <time>2012-01-31T11:17:44Z</time>
      </trkpt>
      <trkpt lat="48.27564" lon="-3.56447">
        <ele>137.4</ele>
        <time>2012-01-31T11:29:08Z</time>
      </trkpt>
      <trkpt lat="48.2748" lon="-3.56507">
        <ele>133.9</ele>
        <time>2012-01-31T11:29:45Z</time>
      </trkpt>
      <trkpt lat="48.27438" lon="-3.56586">
        <ele>131.1</ele>
        <time>2012-01-31T11:30:59Z</time>
      </trkpt>
      <trkpt lat="48.27344" lon="-3.56554">
        <ele>126.5</ele>
        <time>2012-01-31T11:31:25Z</time>
      </trkpt>
      <trkpt lat="48.27309" lon="-3.56462">
        <ele>128.4</ele>
        <time>2012-01-31T11:33:34Z</time>
      </trkpt>
      <trkpt lat="48.27336" lon="-3.56329">
        <ele>139.1</ele>
        <time>2012-01-31T11:34:23Z</time>
      </trkpt>
      <trkpt lat="48.27337" lon="-3.56208">
        <ele>129.83</ele>
        <time>2012-01-31T11:35:57Z</time>
      </trkpt>
      <trkpt lat="48.2725" lon="-3.56178">
        <ele>130.79</ele>
        <time>2012-01-31T11:36:53Z</time>
      </trkpt>
      <trkpt lat="48.27153" lon="-3.5619">
        <ele>125.5</ele>
        <time>2012-01-31T11:37:49Z</time>
      </trkpt>
      <trkpt lat="48.27066" lon="-3.56239">
        <ele>129.52</ele>
        <time>2012-01-31T11:38:34Z</time>
      </trkpt>
      <trkpt lat="48.2698" lon="-3.56292">
        <ele>125.83</ele>
        <time>2012-01-31T11:39:17Z</time>
      </trkpt>
      <trkpt lat="48.26895" lon="-3.56344">
        <ele>129.6</ele>
        <time>2012-01-31T11:40:18Z</time>
      </trkpt>
      <trkpt lat="48.26809" lon="-3.56398">
        <ele>122.6</ele>
        <time>2012-01-31T11:40:44Z</time>
      </trkpt>
      <trkpt lat="48.26733" lon="-3.56475">
        <ele>129.2</ele>
        <time>2012-01-31T11:41:05Z</time>
      </trkpt>
      <trkpt lat="48.26677" lon="-3.56582">
        <ele>130.9</ele>
        <time>2012-01-31T11:42:12Z</time>
      </trkpt>
      <trkpt lat="48.26645" lon="-3.56711">
        <ele>129.4</ele>
        <time>2012-01-31T11:42:42Z</time>
      </trkpt>
      <trkpt lat="48.26612" lon="-3.56833">
        <ele>136.5</ele>
        <time>2012-01-31T11:44:33Z</time>
      </trkpt>
      <trkpt lat="48.26577" lon="-3.56957">
        <ele>138.9</ele>
        <time>2012-01-31T11:46:37Z</time>
      </trkpt>
      <trkpt lat="48.26543" lon="-3.57083">
        <ele>136.4</ele>
        <time>2012-01-31T11:47:02Z</time>
      </trkpt>
      <trkpt lat="48.26497" lon="-3.57199">
        <ele>134.3</ele>
        <time>2012-01-31T11:48:18Z</time>
      </trkpt>
      <trkpt lat="48.26433" lon="-3.57295">
        <ele>131.9</ele>
        <time>2012-01-31T11:48:39Z</time>
      </trkpt>
      <trkpt lat="48.26364" lon="-3.57382">
        <ele>132.5</ele>
        <time>2012-01-31T11:49:00Z</time>
      </trkpt>
      <trkpt lat="48.26294" lon="-3.57473">
        <ele>132</ele>
        <time>2012-01-31T11:49:50Z</time>
      </trkpt>
      <trkpt lat="48.26222" lon="-3.57564">
        <ele>133.6</ele>
        <time>2012-01-31T11:50:10Z</time>
      </trkpt>
      <trkpt lat="48.26151" lon="-3.57651">
        <ele>126.48</ele>
        <time>2012-01-31T11:51:08Z</time>
      </trkpt>
      <trkpt lat="48.26081" lon="-3.57737">
        <ele>136.25</ele>
        <time>2012-01-31T11:52:01Z</time>
      </trkpt>
      <trkpt lat="48.26017" lon="-3.57833">
        <ele>138.9</ele>
        <time>2012-01-31T11:52:25Z</time>
      </trkpt>
      <trkpt lat="48.25981" lon="-3.57944">
        <ele>132.5</ele>
        <time>2012-01-31T11:53:20Z</time>
      </trkpt>
      <trkpt lat="48.25943" lon="-3.57879">
        <ele>122.6</ele>
        <time>2012-01-31T11:54:08Z</time>
      </trkpt>
      <trkpt lat="48.25854" lon="-3.57883">
        <ele>120.6</ele>
        <time>2012-01-31T11:55:05Z</time>
      </trkpt>
      <trkpt lat="48.25764" lon="-3.57841">
        <ele>112.5</ele>
        <time>2012-01-31T11:55:28Z</time>
      </trkpt>
      <trkpt lat="48.25673" lon="-3.57812">
        <ele>119.8</ele>
        <time>2012-01-31T11:55:50Z</time>
      </trkpt>
      <trkpt lat="48.2558" lon="-3.5782">
        <ele>114.5</ele>
        <time>2012-01-31T11:56:08Z</time>
      </trkpt>
      <trkpt lat="48.25497" lon="-3.57878">
        <ele>112.7</ele>
        <time>2012-01-31T11:56:49Z</time>
      </trkpt>
      <trkpt lat="48.25419" lon="-3.5795">
        <ele>111.3</ele>
        <time>2012-01-31T11:58:02Z</time>
      </trkpt>
      <trkpt lat="48.25339" lon="-3.58022">
        <ele>112.9</ele>
        <time>2012-01-31T11:58:55Z</time>
      </trkpt>
      <trkpt lat="48.2526" lon="-3.58093">
        <ele>114.5</ele>
        <time>2012-01-31T11:59:34Z</time>
      </trkpt>
      <trkpt lat="48.25191" lon="-3.58183">
        <ele>112.6</ele>
        <time>2012-01-31T11:59:54Z</time>
      </trkpt>
      <trkpt lat="48.2513" lon="-3.58281">
        <ele>112.2</ele>
        <time>2012-01-31T12:00:12Z</time>
      </trkpt>
      <trkpt lat="48.25051" lon="-3.58345">
        <ele>100.3</ele>
        <time>2012-01-31T12:01:19Z</time>
      </trkpt>
      <trkpt lat="48.24959" lon="-3.58344">
        <ele>100.3</ele>
        <time>2012-01-31T12:01:48Z</time>
      </trkpt>
      <trkpt lat="48.2487" lon="-3.58304">
        <ele>100.3</ele>
        <time>2012-01-31T12:02:12Z</time>
      </trkpt>
      <trkpt lat="48.24778" lon="-3.58317">
        <ele>97</ele>
        <time>2012-01-31T12:03:18Z</time>
      </trkpt>
      <trkpt lat="48.24693" lon="-3.58377">
        <ele>99.5</ele>
        <time>2012-01-31T12:03:47Z</time>
      </trkpt>
      <trkpt lat="48.24616" lon="-3.58455">
        <ele>93.9</ele>
        <time>2012-01-31T12:04:13Z</time>
      </trkpt>
      <trkpt lat="48.24556" lon="-3.58573">
        <ele>91.3</ele>
        <time>2012-01-31T12:04:37Z</time>
      </trkpt>
      <trkpt lat="48.24512" lon="-3.58682">
        <ele>75.8</ele>
        <time>2012-01-31T12:43:52Z</time>
      </trkpt>
      <trkpt lat="48.24481" lon="-3.58558">
        <ele>80.6</ele>
        <time>2012-01-31T12:45:11Z</time>
      </trkpt>
      <trkpt lat="48.24534" lon="-3.5845">
        <ele>80.63</ele>
        <time>2012-01-31T12:46:03Z</time>
      </trkpt>
      <trkpt lat="48.24614" lon="-3.58385">
        <ele>75.9</ele>
        <time>2012-01-31T12:46:27Z</time>
      </trkpt>
      <trkpt lat="48.24695" lon="-3.58307">
        <ele>77.37</ele>
        <time>2012-01-31T12:46:50Z</time>
      </trkpt>
      <trkpt lat="48.24774" lon="-3.58237">
        <ele>78.7</ele>
        <time>2012-01-31T12:47:17Z</time>
      </trkpt>
      <trkpt lat="48.24814" lon="-3.58114">
        <ele>80.1</ele>
        <time>2012-01-31T12:47:40Z</time>
      </trkpt>
      <trkpt lat="48.24827" lon="-3.57974">
        <ele>82.33</ele>
        <time>2012-01-31T12:48:44Z</time>
      </trkpt>
      <trkpt lat="48.24838" lon="-3.57837">
        <ele>80.4</ele>
        <time>2012-01-31T12:49:11Z</time>
      </trkpt>
      <trkpt lat="48.2485" lon="-3.57702">
        <ele>83.4</ele>
        <time>2012-01-31T12:49:34Z</time>
      </trkpt>
      <trkpt lat="48.24862" lon="-3.57566">
        <ele>85.1</ele>
        <time>2012-01-31T12:49:57Z</time>
      </trkpt>
      <trkpt lat="48.24873" lon="-3.57429">
        <ele>85.1</ele>
        <time>2012-01-31T12:50:23Z</time>
      </trkpt>
      <trkpt lat="48.24885" lon="-3.57293">
        <ele>83.1</ele>
        <time>2012-01-31T12:50:50Z</time>
      </trkpt>
      <trkpt lat="48.24897" lon="-3.57158">
        <ele>86.3</ele>
        <time>2012-01-31T12:51:17Z</time>
      </trkpt>
      <trkpt lat="48.24928" lon="-3.57032">
        <ele>83.7</ele>
        <time>2012-01-31T12:51:40Z</time>
      </trkpt>
      <trkpt lat="48.25007" lon="-3.56949">
        <ele>80.83</ele>
        <time>2012-01-31T12:52:05Z</time>
      </trkpt>
      <trkpt lat="48.25079" lon="-3.56866">
        <ele>93.23</ele>
        <time>2012-01-31T12:53:12Z</time>
      </trkpt>
      <trkpt lat="48.25117" lon="-3.56751">
        <ele>87</ele>
        <time>2012-01-31T12:53:37Z</time>
      </trkpt>
      <trkpt lat="48.25115" lon="-3.56612">
        <ele>83.4</ele>
        <time>2012-01-31T12:54:03Z</time>
      </trkpt>
      <trkpt lat="48.25114" lon="-3.56472">
        <ele>73</ele>
        <time>2012-01-31T12:55:00Z</time>
      </trkpt>
      <trkpt lat="48.25112" lon="-3.56337">
        <ele>75.6</ele>
        <time>2012-01-31T12:55:21Z</time>
      </trkpt>
      <trkpt lat="48.25148" lon="-3.56214">
        <ele>84.7</ele>
        <time>2012-01-31T12:56:23Z</time>
      </trkpt>
      <trkpt lat="48.25199" lon="-3.56098">
        <ele>87.9</ele>
        <time>2012-01-31T12:56:48Z</time>
      </trkpt>
      <trkpt lat="48.25253" lon="-3.5598">
        <ele>88.33</ele>
        <time>2012-01-31T12:57:14Z</time>
      </trkpt>
      <trkpt lat="48.25296" lon="-3.5586">
        <ele>89.9</ele>
        <time>2012-01-31T13:02:53Z</time>
      </trkpt>
      <trkpt lat="48.25348" lon="-3.55747">
        <ele>90.3</ele>
        <time>2012-01-31T13:03:16Z</time>
      </trkpt>
      <trkpt lat="48.25399" lon="-3.55631">
        <ele>91.7</ele>
        <time>2012-01-31T13:03:41Z</time>
      </trkpt>
      <trkpt lat="48.25449" lon="-3.55514">
        <ele>91.3</ele>
        <time>2012-01-31T13:04:04Z</time>
      </trkpt>
      <trkpt lat="48.25464" lon="-3.55381">
        <ele>89.9</ele>
        <time>2012-01-31T13:04:27Z</time>
      </trkpt>
      <trkpt lat="48.25437" lon="-3.55247">
        <ele>89.9</ele>
        <time>2012-01-31T13:04:55Z</time>
      </trkpt>
      <trkpt lat="48.25406" lon="-3.55118">
        <ele>87.4</ele>
        <time>2012-01-31T13:06:07Z</time>
      </trkpt>
      <trkpt lat="48.25377" lon="-3.54986">
        <ele>90.2</ele>
        <time>2012-01-31T13:06:29Z</time>
      </trkpt>
      <trkpt lat="48.25369" lon="-3.54851">
        <ele>89.9</ele>
        <time>2012-01-31T13:06:52Z</time>
      </trkpt>
      <trkpt lat="48.25362" lon="-3.54714">
        <ele>90.4</ele>
        <time>2012-01-31T13:07:19Z</time>
      </trkpt>
      <trkpt lat="48.25357" lon="-3.54576">
        <ele>87.9</ele>
        <time>2012-01-31T13:07:43Z</time>
      </trkpt>
      <trkpt lat="48.25351" lon="-3.54439">
        <ele>89.4</ele>
        <time>2012-01-31T13:08:07Z</time>
      </trkpt>
      <trkpt lat="48.25346" lon="-3.543">
        <ele>87.6</ele>
        <time>2012-01-31T13:08:30Z</time>
      </trkpt>
      <trkpt lat="48.25341" lon="-3.54159">
        <ele>89.5</ele>
        <time>2012-01-31T13:08:54Z</time>
      </trkpt>
      <trkpt lat="48.25339" lon="-3.54023">
        <ele>89.97</ele>
        <time>2012-01-31T13:09:18Z</time>
      </trkpt>
      <trkpt lat="48.25398" lon="-3.53917">
        <ele>93.27</ele>
        <time>2012-01-31T13:09:47Z</time>
      </trkpt>
      <trkpt lat="48.25464" lon="-3.53823">
        <ele>93.7</ele>
        <time>2012-01-31T13:10:17Z</time>
      </trkpt>
      <trkpt lat="48.25535" lon="-3.53725">
        <ele>95.07</ele>
        <time>2012-01-31T13:10:42Z</time>
      </trkpt>
      <trkpt lat="48.25587" lon="-3.53618">
        <ele>91.1</ele>
        <time>2012-01-31T13:11:55Z</time>
      </trkpt>
      <trkpt lat="48.25602" lon="-3.53484">
        <ele>94.5</ele>
        <time>2012-01-31T13:12:17Z</time>
      </trkpt>
      <trkpt lat="48.25615" lon="-3.53348">
        <ele>97.2</ele>
        <time>2012-01-31T13:12:39Z</time>
      </trkpt>
      <trkpt lat="48.25619" lon="-3.5321">
        <ele>93.8</ele>
        <time>2012-01-31T13:13:06Z</time>
      </trkpt>
      <trkpt lat="48.25559" lon="-3.53108">
        <ele>97.3</ele>
        <time>2012-01-31T13:13:32Z</time>
      </trkpt>
      <trkpt lat="48.25474" lon="-3.53055">
        <ele>100</ele>
        <time>2012-01-31T13:13:55Z</time>
      </trkpt>
      <trkpt lat="48.25384" lon="-3.53008">
        <ele>108</ele>
        <time>2012-01-31T13:14:21Z</time>
      </trkpt>
      <trkpt lat="48.253" lon="-3.52955">
        <ele>103.5</ele>
        <time>2012-01-31T13:14:52Z</time>
      </trkpt>
      <trkpt lat="48.25249" lon="-3.52849">
        <ele>98.7</ele>
        <time>2012-01-31T13:15:17Z</time>
      </trkpt>
      <trkpt lat="48.25293" lon="-3.52737">
        <ele>97.5</ele>
        <time>2012-01-31T13:15:40Z</time>
      </trkpt>
      <trkpt lat="48.25382" lon="-3.5269">
        <ele>96.23</ele>
        <time>2012-01-31T13:16:08Z</time>
      </trkpt>
      <trkpt lat="48.25463" lon="-3.52626">
        <ele>96.6</ele>
        <time>2012-01-31T13:17:44Z</time>
      </trkpt>
      <trkpt lat="48.25551" lon="-3.52577">
        <ele>91.8</ele>
        <time>2012-01-31T13:18:05Z</time>
      </trkpt>
      <trkpt lat="48.25637" lon="-3.52526">
        <ele>91.93</ele>
        <time>2012-01-31T13:18:28Z</time>
      </trkpt>
      <trkpt lat="48.25715" lon="-3.52463">
        <ele>95.57</ele>
        <time>2012-01-31T13:18:54Z</time>
      </trkpt>
      <trkpt lat="48.2567" lon="-3.52366">
        <ele>97.1</ele>
        <time>2012-01-31T13:20:12Z</time>
      </trkpt>
      <trkpt lat="48.2559" lon="-3.52295">
        <ele>105.03</ele>
        <time>2012-01-31T13:20:37Z</time>
      </trkpt>
      <trkpt lat="48.25536" lon="-3.52189">
        <ele>103.41</ele>
        <time>2012-01-31T13:22:14Z</time>
      </trkpt>
      <trkpt lat="48.25553" lon="-3.52064">
        <ele>103</ele>
        <time>2012-01-31T13:30:32Z</time>
      </trkpt>
      <trkpt lat="48.25588" lon="-3.51937">
        <ele>99.2</ele>
        <time>2012-01-31T13:30:56Z</time>
      </trkpt>
      <trkpt lat="48.25623" lon="-3.51807">
        <ele>101.3</ele>
        <time>2012-01-31T13:31:19Z</time>
      </trkpt>
      <trkpt lat="48.25654" lon="-3.51675">
        <ele>102.1</ele>
        <time>2012-01-31T13:31:43Z</time>
      </trkpt>
      <trkpt lat="48.25686" lon="-3.51542">
        <ele>102.27</ele>
        <time>2012-01-31T13:32:11Z</time>
      </trkpt>
      <trkpt lat="48.25712" lon="-3.5141">
        <ele>108</ele>
        <time>2012-01-31T13:33:16Z</time>
      </trkpt>
      <trkpt lat="48.25686" lon="-3.51276">
        <ele>107.8</ele>
        <time>2012-01-31T13:33:38Z</time>
      </trkpt>
      <trkpt lat="48.25657" lon="-3.51146">
        <ele>110.7</ele>
        <time>2012-01-31T13:34:01Z</time>
      </trkpt>
      <trkpt lat="48.25625" lon="-3.51018">
        <ele>106.6</ele>
        <time>2012-01-31T13:34:24Z</time>
      </trkpt>
      <trkpt lat="48.25593" lon="-3.50888">
        <ele>109.1</ele>
        <time>2012-01-31T13:34:53Z</time>
      </trkpt>
      <trkpt lat="48.2557" lon="-3.50756">
        <ele>109.2</ele>
        <time>2012-01-31T13:35:18Z</time>
      </trkpt>
      <trkpt lat="48.25618" lon="-3.50644">
        <ele>110.87</ele>
        <time>2012-01-31T13:35:44Z</time>
      </trkpt>
      <trkpt lat="48.25676" lon="-3.50537">
        <ele>114.3</ele>
        <time>2012-01-31T13:38:56Z</time>
      </trkpt>
      <trkpt lat="48.25723" lon="-3.50418">
        <ele>114.6</ele>
        <time>2012-01-31T13:39:22Z</time>
      </trkpt>
      <trkpt lat="48.25706" lon="-3.50289">
        <ele>112</ele>
        <time>2012-01-31T13:40:16Z</time>
      </trkpt>
      <trkpt lat="48.25666" lon="-3.50165">
        <ele>111.47</ele>
        <time>2012-01-31T13:41:10Z</time>
      </trkpt>
      <trkpt lat="48.25628" lon="-3.50043">
        <ele>110</ele>
        <time>2012-01-31T13:41:34Z</time>
      </trkpt>
      <trkpt lat="48.25543" lon="-3.49974">
        <ele>117.03</ele>
        <time>2012-01-31T13:41:56Z</time>
      </trkpt>
      <trkpt lat="48.25463" lon="-3.49911">
        <ele>112.1</ele>
        <time>2012-01-31T13:42:20Z</time>
      </trkpt>
      <trkpt lat="48.25378" lon="-3.49848">
        <ele>117.27</ele>
        <time>2012-01-31T13:42:44Z</time>
      </trkpt>
      <trkpt lat="48.25343" lon="-3.49729">
        <ele>111.2</ele>
        <time>2012-01-31T13:43:07Z</time>
      </trkpt>
      <trkpt lat="48.25357" lon="-3.49593">
        <ele>111.4</ele>
        <time>2012-01-31T13:43:35Z</time>
      </trkpt>
      <trkpt lat="48.25365" lon="-3.49456">
        <ele>122.7</ele>
        <time>2012-01-31T13:44:06Z</time>
      </trkpt>
      <trkpt lat="48.25376" lon="-3.49315">
        <ele>126.3</ele>
        <time>2012-01-31T13:44:30Z</time>
      </trkpt>
      <trkpt lat="48.25359" lon="-3.49178">
        <ele>133.7</ele>
        <time>2012-01-31T13:44:59Z</time>
      </trkpt>
      <trkpt lat="48.25342" lon="-3.49045">
        <ele>134.3</ele>
        <time>2012-01-31T13:45:23Z</time>
      </trkpt>
      <trkpt lat="48.25335" lon="-3.48908">
        <ele>117.83</ele>
        <time>2012-01-31T13:45:49Z</time>
      </trkpt>
      <trkpt lat="48.2532" lon="-3.48771">
        <ele>122.3</ele>
        <time>2012-01-31T13:46:18Z</time>
      </trkpt>
      <trkpt lat="48.25367" lon="-3.48659">
        <ele>111.77</ele>
        <time>2012-01-31T13:49:56Z</time>
      </trkpt>
      <trkpt lat="48.2544" lon="-3.48568">
        <ele>122.47</ele>
        <time>2012-01-31T13:51:44Z</time>
      </trkpt>
      <trkpt lat="48.25513" lon="-3.48483">
        <ele>118.2</ele>
        <time>2012-01-31T13:52:10Z</time>
      </trkpt>
      <trkpt lat="48.25553" lon="-3.48364">
        <ele>116</ele>
        <time>2012-01-31T13:52:34Z</time>
      </trkpt>
      <trkpt lat="48.25528" lon="-3.48237">
        <ele>122.7</ele>
        <time>2012-01-31T13:53:00Z</time>
      </trkpt>
      <trkpt lat="48.25498" lon="-3.48106">
        <ele>124.3</ele>
        <time>2012-01-31T13:53:25Z</time>
      </trkpt>
      <trkpt lat="48.25478" lon="-3.47975">
        <ele>122</ele>
        <time>2012-01-31T13:53:48Z</time>
      </trkpt>
      <trkpt lat="48.25508" lon="-3.47844">
        <ele>118.7</ele>
        <time>2012-01-31T13:54:24Z</time>
      </trkpt>
      <trkpt lat="48.25546" lon="-3.47722">
        <ele>120.9</ele>
        <time>2012-01-31T13:54:50Z</time>
      </trkpt>
      <trkpt lat="48.25587" lon="-3.47597">
        <ele>117</ele>
        <time>2012-01-31T13:55:15Z</time>
      </trkpt>
      <trkpt lat="48.25625" lon="-3.4747">
        <ele>112.3</ele>
        <time>2012-01-31T13:55:41Z</time>
      </trkpt>
      <trkpt lat="48.25664" lon="-3.47346">
        <ele>114.8</ele>
        <time>2012-01-31T13:56:07Z</time>
      </trkpt>
      <trkpt lat="48.25658" lon="-3.47214">
        <ele>121.13</ele>
        <time>2012-01-31T13:56:35Z</time>
      </trkpt>
      <trkpt lat="48.25635" lon="-3.47081">
        <ele>124.7</ele>
        <time>2012-01-31T13:58:28Z</time>
      </trkpt>
      <trkpt lat="48.2561" lon="-3.46949">
        <ele>128.1</ele>
        <time>2012-01-31T13:58:50Z</time>
      </trkpt>
      <trkpt lat="48.25586" lon="-3.46816">
        <ele>126.6</ele>
        <time>2012-01-31T13:59:13Z</time>
      </trkpt>
      <trkpt lat="48.25604" lon="-3.46684">
        <ele>126.6</ele>
        <time>2012-01-31T13:59:37Z</time>
      </trkpt>
      <trkpt lat="48.25643" lon="-3.4656">
        <ele>123.5</ele>
        <time>2012-01-31T13:59:59Z</time>
      </trkpt>
      <trkpt lat="48.25675" lon="-3.46432">
        <ele>122.9</ele>
        <time>2012-01-31T14:00:22Z</time>
      </trkpt>
      <trkpt lat="48.25644" lon="-3.46311">
        <ele>124.3</ele>
        <time>2012-01-31T14:00:45Z</time>
      </trkpt>
      <trkpt lat="48.25562" lon="-3.46252">
        <ele>123.8</ele>
        <time>2012-01-31T14:01:08Z</time>
      </trkpt>
      <trkpt lat="48.25479" lon="-3.46196">
        <ele>132.8</ele>
        <time>2012-01-31T14:01:32Z</time>
      </trkpt>
      <trkpt lat="48.25395" lon="-3.46139">
        <ele>131.87</ele>
        <time>2012-01-31T14:01:57Z</time>
      </trkpt>
      <trkpt lat="48.25312" lon="-3.46076">
        <ele>132.83</ele>
        <time>2012-01-31T14:02:23Z</time>
      </trkpt>
      <trkpt lat="48.25239" lon="-3.45994">
        <ele>135.4</ele>
        <time>2012-01-31T14:02:49Z</time>
      </trkpt>
      <trkpt lat="48.25188" lon="-3.45882">
        <ele>130</ele>
        <time>2012-01-31T14:03:13Z</time>
      </trkpt>
      <trkpt lat="48.25161" lon="-3.45752">
        <ele>129.2</ele>
        <time>2012-01-31T14:03:38Z</time>
      </trkpt>
      <trkpt lat="48.25156" lon="-3.45612">
        <ele>131.17</ele>
        <time>2012-01-31T14:04:08Z</time>
      </trkpt>
      <trkpt lat="48.25155" lon="-3.45476">
        <ele>130.2</ele>
        <time>2012-01-31T14:04:39Z</time>
      </trkpt>
      <trkpt lat="48.25156" lon="-3.4534">
        <ele>134.7</ele>
        <time>2012-01-31T14:05:05Z</time>
      </trkpt>
      <trkpt lat="48.25167" lon="-3.45206">
        <ele>130</ele>
        <time>2012-01-31T14:05:31Z</time>
      </trkpt>
      <trkpt lat="48.25228" lon="-3.45107">
        <ele>135.4</ele>
        <time>2012-01-31T14:06:10Z</time>
      </trkpt>
      <trkpt lat="48.25307" lon="-3.45042">
        <ele>133.8</ele>
        <time>2012-01-31T14:06:38Z</time>
      </trkpt>
      <trkpt lat="48.25385" lon="-3.44975">
        <ele>133.07</ele>
        <time>2012-01-31T14:07:07Z</time>
      </trkpt>
      <trkpt lat="48.25465" lon="-3.44907">
        <ele>129.27</ele>
        <time>2012-01-31T14:07:40Z</time>
      </trkpt>
      <trkpt lat="48.25547" lon="-3.44839">
        <ele>134.73</ele>
        <time>2012-01-31T14:08:12Z</time>
      </trkpt>
      <trkpt lat="48.25614" lon="-3.44744">
        <ele>131.84</ele>
        <time>2012-01-31T14:08:46Z</time>
      </trkpt>
      <trkpt lat="48.25621" lon="-3.44609">
        <ele>136.76</ele>
        <time>2012-01-31T14:22:12Z</time>
      </trkpt>
      <trkpt lat="48.25612" lon="-3.44475">
        <ele>134.1</ele>
        <time>2012-01-31T14:23:20Z</time>
      </trkpt>
      <trkpt lat="48.25606" lon="-3.4434">
        <ele>132.7</ele>
        <time>2012-01-31T14:23:44Z</time>
      </trkpt>
      <trkpt lat="48.25585" lon="-3.44205">
        <ele>136.9</ele>
        <time>2012-01-31T14:24:07Z</time>
      </trkpt>
      <trkpt lat="48.25532" lon="-3.44094">
        <ele>139.8</ele>
        <time>2012-01-31T14:24:29Z</time>
      </trkpt>
      <trkpt lat="48.25481" lon="-3.43982">
        <ele>140.2</ele>
        <time>2012-01-31T14:24:56Z</time>
      </trkpt>
      <trkpt lat="48.25428" lon="-3.43868">
        <ele>134.1</ele>
        <time>2012-01-31T14:25:23Z</time>
      </trkpt>
      <trkpt lat="48.25374" lon="-3.43754">
        <ele>138.13</ele>
        <time>2012-01-31T14:26:32Z</time>
      </trkpt>
      <trkpt lat="48.2532" lon="-3.43635">
        <ele>139.03</ele>
        <time>2012-01-31T14:27:04Z</time>
      </trkpt>
      <trkpt lat="48.25268" lon="-3.43518">
        <ele>140.6</ele>
        <time>2012-01-31T14:27:48Z</time>
      </trkpt>
      <trkpt lat="48.25212" lon="-3.43411">
        <ele>136.7</ele>
        <time>2012-01-31T14:28:16Z</time>
      </trkpt>
      <trkpt lat="48.2516" lon="-3.43294">
        <ele>140.93</ele>
        <time>2012-01-31T14:28:46Z</time>
      </trkpt>
      <trkpt lat="48.25101" lon="-3.43191">
        <ele>147.14</ele>
        <time>2012-01-31T14:29:17Z</time>
      </trkpt>
      <trkpt lat="48.25016" lon="-3.43132">
        <ele>150.9</ele>
        <time>2012-01-31T14:29:58Z</time>
      </trkpt>
      <trkpt lat="48.24931" lon="-3.43078">
        <ele>155.4</ele>
        <time>2012-01-31T14:30:28Z</time>
      </trkpt>
      <trkpt lat="48.2485" lon="-3.43024">
        <ele>152.17</ele>
        <time>2012-01-31T14:31:58Z</time>
      </trkpt>
      <trkpt lat="48.24776" lon="-3.42949">
        <ele>152.2</ele>
        <time>2012-01-31T14:32:23Z</time>
      </trkpt>
      <trkpt lat="48.24728" lon="-3.42833">
        <ele>148.6</ele>
        <time>2012-01-31T14:32:47Z</time>
      </trkpt>
      <trkpt lat="48.24679" lon="-3.42712">
        <ele>151.1</ele>
        <time>2012-01-31T14:33:14Z</time>
      </trkpt>
      <trkpt lat="48.24635" lon="-3.42592">
        <ele>147.7</ele>
        <time>2012-01-31T14:33:49Z</time>
      </trkpt>
      <trkpt lat="48.24582" lon="-3.42474">
        <ele>152.63</ele>
        <time>2012-01-31T14:34:16Z</time>
      </trkpt>
      <trkpt lat="48.24495" lon="-3.42433">
        <ele>160.27</ele>
        <time>2012-01-31T14:35:39Z</time>
      </trkpt>
      <trkpt lat="48.244" lon="-3.4245">
        <ele>162.17</ele>
        <time>2012-01-31T14:36:07Z</time>
      </trkpt>
      <trkpt lat="48.2431" lon="-3.42466">
        <ele>168</ele>
        <time>2012-01-31T14:36:31Z</time>
      </trkpt>
      <trkpt lat="48.24217" lon="-3.42482">
        <ele>167.33</ele>
        <time>2012-01-31T14:37:03Z</time>
      </trkpt>
      <trkpt lat="48.24125" lon="-3.42445">
        <ele>159.93</ele>
        <time>2012-01-31T14:37:29Z</time>
      </trkpt>
      <trkpt lat="48.24038" lon="-3.42392">
        <ele>158.77</ele>
        <time>2012-01-31T14:38:03Z</time>
      </trkpt>
      <trkpt lat="48.23953" lon="-3.42337">
        <ele>159.87</ele>
        <time>2012-01-31T14:38:27Z</time>
      </trkpt>
      <trkpt lat="48.23865" lon="-3.42279">
        <ele>163.33</ele>
        <time>2012-01-31T14:38:56Z</time>
      </trkpt>
      <trkpt lat="48.23787" lon="-3.42203">
        <ele>164.4</ele>
        <time>2012-01-31T14:39:22Z</time>
      </trkpt>
      <trkpt lat="48.23758" lon="-3.42075">
        <ele>168.8</ele>
        <time>2012-01-31T14:40:02Z</time>
      </trkpt>
      <trkpt lat="48.23737" lon="-3.41941">
        <ele>171.7</ele>
        <time>2012-01-31T14:40:44Z</time>
      </trkpt>
      <trkpt lat="48.23714" lon="-3.41806">
        <ele>175.2</ele>
        <time>2012-01-31T14:41:20Z</time>
      </trkpt>
      <trkpt lat="48.23679" lon="-3.41681">
        <ele>181</ele>
        <time>2012-01-31T14:41:49Z</time>
      </trkpt>
      <trkpt lat="48.23603" lon="-3.416">
        <ele>174.33</ele>
        <time>2012-01-31T14:42:23Z</time>
      </trkpt>
      <trkpt lat="48.23523" lon="-3.41528">
        <ele>174.02</ele>
        <time>2012-01-31T14:42:54Z</time>
      </trkpt>
      <trkpt lat="48.23444" lon="-3.41454">
        <ele>176.03</ele>
        <time>2012-01-31T14:43:26Z</time>
      </trkpt>
      <trkpt lat="48.23361" lon="-3.41381">
        <ele>176.3</ele>
        <time>2012-01-31T14:44:03Z</time>
      </trkpt>
      <trkpt lat="48.23286" lon="-3.41308">
        <ele>171.77</ele>
        <time>2012-01-31T15:25:51Z</time>
      </trkpt>
      <trkpt lat="48.23226" lon="-3.41208">
        <ele>168.83</ele>
        <time>2012-01-31T15:26:19Z</time>
      </trkpt>
      <trkpt lat="48.23173" lon="-3.41092">
        <ele>168.47</ele>
        <time>2012-01-31T15:26:53Z</time>
      </trkpt>
      <trkpt lat="48.23123" lon="-3.40979">
        <ele>176.73</ele>
        <time>2012-01-31T15:27:25Z</time>
      </trkpt>
      <trkpt lat="48.23073" lon="-3.40866">
        <ele>187.17</ele>
        <time>2012-01-31T15:28:58Z</time>
      </trkpt>
      <trkpt lat="48.23067" lon="-3.4074">
        <ele>186.9</ele>
        <time>2012-01-31T15:29:41Z</time>
      </trkpt>
      <trkpt lat="48.23144" lon="-3.40607">
        <ele>205.42</ele>
        <time>2012-01-31T15:32:54Z</time>
      </trkpt>
      <trkpt lat="48.23222" lon="-3.40483">
        <ele>214.03</ele>
        <time>2012-01-31T15:33:49Z</time>
      </trkpt>
      <trkpt lat="48.23301" lon="-3.40349">
        <ele>208</ele>
        <time>2012-01-31T15:34:53Z</time>
      </trkpt>
      <trkpt lat="48.23381" lon="-3.40223">
        <ele>207</ele>
        <time>2012-01-31T15:35:09Z</time>
      </trkpt>
      <trkpt lat="48.23449" lon="-3.40096">
        <ele>209</ele>
        <time>2012-02-08T12:52:48Z</time>
      </trkpt>
      <trkpt lat="48.23494" lon="-3.39976">
        <ele>209</ele>
        <time>2012-02-08T15:51:04Z</time>
      </trkpt>
      <trkpt lat="48.23558" lon="-3.39855">
        <ele>210</ele>
        <time>2012-02-08T15:52:27Z</time>
      </trkpt>
      <trkpt lat="48.23623" lon="-3.39708">
        <ele>207</ele>
        <time>2012-02-08T15:52:28Z</time>
      </trkpt>
      <trkpt lat="48.23691" lon="-3.39559">
        <ele>205</ele>
        <time>2012-02-08T15:52:29Z</time>
      </trkpt>
      <trkpt lat="48.23764" lon="-3.39405">
        <ele>203</ele>
        <time>2012-02-08T15:52:29Z</time>
      </trkpt>
      <trkpt lat="48.23825" lon="-3.39267">
        <ele>203</ele>
        <time>2012-02-08T15:52:29Z</time>
      </trkpt>
      <trkpt lat="48.23875" lon="-3.39155">
        <ele>205</ele>
        <time>2012-02-08T15:52:29Z</time>
      </trkpt>
      <trkpt lat="48.23931" lon="-3.39029">
        <ele>202</ele>
        <time>2012-02-28T14:04:56Z</time>
      </trkpt>
      <trkpt lat="48.23971" lon="-3.38883">
        <ele>203</ele>
      </trkpt>
      <trkpt lat="48.23984" lon="-3.38738">
        <ele>203</ele>
      </trkpt>
      <trkpt lat="48.23994" lon="-3.38593">
        <ele>199</ele>
      </trkpt>
      <trkpt lat="48.24005" lon="-3.38456">
        <ele>197</ele>
      </trkpt>
      <trkpt lat="48.24017" lon="-3.38314">
        <ele>197</ele>
        <time>2012-02-28T14:09:00Z</time>
      </trkpt>
      <trkpt lat="48.24027" lon="-3.38177">
        <ele>194</ele>
      </trkpt>
      <trkpt lat="48.24038" lon="-3.38043">
        <ele>193</ele>
      </trkpt>
      <trkpt lat="48.23997" lon="-3.37925">
        <ele>196</ele>
      </trkpt>
      <trkpt lat="48.23922" lon="-3.37838">
        <ele>193</ele>
        <time>2012-02-28T14:12:37Z</time>
      </trkpt>
      <trkpt lat="48.2386" lon="-3.37735">
        <ele>194</ele>
      </trkpt>
      <trkpt lat="48.23828" lon="-3.37606">
        <ele>190</ele>
      </trkpt>
      <trkpt lat="48.23816" lon="-3.37471">
        <ele>185.4</ele>
      </trkpt>
      <trkpt lat="48.23796" lon="-3.37332">
        <ele>184</ele>
      </trkpt>
      <trkpt lat="48.23745" lon="-3.37206">
        <ele>185.2</ele>
      </trkpt>
      <trkpt lat="48.23625" lon="-3.37203">
        <ele>184.7</ele>
      </trkpt>
      <trkpt lat="48.23532" lon="-3.37218">
        <ele>185.4</ele>
      </trkpt>
      <trkpt lat="48.23412" lon="-3.3728">
        <ele>185.1</ele>
      </trkpt>
      <trkpt lat="48.23314" lon="-3.3728">
        <ele>184.6</ele>
      </trkpt>
      <trkpt lat="48.23218" lon="-3.37226">
        <ele>185.4</ele>
      </trkpt>
      <trkpt lat="48.23137" lon="-3.37121">
        <ele>184.6</ele>
      </trkpt>
      <trkpt lat="48.23096" lon="-3.37002">
        <ele>185.8</ele>
      </trkpt>
      <trkpt lat="48.23153" lon="-3.36871">
        <ele>181</ele>
      </trkpt>
      <trkpt lat="48.23185" lon="-3.36728">
        <ele>180.1</ele>
      </trkpt>
      <trkpt lat="48.23166" lon="-3.36572">
        <ele>179.9</ele>
      </trkpt>
      <trkpt lat="48.23141" lon="-3.36428">
        <ele>177</ele>
      </trkpt>
      <trkpt lat="48.23069" lon="-3.36315">
        <ele>176.9</ele>
      </trkpt>
      <trkpt lat="48.23005" lon="-3.3622">
        <ele>175.9</ele>
      </trkpt>
      <trkpt lat="48.22903" lon="-3.36077">
        <ele>173.9</ele>
      </trkpt>
      <trkpt lat="48.22836" lon="-3.35986">
        <ele>174.9</ele>
      </trkpt>
      <trkpt lat="48.22743" lon="-3.36003">
        <ele>174.8</ele>
      </trkpt>
      <trkpt lat="48.22596" lon="-3.36088">
        <ele>172.3</ele>
      </trkpt>
      <trkpt lat="48.225" lon="-3.36091">
        <ele>171.7</ele>
      </trkpt>
      <trkpt lat="48.22422" lon="-3.35917">
        <ele>171.4</ele>
      </trkpt>
      <trkpt lat="48.22381" lon="-3.3578">
        <ele>171</ele>
      </trkpt>
      <trkpt lat="48.22281" lon="-3.35649">
        <ele>170.2</ele>
      </trkpt>
      <trkpt lat="48.22215" lon="-3.35476">
        <ele>170.4</ele>
      </trkpt>
      <trkpt lat="48.22199" lon="-3.35327">
        <ele>170.5</ele>
      </trkpt>
      <trkpt lat="48.22278" lon="-3.35228">
        <ele>170.8</ele>
      </trkpt>
      <trkpt lat="48.22373" lon="-3.3509">
        <ele>170.2</ele>
      </trkpt>
      <trkpt lat="48.22441" lon="-3.34925">
        <ele>168.4</ele>
      </trkpt>
      <trkpt lat="48.22429" lon="-3.34749">
        <ele>168.5</ele>
      </trkpt>
      <trkpt lat="48.22393" lon="-3.34604">
        <ele>167.2</ele>
      </trkpt>
      <trkpt lat="48.2226" lon="-3.34497">
        <ele>167.7</ele>
      </trkpt>
      <trkpt lat="48.22095" lon="-3.34395">
        <ele>166.2</ele>
      </trkpt>
      <trkpt lat="48.21914" lon="-3.33935">
        <ele>166</ele>
      </trkpt>
      <trkpt lat="48.21855" lon="-3.33761">
        <ele>166</ele>
      </trkpt>
      <trkpt lat="48.21772" lon="-3.33661">
        <ele>166</ele>
      </trkpt>
      <trkpt lat="48.216" lon="-3.33551">
        <ele>166.2</ele>
      </trkpt>
      <trkpt lat="48.21515" lon="-3.33484">
        <ele>166</ele>
      </trkpt>
      <trkpt lat="48.2145" lon="-3.3339">
        <ele>165.4</ele>
      </trkpt>
      <trkpt lat="48.21367" lon="-3.33278">
        <ele>164.5</ele>
      </trkpt>
      <trkpt lat="48.21205" lon="-3.33049">
        <ele>165</ele>
      </trkpt>
      <trkpt lat="48.21133" lon="-3.32945">
        <ele>164</ele>
      </trkpt>
      <trkpt lat="48.21093" lon="-3.32794">
        <ele>164.3</ele>
      </trkpt>
      <trkpt lat="48.21052" lon="-3.32629">
        <ele>164</ele>
      </trkpt>
      <trkpt lat="48.21044" lon="-3.32479">
        <ele>164.6</ele>
      </trkpt>
      <trkpt lat="48.21075" lon="-3.32223">
        <ele>164.7</ele>
      </trkpt>
      <trkpt lat="48.21102" lon="-3.32004">
        <ele>165.6</ele>
      </trkpt>
      <trkpt lat="48.21108" lon="-3.31868">
        <ele>164</ele>
      </trkpt>
      <trkpt lat="48.21041" lon="-3.31711">
        <ele>162.7</ele>
      </trkpt>
      <trkpt lat="48.20929" lon="-3.3149">
        <ele>161</ele>
      </trkpt>
      <trkpt lat="48.20826" lon="-3.3129">
        <ele>161.1</ele>
      </trkpt>
      <trkpt lat="48.20714" lon="-3.3107">
        <ele>161</ele>
      </trkpt>
      <trkpt lat="48.20662" lon="-3.30959">
        <ele>161.8</ele>
      </trkpt>
      <trkpt lat="48.20555" lon="-3.30749">
        <ele>161.9</ele>
      </trkpt>
      <trkpt lat="48.20508" lon="-3.30629">
        <ele>160.7</ele>
      </trkpt>
      <trkpt lat="48.2051" lon="-3.30489">
        <ele>160.9</ele>
      </trkpt>
      <trkpt lat="48.2051" lon="-3.30341">
        <ele>160.1</ele>
      </trkpt>
      <trkpt lat="48.205" lon="-3.30174">
        <ele>159</ele>
      </trkpt>
      <trkpt lat="48.20489" lon="-3.29999">
        <ele>159</ele>
      </trkpt>
      <trkpt lat="48.20471" lon="-3.29713">
        <ele>159.1</ele>
      </trkpt>
      <trkpt lat="48.2046" lon="-3.29577">
        <ele>158.9</ele>
      </trkpt>
      <trkpt lat="48.20402" lon="-3.29442">
        <ele>159</ele>
      </trkpt>
      <trkpt lat="48.20341" lon="-3.2934">
        <ele>159.2</ele>
      </trkpt>
      <trkpt lat="48.20274" lon="-3.29227">
        <ele>158.8</ele>
      </trkpt>
      <trkpt lat="48.20205" lon="-3.29111">
        <ele>157.4</ele>
      </trkpt>
      <trkpt lat="48.20142" lon="-3.28999">
        <ele>157.2</ele>
      </trkpt>
      <trkpt lat="48.20123" lon="-3.28825">
        <ele>158.2</ele>
      </trkpt>
      <trkpt lat="48.20124" lon="-3.28686">
        <ele>158.3</ele>
      </trkpt>
      <trkpt lat="48.20195" lon="-3.28607">
        <ele>158.7</ele>
      </trkpt>
      <trkpt lat="48.20286" lon="-3.28563">
        <ele>157.5</ele>
      </trkpt>
      <trkpt lat="48.20374" lon="-3.28519">
        <ele>157.2</ele>
      </trkpt>
      <trkpt lat="48.20466" lon="-3.28473">
        <ele>157</ele>
      </trkpt>
      <trkpt lat="48.2054" lon="-3.28387">
        <ele>159.6</ele>
      </trkpt>
      <trkpt lat="48.20556" lon="-3.28244">
        <ele>157</ele>
      </trkpt>
      <trkpt lat="48.20566" lon="-3.28098">
        <ele>156.8</ele>
      </trkpt>
      <trkpt lat="48.20529" lon="-3.27977">
        <ele>157</ele>
      </trkpt>
      <trkpt lat="48.20436" lon="-3.27927">
        <ele>156.2</ele>
      </trkpt>
      <trkpt lat="48.2034" lon="-3.27886">
        <ele>155.3</ele>
      </trkpt>
      <trkpt lat="48.20246" lon="-3.27848">
        <ele>155</ele>
      </trkpt>
      <trkpt lat="48.20196" lon="-3.27728">
        <ele>155.2</ele>
      </trkpt>
      <trkpt lat="48.20173" lon="-3.27506">
        <ele>155.1</ele>
      </trkpt>
      <trkpt lat="48.20154" lon="-3.27348">
        <ele>154.6</ele>
      </trkpt>
      <trkpt lat="48.20113" lon="-3.27217">
        <ele>155.1</ele>
      </trkpt>
      <trkpt lat="48.2006" lon="-3.27091">
        <ele>155.4</ele>
      </trkpt>
      <trkpt lat="48.19955" lon="-3.27035">
        <ele>154.7</ele>
      </trkpt>
      <trkpt lat="48.19858" lon="-3.27044">
        <ele>155.5</ele>
      </trkpt>
      <trkpt lat="48.19777" lon="-3.27185">
        <ele>155.2</ele>
      </trkpt>
      <trkpt lat="48.19716" lon="-3.27272">
        <ele>155</ele>
      </trkpt>
      <trkpt lat="48.19654" lon="-3.27179">
        <ele>155.1</ele>
      </trkpt>
      <trkpt lat="48.19683" lon="-3.27042">
        <ele>153.4</ele>
      </trkpt>
      <trkpt lat="48.19685" lon="-3.26886">
        <ele>153.9</ele>
      </trkpt>
      <trkpt lat="48.19648" lon="-3.26736">
        <ele>152.7</ele>
      </trkpt>
      <trkpt lat="48.1961" lon="-3.26583">
        <ele>153</ele>
      </trkpt>
      <trkpt lat="48.19592" lon="-3.2643">
        <ele>152.6</ele>
      </trkpt>
      <trkpt lat="48.19565" lon="-3.26284">
        <ele>154.2</ele>
      </trkpt>
      <trkpt lat="48.19495" lon="-3.26182">
        <ele>153.1</ele>
      </trkpt>
      <trkpt lat="48.19435" lon="-3.26083">
        <ele>152.6</ele>
      </trkpt>
      <trkpt lat="48.19532" lon="-3.25953">
        <ele>152.7</ele>
      </trkpt>
      <trkpt lat="48.19615" lon="-3.25863">
        <ele>146.8</ele>
      </trkpt>
      <trkpt lat="48.19615" lon="-3.25721">
        <ele>146.3</ele>
      </trkpt>
      <trkpt lat="48.19584" lon="-3.25551">
        <ele>144.8</ele>
      </trkpt>
      <trkpt lat="48.1953" lon="-3.25267">
        <ele>143.2</ele>
      </trkpt>
      <trkpt lat="48.19496" lon="-3.25082">
        <ele>143.9</ele>
      </trkpt>
      <trkpt lat="48.19475" lon="-3.24921">
        <ele>143</ele>
      </trkpt>
      <trkpt lat="48.1945" lon="-3.24659">
        <ele>143</ele>
      </trkpt>
      <trkpt lat="48.19433" lon="-3.2447">
        <ele>143.6</ele>
      </trkpt>
      <trkpt lat="48.195" lon="-3.24291">
        <ele>142.5</ele>
      </trkpt>
      <trkpt lat="48.19598" lon="-3.24239">
        <ele>143</ele>
      </trkpt>
      <trkpt lat="48.19734" lon="-3.24186">
        <ele>141.4</ele>
      </trkpt>
      <trkpt lat="48.19826" lon="-3.24126">
        <ele>140.5</ele>
      </trkpt>
      <trkpt lat="48.19914" lon="-3.24038">
        <ele>141.6</ele>
      </trkpt>
      <trkpt lat="48.20018" lon="-3.23932">
        <ele>140.6</ele>
      </trkpt>
      <trkpt lat="48.20172" lon="-3.23773">
        <ele>141</ele>
      </trkpt>
      <trkpt lat="48.20258" lon="-3.23688">
        <ele>139.7</ele>
      </trkpt>
      <trkpt lat="48.20389" lon="-3.23694">
        <ele>139</ele>
      </trkpt>
      <trkpt lat="48.20503" lon="-3.23728">
        <ele>138.6</ele>
      </trkpt>
      <trkpt lat="48.20615" lon="-3.23672">
        <ele>139.2</ele>
      </trkpt>
      <trkpt lat="48.20717" lon="-3.23563">
        <ele>139.3</ele>
      </trkpt>
      <trkpt lat="48.20783" lon="-3.23467">
        <ele>139.5</ele>
      </trkpt>
      <trkpt lat="48.20788" lon="-3.23263">
        <ele>138.4</ele>
      </trkpt>
      <trkpt lat="48.20781" lon="-3.23112">
        <ele>139.2</ele>
      </trkpt>
      <trkpt lat="48.20761" lon="-3.22963">
        <ele>141.2</ele>
      </trkpt>
      <trkpt lat="48.20712" lon="-3.22789">
        <ele>138.6</ele>
      </trkpt>
      <trkpt lat="48.20665" lon="-3.22626">
        <ele>138</ele>
      </trkpt>
      <trkpt lat="48.20621" lon="-3.22471">
        <ele>137.6</ele>
      </trkpt>
      <trkpt lat="48.20564" lon="-3.22278">
        <ele>137.4</ele>
      </trkpt>
      <trkpt lat="48.20559" lon="-3.2213">
        <ele>137.3</ele>
      </trkpt>
      <trkpt lat="48.20595" lon="-3.2199">
        <ele>137.6</ele>
      </trkpt>
      <trkpt lat="48.20641" lon="-3.21868">
        <ele>137.7</ele>
      </trkpt>
      <trkpt lat="48.20753" lon="-3.21744">
        <ele>137.1</ele>
      </trkpt>
      <trkpt lat="48.20861" lon="-3.21623">
        <ele>137.2</ele>
      </trkpt>
      <trkpt lat="48.21016" lon="-3.21447">
        <ele>137.8</ele>
      </trkpt>
      <trkpt lat="48.21068" lon="-3.21347">
        <ele>136</ele>
      </trkpt>
      <trkpt lat="48.21184" lon="-3.21244">
        <ele>135.9</ele>
      </trkpt>
      <trkpt lat="48.2134" lon="-3.21123">
        <ele>136.3</ele>
      </trkpt>
      <trkpt lat="48.21441" lon="-3.21038">
        <ele>135.7</ele>
      </trkpt>
      <trkpt lat="48.21561" lon="-3.20902">
        <ele>135.5</ele>
      </trkpt>
      <trkpt lat="48.21638" lon="-3.20786">
        <ele>135.7</ele>
      </trkpt>
      <trkpt lat="48.21728" lon="-3.20664">
        <ele>135.1</ele>
      </trkpt>
      <trkpt lat="48.21787" lon="-3.2049">
        <ele>136</ele>
      </trkpt>
      <trkpt lat="48.21845" lon="-3.20339">
        <ele>132.2</ele>
      </trkpt>
      <trkpt lat="48.21923" lon="-3.20169">
        <ele>132.4</ele>
      </trkpt>
      <trkpt lat="48.22022" lon="-3.19955">
        <ele>131.3</ele>
      </trkpt>
      <trkpt lat="48.2209" lon="-3.19842">
        <ele>131.7</ele>
      </trkpt>
      <trkpt lat="48.22164" lon="-3.19749">
        <ele>131.5</ele>
      </trkpt>
      <trkpt lat="48.22224" lon="-3.19624">
        <ele>132.5</ele>
      </trkpt>
      <trkpt lat="48.22274" lon="-3.19493">
        <ele>132.7</ele>
      </trkpt>
      <trkpt lat="48.22325" lon="-3.19384">
        <ele>132.6</ele>
      </trkpt>
      <trkpt lat="48.22395" lon="-3.19274">
        <ele>133</ele>
      </trkpt>
      <trkpt lat="48.22461" lon="-3.1917">
        <ele>131.7</ele>
      </trkpt>
      <trkpt lat="48.22506" lon="-3.1901">
        <ele>131.9</ele>
      </trkpt>
      <trkpt lat="48.22562" lon="-3.18893">
        <ele>132</ele>
      </trkpt>
      <trkpt lat="48.22623" lon="-3.18795">
        <ele>131.3</ele>
      </trkpt>
      <trkpt lat="48.22589" lon="-3.18579">
        <ele>132</ele>
      </trkpt>
      <trkpt lat="48.22546" lon="-3.18415">
        <ele>131.7</ele>
      </trkpt>
      <trkpt lat="48.22484" lon="-3.18187">
        <ele>131.6</ele>
      </trkpt>
      <trkpt lat="48.22451" lon="-3.18036">
        <ele>133.4</ele>
      </trkpt>
      <trkpt lat="48.22438" lon="-3.1788">
        <ele>132.4</ele>
      </trkpt>
      <trkpt lat="48.22441" lon="-3.17742">
        <ele>131.3</ele>
      </trkpt>
      <trkpt lat="48.22472" lon="-3.17521">
        <ele>130.2</ele>
      </trkpt>
      <trkpt lat="48.22488" lon="-3.17366">
        <ele>128.9</ele>
      </trkpt>
      <trkpt lat="48.22427" lon="-3.17252">
        <ele>129.3</ele>
      </trkpt>
      <trkpt lat="48.22322" lon="-3.1718">
        <ele>129</ele>
      </trkpt>
      <trkpt lat="48.22167" lon="-3.17155">
        <ele>128.6</ele>
      </trkpt>
      <trkpt lat="48.22072" lon="-3.17145">
        <ele>129.3</ele>
      </trkpt>
      <trkpt lat="48.21983" lon="-3.17082">
        <ele>130.2</ele>
      </trkpt>
      <trkpt lat="48.21907" lon="-3.16984">
        <ele>132.1</ele>
      </trkpt>
      <trkpt lat="48.21874" lon="-3.16846">
        <ele>132.4</ele>
      </trkpt>
      <trkpt lat="48.21889" lon="-3.16649">
        <ele>129</ele>
      </trkpt>
      <trkpt lat="48.21918" lon="-3.16516">
        <ele>132.1</ele>
      </trkpt>
      <trkpt lat="48.21986" lon="-3.1636">
        <ele>128.5</ele>
      </trkpt>
      <trkpt lat="48.22002" lon="-3.16215">
        <ele>128.8</ele>
      </trkpt>
      <trkpt lat="48.21928" lon="-3.16078">
        <ele>129.5</ele>
      </trkpt>
      <trkpt lat="48.21817" lon="-3.16027">
        <ele>129.4</ele>
      </trkpt>
      <trkpt lat="48.21696" lon="-3.16086">
        <ele>129.3</ele>
      </trkpt>
      <trkpt lat="48.21582" lon="-3.16108">
        <ele>128.9</ele>
      </trkpt>
      <trkpt lat="48.21491" lon="-3.16051">
        <ele>129.5</ele>
      </trkpt>
      <trkpt lat="48.21402" lon="-3.1595">
        <ele>131.1</ele>
      </trkpt>
      <trkpt lat="48.21299" lon="-3.15846">
        <ele>128.4</ele>
      </trkpt>
      <trkpt lat="48.21216" lon="-3.1573">
        <ele>128.4</ele>
      </trkpt>
      <trkpt lat="48.21188" lon="-3.15524">
        <ele>131.4</ele>
      </trkpt>
      <trkpt lat="48.21188" lon="-3.15361">
        <ele>129.9</ele>
      </trkpt>
      <trkpt lat="48.21239" lon="-3.15226">
        <ele>129.3</ele>
      </trkpt>
      <trkpt lat="48.21306" lon="-3.15071">
        <ele>127</ele>
      </trkpt>
      <trkpt lat="48.21348" lon="-3.14855">
        <ele>126.6</ele>
      </trkpt>
      <trkpt lat="48.2139" lon="-3.14704">
        <ele>127</ele>
      </trkpt>
      <trkpt lat="48.21414" lon="-3.14537">
        <ele>126.7</ele>
      </trkpt>
      <trkpt lat="48.21443" lon="-3.14385">
        <ele>127</ele>
      </trkpt>
      <trkpt lat="48.21443" lon="-3.14255">
        <ele>127</ele>
      </trkpt>
      <trkpt lat="48.21444" lon="-3.14108">
        <ele>127</ele>
      </trkpt>
      <trkpt lat="48.21435" lon="-3.13913">
        <ele>126.4</ele>
      </trkpt>
      <trkpt lat="48.21428" lon="-3.13776">
        <ele>126.6</ele>
      </trkpt>
      <trkpt lat="48.21396" lon="-3.13643">
        <ele>126</ele>
      </trkpt>
      <trkpt lat="48.2138" lon="-3.13477">
        <ele>126.9</ele>
      </trkpt>
      <trkpt lat="48.21368" lon="-3.13294">
        <ele>126.5</ele>
      </trkpt>
      <trkpt lat="48.21345" lon="-3.13166">
        <ele>126.6</ele>
      </trkpt>
      <trkpt lat="48.21249" lon="-3.13058">
        <ele>127.3</ele>
      </trkpt>
      <trkpt lat="48.2123" lon="-3.1296">
        <ele>124.3</ele>
      </trkpt>
      <trkpt lat="48.2117" lon="-3.12907">
        <ele>125</ele>
      </trkpt>
      <trkpt lat="48.21089" lon="-3.12817">
        <ele>124.8</ele>
      </trkpt>
      <trkpt lat="48.21049" lon="-3.12687">
        <ele>124.9</ele>
      </trkpt>
      <trkpt lat="48.21052" lon="-3.12494">
        <ele>125</ele>
      </trkpt>
      <trkpt lat="48.2107" lon="-3.12322">
        <ele>124</ele>
      </trkpt>
      <trkpt lat="48.21072" lon="-3.12146">
        <ele>124.1</ele>
      </trkpt>
      <trkpt lat="48.21085" lon="-3.1197">
        <ele>125.6</ele>
      </trkpt>
      <trkpt lat="48.21066" lon="-3.1182">
        <ele>127.2</ele>
      </trkpt>
      <trkpt lat="48.21014" lon="-3.11673">
        <ele>124.9</ele>
      </trkpt>
      <trkpt lat="48.2095" lon="-3.11574">
        <ele>126.5</ele>
      </trkpt>
      <trkpt lat="48.20851" lon="-3.11606">
        <ele>125</ele>
      </trkpt>
      <trkpt lat="48.20759" lon="-3.11556">
        <ele>124.3</ele>
      </trkpt>
      <trkpt lat="48.20674" lon="-3.11438">
        <ele>126</ele>
      </trkpt>
      <trkpt lat="48.20602" lon="-3.11312">
        <ele>125.2</ele>
      </trkpt>
      <trkpt lat="48.2057" lon="-3.1118">
        <ele>125.6</ele>
      </trkpt>
      <trkpt lat="48.20592" lon="-3.11049">
        <ele>125.2</ele>
      </trkpt>
      <trkpt lat="48.20681" lon="-3.11017">
        <ele>125.4</ele>
      </trkpt>
      <trkpt lat="48.2081" lon="-3.10987">
        <ele>126.4</ele>
      </trkpt>
      <trkpt lat="48.20896" lon="-3.1102">
        <ele>137.3</ele>
      </trkpt>
      <trkpt lat="48.20818" lon="-3.11118">
        <ele>146</ele>
      </trkpt>
      <trkpt lat="48.20865" lon="-3.11195">
        <ele>155.5</ele>
      </trkpt>
      <trkpt lat="48.20959" lon="-3.1115">
        <ele>164.9</ele>
      </trkpt>
      <trkpt lat="48.21041" lon="-3.11093">
        <ele>171</ele>
      </trkpt>
      <trkpt lat="48.21146" lon="-3.11026">
        <ele>177.9</ele>
      </trkpt>
      <trkpt lat="48.21246" lon="-3.11013">
        <ele>175</ele>
      </trkpt>
      <trkpt lat="48.21308" lon="-3.10938">
        <ele>173.4</ele>
      </trkpt>
      <trkpt lat="48.21337" lon="-3.10805">
        <ele>177.8</ele>
      </trkpt>
      <trkpt lat="48.21367" lon="-3.10679">
        <ele>182.1</ele>
      </trkpt>
      <trkpt lat="48.21478" lon="-3.10479">
        <ele>182.6</ele>
      </trkpt>
      <trkpt lat="48.21543" lon="-3.10365">
        <ele>183.1</ele>
      </trkpt>
      <trkpt lat="48.21621" lon="-3.10141">
        <ele>184.7</ele>
      </trkpt>
      <trkpt lat="48.21726" lon="-3.09812">
        <ele>186.6</ele>
      </trkpt>
      <trkpt lat="48.2178" lon="-3.09637">
        <ele>190.3</ele>
      </trkpt>
      <trkpt lat="48.21805" lon="-3.09462">
        <ele>191.9</ele>
      </trkpt>
      <trkpt lat="48.21799" lon="-3.09277">
        <ele>195.2</ele>
      </trkpt>
      <trkpt lat="48.21762" lon="-3.09084">
        <ele>195.7</ele>
      </trkpt>
      <trkpt lat="48.21741" lon="-3.0893">
        <ele>197.8</ele>
      </trkpt>
      <trkpt lat="48.21745" lon="-3.08777">
        <ele>199.5</ele>
      </trkpt>
      <trkpt lat="48.21799" lon="-3.08572">
        <ele>198.8</ele>
      </trkpt>
      <trkpt lat="48.21852" lon="-3.08416">
        <ele>199</ele>
      </trkpt>
      <trkpt lat="48.2189" lon="-3.08289">
        <ele>201.6</ele>
      </trkpt>
      <trkpt lat="48.21911" lon="-3.08152">
        <ele>202.3</ele>
      </trkpt>
      <trkpt lat="48.21903" lon="-3.07942">
        <ele>203.6</ele>
      </trkpt>
      <trkpt lat="48.21866" lon="-3.07728">
        <ele>203.6</ele>
      </trkpt>
      <trkpt lat="48.21841" lon="-3.07551">
        <ele>203</ele>
      </trkpt>
      <trkpt lat="48.21849" lon="-3.07333">
        <ele>203.2</ele>
      </trkpt>
      <trkpt lat="48.21859" lon="-3.07174">
        <ele>202.7</ele>
      </trkpt>
      <trkpt lat="48.21842" lon="-3.07038">
        <ele>202.4</ele>
      </trkpt>
      <trkpt lat="48.21801" lon="-3.06899">
        <ele>203.6</ele>
      </trkpt>
      <trkpt lat="48.21708" lon="-3.0675">
        <ele>204.5</ele>
      </trkpt>
      <trkpt lat="48.21635" lon="-3.06655">
        <ele>205.6</ele>
      </trkpt>
      <trkpt lat="48.21569" lon="-3.0656">
        <ele>205.4</ele>
      </trkpt>
      <trkpt lat="48.21518" lon="-3.06411">
        <ele>205.3</ele>
      </trkpt>
      <trkpt lat="48.21509" lon="-3.06252">
        <ele>204.7</ele>
      </trkpt>
      <trkpt lat="48.2154" lon="-3.06109">
        <ele>202.7</ele>
      </trkpt>
      <trkpt lat="48.21628" lon="-3.05928">
        <ele>198.8</ele>
      </trkpt>
      <trkpt lat="48.21684" lon="-3.05782">
        <ele>196</ele>
      </trkpt>
      <trkpt lat="48.21716" lon="-3.05574">
        <ele>194</ele>
      </trkpt>
      <trkpt lat="48.2173" lon="-3.05438">
        <ele>191</ele>
      </trkpt>
      <trkpt lat="48.21675" lon="-3.05177">
        <ele>189.8</ele>
      </trkpt>
      <trkpt lat="48.2161" lon="-3.04966">
        <ele>186</ele>
      </trkpt>
      <trkpt lat="48.21558" lon="-3.048">
        <ele>183.6</ele>
      </trkpt>
      <trkpt lat="48.21495" lon="-3.04591">
        <ele>179.4</ele>
      </trkpt>
      <trkpt lat="48.21478" lon="-3.04404">
        <ele>177.2</ele>
      </trkpt>
      <trkpt lat="48.21517" lon="-3.04246">
        <ele>177.5</ele>
      </trkpt>
      <trkpt lat="48.21556" lon="-3.041">
        <ele>175.3</ele>
      </trkpt>
      <trkpt lat="48.21549" lon="-3.03967">
        <ele>173.9</ele>
      </trkpt>
      <trkpt lat="48.21516" lon="-3.03805">
        <ele>173.4</ele>
      </trkpt>
      <trkpt lat="48.21474" lon="-3.03637">
        <ele>172.9</ele>
      </trkpt>
      <trkpt lat="48.21489" lon="-3.03451">
        <ele>173.5</ele>
      </trkpt>
      <trkpt lat="48.215" lon="-3.0331">
        <ele>171.1</ele>
      </trkpt>
      <trkpt lat="48.21527" lon="-3.03179">
        <ele>169.7</ele>
      </trkpt>
      <trkpt lat="48.21611" lon="-3.02937">
        <ele>167.5</ele>
      </trkpt>
      <trkpt lat="48.21701" lon="-3.02702">
        <ele>165.5</ele>
      </trkpt>
      <trkpt lat="48.21735" lon="-3.02569">
        <ele>159.6</ele>
      </trkpt>
      <trkpt lat="48.21713" lon="-3.02406">
        <ele>161.7</ele>
      </trkpt>
      <trkpt lat="48.21633" lon="-3.02277">
        <ele>157.9</ele>
      </trkpt>
      <trkpt lat="48.21565" lon="-3.02159">
        <ele>154.1</ele>
      </trkpt>
      <trkpt lat="48.21518" lon="-3.01945">
        <ele>151.9</ele>
      </trkpt>
      <trkpt lat="48.21484" lon="-3.01715">
        <ele>148.3</ele>
      </trkpt>
      <trkpt lat="48.21484" lon="-3.0157">
        <ele>147.8</ele>
      </trkpt>
      <trkpt lat="48.21552" lon="-3.01356">
        <ele>145.6</ele>
      </trkpt>
      <trkpt lat="48.21581" lon="-3.0121">
        <ele>143.8</ele>
      </trkpt>
      <trkpt lat="48.21554" lon="-3.01066">
        <ele>143.1</ele>
      </trkpt>
      <trkpt lat="48.21455" lon="-3.00898">
        <ele>144.4</ele>
      </trkpt>
      <trkpt lat="48.21325" lon="-3.00747">
        <ele>145.8</ele>
      </trkpt>
      <trkpt lat="48.21251" lon="-3.00658">
        <ele>148.3</ele>
      </trkpt>
      <trkpt lat="48.21154" lon="-3.00545">
        <ele>150.3</ele>
      </trkpt>
      <trkpt lat="48.21046" lon="-3.00421">
        <ele>152</ele>
      </trkpt>
      <trkpt lat="48.20884" lon="-3.00234">
        <ele>146.8</ele>
      </trkpt>
      <trkpt lat="48.20795" lon="-3.00131">
        <ele>149.9</ele>
      </trkpt>
      <trkpt lat="48.20702" lon="-3.00059">
        <ele>153.6</ele>
      </trkpt>
      <trkpt lat="48.2058" lon="-3.0003">
        <ele>152</ele>
      </trkpt>
      <trkpt lat="48.20457" lon="-3.00065">
        <ele>156.2</ele>
      </trkpt>
      <trkpt lat="48.20332" lon="-3.00122">
        <ele>158.3515625</ele>
      </trkpt>
      <trkpt lat="48.20181" lon="-3.00143">
        <ele>160.06640625</ele>
      </trkpt>
      <trkpt lat="48.20088" lon="-3.00106">
        <ele>159.59765625</ele>
      </trkpt>
      <trkpt lat="48.20003" lon="-3.0003">
        <ele>159.5078125</ele>
      </trkpt>
      <trkpt lat="48.19929" lon="-2.99968">
        <ele>157.37</ele>
        <time>2008-01-20T00:14:27Z</time>
      </trkpt>
      <trkpt lat="48.19835" lon="-2.99956">
        <ele>150.2</ele>
        <time>2008-01-20T00:29:17Z</time>
      </trkpt>
      <trkpt lat="48.19759" lon="-3.0005">
        <ele>158.93</ele>
        <time>2008-01-20T00:29:37Z</time>
      </trkpt>
      <trkpt lat="48.19734" lon="-3.00194">
        <ele>164.73</ele>
        <time>2008-01-20T00:30:09Z</time>
      </trkpt>
      <trkpt lat="48.19722" lon="-3.00341">
        <ele>165.63</ele>
        <time>2008-01-20T00:30:29Z</time>
      </trkpt>
      <trkpt lat="48.19682" lon="-3.00456">
        <ele>146.5</ele>
        <time>2008-01-20T00:33:48Z</time>
      </trkpt>
      <trkpt lat="48.19621" lon="-3.00561">
        <ele>144.7</ele>
        <time>2008-01-20T00:34:07Z</time>
      </trkpt>
      <trkpt lat="48.19623" lon="-3.00685">
        <ele>152.13</ele>
        <time>2008-01-20T00:34:37Z</time>
      </trkpt>
      <trkpt lat="48.19588" lon="-3.00812">
        <ele>159.27</ele>
        <time>2008-01-20T00:36:24Z</time>
      </trkpt>
      <trkpt lat="48.19515" lon="-3.00884">
        <ele>171.3</ele>
        <time>2008-01-20T00:37:33Z</time>
      </trkpt>
      <trkpt lat="48.19424" lon="-3.00894">
        <ele>164.6</ele>
        <time>2008-01-20T00:37:55Z</time>
      </trkpt>
      <trkpt lat="48.19331" lon="-3.00893">
        <ele>159.6</ele>
        <time>2008-01-20T00:38:12Z</time>
      </trkpt>
      <trkpt lat="48.19241" lon="-3.00909">
        <ele>154.6</ele>
        <time>2008-01-20T00:38:28Z</time>
      </trkpt>
      <trkpt lat="48.19154" lon="-3.00941">
        <ele>150.5</ele>
        <time>2008-01-20T00:38:48Z</time>
      </trkpt>
      <trkpt lat="48.19069" lon="-3.00993">
        <ele>153.5</ele>
        <time>2008-01-20T00:39:38Z</time>
      </trkpt>
      <trkpt lat="48.19013" lon="-3.01098">
        <ele>147.2</ele>
        <time>2008-01-20T00:40:01Z</time>
      </trkpt>
      <trkpt lat="48.18948" lon="-3.01191">
        <ele>133.23</ele>
        <time>2008-01-20T00:41:01Z</time>
      </trkpt>
      <trkpt lat="48.18877" lon="-3.0128">
        <ele>120.43</ele>
        <time>2008-01-20T00:41:42Z</time>
      </trkpt>
      <trkpt lat="48.18885" lon="-3.01375">
        <ele>103.47</ele>
        <time>2008-01-20T00:42:27Z</time>
      </trkpt>
      <trkpt lat="48.18948" lon="-3.01471">
        <ele>96.2</ele>
        <time>2008-01-20T00:42:49Z</time>
      </trkpt>
      <trkpt lat="48.1899" lon="-3.01593">
        <ele>93.3</ele>
        <time>2008-01-20T00:43:09Z</time>
      </trkpt>
      <trkpt lat="48.18999" lon="-3.01708">
        <ele>95.13</ele>
        <time>2008-01-20T00:44:26Z</time>
      </trkpt>
      <trkpt lat="48.18942" lon="-3.016">
        <ele>92.43</ele>
        <time>2008-01-20T00:45:19Z</time>
      </trkpt>
      <trkpt lat="48.18877" lon="-3.01507">
        <ele>92.5</ele>
        <time>2008-01-20T00:46:11Z</time>
      </trkpt>
      <trkpt lat="48.18813" lon="-3.01409">
        <ele>92.9</ele>
        <time>2008-01-20T00:46:35Z</time>
      </trkpt>
      <trkpt lat="48.1875" lon="-3.0131">
        <ele>91</ele>
        <time>2008-01-20T00:47:00Z</time>
      </trkpt>
      <trkpt lat="48.18671" lon="-3.01241">
        <ele>91.13</ele>
        <time>2008-01-20T00:47:24Z</time>
      </trkpt>
      <trkpt lat="48.18582" lon="-3.01192">
        <ele>86.5</ele>
        <time>2008-01-20T00:47:50Z</time>
      </trkpt>
      <trkpt lat="48.18495" lon="-3.01135">
        <ele>86.17</ele>
        <time>2008-01-20T00:48:14Z</time>
      </trkpt>
      <trkpt lat="48.18408" lon="-3.01084">
        <ele>89.03</ele>
        <time>2008-01-20T00:48:38Z</time>
      </trkpt>
      <trkpt lat="48.18318" lon="-3.01054">
        <ele>87.93</ele>
        <time>2008-01-20T00:49:01Z</time>
      </trkpt>
      <trkpt lat="48.18223" lon="-3.0105">
        <ele>85.7</ele>
        <time>2008-01-20T00:49:25Z</time>
      </trkpt>
      <trkpt lat="48.18126" lon="-3.01039">
        <ele>87.8</ele>
        <time>2008-01-20T00:49:49Z</time>
      </trkpt>
      <trkpt lat="48.18034" lon="-3.01019">
        <ele>86.33</ele>
        <time>2008-01-20T00:50:14Z</time>
      </trkpt>
      <trkpt lat="48.17944" lon="-3.01006">
        <ele>93.28</ele>
        <time>2008-01-20T00:50:46Z</time>
      </trkpt>
      <trkpt lat="48.17853" lon="-3.00984">
        <ele>91.6</ele>
        <time>2008-01-20T00:52:12Z</time>
      </trkpt>
      <trkpt lat="48.17762" lon="-3.00978">
        <ele>92.3</ele>
        <time>2008-01-20T00:53:14Z</time>
      </trkpt>
      <trkpt lat="48.17674" lon="-3.00943">
        <ele>90.8</ele>
        <time>2008-01-20T00:53:33Z</time>
      </trkpt>
      <trkpt lat="48.17596" lon="-3.0087">
        <ele>91.13</ele>
        <time>2008-01-20T00:53:55Z</time>
      </trkpt>
      <trkpt lat="48.17514" lon="-3.00814">
        <ele>82.8</ele>
        <time>2008-01-20T01:12:18Z</time>
      </trkpt>
      <trkpt lat="48.17433" lon="-3.00749">
        <ele>81.53</ele>
        <time>2008-01-20T01:12:43Z</time>
      </trkpt>
      <trkpt lat="48.17363" lon="-3.00664">
        <ele>79.3</ele>
        <time>2008-01-20T01:13:09Z</time>
      </trkpt>
      <trkpt lat="48.17336" lon="-3.00538">
        <ele>92.7</ele>
        <time>2008-01-20T01:14:07Z</time>
      </trkpt>
      <trkpt lat="48.17313" lon="-3.00404">
        <ele>75.9</ele>
        <time>2008-01-20T01:14:54Z</time>
      </trkpt>
      <trkpt lat="48.17289" lon="-3.00269">
        <ele>78.3</ele>
        <time>2008-01-20T01:15:16Z</time>
      </trkpt>
      <trkpt lat="48.17264" lon="-3.0014">
        <ele>78.9</ele>
        <time>2008-01-20T01:17:03Z</time>
      </trkpt>
      <trkpt lat="48.17242" lon="-3.0001">
        <ele>79.8</ele>
        <time>2008-01-20T01:17:26Z</time>
      </trkpt>
      <trkpt lat="48.17217" lon="-2.99878">
        <ele>80.2</ele>
        <time>2008-01-20T01:17:49Z</time>
      </trkpt>
      <trkpt lat="48.17193" lon="-2.99744">
        <ele>79.1</ele>
        <time>2008-01-20T01:18:14Z</time>
      </trkpt>
      <trkpt lat="48.17169" lon="-2.99612">
        <ele>76.4</ele>
        <time>2008-01-20T01:18:43Z</time>
      </trkpt>
      <trkpt lat="48.17127" lon="-2.99489">
        <ele>76.57</ele>
        <time>2008-01-20T01:19:44Z</time>
      </trkpt>
      <trkpt lat="48.17042" lon="-2.99445">
        <ele>74.8</ele>
        <time>2008-01-20T01:20:10Z</time>
      </trkpt>
      <trkpt lat="48.16949" lon="-2.99465">
        <ele>75.33</ele>
        <time>2008-01-20T01:20:34Z</time>
      </trkpt>
      <trkpt lat="48.16861" lon="-2.9949">
        <ele>76.27</ele>
        <time>2008-01-20T01:20:58Z</time>
      </trkpt>
      <trkpt lat="48.16771" lon="-2.99522">
        <ele>73.77</ele>
        <time>2008-01-20T01:21:24Z</time>
      </trkpt>
      <trkpt lat="48.16683" lon="-2.99574">
        <ele>74.9</ele>
        <time>2008-01-20T01:21:52Z</time>
      </trkpt>
      <trkpt lat="48.16596" lon="-2.99628">
        <ele>75.67</ele>
        <time>2008-01-20T01:22:24Z</time>
      </trkpt>
      <trkpt lat="48.16515" lon="-2.99677">
        <ele>79.4</ele>
        <time>2008-01-20T01:24:09Z</time>
      </trkpt>
      <trkpt lat="48.16429" lon="-2.99729">
        <ele>75.6</ele>
        <time>2008-01-20T01:24:54Z</time>
      </trkpt>
      <trkpt lat="48.16343" lon="-2.99782">
        <ele>74.43</ele>
        <time>2008-01-20T01:26:13Z</time>
      </trkpt>
      <trkpt lat="48.16259" lon="-2.99834">
        <ele>71.4</ele>
        <time>2008-01-20T01:26:34Z</time>
      </trkpt>
      <trkpt lat="48.16175" lon="-2.99885">
        <ele>70.4</ele>
        <time>2008-01-20T01:26:53Z</time>
      </trkpt>
      <trkpt lat="48.16088" lon="-2.99938">
        <ele>68</ele>
        <time>2008-01-20T01:27:13Z</time>
      </trkpt>
      <trkpt lat="48.16" lon="-2.9998">
        <ele>70.23</ele>
        <time>2008-01-20T01:27:32Z</time>
      </trkpt>
      <trkpt lat="48.1591" lon="-3.00006">
        <ele>70.5</ele>
        <time>2008-01-20T01:27:53Z</time>
      </trkpt>
      <trkpt lat="48.15849" lon="-3.00109">
        <ele>74.1</ele>
        <time>2008-01-20T01:28:16Z</time>
      </trkpt>
      <trkpt lat="48.15836" lon="-3.00242">
        <ele>79.4</ele>
        <time>2008-01-20T01:29:24Z</time>
      </trkpt>
      <trkpt lat="48.15853" lon="-3.00376">
        <ele>74.5</ele>
        <time>2008-01-20T01:29:47Z</time>
      </trkpt>
      <trkpt lat="48.1589" lon="-3.00504">
        <ele>72.7</ele>
        <time>2008-01-20T01:30:07Z</time>
      </trkpt>
      <trkpt lat="48.15927" lon="-3.0063">
        <ele>70</ele>
        <time>2008-01-20T01:30:28Z</time>
      </trkpt>
      <trkpt lat="48.15932" lon="-3.00766">
        <ele>70.7</ele>
        <time>2008-01-20T01:30:49Z</time>
      </trkpt>
      <trkpt lat="48.15931" lon="-3.00905">
        <ele>71.3</ele>
        <time>2008-01-20T01:31:10Z</time>
      </trkpt>
      <trkpt lat="48.15907" lon="-3.01036">
        <ele>71.9</ele>
        <time>2008-01-20T01:31:32Z</time>
      </trkpt>
      <trkpt lat="48.15819" lon="-3.01075">
        <ele>70.7</ele>
        <time>2008-01-20T01:31:52Z</time>
      </trkpt>
      <trkpt lat="48.15725" lon="-3.01093">
        <ele>70.9</ele>
        <time>2008-01-20T01:32:13Z</time>
      </trkpt>
      <trkpt lat="48.15634" lon="-3.01094">
        <ele>71.6</ele>
        <time>2008-01-20T01:32:34Z</time>
      </trkpt>
      <trkpt lat="48.15544" lon="-3.01092">
        <ele>71.53</ele>
        <time>2008-01-20T01:33:00Z</time>
      </trkpt>
      <trkpt lat="48.15453" lon="-3.01109">
        <ele>71.4</ele>
        <time>2008-01-20T01:34:58Z</time>
      </trkpt>
      <trkpt lat="48.15371" lon="-3.01178">
        <ele>67.5</ele>
        <time>2008-01-20T01:35:20Z</time>
      </trkpt>
      <trkpt lat="48.1528" lon="-3.01173">
        <ele>70.3</ele>
        <time>2008-01-20T01:35:39Z</time>
      </trkpt>
      <trkpt lat="48.15197" lon="-3.01113">
        <ele>75.4</ele>
        <time>2008-01-20T01:35:59Z</time>
      </trkpt>
      <trkpt lat="48.15124" lon="-3.0103">
        <ele>71.1</ele>
        <time>2008-01-20T01:36:21Z</time>
      </trkpt>
      <trkpt lat="48.15081" lon="-3.00907">
        <ele>69</ele>
        <time>2008-01-20T01:36:43Z</time>
      </trkpt>
      <trkpt lat="48.15041" lon="-3.00787">
        <ele>70.4</ele>
        <time>2008-01-20T01:37:04Z</time>
      </trkpt>
      <trkpt lat="48.14982" lon="-3.00679">
        <ele>68</ele>
        <time>2008-01-20T01:37:26Z</time>
      </trkpt>
      <trkpt lat="48.14924" lon="-3.00569">
        <ele>69</ele>
        <time>2008-01-20T01:37:48Z</time>
      </trkpt>
      <trkpt lat="48.14861" lon="-3.00468">
        <ele>69.1</ele>
        <time>2008-01-20T01:38:10Z</time>
      </trkpt>
      <trkpt lat="48.14792" lon="-3.00379">
        <ele>70.7</ele>
        <time>2008-01-20T01:38:33Z</time>
      </trkpt>
      <trkpt lat="48.14705" lon="-3.00336">
        <ele>71.63</ele>
        <time>2008-01-20T01:38:55Z</time>
      </trkpt>
      <trkpt lat="48.14614" lon="-3.00305">
        <ele>71.5</ele>
        <time>2008-01-20T01:39:19Z</time>
      </trkpt>
      <trkpt lat="48.14526" lon="-3.0026">
        <ele>72.2</ele>
        <time>2008-01-20T01:39:43Z</time>
      </trkpt>
      <trkpt lat="48.1444" lon="-3.00252">
        <ele>70.4</ele>
        <time>2008-01-20T01:40:08Z</time>
      </trkpt>
      <trkpt lat="48.14374" lon="-3.00347">
        <ele>67.4</ele>
        <time>2008-01-20T01:40:30Z</time>
      </trkpt>
      <trkpt lat="48.14323" lon="-3.00459">
        <ele>68.9</ele>
        <time>2008-01-20T01:40:58Z</time>
      </trkpt>
      <trkpt lat="48.14284" lon="-3.0058">
        <ele>67.6</ele>
        <time>2008-01-20T01:43:20Z</time>
      </trkpt>
      <trkpt lat="48.14233" lon="-3.00699">
        <ele>68</ele>
        <time>2008-01-20T01:43:43Z</time>
      </trkpt>
      <trkpt lat="48.14156" lon="-3.00771">
        <ele>63.8</ele>
        <time>2008-01-20T01:44:02Z</time>
      </trkpt>
      <trkpt lat="48.14089" lon="-3.00861">
        <ele>65.4</ele>
        <time>2008-01-20T01:44:24Z</time>
      </trkpt>
      <trkpt lat="48.14016" lon="-3.00945">
        <ele>65.5</ele>
        <time>2008-01-20T01:44:45Z</time>
      </trkpt>
      <trkpt lat="48.13937" lon="-3.01023">
        <ele>63.77</ele>
        <time>2008-01-20T01:45:07Z</time>
      </trkpt>
      <trkpt lat="48.13859" lon="-3.01093">
        <ele>65.23</ele>
        <time>2008-01-20T01:45:29Z</time>
      </trkpt>
      <trkpt lat="48.13772" lon="-3.0108">
        <ele>64.4</ele>
        <time>2008-01-20T01:46:51Z</time>
      </trkpt>
      <trkpt lat="48.13688" lon="-3.01018">
        <ele>67.9</ele>
        <time>2008-01-20T01:47:12Z</time>
      </trkpt>
      <trkpt lat="48.13639" lon="-3.00907">
        <ele>67.6</ele>
        <time>2008-01-20T01:47:34Z</time>
      </trkpt>
      <trkpt lat="48.13653" lon="-3.00773">
        <ele>69.1</ele>
        <time>2008-01-20T01:47:58Z</time>
      </trkpt>
      <trkpt lat="48.13647" lon="-3.00639">
        <ele>70.4</ele>
        <time>2008-01-20T01:48:21Z</time>
      </trkpt>
      <trkpt lat="48.13622" lon="-3.00507">
        <ele>68.2</ele>
        <time>2008-01-20T01:48:44Z</time>
      </trkpt>
      <trkpt lat="48.13563" lon="-3.00403">
        <ele>69.2</ele>
        <time>2008-01-20T01:49:06Z</time>
      </trkpt>
      <trkpt lat="48.13492" lon="-3.00315">
        <ele>69</ele>
        <time>2008-01-20T01:49:29Z</time>
      </trkpt>
      <trkpt lat="48.13418" lon="-3.00226">
        <ele>67.4</ele>
        <time>2008-01-20T01:49:53Z</time>
      </trkpt>
      <trkpt lat="48.13328" lon="-3.00216">
        <ele>66.63</ele>
        <time>2008-01-20T01:50:19Z</time>
      </trkpt>
      <trkpt lat="48.1324" lon="-3.00269">
        <ele>68.47</ele>
        <time>2008-01-20T01:50:45Z</time>
      </trkpt>
      <trkpt lat="48.13166" lon="-3.00346">
        <ele>71.97</ele>
        <time>2008-01-20T01:51:17Z</time>
      </trkpt>
      <trkpt lat="48.13101" lon="-3.00438">
        <ele>64.5</ele>
        <time>2008-01-20T02:31:07Z</time>
      </trkpt>
      <trkpt lat="48.13077" lon="-3.00572">
        <ele>65.43</ele>
        <time>2008-01-20T02:31:55Z</time>
      </trkpt>
      <trkpt lat="48.1306" lon="-3.00708">
        <ele>64.6</ele>
        <time>2008-01-20T02:32:23Z</time>
      </trkpt>
      <trkpt lat="48.13048" lon="-3.00842">
        <ele>64.7</ele>
        <time>2008-01-20T02:32:45Z</time>
      </trkpt>
      <trkpt lat="48.13032" lon="-3.00976">
        <ele>63.6</ele>
        <time>2008-01-20T02:33:10Z</time>
      </trkpt>
      <trkpt lat="48.1298" lon="-3.01094">
        <ele>57.4</ele>
        <time>2008-01-20T02:33:36Z</time>
      </trkpt>
      <trkpt lat="48.12916" lon="-3.01192">
        <ele>61.2</ele>
        <time>2008-01-20T02:35:00Z</time>
      </trkpt>
      <trkpt lat="48.12871" lon="-3.01307">
        <ele>63.4</ele>
        <time>2008-01-20T02:35:24Z</time>
      </trkpt>
      <trkpt lat="48.12816" lon="-3.01414">
        <ele>65.9</ele>
        <time>2008-01-20T02:35:48Z</time>
      </trkpt>
      <trkpt lat="48.12731" lon="-3.01471">
        <ele>66</ele>
        <time>2008-01-20T02:36:11Z</time>
      </trkpt>
      <trkpt lat="48.12642" lon="-3.01509">
        <ele>65.4</ele>
        <time>2008-01-20T02:36:33Z</time>
      </trkpt>
      <trkpt lat="48.1255" lon="-3.0153">
        <ele>66.4</ele>
        <time>2008-01-20T02:36:56Z</time>
      </trkpt>
      <trkpt lat="48.12455" lon="-3.01505">
        <ele>59.87</ele>
        <time>2008-01-20T02:37:22Z</time>
      </trkpt>
      <trkpt lat="48.12366" lon="-3.01467">
        <ele>63.23</ele>
        <time>2008-01-20T02:37:48Z</time>
      </trkpt>
      <trkpt lat="48.12283" lon="-3.01404">
        <ele>63.3</ele>
        <time>2008-01-20T02:39:05Z</time>
      </trkpt>
      <trkpt lat="48.12215" lon="-3.01312">
        <ele>61.3</ele>
        <time>2008-01-20T02:39:30Z</time>
      </trkpt>
      <trkpt lat="48.12166" lon="-3.01196">
        <ele>61.8</ele>
        <time>2008-01-20T02:39:54Z</time>
      </trkpt>
      <trkpt lat="48.12161" lon="-3.01064">
        <ele>63.1</ele>
        <time>2008-01-20T02:40:17Z</time>
      </trkpt>
      <trkpt lat="48.12172" lon="-3.00929">
        <ele>63.2</ele>
        <time>2008-01-20T02:40:39Z</time>
      </trkpt>
      <trkpt lat="48.12173" lon="-3.00794">
        <ele>62.2</ele>
        <time>2008-01-20T02:41:00Z</time>
      </trkpt>
      <trkpt lat="48.12141" lon="-3.00668">
        <ele>63.8</ele>
        <time>2008-01-20T02:41:20Z</time>
      </trkpt>
      <trkpt lat="48.12126" lon="-3.00535">
        <ele>63.4</ele>
        <time>2008-01-20T02:41:43Z</time>
      </trkpt>
      <trkpt lat="48.12147" lon="-3.00403">
        <ele>65.6</ele>
        <time>2008-01-20T02:42:16Z</time>
      </trkpt>
      <trkpt lat="48.12194" lon="-3.00287">
        <ele>60</ele>
        <time>2008-01-20T02:42:39Z</time>
      </trkpt>
      <trkpt lat="48.12257" lon="-3.00188">
        <ele>60</ele>
        <time>2008-01-20T02:43:03Z</time>
      </trkpt>
      <trkpt lat="48.12318" lon="-3.00086">
        <ele>56.7</ele>
        <time>2008-01-20T02:44:35Z</time>
      </trkpt>
      <trkpt lat="48.12366" lon="-2.99967">
        <ele>59.9</ele>
        <time>2008-01-20T02:45:00Z</time>
      </trkpt>
      <trkpt lat="48.12386" lon="-2.99834">
        <ele>58.7</ele>
        <time>2008-01-20T02:45:21Z</time>
      </trkpt>
      <trkpt lat="48.1237" lon="-2.99698">
        <ele>61.9</ele>
        <time>2008-01-20T02:45:43Z</time>
      </trkpt>
      <trkpt lat="48.12336" lon="-2.9957">
        <ele>63</ele>
        <time>2008-01-20T02:46:07Z</time>
      </trkpt>
      <trkpt lat="48.1226" lon="-2.99491">
        <ele>61.27</ele>
        <time>2008-01-20T02:46:33Z</time>
      </trkpt>
      <trkpt lat="48.12172" lon="-2.99474">
        <ele>63.59</ele>
        <time>2008-01-20T02:50:12Z</time>
      </trkpt>
      <trkpt lat="48.12079" lon="-2.9946">
        <ele>66</ele>
        <time>2008-01-20T02:56:01Z</time>
      </trkpt>
      <trkpt lat="48.11997" lon="-2.99407">
        <ele>65.6</ele>
        <time>2008-01-20T02:57:06Z</time>
      </trkpt>
      <trkpt lat="48.11914" lon="-2.99341">
        <ele>64.5</ele>
        <time>2008-01-20T02:57:28Z</time>
      </trkpt>
      <trkpt lat="48.11822" lon="-2.99308">
        <ele>64.53</ele>
        <time>2008-01-20T02:57:49Z</time>
      </trkpt>
      <trkpt lat="48.11727" lon="-2.99283">
        <ele>65.67</ele>
        <time>2008-01-20T02:58:12Z</time>
      </trkpt>
      <trkpt lat="48.11647" lon="-2.99334">
        <ele>79.8</ele>
        <time>2008-01-20T02:58:36Z</time>
      </trkpt>
      <trkpt lat="48.11568" lon="-2.99409">
        <ele>81.1</ele>
        <time>2008-01-20T02:58:58Z</time>
      </trkpt>
      <trkpt lat="48.1149" lon="-2.99478">
        <ele>76.7</ele>
        <time>2008-01-20T02:59:21Z</time>
      </trkpt>
      <trkpt lat="48.1141" lon="-2.99549">
        <ele>64.7</ele>
        <time>2008-01-20T02:59:48Z</time>
      </trkpt>
      <trkpt lat="48.11371" lon="-2.99673">
        <ele>62</ele>
        <time>2008-01-20T03:01:25Z</time>
      </trkpt>
      <trkpt lat="48.11354" lon="-2.99808">
        <ele>62.3</ele>
        <time>2008-01-20T03:01:47Z</time>
      </trkpt>
      <trkpt lat="48.11336" lon="-2.99943">
        <ele>62.9</ele>
        <time>2008-01-20T03:02:09Z</time>
      </trkpt>
      <trkpt lat="48.11317" lon="-3.00079">
        <ele>62.9</ele>
        <time>2008-01-20T03:02:31Z</time>
      </trkpt>
      <trkpt lat="48.11285" lon="-3.00208">
        <ele>61</ele>
        <time>2008-01-20T03:02:52Z</time>
      </trkpt>
      <trkpt lat="48.11218" lon="-3.00303">
        <ele>61.1</ele>
        <time>2008-01-20T03:03:12Z</time>
      </trkpt>
      <trkpt lat="48.11135" lon="-3.00366">
        <ele>60.6</ele>
        <time>2008-01-20T03:03:32Z</time>
      </trkpt>
      <trkpt lat="48.11044" lon="-3.00407">
        <ele>59.2</ele>
        <time>2008-01-20T03:04:09Z</time>
      </trkpt>
      <trkpt lat="48.10951" lon="-3.00436">
        <ele>67.77</ele>
        <time>2008-01-20T03:04:30Z</time>
      </trkpt>
      <trkpt lat="48.10868" lon="-3.00405">
        <ele>63.83</ele>
        <time>2008-01-20T03:06:13Z</time>
      </trkpt>
      <trkpt lat="48.10785" lon="-3.00347">
        <ele>58</ele>
        <time>2008-01-20T03:06:37Z</time>
      </trkpt>
      <trkpt lat="48.1071" lon="-3.00264">
        <ele>56.3</ele>
        <time>2008-01-20T03:06:58Z</time>
      </trkpt>
      <trkpt lat="48.10633" lon="-3.00182">
        <ele>54.1</ele>
        <time>2008-01-20T03:07:47Z</time>
      </trkpt>
      <trkpt lat="48.10558" lon="-3.00108">
        <ele>54.7</ele>
        <time>2008-01-20T03:08:09Z</time>
      </trkpt>
      <trkpt lat="48.10494" lon="-3.00014">
        <ele>53.8</ele>
        <time>2008-01-20T03:08:31Z</time>
      </trkpt>
      <trkpt lat="48.10427" lon="-2.99919">
        <ele>55.6</ele>
        <time>2008-01-20T03:08:53Z</time>
      </trkpt>
      <trkpt lat="48.10349" lon="-2.99837">
        <ele>58.5</ele>
        <time>2008-01-20T03:09:16Z</time>
      </trkpt>
      <trkpt lat="48.10274" lon="-2.99759">
        <ele>58.6</ele>
        <time>2008-01-20T03:09:40Z</time>
      </trkpt>
      <trkpt lat="48.1019" lon="-2.99694">
        <ele>53.57</ele>
        <time>2008-01-20T03:11:15Z</time>
      </trkpt>
      <trkpt lat="48.10106" lon="-2.99634">
        <ele>56.9</ele>
        <time>2008-01-20T03:11:39Z</time>
      </trkpt>
      <trkpt lat="48.10021" lon="-2.99575">
        <ele>57.9</ele>
        <time>2008-01-20T03:12:00Z</time>
      </trkpt>
      <trkpt lat="48.09938" lon="-2.99514">
        <ele>58.8</ele>
        <time>2008-01-20T03:12:21Z</time>
      </trkpt>
      <trkpt lat="48.0987" lon="-2.99423">
        <ele>55.9</ele>
        <time>2008-01-20T03:12:45Z</time>
      </trkpt>
      <trkpt lat="48.09807" lon="-2.99326">
        <ele>55</ele>
        <time>2008-01-20T03:13:07Z</time>
      </trkpt>
      <trkpt lat="48.09741" lon="-2.99226">
        <ele>57.93</ele>
        <time>2008-01-20T03:13:48Z</time>
      </trkpt>
      <trkpt lat="48.09668" lon="-2.99137">
        <ele>58.1</ele>
        <time>2008-01-20T03:14:15Z</time>
      </trkpt>
      <trkpt lat="48.09585" lon="-2.99076">
        <ele>60.57</ele>
        <time>2008-01-20T03:14:38Z</time>
      </trkpt>
      <trkpt lat="48.09496" lon="-2.99041">
        <ele>62.57</ele>
        <time>2008-01-20T03:15:03Z</time>
      </trkpt>
      <trkpt lat="48.09405" lon="-2.99007">
        <ele>63.03</ele>
        <time>2008-01-20T03:15:27Z</time>
      </trkpt>
      <trkpt lat="48.09314" lon="-2.99007">
        <ele>62.1</ele>
        <time>2008-01-20T03:17:24Z</time>
      </trkpt>
      <trkpt lat="48.09224" lon="-2.99">
        <ele>61.5</ele>
        <time>2008-01-20T03:17:52Z</time>
      </trkpt>
      <trkpt lat="48.09141" lon="-2.9894">
        <ele>60.6</ele>
        <time>2008-01-20T03:18:48Z</time>
      </trkpt>
      <trkpt lat="48.09069" lon="-2.98858">
        <ele>59.8</ele>
        <time>2008-01-20T03:19:08Z</time>
      </trkpt>
      <trkpt lat="48.08997" lon="-2.9877">
        <ele>58.7</ele>
        <time>2008-01-20T03:19:27Z</time>
      </trkpt>
      <trkpt lat="48.08918" lon="-2.987">
        <ele>59.86</ele>
        <time>2008-01-20T03:19:51Z</time>
      </trkpt>
      <trkpt lat="48.08841" lon="-2.98633">
        <ele>58.8</ele>
        <time>2008-01-20T03:22:21Z</time>
      </trkpt>
      <trkpt lat="48.0876" lon="-2.98577">
        <ele>58.2</ele>
        <time>2008-01-20T03:22:41Z</time>
      </trkpt>
      <trkpt lat="48.08678" lon="-2.9852">
        <ele>57.5</ele>
        <time>2008-01-20T03:23:04Z</time>
      </trkpt>
      <trkpt lat="48.08595" lon="-2.98463">
        <ele>58.4</ele>
        <time>2008-01-20T03:24:10Z</time>
      </trkpt>
      <trkpt lat="48.08509" lon="-2.98411">
        <ele>56.8</ele>
        <time>2008-01-20T03:24:33Z</time>
      </trkpt>
      <trkpt lat="48.08422" lon="-2.98373">
        <ele>54</ele>
        <time>2008-01-20T03:24:54Z</time>
      </trkpt>
      <trkpt lat="48.08329" lon="-2.98363">
        <ele>51.87</ele>
        <time>2008-01-20T03:25:17Z</time>
      </trkpt>
      <trkpt lat="48.08239" lon="-2.98366">
        <ele>56</ele>
        <time>2008-01-20T03:26:57Z</time>
      </trkpt>
      <trkpt lat="48.08147" lon="-2.98377">
        <ele>56.34</ele>
        <time>2008-01-20T03:27:20Z</time>
      </trkpt>
      <trkpt lat="48.08053" lon="-2.98398">
        <ele>56.67</ele>
        <time>2008-01-20T03:27:46Z</time>
      </trkpt>
      <trkpt lat="48.07965" lon="-2.98414">
        <ele>57.07</ele>
        <time>2008-01-20T03:29:07Z</time>
      </trkpt>
      <trkpt lat="48.07876" lon="-2.98448">
        <ele>50.63</ele>
        <time>2008-01-20T03:30:03Z</time>
      </trkpt>
      <trkpt lat="48.0779" lon="-2.98495">
        <ele>50.1</ele>
        <time>2008-01-20T03:30:26Z</time>
      </trkpt>
      <trkpt lat="48.07699" lon="-2.98491">
        <ele>49.7</ele>
        <time>2008-01-20T03:30:49Z</time>
      </trkpt>
      <trkpt lat="48.07625" lon="-2.9841">
        <ele>49.9</ele>
        <time>2008-01-20T03:31:13Z</time>
      </trkpt>
      <trkpt lat="48.07573" lon="-2.98294">
        <ele>55</ele>
        <time>2008-01-20T03:32:31Z</time>
      </trkpt>
      <trkpt lat="48.0754" lon="-2.98167">
        <ele>54.83</ele>
        <time>2008-01-20T03:32:53Z</time>
      </trkpt>
      <trkpt lat="48.07544" lon="-2.98027">
        <ele>60.43</ele>
        <time>2008-01-20T03:33:21Z</time>
      </trkpt>
      <trkpt lat="48.07557" lon="-2.97896">
        <ele>66.8</ele>
        <time>2008-01-20T03:35:17Z</time>
      </trkpt>
      <trkpt lat="48.07574" lon="-2.97765">
        <ele>46.53</ele>
        <time>2008-01-20T03:36:27Z</time>
      </trkpt>
      <trkpt lat="48.07594" lon="-2.9764">
        <ele>57.4</ele>
        <time>2008-01-20T03:38:16Z</time>
      </trkpt>
      <trkpt lat="48.07636" lon="-2.97514">
        <ele>57.5</ele>
        <time>2008-01-20T03:38:49Z</time>
      </trkpt>
      <trkpt lat="48.07656" lon="-2.97388">
        <ele>52.3</ele>
        <time>2008-01-20T03:39:46Z</time>
      </trkpt>
      <trkpt lat="48.07647" lon="-2.97252">
        <ele>52.4</ele>
        <time>2008-01-20T03:40:13Z</time>
      </trkpt>
      <trkpt lat="48.07619" lon="-2.97122">
        <ele>50.63</ele>
        <time>2008-01-20T03:40:56Z</time>
      </trkpt>
      <trkpt lat="48.07573" lon="-2.97003">
        <ele>57.33</ele>
        <time>2008-01-20T03:44:21Z</time>
      </trkpt>
      <trkpt lat="48.07496" lon="-2.96918">
        <ele>53.1</ele>
        <time>2008-01-20T03:44:53Z</time>
      </trkpt>
      <trkpt lat="48.07412" lon="-2.96856">
        <ele>50.83</ele>
        <time>2008-01-20T03:45:20Z</time>
      </trkpt>
      <trkpt lat="48.07323" lon="-2.96806">
        <ele>46.1</ele>
        <time>2008-01-20T03:46:31Z</time>
      </trkpt>
      <trkpt lat="48.07256" lon="-2.96711">
        <ele>48.7</ele>
        <time>2008-01-20T03:47:19Z</time>
      </trkpt>
      <trkpt lat="48.07225" lon="-2.96584">
        <ele>56</ele>
        <time>2008-01-20T03:48:42Z</time>
      </trkpt>
      <trkpt lat="48.07277" lon="-2.96483">
        <ele>60.28</ele>
        <time>2008-01-20T03:49:25Z</time>
      </trkpt>
      <trkpt lat="48.07359" lon="-2.96426">
        <ele>60.12</ele>
        <time>2008-01-20T03:50:28Z</time>
      </trkpt>
      <trkpt lat="48.07431" lon="-2.96348">
        <ele>55.73</ele>
        <time>2008-01-20T03:51:36Z</time>
      </trkpt>
      <trkpt lat="48.07446" lon="-2.9624">
        <ele>62.46</ele>
        <time>2008-01-20T03:54:11Z</time>
      </trkpt>
      <trkpt lat="48.07468" lon="-2.96133">
        <ele>47.8</ele>
        <time>2008-01-20T04:35:24Z</time>
      </trkpt>
      <trkpt lat="48.07505" lon="-2.96002">
        <ele>52.4</ele>
        <time>2008-01-20T04:36:08Z</time>
      </trkpt>
      <trkpt lat="48.07555" lon="-2.95882">
        <ele>48.2</ele>
        <time>2008-01-20T04:36:36Z</time>
      </trkpt>
      <trkpt lat="48.07632" lon="-2.95804">
        <ele>48.1</ele>
        <time>2008-01-20T04:37:02Z</time>
      </trkpt>
      <trkpt lat="48.07704" lon="-2.95719">
        <ele>58.1</ele>
        <time>2008-01-20T04:37:29Z</time>
      </trkpt>
      <trkpt lat="48.07779" lon="-2.9564">
        <ele>61</ele>
        <time>2008-01-20T04:37:55Z</time>
      </trkpt>
      <trkpt lat="48.07857" lon="-2.95562">
        <ele>61.9</ele>
        <time>2008-01-20T04:38:21Z</time>
      </trkpt>
      <trkpt lat="48.07934" lon="-2.95488">
        <ele>62.4</ele>
        <time>2008-01-20T04:38:46Z</time>
      </trkpt>
      <trkpt lat="48.08011" lon="-2.95411">
        <ele>62.5</ele>
        <time>2008-01-20T04:39:10Z</time>
      </trkpt>
      <trkpt lat="48.08087" lon="-2.95337">
        <ele>66.37</ele>
        <time>2008-01-20T04:39:35Z</time>
      </trkpt>
      <trkpt lat="48.08167" lon="-2.95257">
        <ele>64.1</ele>
        <time>2008-01-20T04:40:03Z</time>
      </trkpt>
      <trkpt lat="48.08248" lon="-2.95179">
        <ele>66.6</ele>
        <time>2008-01-20T04:40:29Z</time>
      </trkpt>
      <trkpt lat="48.08313" lon="-2.95087">
        <ele>70.4</ele>
        <time>2008-01-20T04:41:33Z</time>
      </trkpt>
      <trkpt lat="48.08375" lon="-2.94986">
        <ele>66.1</ele>
        <time>2008-01-20T04:41:55Z</time>
      </trkpt>
      <trkpt lat="48.08436" lon="-2.94885">
        <ele>66.87</ele>
        <time>2008-01-20T04:42:20Z</time>
      </trkpt>
      <trkpt lat="48.08497" lon="-2.94786">
        <ele>66</ele>
        <time>2008-01-20T04:42:48Z</time>
      </trkpt>
      <trkpt lat="48.08548" lon="-2.94674">
        <ele>63.8</ele>
        <time>2008-01-20T04:43:15Z</time>
      </trkpt>
      <trkpt lat="48.08565" lon="-2.94542">
        <ele>62.8</ele>
        <time>2008-01-20T04:43:38Z</time>
      </trkpt>
      <trkpt lat="48.08581" lon="-2.94406">
        <ele>66.98</ele>
        <time>2008-01-20T04:45:03Z</time>
      </trkpt>
      <trkpt lat="48.08596" lon="-2.94274">
        <ele>65.51</ele>
        <time>2008-01-20T04:46:05Z</time>
      </trkpt>
      <trkpt lat="48.08657" lon="-2.94174">
        <ele>65.1</ele>
        <time>2008-01-20T04:46:43Z</time>
      </trkpt>
      <trkpt lat="48.08719" lon="-2.94073">
        <ele>70.9</ele>
        <time>2008-01-20T04:47:06Z</time>
      </trkpt>
      <trkpt lat="48.08783" lon="-2.9397">
        <ele>66.9</ele>
        <time>2008-01-20T04:47:29Z</time>
      </trkpt>
      <trkpt lat="48.08846" lon="-2.93872">
        <ele>66</ele>
        <time>2008-01-20T04:47:52Z</time>
      </trkpt>
      <trkpt lat="48.08906" lon="-2.93771">
        <ele>67.03</ele>
        <time>2008-01-20T04:48:14Z</time>
      </trkpt>
      <trkpt lat="48.08989" lon="-2.93714">
        <ele>73.77</ele>
        <time>2008-01-20T04:48:41Z</time>
      </trkpt>
      <trkpt lat="48.09078" lon="-2.93696">
        <ele>69.8</ele>
        <time>2008-01-20T04:49:16Z</time>
      </trkpt>
      <trkpt lat="48.09169" lon="-2.93679">
        <ele>77.02</ele>
        <time>2008-01-20T04:50:01Z</time>
      </trkpt>
      <trkpt lat="48.09267" lon="-2.93661">
        <ele>75.6</ele>
        <time>2008-01-20T04:51:13Z</time>
      </trkpt>
      <trkpt lat="48.09359" lon="-2.93645">
        <ele>73.07</ele>
        <time>2008-01-20T04:51:38Z</time>
      </trkpt>
      <trkpt lat="48.09452" lon="-2.93646">
        <ele>77.1</ele>
        <time>2008-01-20T04:52:01Z</time>
      </trkpt>
      <trkpt lat="48.09544" lon="-2.93651">
        <ele>78.6</ele>
        <time>2008-01-20T04:52:33Z</time>
      </trkpt>
      <trkpt lat="48.09639" lon="-2.93655">
        <ele>77.07</ele>
        <time>2008-01-20T04:53:01Z</time>
      </trkpt>
      <trkpt lat="48.0973" lon="-2.93691">
        <ele>78.57</ele>
        <time>2008-01-20T04:53:26Z</time>
      </trkpt>
      <trkpt lat="48.09819" lon="-2.93741">
        <ele>66.4</ele>
        <time>2008-01-20T04:54:03Z</time>
      </trkpt>
      <trkpt lat="48.09903" lon="-2.93791">
        <ele>76.17</ele>
        <time>2008-01-20T04:55:33Z</time>
      </trkpt>
      <trkpt lat="48.0999" lon="-2.93844">
        <ele>65.5</ele>
        <time>2008-01-20T04:55:59Z</time>
      </trkpt>
      <trkpt lat="48.10074" lon="-2.93893">
        <ele>72</ele>
        <time>2008-01-20T04:56:21Z</time>
      </trkpt>
      <trkpt lat="48.10161" lon="-2.93945">
        <ele>72.2</ele>
        <time>2008-01-20T04:56:48Z</time>
      </trkpt>
      <trkpt lat="48.10248" lon="-2.93979">
        <ele>73.33</ele>
        <time>2008-01-20T04:57:10Z</time>
      </trkpt>
      <trkpt lat="48.10338" lon="-2.94007">
        <ele>81.65</ele>
        <time>2008-01-20T04:58:30Z</time>
      </trkpt>
      <trkpt lat="48.10429" lon="-2.9404">
        <ele>79.2</ele>
        <time>2008-01-20T04:59:15Z</time>
      </trkpt>
      <trkpt lat="48.10519" lon="-2.94072">
        <ele>82.17</ele>
        <time>2008-01-20T04:59:36Z</time>
      </trkpt>
      <trkpt lat="48.10615" lon="-2.94095">
        <ele>84.4</ele>
        <time>2008-01-20T05:00:08Z</time>
      </trkpt>
      <trkpt lat="48.10682" lon="-2.94011">
        <ele>81.7</ele>
        <time>2008-01-20T05:00:35Z</time>
      </trkpt>
      <trkpt lat="48.10677" lon="-2.93877">
        <ele>84.4</ele>
        <time>2008-01-20T05:01:36Z</time>
      </trkpt>
      <trkpt lat="48.10666" lon="-2.93745">
        <ele>89.17</ele>
        <time>2008-01-20T05:03:33Z</time>
      </trkpt>
      <trkpt lat="48.10662" lon="-2.93608">
        <ele>88.7</ele>
        <time>2008-01-20T05:04:03Z</time>
      </trkpt>
      <trkpt lat="48.10673" lon="-2.9347">
        <ele>90.13</ele>
        <time>2008-01-20T05:04:30Z</time>
      </trkpt>
      <trkpt lat="48.10683" lon="-2.93335">
        <ele>91.7</ele>
        <time>2008-01-20T05:05:25Z</time>
      </trkpt>
      <trkpt lat="48.1067" lon="-2.932">
        <ele>91</ele>
        <time>2008-01-20T05:05:49Z</time>
      </trkpt>
      <trkpt lat="48.10653" lon="-2.93065">
        <ele>91.8</ele>
        <time>2008-01-20T05:07:02Z</time>
      </trkpt>
      <trkpt lat="48.10635" lon="-2.92928">
        <ele>93.9</ele>
        <time>2008-01-20T05:07:39Z</time>
      </trkpt>
      <trkpt lat="48.10599" lon="-2.92802">
        <ele>93.5</ele>
        <time>2008-01-20T05:09:22Z</time>
      </trkpt>
      <trkpt lat="48.10576" lon="-2.92672">
        <ele>97.67</ele>
        <time>2008-01-20T05:09:56Z</time>
      </trkpt>
      <trkpt lat="48.10571" lon="-2.92534">
        <ele>91.67</ele>
        <time>2008-01-20T05:10:29Z</time>
      </trkpt>
      <trkpt lat="48.10594" lon="-2.924">
        <ele>99.5</ele>
        <time>2008-01-20T05:11:04Z</time>
      </trkpt>
      <trkpt lat="48.1062" lon="-2.92273">
        <ele>110.1</ele>
        <time>2008-01-20T05:12:24Z</time>
      </trkpt>
      <trkpt lat="48.10633" lon="-2.9214">
        <ele>112.72</ele>
        <time>2008-01-20T05:12:54Z</time>
      </trkpt>
      <trkpt lat="48.10633" lon="-2.92006">
        <ele>119.23</ele>
        <time>2008-01-20T05:13:50Z</time>
      </trkpt>
      <trkpt lat="48.10634" lon="-2.91873">
        <ele>116.7</ele>
        <time>2008-01-20T05:14:16Z</time>
      </trkpt>
      <trkpt lat="48.10623" lon="-2.91744">
        <ele>115.4</ele>
        <time>2008-01-20T05:15:08Z</time>
      </trkpt>
      <trkpt lat="48.10625" lon="-2.91612">
        <ele>112.9</ele>
        <time>2008-01-20T05:15:58Z</time>
      </trkpt>
      <trkpt lat="48.10593" lon="-2.91483">
        <ele>106.4</ele>
        <time>2008-01-20T05:16:20Z</time>
      </trkpt>
      <trkpt lat="48.10578" lon="-2.91351">
        <ele>105.7</ele>
        <time>2008-01-20T05:16:44Z</time>
      </trkpt>
      <trkpt lat="48.10616" lon="-2.91229">
        <ele>105.6</ele>
        <time>2008-01-20T05:17:09Z</time>
      </trkpt>
      <trkpt lat="48.10693" lon="-2.9116">
        <ele>106.17</ele>
        <time>2008-01-20T05:17:35Z</time>
      </trkpt>
      <trkpt lat="48.10788" lon="-2.91146">
        <ele>106.7</ele>
        <time>2008-01-20T05:18:04Z</time>
      </trkpt>
      <trkpt lat="48.10884" lon="-2.91138">
        <ele>105.2</ele>
        <time>2008-01-20T05:18:34Z</time>
      </trkpt>
      <trkpt lat="48.10979" lon="-2.91134">
        <ele>105.83</ele>
        <time>2008-01-20T05:19:04Z</time>
      </trkpt>
      <trkpt lat="48.1107" lon="-2.91162">
        <ele>107.43</ele>
        <time>2008-01-20T05:20:26Z</time>
      </trkpt>
      <trkpt lat="48.11161" lon="-2.91192">
        <ele>107.5</ele>
        <time>2008-01-20T05:21:03Z</time>
      </trkpt>
      <trkpt lat="48.11233" lon="-2.91118">
        <ele>107.3</ele>
        <time>2008-01-20T05:21:24Z</time>
      </trkpt>
      <trkpt lat="48.11239" lon="-2.90985">
        <ele>108.5</ele>
        <time>2008-01-20T05:22:15Z</time>
      </trkpt>
      <trkpt lat="48.11261" lon="-2.90857">
        <ele>109.2</ele>
        <time>2008-01-20T05:22:39Z</time>
      </trkpt>
      <trkpt lat="48.11306" lon="-2.90739">
        <ele>113.3</ele>
        <time>2008-01-20T05:23:04Z</time>
      </trkpt>
      <trkpt lat="48.11348" lon="-2.90619">
        <ele>114.3</ele>
        <time>2008-01-20T05:23:30Z</time>
      </trkpt>
      <trkpt lat="48.11396" lon="-2.905">
        <ele>113.2</ele>
        <time>2008-01-20T05:23:57Z</time>
      </trkpt>
      <trkpt lat="48.11469" lon="-2.90413">
        <ele>110.83</ele>
        <time>2008-01-20T05:24:28Z</time>
      </trkpt>
      <trkpt lat="48.11492" lon="-2.90285">
        <ele>112.6</ele>
        <time>2008-01-20T05:25:18Z</time>
      </trkpt>
      <trkpt lat="48.11451" lon="-2.89814">
        <ele>120</ele>
        <time>2012-03-01T16:00:11Z</time>
      </trkpt>
      <trkpt lat="48.1141" lon="-2.89524">
        <ele>119.6</ele>
      </trkpt>
      <trkpt lat="48.11417" lon="-2.89362">
        <ele>124</ele>
      </trkpt>
      <trkpt lat="48.11446" lon="-2.89204">
        <ele>125.4</ele>
      </trkpt>
      <trkpt lat="48.11463" lon="-2.89038">
        <ele>127.4</ele>
      </trkpt>
      <trkpt lat="48.11439" lon="-2.88807">
        <ele>131.1</ele>
      </trkpt>
      <trkpt lat="48.11445" lon="-2.88605">
        <ele>130.8</ele>
      </trkpt>
      <trkpt lat="48.11489" lon="-2.8835">
        <ele>128.8</ele>
      </trkpt>
      <trkpt lat="48.11569" lon="-2.88143">
        <ele>130.1</ele>
      </trkpt>
      <trkpt lat="48.11702" lon="-2.87974">
        <ele>131.3</ele>
      </trkpt>
      <trkpt lat="48.11795" lon="-2.87373">
        <ele>130.3</ele>
      </trkpt>
      <trkpt lat="48.11768" lon="-2.87143">
        <ele>129</ele>
      </trkpt>
      <trkpt lat="48.11815" lon="-2.86786">
        <ele>130</ele>
        <time>2012-03-01T16:00:58Z</time>
      </trkpt>
      <trkpt lat="48.11894" lon="-2.86625">
        <ele>129.3</ele>
      </trkpt>
      <trkpt lat="48.1196" lon="-2.86503">
        <ele>127.8</ele>
      </trkpt>
      <trkpt lat="48.11963" lon="-2.86276">
        <ele>129.7</ele>
      </trkpt>
      <trkpt lat="48.11936" lon="-2.86082">
        <ele>129</ele>
      </trkpt>
      <trkpt lat="48.1199" lon="-2.85784">
        <ele>128.9</ele>
      </trkpt>
      <trkpt lat="48.11949" lon="-2.85583">
        <ele>129</ele>
      </trkpt>
      <trkpt lat="48.11896" lon="-2.85326">
        <ele>128.5</ele>
      </trkpt>
      <trkpt lat="48.11889" lon="-2.85162">
        <ele>130</ele>
      </trkpt>
      <trkpt lat="48.11815" lon="-2.84991">
        <ele>129.5</ele>
      </trkpt>
      <trkpt lat="48.11613" lon="-2.84952">
        <ele>129.5</ele>
      </trkpt>
      <trkpt lat="48.11489" lon="-2.84921">
        <ele>129.8</ele>
      </trkpt>
      <trkpt lat="48.11374" lon="-2.84776">
        <ele>129.5</ele>
      </trkpt>
      <trkpt lat="48.11354" lon="-2.84634">
        <ele>131.8</ele>
      </trkpt>
      <trkpt lat="48.1135" lon="-2.84417">
        <ele>133.1</ele>
      </trkpt>
      <trkpt lat="48.11562" lon="-2.839">
        <ele>135.8</ele>
      </trkpt>
      <trkpt lat="48.11659" lon="-2.83652">
        <ele>131.6</ele>
      </trkpt>
      <trkpt lat="48.11664" lon="-2.83495">
        <ele>130.5</ele>
      </trkpt>
      <trkpt lat="48.11585" lon="-2.83324">
        <ele>126.8</ele>
      </trkpt>
      <trkpt lat="48.11518" lon="-2.83229">
        <ele>125.5</ele>
      </trkpt>
      <trkpt lat="48.11438" lon="-2.83142">
        <ele>123.7</ele>
      </trkpt>
      <trkpt lat="48.11349" lon="-2.83032">
        <ele>121.5</ele>
      </trkpt>
      <trkpt lat="48.11282" lon="-2.82918">
        <ele>119.5</ele>
      </trkpt>
      <trkpt lat="48.11227" lon="-2.82766">
        <ele>116.5</ele>
      </trkpt>
      <trkpt lat="48.11206" lon="-2.82632">
        <ele>115.8</ele>
      </trkpt>
      <trkpt lat="48.11191" lon="-2.82479">
        <ele>113.9</ele>
      </trkpt>
      <trkpt lat="48.1116" lon="-2.82254">
        <ele>110.8</ele>
      </trkpt>
      <trkpt lat="48.11068" lon="-2.8202">
        <ele>108.2</ele>
      </trkpt>
      <trkpt lat="48.11004" lon="-2.81876">
        <ele>105.9</ele>
      </trkpt>
      <trkpt lat="48.10895" lon="-2.81631">
        <ele>108</ele>
        <time>2012-03-01T16:01:22Z</time>
      </trkpt>
      <trkpt lat="48.1077" lon="-2.81353">
        <ele>100.1</ele>
      </trkpt>
      <trkpt lat="48.10652" lon="-2.81107">
        <ele>95.5</ele>
      </trkpt>
      <trkpt lat="48.10596" lon="-2.80942">
        <ele>94.4</ele>
      </trkpt>
      <trkpt lat="48.10584" lon="-2.80806">
        <ele>92</ele>
      </trkpt>
      <trkpt lat="48.10588" lon="-2.80659">
        <ele>89.5</ele>
      </trkpt>
      <trkpt lat="48.10601" lon="-2.80463">
        <ele>90.2</ele>
      </trkpt>
      <trkpt lat="48.10606" lon="-2.80287">
        <ele>87.7</ele>
      </trkpt>
      <trkpt lat="48.10577" lon="-2.80056">
        <ele>86.8</ele>
      </trkpt>
      <trkpt lat="48.1053" lon="-2.79754">
        <ele>84.3</ele>
      </trkpt>
      <trkpt lat="48.10464" lon="-2.7923">
        <ele>80.2</ele>
      </trkpt>
      <trkpt lat="48.10452" lon="-2.79074">
        <ele>79.1</ele>
      </trkpt>
      <trkpt lat="48.10451" lon="-2.78825">
        <ele>77.2</ele>
      </trkpt>
      <trkpt lat="48.10462" lon="-2.78683">
        <ele>76.2</ele>
      </trkpt>
      <trkpt lat="48.1053" lon="-2.78397">
        <ele>74</ele>
      </trkpt>
      <trkpt lat="48.1057" lon="-2.78268">
        <ele>72</ele>
      </trkpt>
      <trkpt lat="48.10546" lon="-2.78085">
        <ele>71.4</ele>
      </trkpt>
      <trkpt lat="48.10423" lon="-2.78039">
        <ele>70.9</ele>
      </trkpt>
      <trkpt lat="48.10306" lon="-2.78012">
        <ele>69.6</ele>
      </trkpt>
      <trkpt lat="48.10072" lon="-2.77959">
        <ele>69</ele>
      </trkpt>
      <trkpt lat="48.09882" lon="-2.77903">
        <ele>68.6</ele>
      </trkpt>
      <trkpt lat="48.0968" lon="-2.77731">
        <ele>68.5</ele>
      </trkpt>
      <trkpt lat="48.09476" lon="-2.77674">
        <ele>68.2</ele>
      </trkpt>
      <trkpt lat="48.09385" lon="-2.7775">
        <ele>67.9</ele>
      </trkpt>
      <trkpt lat="48.09242" lon="-2.77762">
        <ele>67.4</ele>
      </trkpt>
      <trkpt lat="48.09143" lon="-2.77763">
        <ele>67.5</ele>
      </trkpt>
      <trkpt lat="48.08968" lon="-2.77748">
        <ele>67.8</ele>
      </trkpt>
      <trkpt lat="48.08815" lon="-2.77639">
        <ele>67</ele>
      </trkpt>
      <trkpt lat="48.08714" lon="-2.77542">
        <ele>70</ele>
        <time>2012-03-01T16:01:40Z</time>
      </trkpt>
      <trkpt lat="48.08667" lon="-2.77399">
        <ele>67</ele>
      </trkpt>
      <trkpt lat="48.08651" lon="-2.77218">
        <ele>67.2</ele>
      </trkpt>
      <trkpt lat="48.08688" lon="-2.77051">
        <ele>66</ele>
      </trkpt>
      <trkpt lat="48.08737" lon="-2.76894">
        <ele>65.4</ele>
      </trkpt>
      <trkpt lat="48.08672" lon="-2.76803">
        <ele>65.8</ele>
      </trkpt>
      <trkpt lat="48.0854" lon="-2.76702">
        <ele>65.4</ele>
      </trkpt>
      <trkpt lat="48.08348" lon="-2.76553">
        <ele>65.1</ele>
      </trkpt>
      <trkpt lat="48.08119" lon="-2.76375">
        <ele>67.3</ele>
      </trkpt>
      <trkpt lat="48.08035" lon="-2.76263">
        <ele>68.3</ele>
      </trkpt>
      <trkpt lat="48.07973" lon="-2.76159">
        <ele>64.7</ele>
      </trkpt>
      <trkpt lat="48.07861" lon="-2.76019">
        <ele>63.7</ele>
      </trkpt>
      <trkpt lat="48.07784" lon="-2.75948">
        <ele>64</ele>
      </trkpt>
      <trkpt lat="48.07676" lon="-2.75847">
        <ele>66</ele>
        <time>2012-03-01T16:02:21Z</time>
      </trkpt>
      <trkpt lat="48.0759" lon="-2.7577">
        <ele>63.9</ele>
      </trkpt>
      <trkpt lat="48.07518" lon="-2.75689">
        <ele>63.8</ele>
      </trkpt>
      <trkpt lat="48.07422" lon="-2.75676">
        <ele>63.6</ele>
      </trkpt>
      <trkpt lat="48.07281" lon="-2.75633">
        <ele>63.1</ele>
      </trkpt>
      <trkpt lat="48.07165" lon="-2.75539">
        <ele>65</ele>
      </trkpt>
      <trkpt lat="48.07076" lon="-2.75422">
        <ele>64.3</ele>
      </trkpt>
      <trkpt lat="48.07032" lon="-2.75269">
        <ele>68</ele>
        <time>2012-03-01T15:57:35Z</time>
      </trkpt>
      <trkpt lat="48.07014" lon="-2.75128">
        <ele>67</ele>
        <time>2012-03-01T15:57:09Z</time>
      </trkpt>
      <trkpt lat="48.06981" lon="-2.75005">
        <ele>63.7</ele>
      </trkpt>
      <trkpt lat="48.06904" lon="-2.7497">
        <ele>67</ele>
        <time>2012-03-01T15:56:58Z</time>
      </trkpt>
      <trkpt lat="48.06824" lon="-2.7497">
        <ele>64</ele>
      </trkpt>
      <trkpt lat="48.06735" lon="-2.75">
        <ele>68</ele>
        <time>2012-03-01T15:56:29Z</time>
      </trkpt>
      <trkpt lat="48.06666" lon="-2.74893">
        <ele>62.9</ele>
      </trkpt>
      <trkpt lat="48.06598" lon="-2.74682">
        <ele>62.7</ele>
      </trkpt>
      <trkpt lat="48.06528" lon="-2.74556">
        <ele>61.9</ele>
      </trkpt>
      <trkpt lat="48.06421" lon="-2.74361">
        <ele>62</ele>
      </trkpt>
      <trkpt lat="48.06352" lon="-2.74253">
        <ele>61.6</ele>
      </trkpt>
      <trkpt lat="48.06278" lon="-2.7399">
        <ele>62</ele>
      </trkpt>
      <trkpt lat="48.0624" lon="-2.73808">
        <ele>60.7</ele>
      </trkpt>
      <trkpt lat="48.0609" lon="-2.73587">
        <ele>59.9</ele>
      </trkpt>
      <trkpt lat="48.05854" lon="-2.73368">
        <ele>60.2</ele>
      </trkpt>
      <trkpt lat="48.057" lon="-2.73358">
        <ele>60.5</ele>
      </trkpt>
      <trkpt lat="48.05585" lon="-2.73401">
        <ele>60</ele>
      </trkpt>
      <trkpt lat="48.05481" lon="-2.73437">
        <ele>59.8</ele>
      </trkpt>
      <trkpt lat="48.05363" lon="-2.73492">
        <ele>59.3</ele>
      </trkpt>
      <trkpt lat="48.05258" lon="-2.73467">
        <ele>59.1</ele>
      </trkpt>
      <trkpt lat="48.05184" lon="-2.73361">
        <ele>59.6</ele>
      </trkpt>
      <trkpt lat="48.05052" lon="-2.73095">
        <ele>58.5</ele>
      </trkpt>
      <trkpt lat="48.049" lon="-2.72816">
        <ele>59.4</ele>
      </trkpt>
      <trkpt lat="48.04695" lon="-2.7244">
        <ele>57</ele>
      </trkpt>
      <trkpt lat="48.04482" lon="-2.72064">
        <ele>57.1</ele>
      </trkpt>
      <trkpt lat="48.04296" lon="-2.71736">
        <ele>57</ele>
      </trkpt>
      <trkpt lat="48.04144" lon="-2.71457">
        <ele>57.4</ele>
      </trkpt>
      <trkpt lat="48.0385" lon="-2.71165">
        <ele>56.4</ele>
      </trkpt>
      <trkpt lat="48.03598" lon="-2.70927">
        <ele>56.7</ele>
      </trkpt>
      <trkpt lat="48.0263" lon="-2.69982">
        <ele>52.9</ele>
      </trkpt>
      <trkpt lat="48.02398" lon="-2.69757">
        <ele>52</ele>
      </trkpt>
      <trkpt lat="48.02345" lon="-2.69588">
        <ele>52</ele>
      </trkpt>
      <trkpt lat="48.02216" lon="-2.68781">
        <ele>52.5</ele>
      </trkpt>
      <trkpt lat="48.0223" lon="-2.68585">
        <ele>51.8</ele>
      </trkpt>
      <trkpt lat="48.02208" lon="-2.68399">
        <ele>52.7</ele>
      </trkpt>
      <trkpt lat="48.02102" lon="-2.68232">
        <ele>50</ele>
      </trkpt>
      <trkpt lat="48.02047" lon="-2.68063">
        <ele>52.3</ele>
      </trkpt>
      <trkpt lat="48.01861" lon="-2.6784">
        <ele>50.2</ele>
      </trkpt>
      <trkpt lat="48.0169" lon="-2.67676">
        <ele>48.6</ele>
      </trkpt>
      <trkpt lat="48.01576" lon="-2.67599">
        <ele>48.9</ele>
      </trkpt>
      <trkpt lat="48.01421" lon="-2.675">
        <ele>48</ele>
      </trkpt>
      <trkpt lat="48.01271" lon="-2.67434">
        <ele>48.5</ele>
      </trkpt>
      <trkpt lat="48.01187" lon="-2.67357">
        <ele>48.7</ele>
      </trkpt>
      <trkpt lat="48.01078" lon="-2.67245">
        <ele>48.4</ele>
      </trkpt>
      <trkpt lat="48.00997" lon="-2.672">
        <ele>46.3</ele>
      </trkpt>
      <trkpt lat="48.00913" lon="-2.67095">
        <ele>48.2</ele>
      </trkpt>
      <trkpt lat="48.00957" lon="-2.66854">
        <ele>46.5</ele>
      </trkpt>
      <trkpt lat="48.00988" lon="-2.66664">
        <ele>46.4</ele>
      </trkpt>
      <trkpt lat="48.01037" lon="-2.66499">
        <ele>46.6</ele>
      </trkpt>
      <trkpt lat="48.01065" lon="-2.66319">
        <ele>46</ele>
      </trkpt>
      <trkpt lat="48.00955" lon="-2.66154">
        <ele>46</ele>
      </trkpt>
      <trkpt lat="48.00891" lon="-2.65988">
        <ele>46</ele>
      </trkpt>
      <trkpt lat="48.00683" lon="-2.65945">
        <ele>46.6</ele>
      </trkpt>
      <trkpt lat="48.00552" lon="-2.65909">
        <ele>46.9</ele>
      </trkpt>
      <trkpt lat="48.00424" lon="-2.65503">
        <ele>46</ele>
        <time>2012-03-01T16:15:30Z</time>
      </trkpt>
      <trkpt lat="48.00332" lon="-2.65267">
        <ele>44.6</ele>
      </trkpt>
      <trkpt lat="48.00221" lon="-2.65181">
        <ele>44.5</ele>
      </trkpt>
      <trkpt lat="48.00059" lon="-2.65232">
        <ele>45</ele>
      </trkpt>
      <trkpt lat="47.99898" lon="-2.65277">
        <ele>44.4</ele>
      </trkpt>
      <trkpt lat="47.99759" lon="-2.65378">
        <ele>44</ele>
      </trkpt>
      <trkpt lat="47.99661" lon="-2.65429">
        <ele>44</ele>
      </trkpt>
      <trkpt lat="47.99542" lon="-2.65498">
        <ele>43</ele>
      </trkpt>
      <trkpt lat="47.99429" lon="-2.65594">
        <ele>46</ele>
      </trkpt>
      <trkpt lat="47.99321" lon="-2.65594">
        <ele>48</ele>
      </trkpt>
      <trkpt lat="47.9922" lon="-2.65556">
        <ele>46.2</ele>
      </trkpt>
      <trkpt lat="47.99113" lon="-2.65476">
        <ele>45.2</ele>
      </trkpt>
      <trkpt lat="47.98999" lon="-2.65346">
        <ele>43</ele>
      </trkpt>
      <trkpt lat="47.98951" lon="-2.65225">
        <ele>43</ele>
      </trkpt>
      <trkpt lat="47.98893" lon="-2.65077">
        <ele>42.7</ele>
      </trkpt>
      <trkpt lat="47.98744" lon="-2.6511">
        <ele>43</ele>
      </trkpt>
      <trkpt lat="47.98645" lon="-2.65082">
        <ele>43</ele>
      </trkpt>
      <trkpt lat="47.98559" lon="-2.65014">
        <ele>43.8</ele>
      </trkpt>
      <trkpt lat="47.98486" lon="-2.64913">
        <ele>43.9</ele>
      </trkpt>
      <trkpt lat="47.98427" lon="-2.648">
        <ele>43.1</ele>
      </trkpt>
      <trkpt lat="47.98379" lon="-2.64642">
        <ele>43.4</ele>
      </trkpt>
      <trkpt lat="47.98363" lon="-2.64469">
        <ele>45.7</ele>
      </trkpt>
      <trkpt lat="47.98389" lon="-2.64327">
        <ele>44</ele>
      </trkpt>
      <trkpt lat="47.98362" lon="-2.64077">
        <ele>43</ele>
      </trkpt>
      <trkpt lat="47.98195" lon="-2.63777">
        <ele>43</ele>
      </trkpt>
      <trkpt lat="47.97928" lon="-2.63262">
        <ele>42.1</ele>
      </trkpt>
      <trkpt lat="47.97708" lon="-2.62841">
        <ele>41.9</ele>
      </trkpt>
      <trkpt lat="47.9754" lon="-2.62545">
        <ele>40.4</ele>
      </trkpt>
      <trkpt lat="47.97356" lon="-2.62407">
        <ele>39.9</ele>
      </trkpt>
      <trkpt lat="47.97121" lon="-2.62341">
        <ele>39.8</ele>
      </trkpt>
      <trkpt lat="47.96975" lon="-2.62252">
        <ele>39</ele>
      </trkpt>
      <trkpt lat="47.96877" lon="-2.62179">
        <ele>38.7</ele>
      </trkpt>
      <trkpt lat="47.96727" lon="-2.62084">
        <ele>39</ele>
      </trkpt>
      <trkpt lat="47.96615" lon="-2.62037">
        <ele>39.9</ele>
      </trkpt>
      <trkpt lat="47.96578" lon="-2.61955">
        <ele>38.6</ele>
      </trkpt>
      <trkpt lat="47.96468" lon="-2.61987">
        <ele>38.6</ele>
      </trkpt>
      <trkpt lat="47.96317" lon="-2.62099">
        <ele>38.2</ele>
      </trkpt>
      <trkpt lat="47.96208" lon="-2.62226">
        <ele>38</ele>
      </trkpt>
      <trkpt lat="47.96096" lon="-2.62305">
        <ele>38</ele>
      </trkpt>
      <trkpt lat="47.95977" lon="-2.62275">
        <ele>38</ele>
      </trkpt>
      <trkpt lat="47.95909" lon="-2.62155">
        <ele>38</ele>
      </trkpt>
      <trkpt lat="47.95854" lon="-2.61978">
        <ele>37.4</ele>
      </trkpt>
      <trkpt lat="47.95812" lon="-2.61828">
        <ele>38.6</ele>
      </trkpt>
      <trkpt lat="47.95788" lon="-2.61677">
        <ele>37.6</ele>
      </trkpt>
      <trkpt lat="47.95809" lon="-2.61462">
        <ele>38.8</ele>
      </trkpt>
      <trkpt lat="47.95808" lon="-2.61307">
        <ele>37.9</ele>
      </trkpt>
      <trkpt lat="47.95792" lon="-2.61146">
        <ele>36.5</ele>
      </trkpt>
      <trkpt lat="47.95815" lon="-2.61005">
        <ele>36.3</ele>
      </trkpt>
      <trkpt lat="47.95846" lon="-2.60842">
        <ele>36</ele>
      </trkpt>
      <trkpt lat="47.95942" lon="-2.60717">
        <ele>36</ele>
      </trkpt>
      <trkpt lat="47.96044" lon="-2.60648">
        <ele>36.4</ele>
      </trkpt>
      <trkpt lat="47.96153" lon="-2.6053">
        <ele>37.6</ele>
      </trkpt>
      <trkpt lat="47.96138" lon="-2.60327">
        <ele>36.2</ele>
      </trkpt>
      <trkpt lat="47.96105" lon="-2.60142">
        <ele>36</ele>
      </trkpt>
      <trkpt lat="47.96055" lon="-2.59869">
        <ele>35.3</ele>
      </trkpt>
      <trkpt lat="47.96059" lon="-2.59734">
        <ele>36.5</ele>
      </trkpt>
      <trkpt lat="47.96029" lon="-2.59517">
        <ele>35.6</ele>
      </trkpt>
      <trkpt lat="47.96007" lon="-2.59337">
        <ele>36.2</ele>
      </trkpt>
      <trkpt lat="47.96017" lon="-2.59128">
        <ele>34.8</ele>
      </trkpt>
      <trkpt lat="47.95945" lon="-2.58988">
        <ele>35</ele>
      </trkpt>
      <trkpt lat="47.95885" lon="-2.58801">
        <ele>34.7</ele>
      </trkpt>
      <trkpt lat="47.95841" lon="-2.58676">
        <ele>34.8</ele>
      </trkpt>
      <trkpt lat="47.95767" lon="-2.5847">
        <ele>34</ele>
      </trkpt>
      <trkpt lat="47.95703" lon="-2.58366">
        <ele>34.6</ele>
      </trkpt>
      <trkpt lat="47.95631" lon="-2.5824">
        <ele>33.7</ele>
      </trkpt>
      <trkpt lat="47.95553" lon="-2.58107">
        <ele>34</ele>
      </trkpt>
      <trkpt lat="47.9545" lon="-2.57956">
        <ele>33.8</ele>
      </trkpt>
      <trkpt lat="47.95381" lon="-2.57809">
        <ele>34.1</ele>
      </trkpt>
      <trkpt lat="47.95346" lon="-2.57621">
        <ele>33.9</ele>
      </trkpt>
      <trkpt lat="47.95327" lon="-2.57477">
        <ele>33.6</ele>
      </trkpt>
      <trkpt lat="47.95324" lon="-2.57286">
        <ele>32.6</ele>
      </trkpt>
      <trkpt lat="47.95338" lon="-2.57071">
        <ele>32.6</ele>
      </trkpt>
      <trkpt lat="47.95368" lon="-2.56887">
        <ele>32.2</ele>
      </trkpt>
      <trkpt lat="47.95367" lon="-2.5674">
        <ele>32</ele>
      </trkpt>
      <trkpt lat="47.95398" lon="-2.56568">
        <ele>33.2</ele>
      </trkpt>
      <trkpt lat="47.95389" lon="-2.56421">
        <ele>32.8</ele>
      </trkpt>
      <trkpt lat="47.95348" lon="-2.56172">
        <ele>33.5</ele>
      </trkpt>
      <trkpt lat="47.95279" lon="-2.56052">
        <ele>33.2</ele>
      </trkpt>
      <trkpt lat="47.95211" lon="-2.55934">
        <ele>32.8</ele>
      </trkpt>
      <trkpt lat="47.9518" lon="-2.55742">
        <ele>32.8</ele>
      </trkpt>
      <trkpt lat="47.95221" lon="-2.55559">
        <ele>32</ele>
      </trkpt>
      <trkpt lat="47.95261" lon="-2.55415">
        <ele>31.4</ele>
      </trkpt>
      <trkpt lat="47.95279" lon="-2.55256">
        <ele>32.1</ele>
      </trkpt>
      <trkpt lat="47.95276" lon="-2.54977">
        <ele>32.9</ele>
      </trkpt>
      <trkpt lat="47.95259" lon="-2.54825">
        <ele>36.2</ele>
      </trkpt>
      <trkpt lat="47.95152" lon="-2.54666">
        <ele>37.7</ele>
      </trkpt>
      <trkpt lat="47.95043" lon="-2.54519">
        <ele>32.4</ele>
      </trkpt>
      <trkpt lat="47.9496" lon="-2.5442">
        <ele>31.6</ele>
      </trkpt>
      <trkpt lat="47.94835" lon="-2.54313">
        <ele>30.7</ele>
      </trkpt>
      <trkpt lat="47.94677" lon="-2.54208">
        <ele>30.3</ele>
      </trkpt>
      <trkpt lat="47.94513" lon="-2.54076">
        <ele>30.3</ele>
      </trkpt>
      <trkpt lat="47.94412" lon="-2.54004">
        <ele>30.9</ele>
      </trkpt>
      <trkpt lat="47.94247" lon="-2.5396">
        <ele>30</ele>
      </trkpt>
      <trkpt lat="47.94127" lon="-2.539">
        <ele>30</ele>
      </trkpt>
      <trkpt lat="47.93997" lon="-2.53842">
        <ele>30.7</ele>
      </trkpt>
      <trkpt lat="47.93874" lon="-2.53822">
        <ele>30</ele>
      </trkpt>
      <trkpt lat="47.93774" lon="-2.53737">
        <ele>30.1</ele>
      </trkpt>
      <trkpt lat="47.93661" lon="-2.53623">
        <ele>30</ele>
      </trkpt>
      <trkpt lat="47.93556" lon="-2.53506">
        <ele>29.2</ele>
      </trkpt>
      <trkpt lat="47.9351" lon="-2.53362">
        <ele>29</ele>
      </trkpt>
      <trkpt lat="47.93455" lon="-2.53227">
        <ele>29.3</ele>
      </trkpt>
      <trkpt lat="47.93362" lon="-2.53137">
        <ele>29</ele>
      </trkpt>
      <trkpt lat="47.93302" lon="-2.52984">
        <ele>28.9</ele>
      </trkpt>
      <trkpt lat="47.93239" lon="-2.52872">
        <ele>29</ele>
      </trkpt>
      <trkpt lat="47.9315" lon="-2.52807">
        <ele>29</ele>
      </trkpt>
      <trkpt lat="47.93103" lon="-2.52678">
        <ele>28.1</ele>
      </trkpt>
      <trkpt lat="47.93117" lon="-2.52491">
        <ele>28.8</ele>
      </trkpt>
      <trkpt lat="47.93118" lon="-2.52318">
        <ele>28.4</ele>
      </trkpt>
      <trkpt lat="47.93113" lon="-2.52146">
        <ele>28</ele>
      </trkpt>
      <trkpt lat="47.93129" lon="-2.51999">
        <ele>28</ele>
      </trkpt>
      <trkpt lat="47.93127" lon="-2.51866">
        <ele>28</ele>
      </trkpt>
      <trkpt lat="47.93096" lon="-2.5164">
        <ele>28</ele>
      </trkpt>
      <trkpt lat="47.92954" lon="-2.51348">
        <ele>27.3</ele>
      </trkpt>
      <trkpt lat="47.92878" lon="-2.51206">
        <ele>27.6</ele>
      </trkpt>
      <trkpt lat="47.92815" lon="-2.51043">
        <ele>27</ele>
      </trkpt>
      <trkpt lat="47.92766" lon="-2.5085">
        <ele>27</ele>
      </trkpt>
      <trkpt lat="47.92735" lon="-2.50646">
        <ele>26.9</ele>
      </trkpt>
      <trkpt lat="47.92641" lon="-2.50489">
        <ele>27</ele>
      </trkpt>
      <trkpt lat="47.92534" lon="-2.50307">
        <ele>28.1</ele>
      </trkpt>
      <trkpt lat="47.92444" lon="-2.50205">
        <ele>27.6</ele>
      </trkpt>
      <trkpt lat="47.92346" lon="-2.50121">
        <ele>26.9</ele>
      </trkpt>
      <trkpt lat="47.92276" lon="-2.50036">
        <ele>26.9</ele>
      </trkpt>
      <trkpt lat="47.92306" lon="-2.49882">
        <ele>27</ele>
      </trkpt>
      <trkpt lat="47.92362" lon="-2.4976">
        <ele>27</ele>
      </trkpt>
      <trkpt lat="47.92406" lon="-2.49586">
        <ele>28.1</ele>
      </trkpt>
      <trkpt lat="47.92375" lon="-2.49446">
        <ele>28.9</ele>
      </trkpt>
      <trkpt lat="47.92295" lon="-2.49282">
        <ele>29.5</ele>
      </trkpt>
      <trkpt lat="47.92204" lon="-2.49137">
        <ele>27.4</ele>
      </trkpt>
      <trkpt lat="47.92107" lon="-2.49049">
        <ele>25.8</ele>
      </trkpt>
      <trkpt lat="47.92067" lon="-2.4892">
        <ele>25.5</ele>
      </trkpt>
      <trkpt lat="47.92019" lon="-2.48797">
        <ele>25.8</ele>
      </trkpt>
      <trkpt lat="47.91941" lon="-2.48705">
        <ele>25.9</ele>
      </trkpt>
      <trkpt lat="47.91848" lon="-2.48592">
        <ele>26</ele>
      </trkpt>
      <trkpt lat="47.91764" lon="-2.48506">
        <ele>25.4</ele>
      </trkpt>
      <trkpt lat="47.91699" lon="-2.484">
        <ele>25.7</ele>
      </trkpt>
      <trkpt lat="47.91619" lon="-2.48322">
        <ele>25.6</ele>
      </trkpt>
      <trkpt lat="47.91514" lon="-2.4825">
        <ele>26.5</ele>
      </trkpt>
      <trkpt lat="47.91391" lon="-2.48193">
        <ele>26.1</ele>
      </trkpt>
      <trkpt lat="47.91301" lon="-2.48154">
        <ele>25.1</ele>
      </trkpt>
      <trkpt lat="47.91199" lon="-2.48128">
        <ele>25.6</ele>
      </trkpt>
      <trkpt lat="47.91069" lon="-2.48138">
        <ele>27</ele>
      </trkpt>
      <trkpt lat="47.9096" lon="-2.48102">
        <ele>25.2</ele>
      </trkpt>
      <trkpt lat="47.9092" lon="-2.4796">
        <ele>25</ele>
      </trkpt>
      <trkpt lat="47.90854" lon="-2.47853">
        <ele>24.8</ele>
      </trkpt>
      <trkpt lat="47.9079" lon="-2.47759">
        <ele>24.8</ele>
      </trkpt>
      <trkpt lat="47.90792" lon="-2.47594">
        <ele>26.2</ele>
      </trkpt>
      <trkpt lat="47.90717" lon="-2.47487">
        <ele>27.3</ele>
      </trkpt>
      <trkpt lat="47.9062" lon="-2.4739">
        <ele>25.9</ele>
      </trkpt>
      <trkpt lat="47.90542" lon="-2.47309">
        <ele>24.6</ele>
      </trkpt>
      <trkpt lat="47.90483" lon="-2.47136">
        <ele>25.4</ele>
      </trkpt>
      <trkpt lat="47.90395" lon="-2.47044">
        <ele>24.7</ele>
      </trkpt>
      <trkpt lat="47.90309" lon="-2.46995">
        <ele>23.4</ele>
      </trkpt>
      <trkpt lat="47.90223" lon="-2.46927">
        <ele>23.6</ele>
      </trkpt>
      <trkpt lat="47.90198" lon="-2.46797">
        <ele>23.3</ele>
      </trkpt>
      <trkpt lat="47.90143" lon="-2.46674">
        <ele>23.9</ele>
      </trkpt>
      <trkpt lat="47.90059" lon="-2.46592">
        <ele>23.7</ele>
      </trkpt>
      <trkpt lat="47.8999" lon="-2.46459">
        <ele>23.7</ele>
      </trkpt>
      <trkpt lat="47.8999" lon="-2.46319">
        <ele>23.3</ele>
      </trkpt>
      <trkpt lat="47.90012" lon="-2.46182">
        <ele>23.6</ele>
      </trkpt>
      <trkpt lat="47.90041" lon="-2.46041">
        <ele>23</ele>
      </trkpt>
      <trkpt lat="47.90029" lon="-2.45882">
        <ele>23.9</ele>
      </trkpt>
      <trkpt lat="47.8991" lon="-2.45741">
        <ele>26.8</ele>
      </trkpt>
      <trkpt lat="47.89784" lon="-2.45649">
        <ele>23.8</ele>
      </trkpt>
      <trkpt lat="47.8968" lon="-2.45564">
        <ele>23.3</ele>
      </trkpt>
      <trkpt lat="47.89568" lon="-2.4548">
        <ele>23</ele>
      </trkpt>
      <trkpt lat="47.89484" lon="-2.4543">
        <ele>23</ele>
      </trkpt>
      <trkpt lat="47.89385" lon="-2.45362">
        <ele>23.8</ele>
      </trkpt>
      <trkpt lat="47.89227" lon="-2.45305">
        <ele>23</ele>
      </trkpt>
      <trkpt lat="47.89131" lon="-2.4527">
        <ele>22.7</ele>
      </trkpt>
      <trkpt lat="47.88996" lon="-2.45229">
        <ele>22.9</ele>
      </trkpt>
      <trkpt lat="47.88895" lon="-2.45282">
        <ele>23</ele>
      </trkpt>
      <trkpt lat="47.88782" lon="-2.45171">
        <ele>23</ele>
      </trkpt>
      <trkpt lat="47.88689" lon="-2.45037">
        <ele>21.5</ele>
      </trkpt>
      <trkpt lat="47.88649" lon="-2.44845">
        <ele>21.4</ele>
      </trkpt>
      <trkpt lat="47.88673" lon="-2.44669">
        <ele>22</ele>
      </trkpt>
      <trkpt lat="47.88705" lon="-2.44497">
        <ele>21.9</ele>
      </trkpt>
      <trkpt lat="47.88714" lon="-2.44362">
        <ele>21</ele>
      </trkpt>
      <trkpt lat="47.88734" lon="-2.44092">
        <ele>21</ele>
      </trkpt>
      <trkpt lat="47.88736" lon="-2.43952">
        <ele>21</ele>
      </trkpt>
      <trkpt lat="47.88787" lon="-2.43781">
        <ele>21.3</ele>
      </trkpt>
      <trkpt lat="47.88803" lon="-2.43629">
        <ele>22.6</ele>
      </trkpt>
      <trkpt lat="47.88745" lon="-2.43423">
        <ele>21</ele>
      </trkpt>
      <trkpt lat="47.88708" lon="-2.43237">
        <ele>21</ele>
      </trkpt>
      <trkpt lat="47.88624" lon="-2.43089">
        <ele>21</ele>
      </trkpt>
      <trkpt lat="47.88551" lon="-2.42925">
        <ele>21.6</ele>
      </trkpt>
      <trkpt lat="47.88454" lon="-2.42764">
        <ele>21</ele>
      </trkpt>
      <trkpt lat="47.88395" lon="-2.42649">
        <ele>21</ele>
      </trkpt>
      <trkpt lat="47.88301" lon="-2.42547">
        <ele>21</ele>
      </trkpt>
      <trkpt lat="47.88219" lon="-2.4249">
        <ele>21</ele>
      </trkpt>
      <trkpt lat="47.88135" lon="-2.42384">
        <ele>21.9</ele>
      </trkpt>
      <trkpt lat="47.88032" lon="-2.42332">
        <ele>22</ele>
      </trkpt>
      <trkpt lat="47.87935" lon="-2.42343">
        <ele>21.1</ele>
      </trkpt>
      <trkpt lat="47.87784" lon="-2.42419">
        <ele>21</ele>
      </trkpt>
      <trkpt lat="47.87672" lon="-2.42575">
        <ele>20.7</ele>
      </trkpt>
      <trkpt lat="47.87567" lon="-2.42744">
        <ele>20.9</ele>
      </trkpt>
      <trkpt lat="47.87425" lon="-2.42782">
        <ele>20</ele>
      </trkpt>
      <trkpt lat="47.87331" lon="-2.42774">
        <ele>19.9</ele>
      </trkpt>
      <trkpt lat="47.8722" lon="-2.42701">
        <ele>21</ele>
      </trkpt>
      <trkpt lat="47.87124" lon="-2.428">
        <ele>28.5</ele>
      </trkpt>
      <trkpt lat="47.87054" lon="-2.42998">
        <ele>27.7</ele>
      </trkpt>
      <trkpt lat="47.86997" lon="-2.43143">
        <ele>23.9</ele>
      </trkpt>
      <trkpt lat="47.86938" lon="-2.43373">
        <ele>19.2</ele>
      </trkpt>
      <trkpt lat="47.86797" lon="-2.43509">
        <ele>21.1</ele>
      </trkpt>
      <trkpt lat="47.86726" lon="-2.4368">
        <ele>20.3</ele>
      </trkpt>
      <trkpt lat="47.86683" lon="-2.43822">
        <ele>21.4</ele>
      </trkpt>
      <trkpt lat="47.86666" lon="-2.43955">
        <ele>20.6</ele>
      </trkpt>
      <trkpt lat="47.86647" lon="-2.44174">
        <ele>20.4</ele>
      </trkpt>
      <trkpt lat="47.86632" lon="-2.44433">
        <ele>19.6</ele>
      </trkpt>
      <trkpt lat="47.86517" lon="-2.44432">
        <ele>20.7</ele>
      </trkpt>
      <trkpt lat="47.86502" lon="-2.44601">
        <ele>20.9</ele>
      </trkpt>
      <trkpt lat="47.86374" lon="-2.44584">
        <ele>20.6</ele>
      </trkpt>
      <trkpt lat="47.8625" lon="-2.44558">
        <ele>19.9</ele>
      </trkpt>
      <trkpt lat="47.8611" lon="-2.44567">
        <ele>19</ele>
      </trkpt>
      <trkpt lat="47.85984" lon="-2.44642">
        <ele>19</ele>
      </trkpt>
      <trkpt lat="47.85871" lon="-2.44687">
        <ele>19.5</ele>
      </trkpt>
      <trkpt lat="47.85766" lon="-2.4469">
        <ele>19</ele>
      </trkpt>
      <trkpt lat="47.85656" lon="-2.44633">
        <ele>19</ele>
      </trkpt>
      <trkpt lat="47.85498" lon="-2.44627">
        <ele>19</ele>
      </trkpt>
      <trkpt lat="47.8538" lon="-2.44643">
        <ele>19.8</ele>
      </trkpt>
      <trkpt lat="47.85131" lon="-2.44575">
        <ele>18.2</ele>
      </trkpt>
      <trkpt lat="47.8497" lon="-2.44514">
        <ele>18.5</ele>
      </trkpt>
      <trkpt lat="47.84807" lon="-2.44387">
        <ele>18.8</ele>
      </trkpt>
      <trkpt lat="47.84722" lon="-2.44277">
        <ele>18</ele>
      </trkpt>
      <trkpt lat="47.84529" lon="-2.44201">
        <ele>17.2</ele>
      </trkpt>
      <trkpt lat="47.84422" lon="-2.4415">
        <ele>18</ele>
      </trkpt>
      <trkpt lat="47.84368" lon="-2.44034">
        <ele>18.7</ele>
      </trkpt>
      <trkpt lat="47.84279" lon="-2.43867">
        <ele>17.7</ele>
      </trkpt>
      <trkpt lat="47.84171" lon="-2.4372">
        <ele>18.8</ele>
      </trkpt>
      <trkpt lat="47.84071" lon="-2.43615">
        <ele>18.1</ele>
      </trkpt>
      <trkpt lat="47.83993" lon="-2.43461">
        <ele>18.4</ele>
      </trkpt>
      <trkpt lat="47.83951" lon="-2.43261">
        <ele>18</ele>
      </trkpt>
      <trkpt lat="47.84001" lon="-2.43114">
        <ele>18.8</ele>
      </trkpt>
      <trkpt lat="47.8395" lon="-2.42953">
        <ele>18.6</ele>
      </trkpt>
      <trkpt lat="47.83854" lon="-2.42732">
        <ele>19.5</ele>
      </trkpt>
      <trkpt lat="47.83772" lon="-2.42512">
        <ele>17.9</ele>
      </trkpt>
      <trkpt lat="47.8372" lon="-2.42301">
        <ele>17.9</ele>
      </trkpt>
      <trkpt lat="47.83693" lon="-2.42085">
        <ele>17.9</ele>
      </trkpt>
      <trkpt lat="47.83704" lon="-2.41891">
        <ele>17.3</ele>
      </trkpt>
      <trkpt lat="47.83633" lon="-2.4171">
        <ele>17.8</ele>
      </trkpt>
      <trkpt lat="47.83516" lon="-2.41621">
        <ele>17.3</ele>
      </trkpt>
      <trkpt lat="47.83437" lon="-2.41497">
        <ele>17.8</ele>
      </trkpt>
      <trkpt lat="47.83348" lon="-2.41361">
        <ele>18</ele>
      </trkpt>
      <trkpt lat="47.83247" lon="-2.41233">
        <ele>17.9</ele>
      </trkpt>
      <trkpt lat="47.83138" lon="-2.41136">
        <ele>17.8</ele>
      </trkpt>
      <trkpt lat="47.83025" lon="-2.41014">
        <ele>18</ele>
      </trkpt>
      <trkpt lat="47.82925" lon="-2.40929">
        <ele>18</ele>
      </trkpt>
      <trkpt lat="47.82841" lon="-2.40838">
        <ele>17.4</ele>
      </trkpt>
      <trkpt lat="47.82769" lon="-2.40744">
        <ele>17.1</ele>
      </trkpt>
      <trkpt lat="47.82568" lon="-2.40441">
        <ele>17</ele>
      </trkpt>
      <trkpt lat="47.82516" lon="-2.40252">
        <ele>16.6</ele>
      </trkpt>
      <trkpt lat="47.82495" lon="-2.40027">
        <ele>17</ele>
      </trkpt>
      <trkpt lat="47.82447" lon="-2.39911">
        <ele>17</ele>
      </trkpt>
      <trkpt lat="47.82163" lon="-2.39545">
        <ele>15.3</ele>
      </trkpt>
      <trkpt lat="47.81983" lon="-2.39315">
        <ele>15.2</ele>
      </trkpt>
      <trkpt lat="47.81705" lon="-2.38967">
        <ele>14.5</ele>
      </trkpt>
      <trkpt lat="47.81452" lon="-2.38631">
        <ele>14.8</ele>
      </trkpt>
      <trkpt lat="47.81281" lon="-2.38422">
        <ele>14.1</ele>
      </trkpt>
      <trkpt lat="47.81201" lon="-2.383">
        <ele>14.5</ele>
      </trkpt>
      <trkpt lat="47.81125" lon="-2.38203">
        <ele>13.8</ele>
      </trkpt>
      <trkpt lat="47.80893" lon="-2.38046">
        <ele>13.5</ele>
      </trkpt>
      <trkpt lat="47.8078" lon="-2.38033">
        <ele>13.2</ele>
      </trkpt>
      <trkpt lat="47.80639" lon="-2.38013">
        <ele>13.4</ele>
      </trkpt>
      <trkpt lat="47.80552" lon="-2.3782">
        <ele>13.9</ele>
      </trkpt>
      <trkpt lat="47.80477" lon="-2.37543">
        <ele>14.5</ele>
      </trkpt>
      <trkpt lat="47.80444" lon="-2.37394">
        <ele>15.1</ele>
      </trkpt>
      <trkpt lat="47.80462" lon="-2.3716">
        <ele>17.8</ele>
      </trkpt>
      <trkpt lat="47.80566" lon="-2.37045">
        <ele>16.9</ele>
      </trkpt>
      <trkpt lat="47.80681" lon="-2.36975">
        <ele>12.5</ele>
      </trkpt>
      <trkpt lat="47.80761" lon="-2.36521">
        <ele>12.6</ele>
      </trkpt>
      <trkpt lat="47.80768" lon="-2.36047">
        <ele>12.8</ele>
      </trkpt>
      <trkpt lat="47.80793" lon="-2.35783">
        <ele>12.4</ele>
      </trkpt>
      <trkpt lat="47.80823" lon="-2.3552">
        <ele>12.4</ele>
      </trkpt>
      <trkpt lat="47.8071" lon="-2.34979">
        <ele>11.6</ele>
      </trkpt>
      <trkpt lat="47.80601" lon="-2.34419">
        <ele>11.4</ele>
      </trkpt>
      <trkpt lat="47.80554" lon="-2.34301">
        <ele>11.9</ele>
      </trkpt>
      <trkpt lat="47.8051" lon="-2.3418">
        <ele>11.7</ele>
      </trkpt>
      <trkpt lat="47.80442" lon="-2.33988">
        <ele>11.6</ele>
      </trkpt>
      <trkpt lat="47.80372" lon="-2.33826">
        <ele>11.3</ele>
      </trkpt>
      <trkpt lat="47.80328" lon="-2.33703">
        <ele>10.6</ele>
      </trkpt>
      <trkpt lat="47.80296" lon="-2.33548">
        <ele>11.3</ele>
      </trkpt>
      <trkpt lat="47.80304" lon="-2.33372">
        <ele>11.6</ele>
      </trkpt>
      <trkpt lat="47.80317" lon="-2.33206">
        <ele>11.2</ele>
      </trkpt>
      <trkpt lat="47.80213" lon="-2.33041">
        <ele>11.3</ele>
      </trkpt>
      <trkpt lat="47.80134" lon="-2.32917">
        <ele>11</ele>
      </trkpt>
      <trkpt lat="47.80014" lon="-2.32839">
        <ele>11.1</ele>
      </trkpt>
      <trkpt lat="47.7987" lon="-2.32753">
        <ele>10.7</ele>
      </trkpt>
      <trkpt lat="47.79777" lon="-2.32732">
        <ele>11</ele>
      </trkpt>
      <trkpt lat="47.7968" lon="-2.3261">
        <ele>10.6</ele>
      </trkpt>
      <trkpt lat="47.79543" lon="-2.32612">
        <ele>11</ele>
      </trkpt>
      <trkpt lat="47.7944" lon="-2.32701">
        <ele>11</ele>
      </trkpt>
      <trkpt lat="47.79351" lon="-2.32738">
        <ele>11</ele>
      </trkpt>
      <trkpt lat="47.79212" lon="-2.32691">
        <ele>12.9</ele>
      </trkpt>
      <trkpt lat="47.79102" lon="-2.3253">
        <ele>12.6</ele>
      </trkpt>
      <trkpt lat="47.79065" lon="-2.32364">
        <ele>13.1</ele>
      </trkpt>
      <trkpt lat="47.79019" lon="-2.32225">
        <ele>11.1</ele>
      </trkpt>
      <trkpt lat="47.78963" lon="-2.32081">
        <ele>10.9</ele>
      </trkpt>
      <trkpt lat="47.78829" lon="-2.31992">
        <ele>11</ele>
      </trkpt>
      <trkpt lat="47.78591" lon="-2.31846">
        <ele>9.8</ele>
      </trkpt>
      <trkpt lat="47.78438" lon="-2.31753">
        <ele>8.6</ele>
      </trkpt>
      <trkpt lat="47.78273" lon="-2.31652">
        <ele>8.6</ele>
      </trkpt>
      <trkpt lat="47.78131" lon="-2.31597">
        <ele>9</ele>
      </trkpt>
      <trkpt lat="47.77978" lon="-2.31487">
        <ele>8.9</ele>
      </trkpt>
      <trkpt lat="47.77849" lon="-2.31395">
        <ele>8.6</ele>
      </trkpt>
      <trkpt lat="47.77671" lon="-2.31445">
        <ele>10</ele>
      </trkpt>
      <trkpt lat="47.7749" lon="-2.31483">
        <ele>8.5</ele>
      </trkpt>
      <trkpt lat="47.77257" lon="-2.31522">
        <ele>9</ele>
      </trkpt>
      <trkpt lat="47.77062" lon="-2.31554">
        <ele>8.2</ele>
      </trkpt>
      <trkpt lat="47.76971" lon="-2.31573">
        <ele>10.4</ele>
      </trkpt>
      <trkpt lat="47.76727" lon="-2.31599">
        <ele>9</ele>
      </trkpt>
      <trkpt lat="47.76583" lon="-2.3173">
        <ele>8.6</ele>
      </trkpt>
      <trkpt lat="47.76417" lon="-2.31769">
        <ele>9.4</ele>
      </trkpt>
      <trkpt lat="47.76312" lon="-2.31752">
        <ele>8.3</ele>
      </trkpt>
      <trkpt lat="47.76175" lon="-2.31718">
        <ele>9.5</ele>
      </trkpt>
      <trkpt lat="47.7608" lon="-2.31679">
        <ele>9</ele>
      </trkpt>
      <trkpt lat="47.75965" lon="-2.31651">
        <ele>8.4</ele>
      </trkpt>
      <trkpt lat="47.75871" lon="-2.31656">
        <ele>9.3</ele>
      </trkpt>
      <trkpt lat="47.75745" lon="-2.31566">
        <ele>8.4</ele>
      </trkpt>
      <trkpt lat="47.75693" lon="-2.31446">
        <ele>9</ele>
      </trkpt>
      <trkpt lat="47.75719" lon="-2.31317">
        <ele>9.2</ele>
      </trkpt>
      <trkpt lat="47.75676" lon="-2.31058">
        <ele>8.7</ele>
      </trkpt>
      <trkpt lat="47.75563" lon="-2.30933">
        <ele>8.7</ele>
      </trkpt>
      <trkpt lat="47.75492" lon="-2.30741">
        <ele>8.3</ele>
      </trkpt>
      <trkpt lat="47.75461" lon="-2.30597">
        <ele>8.4</ele>
      </trkpt>
      <trkpt lat="47.75399" lon="-2.30388">
        <ele>8.6</ele>
      </trkpt>
      <trkpt lat="47.75311" lon="-2.30253">
        <ele>8.8</ele>
      </trkpt>
      <trkpt lat="47.75194" lon="-2.30107">
        <ele>8.8</ele>
      </trkpt>
      <trkpt lat="47.75138" lon="-2.29959">
        <ele>9</ele>
      </trkpt>
      <trkpt lat="47.75113" lon="-2.29786">
        <ele>8.9</ele>
      </trkpt>
      <trkpt lat="47.75071" lon="-2.29622">
        <ele>8.3</ele>
      </trkpt>
      <trkpt lat="47.75008" lon="-2.2944">
        <ele>7.6</ele>
      </trkpt>
      <trkpt lat="47.74892" lon="-2.29235">
        <ele>8.3</ele>
      </trkpt>
      <trkpt lat="47.74824" lon="-2.29141">
        <ele>6.8</ele>
      </trkpt>
      <trkpt lat="47.74739" lon="-2.29066">
        <ele>7.3</ele>
      </trkpt>
      <trkpt lat="47.74634" lon="-2.2898">
        <ele>6.8</ele>
      </trkpt>
      <trkpt lat="47.74548" lon="-2.28925">
        <ele>6.7</ele>
      </trkpt>
      <trkpt lat="47.74463" lon="-2.28802">
        <ele>12.7</ele>
      </trkpt>
      <trkpt lat="47.74427" lon="-2.28581">
        <ele>11.6</ele>
      </trkpt>
      <trkpt lat="47.74393" lon="-2.28395">
        <ele>7.7</ele>
      </trkpt>
      <trkpt lat="47.74385" lon="-2.28258">
        <ele>7</ele>
      </trkpt>
      <trkpt lat="47.74302" lon="-2.28026">
        <ele>8.1</ele>
      </trkpt>
      <trkpt lat="47.7428" lon="-2.27879">
        <ele>7.8</ele>
      </trkpt>
      <trkpt lat="47.74272" lon="-2.277">
        <ele>7.8</ele>
      </trkpt>
      <trkpt lat="47.74311" lon="-2.27509">
        <ele>6.8</ele>
      </trkpt>
      <trkpt lat="47.74386" lon="-2.27367">
        <ele>6.8</ele>
      </trkpt>
      <trkpt lat="47.74403" lon="-2.27199">
        <ele>6.5</ele>
      </trkpt>
      <trkpt lat="47.74455" lon="-2.27061">
        <ele>6.6</ele>
      </trkpt>
      <trkpt lat="47.74568" lon="-2.26972">
        <ele>7.5</ele>
      </trkpt>
      <trkpt lat="47.74638" lon="-2.26846">
        <ele>7.9</ele>
      </trkpt>
      <trkpt lat="47.74572" lon="-2.26678">
        <ele>6.4</ele>
      </trkpt>
      <trkpt lat="47.74527" lon="-2.26431">
        <ele>9.9</ele>
      </trkpt>
      <trkpt lat="47.74512" lon="-2.26269">
        <ele>6.6</ele>
      </trkpt>
      <trkpt lat="47.74409" lon="-2.26088">
        <ele>6.4</ele>
      </trkpt>
      <trkpt lat="47.74272" lon="-2.25984">
        <ele>6.1</ele>
      </trkpt>
      <trkpt lat="47.74165" lon="-2.25955">
        <ele>6.6</ele>
      </trkpt>
      <trkpt lat="47.74025" lon="-2.25814">
        <ele>6.3</ele>
      </trkpt>
      <trkpt lat="47.73892" lon="-2.25681">
        <ele>5.5</ele>
      </trkpt>
      <trkpt lat="47.73781" lon="-2.25509">
        <ele>8.5</ele>
      </trkpt>
      <trkpt lat="47.73716" lon="-2.25331">
        <ele>6.1</ele>
      </trkpt>
      <trkpt lat="47.73642" lon="-2.25126">
        <ele>6.7</ele>
      </trkpt>
      <trkpt lat="47.73651" lon="-2.24838">
        <ele>5.5</ele>
      </trkpt>
      <trkpt lat="47.73695" lon="-2.24691">
        <ele>5.1</ele>
      </trkpt>
      <trkpt lat="47.73741" lon="-2.24561">
        <ele>4.6</ele>
      </trkpt>
      <trkpt lat="47.73809" lon="-2.24425">
        <ele>5.5</ele>
      </trkpt>
      <trkpt lat="47.7389" lon="-2.24249">
        <ele>5.9</ele>
      </trkpt>
      <trkpt lat="47.7399" lon="-2.24126">
        <ele>5.3</ele>
      </trkpt>
      <trkpt lat="47.74062" lon="-2.24038">
        <ele>5.3</ele>
      </trkpt>
      <trkpt lat="47.74126" lon="-2.23842">
        <ele>4.9</ele>
      </trkpt>
      <trkpt lat="47.74122" lon="-2.23675">
        <ele>5.2</ele>
      </trkpt>
      <trkpt lat="47.74093" lon="-2.23469">
        <ele>5.3</ele>
      </trkpt>
      <trkpt lat="47.74043" lon="-2.23351">
        <ele>5</ele>
      </trkpt>
      <trkpt lat="47.73996" lon="-2.23188">
        <ele>5.6</ele>
      </trkpt>
      <trkpt lat="47.73867" lon="-2.23015">
        <ele>5.3</ele>
      </trkpt>
      <trkpt lat="47.73774" lon="-2.22907">
        <ele>5.4</ele>
      </trkpt>
      <trkpt lat="47.73716" lon="-2.22798">
        <ele>4.8</ele>
      </trkpt>
      <trkpt lat="47.73603" lon="-2.22642">
        <ele>5</ele>
      </trkpt>
      <trkpt lat="47.73522" lon="-2.22564">
        <ele>4.6</ele>
      </trkpt>
      <trkpt lat="47.73421" lon="-2.22477">
        <ele>4.9</ele>
      </trkpt>
      <trkpt lat="47.73314" lon="-2.22357">
        <ele>4.8</ele>
      </trkpt>
      <trkpt lat="47.73166" lon="-2.22223">
        <ele>5</ele>
      </trkpt>
      <trkpt lat="47.73051" lon="-2.22052">
        <ele>4.9</ele>
      </trkpt>
      <trkpt lat="47.73015" lon="-2.21866">
        <ele>4.5</ele>
      </trkpt>
      <trkpt lat="47.72973" lon="-2.21667">
        <ele>5</ele>
      </trkpt>
      <trkpt lat="47.72898" lon="-2.21479">
        <ele>5.2</ele>
      </trkpt>
      <trkpt lat="47.72711" lon="-2.21321">
        <ele>5.3</ele>
      </trkpt>
      <trkpt lat="47.7253" lon="-2.21285">
        <ele>4.5</ele>
      </trkpt>
      <trkpt lat="47.72461" lon="-2.2117">
        <ele>17.7734375</ele>
      </trkpt>
      <trkpt lat="47.72456" lon="-2.21028">
        <ele>5.25</ele>
        <time>2008-01-20T00:22:23Z</time>
      </trkpt>
      <trkpt lat="47.72456" lon="-2.20884">
        <ele>6.5</ele>
        <time>2008-01-20T00:22:44Z</time>
      </trkpt>
      <trkpt lat="47.72446" lon="-2.20741">
        <ele>6.15</ele>
        <time>2008-01-20T00:23:01Z</time>
      </trkpt>
      <trkpt lat="47.72434" lon="-2.20598">
        <ele>10.25</ele>
        <time>2008-01-20T00:23:20Z</time>
      </trkpt>
      <trkpt lat="47.72427" lon="-2.20462">
        <ele>8.65</ele>
        <time>2008-01-20T00:23:38Z</time>
      </trkpt>
      <trkpt lat="47.72438" lon="-2.20323">
        <ele>10.5</ele>
        <time>2008-01-20T00:23:56Z</time>
      </trkpt>
      <trkpt lat="47.72442" lon="-2.2018">
        <ele>8.55</ele>
        <time>2008-01-20T00:24:14Z</time>
      </trkpt>
      <trkpt lat="47.72418" lon="-2.2005">
        <ele>2.65</ele>
        <time>2008-01-20T00:24:32Z</time>
      </trkpt>
      <trkpt lat="47.72404" lon="-2.19916">
        <ele>3.76</ele>
        <time>2008-01-20T00:25:17Z</time>
      </trkpt>
      <trkpt lat="47.72387" lon="-2.19782">
        <ele>2.3</ele>
        <time>2008-01-20T00:25:56Z</time>
      </trkpt>
      <trkpt lat="47.72356" lon="-2.1964">
        <ele>2.4</ele>
        <time>2008-01-20T00:26:13Z</time>
      </trkpt>
      <trkpt lat="47.72347" lon="-2.19509">
        <ele>6</ele>
        <time>2008-01-20T00:27:31Z</time>
      </trkpt>
      <trkpt lat="47.72353" lon="-2.19368">
        <ele>1.3</ele>
        <time>2008-01-20T00:27:51Z</time>
      </trkpt>
      <trkpt lat="47.72344" lon="-2.19234">
        <ele>4.3</ele>
        <time>2008-01-20T00:28:07Z</time>
      </trkpt>
      <trkpt lat="47.72335" lon="-2.19098">
        <ele>2.25</ele>
        <time>2008-01-20T00:28:23Z</time>
      </trkpt>
      <trkpt lat="47.72336" lon="-2.18963">
        <ele>6.7</ele>
        <time>2008-01-20T00:28:39Z</time>
      </trkpt>
      <trkpt lat="47.72333" lon="-2.1883">
        <ele>4.9</ele>
        <time>2008-01-20T00:28:57Z</time>
      </trkpt>
      <trkpt lat="47.72312" lon="-2.18688">
        <ele>4.05</ele>
        <time>2008-01-20T00:29:24Z</time>
      </trkpt>
      <trkpt lat="47.72291" lon="-2.18556">
        <ele>2.95</ele>
        <time>2008-01-20T00:29:42Z</time>
      </trkpt>
      <trkpt lat="47.72271" lon="-2.18416">
        <ele>17.74</ele>
        <time>2008-01-20T00:31:57Z</time>
      </trkpt>
      <trkpt lat="47.72252" lon="-2.18272">
        <ele>3.6</ele>
        <time>2008-01-20T00:33:30Z</time>
      </trkpt>
      <trkpt lat="47.72235" lon="-2.18138">
        <ele>9.25</ele>
        <time>2008-01-20T00:33:44Z</time>
      </trkpt>
      <trkpt lat="47.72215" lon="-2.17992">
        <ele>14.9</ele>
        <time>2008-01-20T00:34:00Z</time>
      </trkpt>
      <trkpt lat="47.72194" lon="-2.17857">
        <ele>16.5</ele>
        <time>2008-01-20T00:34:16Z</time>
      </trkpt>
      <trkpt lat="47.72172" lon="-2.17723">
        <ele>16.95</ele>
        <time>2008-01-20T00:34:32Z</time>
      </trkpt>
      <trkpt lat="47.72152" lon="-2.17581">
        <ele>15.52</ele>
        <time>2008-01-20T00:34:53Z</time>
      </trkpt>
      <trkpt lat="47.72129" lon="-2.1745">
        <ele>5</ele>
        <time>2008-01-20T00:35:37Z</time>
      </trkpt>
      <trkpt lat="47.72106" lon="-2.17306">
        <ele>4.85</ele>
        <time>2008-01-20T00:35:56Z</time>
      </trkpt>
      <trkpt lat="47.72088" lon="-2.17172">
        <ele>10.6</ele>
        <time>2008-01-20T00:36:12Z</time>
      </trkpt>
      <trkpt lat="47.72067" lon="-2.17031">
        <ele>11.75</ele>
        <time>2008-01-20T00:36:29Z</time>
      </trkpt>
      <trkpt lat="47.72044" lon="-2.16888">
        <ele>9.8</ele>
        <time>2008-01-20T00:36:57Z</time>
      </trkpt>
      <trkpt lat="47.72024" lon="-2.1675">
        <ele>13.15</ele>
        <time>2008-01-20T00:37:13Z</time>
      </trkpt>
      <trkpt lat="47.72004" lon="-2.16614">
        <ele>17.95</ele>
        <time>2008-01-20T00:37:30Z</time>
      </trkpt>
      <trkpt lat="47.71985" lon="-2.16476">
        <ele>19.7</ele>
        <time>2008-01-20T00:37:46Z</time>
      </trkpt>
      <trkpt lat="47.71966" lon="-2.16344">
        <ele>17.45</ele>
        <time>2008-01-20T00:38:02Z</time>
      </trkpt>
      <trkpt lat="47.71945" lon="-2.16204">
        <ele>16.9</ele>
        <time>2008-01-20T00:38:19Z</time>
      </trkpt>
      <trkpt lat="47.71922" lon="-2.16068">
        <ele>12.95</ele>
        <time>2008-01-20T00:38:38Z</time>
      </trkpt>
      <trkpt lat="47.71904" lon="-2.15929">
        <ele>18.8</ele>
        <time>2008-01-20T00:38:56Z</time>
      </trkpt>
      <trkpt lat="47.71887" lon="-2.15795">
        <ele>19.45</ele>
        <time>2008-01-20T00:39:13Z</time>
      </trkpt>
      <trkpt lat="47.71862" lon="-2.1566">
        <ele>19.1</ele>
        <time>2008-01-20T00:39:32Z</time>
      </trkpt>
      <trkpt lat="47.71844" lon="-2.15528">
        <ele>15.95</ele>
        <time>2008-01-20T00:39:50Z</time>
      </trkpt>
      <trkpt lat="47.71822" lon="-2.15389">
        <ele>19.85</ele>
        <time>2008-01-20T00:40:07Z</time>
      </trkpt>
      <trkpt lat="47.718" lon="-2.1525">
        <ele>18</ele>
        <time>2008-01-20T00:40:26Z</time>
      </trkpt>
      <trkpt lat="47.71778" lon="-2.1511">
        <ele>17.95</ele>
        <time>2008-01-20T00:40:44Z</time>
      </trkpt>
      <trkpt lat="47.71754" lon="-2.14971">
        <ele>17.75</ele>
        <time>2008-01-20T00:41:01Z</time>
      </trkpt>
      <trkpt lat="47.71736" lon="-2.14831">
        <ele>19.1</ele>
        <time>2008-01-20T00:41:20Z</time>
      </trkpt>
      <trkpt lat="47.71712" lon="-2.14703">
        <ele>3</ele>
        <time>2008-01-20T00:43:01Z</time>
      </trkpt>
      <trkpt lat="47.7169" lon="-2.14568">
        <ele>2.95</ele>
        <time>2008-01-20T00:43:17Z</time>
      </trkpt>
      <trkpt lat="47.7167" lon="-2.14432">
        <ele>2.3</ele>
        <time>2008-01-20T00:43:33Z</time>
      </trkpt>
      <trkpt lat="47.71652" lon="-2.14299">
        <ele>3.2</ele>
        <time>2008-01-20T00:43:48Z</time>
      </trkpt>
      <trkpt lat="47.71629" lon="-2.14166">
        <ele>-2.3</ele>
        <time>2008-01-20T00:44:04Z</time>
      </trkpt>
      <trkpt lat="47.71608" lon="-2.14024">
        <ele>-0.8</ele>
        <time>2008-01-20T00:44:23Z</time>
      </trkpt>
      <trkpt lat="47.71585" lon="-2.1388">
        <ele>-0.65</ele>
        <time>2008-01-20T00:44:41Z</time>
      </trkpt>
      <trkpt lat="47.71565" lon="-2.13742">
        <ele>-2.2</ele>
        <time>2008-01-20T00:44:58Z</time>
      </trkpt>
      <trkpt lat="47.71543" lon="-2.13609">
        <ele>-3.5</ele>
        <time>2008-01-20T00:45:17Z</time>
      </trkpt>
      <trkpt lat="47.71524" lon="-2.13465">
        <ele>-5.4</ele>
        <time>2008-01-20T00:45:36Z</time>
      </trkpt>
      <trkpt lat="47.71501" lon="-2.13329">
        <ele>-3.2</ele>
        <time>2008-01-20T00:45:54Z</time>
      </trkpt>
      <trkpt lat="47.71479" lon="-2.13187">
        <ele>-1.4</ele>
        <time>2008-01-20T00:46:13Z</time>
      </trkpt>
      <trkpt lat="47.71459" lon="-2.13054">
        <ele>-0.55</ele>
        <time>2008-01-20T00:46:29Z</time>
      </trkpt>
      <trkpt lat="47.71438" lon="-2.12911">
        <ele>1.5</ele>
        <time>2008-01-20T00:46:46Z</time>
      </trkpt>
      <trkpt lat="47.71417" lon="-2.12772">
        <ele>3.2</ele>
        <time>2008-01-20T00:47:05Z</time>
      </trkpt>
      <trkpt lat="47.71396" lon="-2.12632">
        <ele>0.3</ele>
        <time>2008-01-20T00:47:24Z</time>
      </trkpt>
      <trkpt lat="47.7137" lon="-2.12491">
        <ele>13.15</ele>
        <time>2008-01-20T00:56:19Z</time>
      </trkpt>
      <trkpt lat="47.7131" lon="-2.12397">
        <ele>11.65</ele>
        <time>2008-01-20T00:56:38Z</time>
      </trkpt>
      <trkpt lat="47.71238" lon="-2.1231">
        <ele>8.65</ele>
        <time>2008-01-20T00:58:54Z</time>
      </trkpt>
      <trkpt lat="47.71177" lon="-2.1221">
        <ele>5.05</ele>
        <time>2008-01-20T00:59:36Z</time>
      </trkpt>
      <trkpt lat="47.71108" lon="-2.12101">
        <ele>7.9</ele>
        <time>2008-01-20T00:59:55Z</time>
      </trkpt>
      <trkpt lat="47.71038" lon="-2.11999">
        <ele>12.5</ele>
        <time>2008-01-20T01:00:11Z</time>
      </trkpt>
      <trkpt lat="47.70951" lon="-2.11942">
        <ele>8.35</ele>
        <time>2008-01-20T01:00:28Z</time>
      </trkpt>
      <trkpt lat="47.70857" lon="-2.11919">
        <ele>17.1</ele>
        <time>2008-01-20T01:02:11Z</time>
      </trkpt>
      <trkpt lat="47.70757" lon="-2.11942">
        <ele>4.45</ele>
        <time>2008-01-20T01:02:29Z</time>
      </trkpt>
      <trkpt lat="47.70662" lon="-2.11978">
        <ele>6.65</ele>
        <time>2008-01-20T01:04:39Z</time>
      </trkpt>
      <trkpt lat="47.7057" lon="-2.12026">
        <ele>29.59</ele>
        <time>2008-01-20T01:09:53Z</time>
      </trkpt>
      <trkpt lat="47.70475" lon="-2.12071">
        <ele>12.9</ele>
        <time>2008-01-20T01:11:21Z</time>
      </trkpt>
      <trkpt lat="47.70381" lon="-2.12112">
        <ele>8.67</ele>
        <time>2008-01-20T01:14:49Z</time>
      </trkpt>
      <trkpt lat="47.70296" lon="-2.12177">
        <ele>14.4</ele>
        <time>2008-01-20T01:16:42Z</time>
      </trkpt>
      <trkpt lat="47.70214" lon="-2.12243">
        <ele>11.75</ele>
        <time>2008-01-20T01:16:58Z</time>
      </trkpt>
      <trkpt lat="47.70121" lon="-2.12256">
        <ele>6.15</ele>
        <time>2008-01-20T01:17:12Z</time>
      </trkpt>
      <trkpt lat="47.70029" lon="-2.12257">
        <ele>4.95</ele>
        <time>2008-01-20T01:17:26Z</time>
      </trkpt>
      <trkpt lat="47.69931" lon="-2.12277">
        <ele>2</ele>
        <time>2008-01-20T01:17:39Z</time>
      </trkpt>
      <trkpt lat="47.69839" lon="-2.12304">
        <ele>5.2</ele>
        <time>2008-01-20T01:17:53Z</time>
      </trkpt>
      <trkpt lat="47.69745" lon="-2.12322">
        <ele>5.2</ele>
        <time>2008-01-20T01:18:06Z</time>
      </trkpt>
      <trkpt lat="47.6965" lon="-2.12323">
        <ele>6.5</ele>
        <time>2008-01-20T01:18:18Z</time>
      </trkpt>
      <trkpt lat="47.69546" lon="-2.12326">
        <ele>5.15</ele>
        <time>2008-01-20T01:18:32Z</time>
      </trkpt>
      <trkpt lat="47.69448" lon="-2.12353">
        <ele>1.65</ele>
        <time>2008-01-20T01:18:46Z</time>
      </trkpt>
      <trkpt lat="47.69357" lon="-2.12393">
        <ele>-0.25</ele>
        <time>2008-01-20T01:19:00Z</time>
      </trkpt>
      <trkpt lat="47.69262" lon="-2.12439">
        <ele>-0.6</ele>
        <time>2008-01-20T01:19:13Z</time>
      </trkpt>
      <trkpt lat="47.69175" lon="-2.12516">
        <ele>4.2</ele>
        <time>2008-01-20T01:19:27Z</time>
      </trkpt>
      <trkpt lat="47.69083" lon="-2.12535">
        <ele>5.3</ele>
        <time>2008-01-20T01:19:42Z</time>
      </trkpt>
      <trkpt lat="47.68997" lon="-2.12473">
        <ele>4.3</ele>
        <time>2008-01-20T01:19:56Z</time>
      </trkpt>
      <trkpt lat="47.68935" lon="-2.12354">
        <ele>6.25</ele>
        <time>2008-01-20T01:20:11Z</time>
      </trkpt>
      <trkpt lat="47.6888" lon="-2.12246">
        <ele>6.4</ele>
        <time>2008-01-20T01:20:25Z</time>
      </trkpt>
      <trkpt lat="47.68797" lon="-2.12173">
        <ele>6.65</ele>
        <time>2008-01-20T01:20:42Z</time>
      </trkpt>
      <trkpt lat="47.68698" lon="-2.12187">
        <ele>6.7</ele>
        <time>2008-01-20T01:20:58Z</time>
      </trkpt>
      <trkpt lat="47.68616" lon="-2.12244">
        <ele>8.85</ele>
        <time>2008-01-20T01:21:14Z</time>
      </trkpt>
      <trkpt lat="47.68523" lon="-2.12302">
        <ele>7.95</ele>
        <time>2008-01-20T01:21:33Z</time>
      </trkpt>
      <trkpt lat="47.68459" lon="-2.12251">
        <ele>9.6</ele>
        <time>2008-01-20T01:25:32Z</time>
      </trkpt>
      <trkpt lat="47.68432" lon="-2.12119">
        <ele>14.41</ele>
        <time>2008-01-20T01:26:11Z</time>
      </trkpt>
      <trkpt lat="47.68398" lon="-2.11988">
        <ele>4.1</ele>
        <time>2008-01-20T01:27:35Z</time>
      </trkpt>
      <trkpt lat="47.68355" lon="-2.11871">
        <ele>6</ele>
        <time>2008-01-20T01:27:54Z</time>
      </trkpt>
      <trkpt lat="47.68401" lon="-2.11895">
        <ele>7.45</ele>
        <time>2008-01-20T01:29:27Z</time>
      </trkpt>
      <trkpt lat="47.6836" lon="-2.11766">
        <ele>6.8</ele>
        <time>2008-01-20T01:30:59Z</time>
      </trkpt>
      <trkpt lat="47.68324" lon="-2.11631">
        <ele>10.65</ele>
        <time>2008-01-20T01:31:18Z</time>
      </trkpt>
      <trkpt lat="47.68289" lon="-2.11508">
        <ele>10.8</ele>
        <time>2008-01-20T01:31:34Z</time>
      </trkpt>
      <trkpt lat="47.68256" lon="-2.11376">
        <ele>7.8</ele>
        <time>2008-01-20T01:31:53Z</time>
      </trkpt>
      <trkpt lat="47.68222" lon="-2.11247">
        <ele>14.6</ele>
        <time>2008-01-20T01:33:29Z</time>
      </trkpt>
      <trkpt lat="47.68185" lon="-2.11117">
        <ele>16.9</ele>
        <time>2008-01-20T01:33:46Z</time>
      </trkpt>
      <trkpt lat="47.68146" lon="-2.10982">
        <ele>16.9</ele>
        <time>2008-01-20T01:34:02Z</time>
      </trkpt>
      <trkpt lat="47.68107" lon="-2.10847">
        <ele>17.05</ele>
        <time>2008-01-20T01:34:18Z</time>
      </trkpt>
      <trkpt lat="47.68069" lon="-2.10711">
        <ele>14.4</ele>
        <time>2008-01-20T01:34:33Z</time>
      </trkpt>
      <trkpt lat="47.68033" lon="-2.10582">
        <ele>11.45</ele>
        <time>2008-01-20T01:34:49Z</time>
      </trkpt>
      <trkpt lat="47.67997" lon="-2.10451">
        <ele>12.65</ele>
        <time>2008-01-20T01:35:06Z</time>
      </trkpt>
      <trkpt lat="47.6796" lon="-2.10314">
        <ele>18.3</ele>
        <time>2008-01-20T01:35:22Z</time>
      </trkpt>
      <trkpt lat="47.67922" lon="-2.10175">
        <ele>20.7</ele>
        <time>2008-01-20T01:35:38Z</time>
      </trkpt>
      <trkpt lat="47.67879" lon="-2.10038">
        <ele>18.25</ele>
        <time>2008-01-20T01:35:53Z</time>
      </trkpt>
      <trkpt lat="47.67842" lon="-2.09901">
        <ele>16.5</ele>
        <time>2008-01-20T01:36:11Z</time>
      </trkpt>
      <trkpt lat="47.67804" lon="-2.09764">
        <ele>12.25</ele>
        <time>2008-01-20T01:36:30Z</time>
      </trkpt>
      <trkpt lat="47.67767" lon="-2.09632">
        <ele>13.55</ele>
        <time>2008-01-20T01:36:47Z</time>
      </trkpt>
      <trkpt lat="47.67728" lon="-2.09503">
        <ele>15.65</ele>
        <time>2008-01-20T01:37:06Z</time>
      </trkpt>
      <trkpt lat="47.67684" lon="-2.09384">
        <ele>14.5</ele>
        <time>2008-01-20T01:37:24Z</time>
      </trkpt>
      <trkpt lat="47.67624" lon="-2.09283">
        <ele>8.45</ele>
        <time>2008-01-20T01:37:48Z</time>
      </trkpt>
      <trkpt lat="47.67544" lon="-2.09194">
        <ele>3.45</ele>
        <time>2008-01-20T01:41:42Z</time>
      </trkpt>
      <trkpt lat="47.67469" lon="-2.09097">
        <ele>1.05</ele>
        <time>2008-01-20T01:42:04Z</time>
      </trkpt>
      <trkpt lat="47.67397" lon="-2.0901">
        <ele>3.95</ele>
        <time>2008-01-20T01:42:20Z</time>
      </trkpt>
      <trkpt lat="47.6732" lon="-2.08923">
        <ele>5.05</ele>
        <time>2008-01-20T01:42:36Z</time>
      </trkpt>
      <trkpt lat="47.67245" lon="-2.08845">
        <ele>7.9</ele>
        <time>2008-01-20T01:42:53Z</time>
      </trkpt>
      <trkpt lat="47.67161" lon="-2.08794">
        <ele>9.35</ele>
        <time>2008-01-20T01:43:09Z</time>
      </trkpt>
      <trkpt lat="47.67064" lon="-2.08784">
        <ele>8.05</ele>
        <time>2008-01-20T01:43:26Z</time>
      </trkpt>
      <trkpt lat="47.66972" lon="-2.08818">
        <ele>11.05</ele>
        <time>2008-01-20T01:46:22Z</time>
      </trkpt>
      <trkpt lat="47.66887" lon="-2.08883">
        <ele>14.15</ele>
        <time>2008-01-20T01:46:41Z</time>
      </trkpt>
      <trkpt lat="47.66829" lon="-2.0899">
        <ele>13.35</ele>
        <time>2008-01-20T01:46:55Z</time>
      </trkpt>
      <trkpt lat="47.66768" lon="-2.09106">
        <ele>10</ele>
        <time>2008-01-20T01:47:11Z</time>
      </trkpt>
      <trkpt lat="47.66714" lon="-2.0922">
        <ele>8.45</ele>
        <time>2008-01-20T01:47:25Z</time>
      </trkpt>
      <trkpt lat="47.66665" lon="-2.09336">
        <ele>11.3</ele>
        <time>2008-01-20T01:47:39Z</time>
      </trkpt>
      <trkpt lat="47.66612" lon="-2.09453">
        <ele>14.85</ele>
        <time>2008-01-20T01:47:53Z</time>
      </trkpt>
      <trkpt lat="47.66557" lon="-2.09565">
        <ele>11.65</ele>
        <time>2008-01-20T01:48:07Z</time>
      </trkpt>
      <trkpt lat="47.66502" lon="-2.09675">
        <ele>7.18</ele>
        <time>2008-01-20T01:50:22Z</time>
      </trkpt>
      <trkpt lat="47.66438" lon="-2.09769">
        <ele>14.3</ele>
        <time>2008-01-20T01:50:54Z</time>
      </trkpt>
      <trkpt lat="47.66348" lon="-2.09827">
        <ele>11.25</ele>
        <time>2008-01-20T01:51:13Z</time>
      </trkpt>
      <trkpt lat="47.66261" lon="-2.09881">
        <ele>3.45</ele>
        <time>2008-01-20T01:54:28Z</time>
      </trkpt>
      <trkpt lat="47.66172" lon="-2.09934">
        <ele>13.55</ele>
        <time>2008-01-20T01:55:38Z</time>
      </trkpt>
      <trkpt lat="47.66085" lon="-2.09979">
        <ele>10.5</ele>
        <time>2008-01-20T01:55:54Z</time>
      </trkpt>
      <trkpt lat="47.65995" lon="-2.10007">
        <ele>13.6</ele>
        <time>2008-01-20T01:56:07Z</time>
      </trkpt>
      <trkpt lat="47.65896" lon="-2.10034">
        <ele>15.45</ele>
        <time>2008-01-20T01:56:23Z</time>
      </trkpt>
      <trkpt lat="47.65802" lon="-2.1006">
        <ele>14.3</ele>
        <time>2008-01-20T01:56:39Z</time>
      </trkpt>
      <trkpt lat="47.65709" lon="-2.10088">
        <ele>11.65</ele>
        <time>2008-01-20T01:56:56Z</time>
      </trkpt>
      <trkpt lat="47.65616" lon="-2.10115">
        <ele>10.4</ele>
        <time>2008-01-20T01:57:12Z</time>
      </trkpt>
      <trkpt lat="47.65525" lon="-2.10139">
        <ele>-4.78</ele>
        <time>2008-01-20T01:58:08Z</time>
      </trkpt>
      <trkpt lat="47.65441" lon="-2.10101">
        <ele>9.59</ele>
        <time>2008-01-20T02:00:29Z</time>
      </trkpt>
      <trkpt lat="47.65362" lon="-2.10031">
        <ele>7.95</ele>
        <time>2008-01-20T02:01:09Z</time>
      </trkpt>
      <trkpt lat="47.65297" lon="-2.09932">
        <ele>8.3</ele>
        <time>2008-01-20T02:01:28Z</time>
      </trkpt>
      <trkpt lat="47.65248" lon="-2.0982">
        <ele>14.85</ele>
        <time>2008-01-20T02:01:52Z</time>
      </trkpt>
      <trkpt lat="47.65205" lon="-2.09688">
        <ele>16.45</ele>
        <time>2008-01-20T02:02:13Z</time>
      </trkpt>
      <trkpt lat="47.65164" lon="-2.09557">
        <ele>19.05</ele>
        <time>2008-01-20T02:02:31Z</time>
      </trkpt>
      <trkpt lat="47.65114" lon="-2.09372">
        <ele>7.25</ele>
        <time>2008-01-20T02:04:07Z</time>
      </trkpt>
      <trkpt lat="47.65073" lon="-2.09246">
        <ele>8.7</ele>
        <time>2008-01-20T02:04:24Z</time>
      </trkpt>
      <trkpt lat="47.6503" lon="-2.0911">
        <ele>7.32</ele>
        <time>2008-01-20T02:04:53Z</time>
      </trkpt>
      <trkpt lat="47.64991" lon="-2.08978">
        <ele>3.4</ele>
        <time>2008-01-20T02:05:42Z</time>
      </trkpt>
      <trkpt lat="47.64952" lon="-2.08851">
        <ele>3.3</ele>
        <time>2008-01-20T02:06:38Z</time>
      </trkpt>
      <trkpt lat="47.6491" lon="-2.08723">
        <ele>5.27</ele>
        <time>2008-01-20T02:47:25Z</time>
      </trkpt>
      <trkpt lat="47.64873" lon="-2.08596">
        <ele>9.87</ele>
        <time>2008-01-20T02:48:19Z</time>
      </trkpt>
      <trkpt lat="47.64825" lon="-2.08477">
        <ele>12.8</ele>
        <time>2008-01-20T02:48:54Z</time>
      </trkpt>
      <trkpt lat="47.64806" lon="-2.08358">
        <ele>15.55</ele>
        <time>2008-01-20T03:26:49Z</time>
      </trkpt>
      <trkpt lat="47.64743" lon="-2.08303">
        <ele>8.9</ele>
        <time>2008-01-20T03:33:19Z</time>
      </trkpt>
      <trkpt lat="47.64706" lon="-2.08181">
        <ele>7.3</ele>
        <time>2008-01-20T03:33:46Z</time>
      </trkpt>
      <trkpt lat="47.64668" lon="-2.08059">
        <ele>4.2</ele>
        <time>2008-01-20T03:34:06Z</time>
      </trkpt>
      <trkpt lat="47.64629" lon="-2.07937">
        <ele>6.09</ele>
        <time>2008-01-20T03:37:48Z</time>
      </trkpt>
      <trkpt lat="47.64591" lon="-2.07812">
        <ele>8.1</ele>
        <time>2008-01-20T03:38:33Z</time>
      </trkpt>
      <trkpt lat="47.64551" lon="-2.07685">
        <ele>5.8</ele>
        <time>2008-01-20T03:38:50Z</time>
      </trkpt>
      <trkpt lat="47.64511" lon="-2.0756">
        <ele>2.8</ele>
        <time>2008-01-20T03:39:05Z</time>
      </trkpt>
      <trkpt lat="47.64472" lon="-2.07435">
        <ele>2.7</ele>
        <time>2008-01-20T03:39:22Z</time>
      </trkpt>
      <trkpt lat="47.64433" lon="-2.07314">
        <ele>4.88</ele>
        <time>2008-01-20T03:39:43Z</time>
      </trkpt>
      <trkpt lat="47.64385" lon="-2.07196">
        <ele>5.3</ele>
        <time>2008-01-20T03:41:24Z</time>
      </trkpt>
      <trkpt lat="47.64294" lon="-2.07177">
        <ele>14.29</ele>
        <time>2008-01-20T03:43:09Z</time>
      </trkpt>
      <trkpt lat="47.64208" lon="-2.07217">
        <ele>9.6</ele>
        <time>2008-01-20T03:47:34Z</time>
      </trkpt>
      <trkpt lat="47.64078" lon="-2.07266">
        <ele>7.4</ele>
        <time>2008-01-20T03:47:50Z</time>
      </trkpt>
      <trkpt lat="47.63897" lon="-2.07333">
        <ele>7.5</ele>
        <time>2008-01-20T03:48:10Z</time>
      </trkpt>
      <trkpt lat="47.63788" lon="-2.07372">
        <ele>7.9</ele>
        <time>2008-01-20T03:48:25Z</time>
      </trkpt>
      <trkpt lat="47.63681" lon="-2.07409">
        <ele>8.7</ele>
        <time>2008-01-20T03:48:43Z</time>
      </trkpt>
      <trkpt lat="47.63553" lon="-2.07457">
        <ele>11.5</ele>
        <time>2008-01-20T03:49:03Z</time>
      </trkpt>
      <trkpt lat="47.63421" lon="-2.07506">
        <ele>14.2</ele>
        <time>2008-01-20T03:49:20Z</time>
      </trkpt>
      <trkpt lat="47.63297" lon="-2.07538">
        <ele>15.7</ele>
        <time>2008-01-20T03:49:38Z</time>
      </trkpt>
      <trkpt lat="47.6324" lon="-2.07501">
        <ele>14.4</ele>
        <time>2008-01-20T03:49:54Z</time>
      </trkpt>
      <trkpt lat="47.63152" lon="-2.07496">
        <ele>6</ele>
        <time>2008-01-20T03:50:29Z</time>
      </trkpt>
      <trkpt lat="47.63059" lon="-2.0749">
        <ele>3.8</ele>
        <time>2008-01-20T03:50:43Z</time>
      </trkpt>
      <trkpt lat="47.62969" lon="-2.07493">
        <ele>2.7</ele>
        <time>2008-01-20T03:50:57Z</time>
      </trkpt>
      <trkpt lat="47.6288" lon="-2.07516">
        <ele>4.4</ele>
        <time>2008-01-20T03:51:08Z</time>
      </trkpt>
      <trkpt lat="47.62791" lon="-2.07543">
        <ele>4</ele>
        <time>2008-01-20T03:51:22Z</time>
      </trkpt>
      <trkpt lat="47.627" lon="-2.07569">
        <ele>5.4</ele>
        <time>2008-01-20T03:51:35Z</time>
      </trkpt>
      <trkpt lat="47.62607" lon="-2.07597">
        <ele>6.5</ele>
        <time>2008-01-20T03:51:53Z</time>
      </trkpt>
      <trkpt lat="47.62518" lon="-2.07619">
        <ele>9.7</ele>
        <time>2008-01-20T03:55:40Z</time>
      </trkpt>
      <trkpt lat="47.6243" lon="-2.0765">
        <ele>16.4</ele>
        <time>2008-01-20T03:56:00Z</time>
      </trkpt>
      <trkpt lat="47.62339" lon="-2.07677">
        <ele>14.7</ele>
        <time>2008-01-20T03:56:14Z</time>
      </trkpt>
      <trkpt lat="47.62245" lon="-2.07705">
        <ele>14.5</ele>
        <time>2008-01-20T03:56:28Z</time>
      </trkpt>
      <trkpt lat="47.62153" lon="-2.0773">
        <ele>10.3</ele>
        <time>2008-01-20T03:56:43Z</time>
      </trkpt>
      <trkpt lat="47.62058" lon="-2.07754">
        <ele>6.1</ele>
        <time>2008-01-20T03:56:58Z</time>
      </trkpt>
      <trkpt lat="47.61966" lon="-2.07786">
        <ele>9.5</ele>
        <time>2008-01-20T03:57:12Z</time>
      </trkpt>
      <trkpt lat="47.61874" lon="-2.07813">
        <ele>9.3</ele>
        <time>2008-01-20T03:57:27Z</time>
      </trkpt>
      <trkpt lat="47.61785" lon="-2.0784">
        <ele>6.2</ele>
        <time>2008-01-20T03:57:40Z</time>
      </trkpt>
      <trkpt lat="47.61696" lon="-2.07855">
        <ele>10.47</ele>
        <time>2008-01-20T03:57:57Z</time>
      </trkpt>
      <trkpt lat="47.61609" lon="-2.0791">
        <ele>11.7</ele>
        <time>2008-01-20T04:00:12Z</time>
      </trkpt>
      <trkpt lat="47.61535" lon="-2.07987">
        <ele>10.9</ele>
        <time>2008-01-20T04:00:25Z</time>
      </trkpt>
      <trkpt lat="47.61469" lon="-2.08087">
        <ele>7.9</ele>
        <time>2008-01-20T04:00:39Z</time>
      </trkpt>
      <trkpt lat="47.61396" lon="-2.08174">
        <ele>9.2</ele>
        <time>2008-01-20T04:00:53Z</time>
      </trkpt>
      <trkpt lat="47.6131" lon="-2.0822">
        <ele>14.4</ele>
        <time>2008-01-20T04:01:08Z</time>
      </trkpt>
      <trkpt lat="47.61216" lon="-2.08245">
        <ele>12.73</ele>
        <time>2008-01-20T04:02:28Z</time>
      </trkpt>
      <trkpt lat="47.61121" lon="-2.08259">
        <ele>11.3</ele>
        <time>2008-01-20T04:02:47Z</time>
      </trkpt>
      <trkpt lat="47.61029" lon="-2.08274">
        <ele>10.6</ele>
        <time>2008-01-20T04:03:02Z</time>
      </trkpt>
      <trkpt lat="47.60922" lon="-2.08296">
        <ele>37.87</ele>
        <time>2008-01-20T04:04:24Z</time>
      </trkpt>
      <trkpt lat="47.60826" lon="-2.08306">
        <ele>26.3</ele>
        <time>2008-01-20T04:04:48Z</time>
      </trkpt>
      <trkpt lat="47.60731" lon="-2.08319">
        <ele>18.6</ele>
        <time>2008-01-20T04:05:03Z</time>
      </trkpt>
      <trkpt lat="47.60641" lon="-2.08335">
        <ele>14.2</ele>
        <time>2008-01-20T04:05:17Z</time>
      </trkpt>
      <trkpt lat="47.6055" lon="-2.08348">
        <ele>11.5</ele>
        <time>2008-01-20T04:05:30Z</time>
      </trkpt>
      <trkpt lat="47.60456" lon="-2.08366">
        <ele>11.1</ele>
        <time>2008-01-20T04:05:45Z</time>
      </trkpt>
      <trkpt lat="47.60365" lon="-2.08405">
        <ele>11.8</ele>
        <time>2008-01-20T04:06:00Z</time>
      </trkpt>
      <trkpt lat="47.60283" lon="-2.08476">
        <ele>11.4</ele>
        <time>2008-01-20T04:06:15Z</time>
      </trkpt>
      <trkpt lat="47.60217" lon="-2.08566">
        <ele>9.1</ele>
        <time>2008-01-20T04:06:32Z</time>
      </trkpt>
      <trkpt lat="47.60151" lon="-2.08664">
        <ele>6.2</ele>
        <time>2008-01-20T04:06:47Z</time>
      </trkpt>
      <trkpt lat="47.60086" lon="-2.08767">
        <ele>7.2</ele>
        <time>2008-01-20T04:07:02Z</time>
      </trkpt>
      <trkpt lat="47.6002" lon="-2.0887">
        <ele>7.5</ele>
        <time>2008-01-20T04:07:18Z</time>
      </trkpt>
      <trkpt lat="47.59971" lon="-2.08983">
        <ele>7.2</ele>
        <time>2008-01-20T04:07:34Z</time>
      </trkpt>
      <trkpt lat="47.59898" lon="-2.09061">
        <ele>2.73</ele>
        <time>2008-01-20T04:13:24Z</time>
      </trkpt>
      <trkpt lat="47.59808" lon="-2.09062">
        <ele>2.5</ele>
        <time>2008-01-20T04:13:42Z</time>
      </trkpt>
      <trkpt lat="47.59721" lon="-2.09015">
        <ele>4.6</ele>
        <time>2008-01-20T04:15:00Z</time>
      </trkpt>
      <trkpt lat="47.59635" lon="-2.08956">
        <ele>2.8</ele>
        <time>2008-01-20T04:15:17Z</time>
      </trkpt>
      <trkpt lat="47.5955" lon="-2.08898">
        <ele>1.8</ele>
        <time>2008-01-20T04:15:32Z</time>
      </trkpt>
      <trkpt lat="47.59465" lon="-2.0884">
        <ele>1.5</ele>
        <time>2008-01-20T04:15:47Z</time>
      </trkpt>
      <trkpt lat="47.5938" lon="-2.08783">
        <ele>1.1</ele>
        <time>2008-01-20T04:16:04Z</time>
      </trkpt>
      <trkpt lat="47.59296" lon="-2.08726">
        <ele>1.4</ele>
        <time>2008-01-20T04:16:22Z</time>
      </trkpt>
      <trkpt lat="47.59214" lon="-2.0867">
        <ele>1.6</ele>
        <time>2008-01-20T04:16:38Z</time>
      </trkpt>
      <trkpt lat="47.59129" lon="-2.08611">
        <ele>2</ele>
        <time>2008-01-20T04:16:57Z</time>
      </trkpt>
      <trkpt lat="47.59044" lon="-2.08554">
        <ele>3</ele>
        <time>2008-01-20T04:17:14Z</time>
      </trkpt>
      <trkpt lat="47.58961" lon="-2.08498">
        <ele>3.6</ele>
        <time>2008-01-20T04:17:32Z</time>
      </trkpt>
      <trkpt lat="47.58876" lon="-2.08441">
        <ele>4.4</ele>
        <time>2008-01-20T04:17:48Z</time>
      </trkpt>
      <trkpt lat="47.58792" lon="-2.08386">
        <ele>8.7</ele>
        <time>2008-01-20T04:18:04Z</time>
      </trkpt>
      <trkpt lat="47.5871" lon="-2.08331">
        <ele>13.3</ele>
        <time>2008-01-20T04:18:20Z</time>
      </trkpt>
      <trkpt lat="47.58626" lon="-2.08272">
        <ele>14.9</ele>
        <time>2008-01-20T04:18:37Z</time>
      </trkpt>
      <trkpt lat="47.58543" lon="-2.08214">
        <ele>14.5</ele>
        <time>2008-01-20T04:18:54Z</time>
      </trkpt>
      <trkpt lat="47.58458" lon="-2.08155">
        <ele>14.7</ele>
        <time>2008-01-20T04:19:13Z</time>
      </trkpt>
      <trkpt lat="47.58375" lon="-2.08098">
        <ele>14.3</ele>
        <time>2008-01-20T04:19:32Z</time>
      </trkpt>
      <trkpt lat="47.58291" lon="-2.08041">
        <ele>15</ele>
        <time>2008-01-20T04:19:49Z</time>
      </trkpt>
      <trkpt lat="47.58209" lon="-2.07985">
        <ele>15.6</ele>
        <time>2008-01-20T04:20:07Z</time>
      </trkpt>
      <trkpt lat="47.58127" lon="-2.0793">
        <ele>12.9</ele>
        <time>2008-01-20T04:20:25Z</time>
      </trkpt>
      <trkpt lat="47.58043" lon="-2.07873">
        <ele>11.3</ele>
        <time>2008-01-20T04:20:44Z</time>
      </trkpt>
      <trkpt lat="47.57957" lon="-2.07816">
        <ele>10.4</ele>
        <time>2008-01-20T04:21:03Z</time>
      </trkpt>
      <trkpt lat="47.57871" lon="-2.07759">
        <ele>9.97</ele>
        <time>2008-01-20T04:21:26Z</time>
      </trkpt>
      <trkpt lat="47.5779" lon="-2.077">
        <ele>9.67</ele>
        <time>2008-01-20T04:23:42Z</time>
      </trkpt>
      <trkpt lat="47.57706" lon="-2.07643">
        <ele>12.1</ele>
        <time>2008-01-20T04:25:25Z</time>
      </trkpt>
      <trkpt lat="47.57633" lon="-2.07561">
        <ele>10.1</ele>
        <time>2008-01-20T04:25:42Z</time>
      </trkpt>
      <trkpt lat="47.57588" lon="-2.07442">
        <ele>9.2</ele>
        <time>2008-01-20T04:25:58Z</time>
      </trkpt>
      <trkpt lat="47.5756" lon="-2.07307">
        <ele>6.2</ele>
        <time>2008-01-20T04:26:13Z</time>
      </trkpt>
      <trkpt lat="47.57528" lon="-2.07189">
        <ele>11</ele>
        <time>2008-01-20T04:27:37Z</time>
      </trkpt>
      <trkpt lat="47.57506" lon="-2.07056">
        <ele>8.7</ele>
        <time>2008-01-20T04:28:33Z</time>
      </trkpt>
      <trkpt lat="47.57479" lon="-2.06928">
        <ele>14.7</ele>
        <time>2008-01-20T04:28:49Z</time>
      </trkpt>
      <trkpt lat="47.57451" lon="-2.06796">
        <ele>12.4</ele>
        <time>2008-01-20T04:29:05Z</time>
      </trkpt>
      <trkpt lat="47.57433" lon="-2.06663">
        <ele>13.4</ele>
        <time>2008-01-20T04:29:22Z</time>
      </trkpt>
      <trkpt lat="47.57421" lon="-2.0653">
        <ele>15</ele>
        <time>2008-01-20T04:29:37Z</time>
      </trkpt>
      <trkpt lat="47.57413" lon="-2.06396">
        <ele>12</ele>
        <time>2008-01-20T04:29:53Z</time>
      </trkpt>
      <trkpt lat="47.574" lon="-2.06261">
        <ele>8.6</ele>
        <time>2008-01-20T04:30:09Z</time>
      </trkpt>
      <trkpt lat="47.5739" lon="-2.06125">
        <ele>13.4</ele>
        <time>2008-01-20T04:30:29Z</time>
      </trkpt>
      <trkpt lat="47.57377" lon="-2.05987">
        <ele>9.2</ele>
        <time>2008-01-20T04:30:45Z</time>
      </trkpt>
      <trkpt lat="47.57364" lon="-2.05853">
        <ele>7</ele>
        <time>2008-01-20T04:31:02Z</time>
      </trkpt>
      <trkpt lat="47.57353" lon="-2.05721">
        <ele>15.2</ele>
        <time>2008-01-20T04:32:05Z</time>
      </trkpt>
      <trkpt lat="47.57343" lon="-2.05587">
        <ele>14.7</ele>
        <time>2008-01-20T04:32:22Z</time>
      </trkpt>
      <trkpt lat="47.57333" lon="-2.05453">
        <ele>17.1</ele>
        <time>2008-01-20T04:32:42Z</time>
      </trkpt>
      <trkpt lat="47.57322" lon="-2.0532">
        <ele>20.4</ele>
        <time>2008-01-20T04:33:04Z</time>
      </trkpt>
      <trkpt lat="47.5731" lon="-2.05187">
        <ele>26.5</ele>
        <time>2008-01-20T04:33:23Z</time>
      </trkpt>
      <trkpt lat="47.57286" lon="-2.05057">
        <ele>18.7</ele>
        <time>2008-01-20T04:33:47Z</time>
      </trkpt>
      <trkpt lat="47.57251" lon="-2.04934">
        <ele>12.5</ele>
        <time>2008-01-20T04:34:08Z</time>
      </trkpt>
      <trkpt lat="47.57212" lon="-2.04812">
        <ele>11.4</ele>
        <time>2008-01-20T04:34:28Z</time>
      </trkpt>
      <trkpt lat="47.57175" lon="-2.0469">
        <ele>11.4</ele>
        <time>2008-01-20T04:34:48Z</time>
      </trkpt>
      <trkpt lat="47.57162" lon="-2.04556">
        <ele>8.1</ele>
        <time>2008-01-20T04:41:58Z</time>
      </trkpt>
      <trkpt lat="47.57127" lon="-2.04431">
        <ele>7.7</ele>
        <time>2008-01-20T04:42:17Z</time>
      </trkpt>
      <trkpt lat="47.57091" lon="-2.04302">
        <ele>9.2</ele>
        <time>2008-01-20T04:42:33Z</time>
      </trkpt>
      <trkpt lat="47.57069" lon="-2.04165">
        <ele>11.6</ele>
        <time>2008-01-20T04:42:49Z</time>
      </trkpt>
      <trkpt lat="47.57056" lon="-2.0403">
        <ele>13.2</ele>
        <time>2008-01-20T04:43:07Z</time>
      </trkpt>
      <trkpt lat="47.57044" lon="-2.03897">
        <ele>11.4</ele>
        <time>2008-01-20T04:43:25Z</time>
      </trkpt>
      <trkpt lat="47.5703" lon="-2.03762">
        <ele>13.6</ele>
        <time>2008-01-20T04:43:43Z</time>
      </trkpt>
      <trkpt lat="47.57018" lon="-2.03626">
        <ele>15.2</ele>
        <time>2008-01-20T04:44:02Z</time>
      </trkpt>
      <trkpt lat="47.57007" lon="-2.03493">
        <ele>15</ele>
        <time>2008-01-20T04:44:19Z</time>
      </trkpt>
      <trkpt lat="47.57005" lon="-2.03358">
        <ele>16.2</ele>
        <time>2008-01-20T04:44:37Z</time>
      </trkpt>
      <trkpt lat="47.56996" lon="-2.03224">
        <ele>23.2</ele>
        <time>2008-01-20T04:44:57Z</time>
      </trkpt>
      <trkpt lat="47.56956" lon="-2.03102">
        <ele>18.9</ele>
        <time>2008-01-20T04:45:14Z</time>
      </trkpt>
      <trkpt lat="47.56892" lon="-2.03">
        <ele>14.3</ele>
        <time>2008-01-20T04:45:33Z</time>
      </trkpt>
      <trkpt lat="47.5682" lon="-2.02912">
        <ele>8.2</ele>
        <time>2008-01-20T04:45:52Z</time>
      </trkpt>
      <trkpt lat="47.56754" lon="-2.02817">
        <ele>12.77</ele>
        <time>2008-01-20T04:46:48Z</time>
      </trkpt>
      <trkpt lat="47.56719" lon="-2.02691">
        <ele>24.9</ele>
        <time>2008-01-20T04:47:15Z</time>
      </trkpt>
      <trkpt lat="47.56704" lon="-2.02554">
        <ele>23.5</ele>
        <time>2008-01-20T04:47:32Z</time>
      </trkpt>
      <trkpt lat="47.56682" lon="-2.02422">
        <ele>25.3</ele>
        <time>2008-01-20T04:47:48Z</time>
      </trkpt>
      <trkpt lat="47.56663" lon="-2.02288">
        <ele>28</ele>
        <time>2008-01-20T04:48:08Z</time>
      </trkpt>
      <trkpt lat="47.56644" lon="-2.02124">
        <ele>9.2</ele>
        <time>2008-01-20T04:49:28Z</time>
      </trkpt>
      <trkpt lat="47.56624" lon="-2.01989">
        <ele>15.7</ele>
        <time>2008-01-20T04:49:50Z</time>
      </trkpt>
      <trkpt lat="47.56602" lon="-2.01854">
        <ele>25.8</ele>
        <time>2008-01-20T04:50:08Z</time>
      </trkpt>
      <trkpt lat="47.56579" lon="-2.0172">
        <ele>27.6</ele>
        <time>2008-01-20T04:50:25Z</time>
      </trkpt>
      <trkpt lat="47.56562" lon="-2.01583">
        <ele>21.2</ele>
        <time>2008-01-20T04:50:43Z</time>
      </trkpt>
      <trkpt lat="47.56539" lon="-2.0145">
        <ele>14.3</ele>
        <time>2008-01-20T04:51:01Z</time>
      </trkpt>
      <trkpt lat="47.56495" lon="-2.01331">
        <ele>17.8</ele>
        <time>2008-01-20T04:51:18Z</time>
      </trkpt>
      <trkpt lat="47.56439" lon="-2.0122">
        <ele>21</ele>
        <time>2008-01-20T04:51:34Z</time>
      </trkpt>
      <trkpt lat="47.5638" lon="-2.01113">
        <ele>22</ele>
        <time>2008-01-20T04:51:53Z</time>
      </trkpt>
      <trkpt lat="47.56323" lon="-2.01008">
        <ele>19.9</ele>
        <time>2008-01-20T04:52:09Z</time>
      </trkpt>
      <trkpt lat="47.56263" lon="-2.00905">
        <ele>14.63</ele>
        <time>2008-01-20T04:52:30Z</time>
      </trkpt>
      <trkpt lat="47.5619" lon="-2.00817">
        <ele>18.7</ele>
        <time>2008-01-20T04:54:37Z</time>
      </trkpt>
      <trkpt lat="47.5611" lon="-2.00743">
        <ele>12.9</ele>
        <time>2008-01-20T04:54:54Z</time>
      </trkpt>
      <trkpt lat="47.56027" lon="-2.00681">
        <ele>9.8</ele>
        <time>2008-01-20T04:55:10Z</time>
      </trkpt>
      <trkpt lat="47.55941" lon="-2.00618">
        <ele>9</ele>
        <time>2008-01-20T04:55:31Z</time>
      </trkpt>
      <trkpt lat="47.55858" lon="-2.00559">
        <ele>7.7</ele>
        <time>2008-01-20T04:58:26Z</time>
      </trkpt>
      <trkpt lat="47.55775" lon="-2.00501">
        <ele>7.3</ele>
        <time>2008-01-20T04:59:20Z</time>
      </trkpt>
      <trkpt lat="47.55698" lon="-2.0043">
        <ele>8.2</ele>
        <time>2008-01-20T04:59:38Z</time>
      </trkpt>
      <trkpt lat="47.55613" lon="-2.00382">
        <ele>7.5</ele>
        <time>2008-01-20T04:59:55Z</time>
      </trkpt>
      <trkpt lat="47.55521" lon="-2.00364">
        <ele>9.9</ele>
        <time>2008-01-20T05:00:15Z</time>
      </trkpt>
      <trkpt lat="47.55431" lon="-2.00356">
        <ele>9.84</ele>
        <time>2008-01-20T05:00:33Z</time>
      </trkpt>
      <trkpt lat="47.55345" lon="-2.0031">
        <ele>5.7</ele>
        <time>2008-01-20T05:02:29Z</time>
      </trkpt>
      <trkpt lat="47.55258" lon="-2.00254">
        <ele>7.9</ele>
        <time>2008-01-20T05:02:47Z</time>
      </trkpt>
      <trkpt lat="47.55169" lon="-2.0021">
        <ele>7.9</ele>
        <time>2008-01-20T05:03:04Z</time>
      </trkpt>
      <trkpt lat="47.55078" lon="-2.00164">
        <ele>6.3</ele>
        <time>2008-01-20T05:04:22Z</time>
      </trkpt>
      <trkpt lat="47.54992" lon="-2.00122">
        <ele>5.4</ele>
        <time>2008-01-20T05:04:40Z</time>
      </trkpt>
      <trkpt lat="47.54901" lon="-2.00077">
        <ele>7.2</ele>
        <time>2008-01-20T05:05:06Z</time>
      </trkpt>
      <trkpt lat="47.54829" lon="-1.99997">
        <ele>8.7</ele>
        <time>2008-01-20T05:05:29Z</time>
      </trkpt>
      <trkpt lat="47.54775" lon="-1.99892">
        <ele>13.9</ele>
        <time>2008-01-20T05:05:48Z</time>
      </trkpt>
      <trkpt lat="47.5471" lon="-1.99793">
        <ele>9</ele>
        <time>2008-01-20T05:07:08Z</time>
      </trkpt>
      <trkpt lat="47.5462" lon="-1.99764">
        <ele>13.3</ele>
        <time>2008-01-20T05:07:25Z</time>
      </trkpt>
      <trkpt lat="47.5453" lon="-1.99737">
        <ele>10.5</ele>
        <time>2008-01-20T05:07:44Z</time>
      </trkpt>
      <trkpt lat="47.54463" lon="-1.99646">
        <ele>12.2</ele>
        <time>2008-01-20T05:08:03Z</time>
      </trkpt>
      <trkpt lat="47.54409" lon="-1.99537">
        <ele>15.5</ele>
        <time>2008-01-20T05:08:20Z</time>
      </trkpt>
      <trkpt lat="47.54367" lon="-1.99413">
        <ele>11.5</ele>
        <time>2008-01-20T05:08:39Z</time>
      </trkpt>
      <trkpt lat="47.54358" lon="-1.99275">
        <ele>8.2</ele>
        <time>2008-01-20T05:08:57Z</time>
      </trkpt>
      <trkpt lat="47.54372" lon="-1.99132">
        <ele>7.4</ele>
        <time>2008-01-20T05:09:18Z</time>
      </trkpt>
      <trkpt lat="47.54378" lon="-1.98998">
        <ele>9.1</ele>
        <time>2008-01-20T05:09:38Z</time>
      </trkpt>
      <trkpt lat="47.54376" lon="-1.98863">
        <ele>8.6</ele>
        <time>2008-01-20T05:09:57Z</time>
      </trkpt>
      <trkpt lat="47.54369" lon="-1.98731">
        <ele>6.5</ele>
        <time>2008-01-20T05:10:18Z</time>
      </trkpt>
      <trkpt lat="47.5435" lon="-1.98595">
        <ele>4.6</ele>
        <time>2008-01-20T05:12:00Z</time>
      </trkpt>
      <trkpt lat="47.54319" lon="-1.98467">
        <ele>6.9</ele>
        <time>2008-01-20T05:12:18Z</time>
      </trkpt>
      <trkpt lat="47.54285" lon="-1.98342">
        <ele>11.4</ele>
        <time>2008-01-20T05:12:38Z</time>
      </trkpt>
      <trkpt lat="47.54269" lon="-1.98204">
        <ele>6.9</ele>
        <time>2008-01-20T05:12:57Z</time>
      </trkpt>
      <trkpt lat="47.54274" lon="-1.98068">
        <ele>7.5</ele>
        <time>2008-01-20T05:13:15Z</time>
      </trkpt>
      <trkpt lat="47.54292" lon="-1.97933">
        <ele>8.4</ele>
        <time>2008-01-20T05:13:37Z</time>
      </trkpt>
      <trkpt lat="47.54316" lon="-1.97798">
        <ele>9.4</ele>
        <time>2008-01-20T05:13:57Z</time>
      </trkpt>
      <trkpt lat="47.54337" lon="-1.97668">
        <ele>8.3</ele>
        <time>2008-01-20T05:14:16Z</time>
      </trkpt>
      <trkpt lat="47.54333" lon="-1.97531">
        <ele>6.2</ele>
        <time>2008-01-20T05:14:37Z</time>
      </trkpt>
      <trkpt lat="47.54333" lon="-1.97395">
        <ele>5.9</ele>
        <time>2008-01-20T05:14:57Z</time>
      </trkpt>
      <trkpt lat="47.54388" lon="-1.97292">
        <ele>7.2</ele>
        <time>2008-01-20T05:15:20Z</time>
      </trkpt>
      <trkpt lat="47.5443" lon="-1.97177">
        <ele>9.3</ele>
        <time>2008-01-20T05:15:43Z</time>
      </trkpt>
      <trkpt lat="47.54447" lon="-1.9704">
        <ele>2.2</ele>
        <time>2008-01-20T05:16:02Z</time>
      </trkpt>
      <trkpt lat="47.5442" lon="-1.9691">
        <ele>2.8</ele>
        <time>2008-01-20T05:16:20Z</time>
      </trkpt>
      <trkpt lat="47.54384" lon="-1.96786">
        <ele>5.9</ele>
        <time>2008-01-20T05:16:38Z</time>
      </trkpt>
      <trkpt lat="47.54333" lon="-1.96676">
        <ele>6.9</ele>
        <time>2008-01-20T05:16:55Z</time>
      </trkpt>
      <trkpt lat="47.54274" lon="-1.96568">
        <ele>16.9</ele>
        <time>2008-01-20T05:17:14Z</time>
      </trkpt>
      <trkpt lat="47.54219" lon="-1.96463">
        <ele>14.4</ele>
        <time>2008-01-20T05:17:33Z</time>
      </trkpt>
      <trkpt lat="47.54147" lon="-1.96383">
        <ele>16.6</ele>
        <time>2008-01-20T05:18:54Z</time>
      </trkpt>
      <trkpt lat="47.54067" lon="-1.96314">
        <ele>16.1</ele>
        <time>2008-01-20T05:19:14Z</time>
      </trkpt>
      <trkpt lat="47.53981" lon="-1.96275">
        <ele>18.1</ele>
        <time>2008-01-20T05:19:32Z</time>
      </trkpt>
      <trkpt lat="47.5389" lon="-1.96246">
        <ele>16.5</ele>
        <time>2008-01-20T05:19:50Z</time>
      </trkpt>
      <trkpt lat="47.53796" lon="-1.96229">
        <ele>12.9</ele>
        <time>2008-01-20T05:20:07Z</time>
      </trkpt>
      <trkpt lat="47.53702" lon="-1.96217">
        <ele>10.5</ele>
        <time>2008-01-20T05:20:23Z</time>
      </trkpt>
      <trkpt lat="47.53609" lon="-1.96204">
        <ele>13.7</ele>
        <time>2008-01-20T05:20:39Z</time>
      </trkpt>
      <trkpt lat="47.5352" lon="-1.9617">
        <ele>15.87</ele>
        <time>2008-01-20T05:20:57Z</time>
      </trkpt>
      <trkpt lat="47.53432" lon="-1.96133">
        <ele>15.8</ele>
        <time>2008-01-20T05:21:15Z</time>
      </trkpt>
      <trkpt lat="47.53342" lon="-1.96097">
        <ele>20.2</ele>
        <time>2008-01-20T05:21:34Z</time>
      </trkpt>
      <trkpt lat="47.53251" lon="-1.9606">
        <ele>16.6</ele>
        <time>2008-01-20T05:21:50Z</time>
      </trkpt>
      <trkpt lat="47.53162" lon="-1.96011">
        <ele>13</ele>
        <time>2008-01-20T05:22:10Z</time>
      </trkpt>
      <trkpt lat="47.53075" lon="-1.95976">
        <ele>12.6</ele>
        <time>2008-01-20T05:26:38Z</time>
      </trkpt>
      <trkpt lat="47.52996" lon="-1.96042">
        <ele>12.8</ele>
        <time>2008-01-20T05:26:58Z</time>
      </trkpt>
      <trkpt lat="47.52924" lon="-1.96126">
        <ele>7.8</ele>
        <time>2008-01-20T05:27:19Z</time>
      </trkpt>
      <trkpt lat="47.52848" lon="-1.96199">
        <ele>10.5</ele>
        <time>2008-01-20T05:27:52Z</time>
      </trkpt>
      <trkpt lat="47.52762" lon="-1.96238">
        <ele>13</ele>
        <time>2008-01-20T05:28:16Z</time>
      </trkpt>
      <trkpt lat="47.52669" lon="-1.96255">
        <ele>10.3</ele>
        <time>2008-01-20T05:28:37Z</time>
      </trkpt>
      <trkpt lat="47.52579" lon="-1.96236">
        <ele>6.3</ele>
        <time>2008-01-20T05:28:54Z</time>
      </trkpt>
      <trkpt lat="47.52513" lon="-1.96143">
        <ele>5.1</ele>
        <time>2008-01-20T05:29:13Z</time>
      </trkpt>
      <trkpt lat="47.52461" lon="-1.96029">
        <ele>5.1</ele>
        <time>2008-01-20T05:29:30Z</time>
      </trkpt>
      <trkpt lat="47.52411" lon="-1.95916">
        <ele>4.1</ele>
        <time>2008-01-20T05:29:49Z</time>
      </trkpt>
      <trkpt lat="47.52363" lon="-1.95802">
        <ele>6.3</ele>
        <time>2008-01-20T05:30:07Z</time>
      </trkpt>
      <trkpt lat="47.52306" lon="-1.95684">
        <ele>1.5</ele>
        <time>2008-01-20T05:31:09Z</time>
      </trkpt>
      <trkpt lat="47.52277" lon="-1.95558">
        <ele>4.6</ele>
        <time>2008-01-20T05:31:27Z</time>
      </trkpt>
      <trkpt lat="47.52301" lon="-1.95425">
        <ele>15.4</ele>
        <time>2008-01-20T05:32:49Z</time>
      </trkpt>
      <trkpt lat="47.52357" lon="-1.9532">
        <ele>5.14</ele>
        <time>2008-01-20T05:34:25Z</time>
      </trkpt>
      <trkpt lat="47.52418" lon="-1.95231">
        <ele>15.9</ele>
        <time>2008-01-20T05:35:12Z</time>
      </trkpt>
      <trkpt lat="47.52488" lon="-1.95158">
        <ele>14.93</ele>
        <time>2008-01-20T05:42:22Z</time>
      </trkpt>
      <trkpt lat="47.52538" lon="-1.95053">
        <ele>8.38</ele>
        <time>2008-01-20T05:45:36Z</time>
      </trkpt>
      <trkpt lat="47.52525" lon="-1.94919">
        <ele>15.2</ele>
        <time>2008-01-20T05:47:07Z</time>
      </trkpt>
      <trkpt lat="47.5251" lon="-1.94785">
        <ele>16.1</ele>
        <time>2008-01-20T05:47:20Z</time>
      </trkpt>
      <trkpt lat="47.52474" lon="-1.94659">
        <ele>13</ele>
        <time>2008-01-20T05:47:39Z</time>
      </trkpt>
      <trkpt lat="47.52407" lon="-1.94571">
        <ele>9.6</ele>
        <time>2008-01-20T05:48:00Z</time>
      </trkpt>
      <trkpt lat="47.52325" lon="-1.94507">
        <ele>9.4</ele>
        <time>2008-01-20T05:48:18Z</time>
      </trkpt>
      <trkpt lat="47.52237" lon="-1.94485">
        <ele>7.13</ele>
        <time>2008-01-20T05:48:37Z</time>
      </trkpt>
      <trkpt lat="47.52145" lon="-1.94486">
        <ele>11.6</ele>
        <time>2008-01-20T05:48:59Z</time>
      </trkpt>
      <trkpt lat="47.52055" lon="-1.94491">
        <ele>9.5</ele>
        <time>2008-01-20T05:49:17Z</time>
      </trkpt>
      <trkpt lat="47.51962" lon="-1.94499">
        <ele>9</ele>
        <time>2008-01-20T05:49:32Z</time>
      </trkpt>
      <trkpt lat="47.51871" lon="-1.94499">
        <ele>7.9</ele>
        <time>2008-01-20T05:49:47Z</time>
      </trkpt>
      <trkpt lat="47.51782" lon="-1.945">
        <ele>8.4</ele>
        <time>2008-01-20T05:50:05Z</time>
      </trkpt>
      <trkpt lat="47.51717" lon="-1.94595">
        <ele>9</ele>
        <time>2008-01-20T05:50:19Z</time>
      </trkpt>
      <trkpt lat="47.51647" lon="-1.94676">
        <ele>11.2</ele>
        <time>2008-01-20T05:50:35Z</time>
      </trkpt>
      <trkpt lat="47.51555" lon="-1.94679">
        <ele>11.4</ele>
        <time>2008-01-20T05:50:49Z</time>
      </trkpt>
      <trkpt lat="47.51465" lon="-1.94676">
        <ele>8.4</ele>
        <time>2008-01-20T05:51:04Z</time>
      </trkpt>
      <trkpt lat="47.51367" lon="-1.94677">
        <ele>-31.3</ele>
        <time>2008-01-20T05:52:22Z</time>
      </trkpt>
      <trkpt lat="47.51273" lon="-1.94669">
        <ele>-18.5</ele>
        <time>2008-01-20T05:52:43Z</time>
      </trkpt>
      <trkpt lat="47.5118" lon="-1.94649">
        <ele>-3.9</ele>
        <time>2008-01-20T05:52:58Z</time>
      </trkpt>
      <trkpt lat="47.5109" lon="-1.94626">
        <ele>0.7</ele>
        <time>2008-01-20T05:53:16Z</time>
      </trkpt>
      <trkpt lat="47.50998" lon="-1.94604">
        <ele>2.4</ele>
        <time>2008-01-20T05:53:32Z</time>
      </trkpt>
      <trkpt lat="47.50909" lon="-1.94559">
        <ele>4.8</ele>
        <time>2008-01-20T05:53:48Z</time>
      </trkpt>
      <trkpt lat="47.50824" lon="-1.94516">
        <ele>5.7</ele>
        <time>2008-01-20T05:54:05Z</time>
      </trkpt>
      <trkpt lat="47.50757" lon="-1.94426">
        <ele>9.9</ele>
        <time>2008-01-20T05:55:24Z</time>
      </trkpt>
      <trkpt lat="47.50731" lon="-1.94299">
        <ele>16.5</ele>
        <time>2008-01-20T05:55:42Z</time>
      </trkpt>
      <trkpt lat="47.50698" lon="-1.9417">
        <ele>14.1</ele>
        <time>2008-01-20T05:55:59Z</time>
      </trkpt>
      <trkpt lat="47.50701" lon="-1.94036">
        <ele>14.8</ele>
        <time>2008-01-20T05:56:17Z</time>
      </trkpt>
      <trkpt lat="47.50698" lon="-1.93897">
        <ele>16</ele>
        <time>2008-01-20T05:56:34Z</time>
      </trkpt>
      <trkpt lat="47.50705" lon="-1.93764">
        <ele>16</ele>
        <time>2008-01-20T05:56:52Z</time>
      </trkpt>
      <trkpt lat="47.50693" lon="-1.93632">
        <ele>15.7</ele>
        <time>2008-01-20T05:57:10Z</time>
      </trkpt>
      <trkpt lat="47.50719" lon="-1.93497">
        <ele>14.2</ele>
        <time>2008-01-20T05:57:28Z</time>
      </trkpt>
      <trkpt lat="47.50757" lon="-1.93373">
        <ele>13.4</ele>
        <time>2008-01-20T05:57:47Z</time>
      </trkpt>
      <trkpt lat="47.50818" lon="-1.9327">
        <ele>12.3</ele>
        <time>2008-01-20T05:58:04Z</time>
      </trkpt>
      <trkpt lat="47.50873" lon="-1.93157">
        <ele>10.7</ele>
        <time>2008-01-20T05:58:24Z</time>
      </trkpt>
      <trkpt lat="47.50923" lon="-1.93044">
        <ele>8.8</ele>
        <time>2008-01-20T06:00:16Z</time>
      </trkpt>
      <trkpt lat="47.50978" lon="-1.92933">
        <ele>10.5</ele>
        <time>2008-01-20T06:00:35Z</time>
      </trkpt>
      <trkpt lat="47.51026" lon="-1.9282">
        <ele>10.4</ele>
        <time>2008-01-20T06:00:53Z</time>
      </trkpt>
      <trkpt lat="47.51052" lon="-1.92692">
        <ele>12</ele>
        <time>2008-01-20T06:01:12Z</time>
      </trkpt>
      <trkpt lat="47.51083" lon="-1.92567">
        <ele>12.8</ele>
        <time>2008-01-20T06:01:32Z</time>
      </trkpt>
      <trkpt lat="47.51028" lon="-1.92454">
        <ele>14.5</ele>
        <time>2008-01-20T06:01:49Z</time>
      </trkpt>
      <trkpt lat="47.50964" lon="-1.92359">
        <ele>5.2</ele>
        <time>2008-01-20T06:02:08Z</time>
      </trkpt>
      <trkpt lat="47.50888" lon="-1.92283">
        <ele>-0.5</ele>
        <time>2008-01-20T06:02:25Z</time>
      </trkpt>
      <trkpt lat="47.508" lon="-1.92259">
        <ele>-0.8</ele>
        <time>2008-01-20T06:02:42Z</time>
      </trkpt>
      <trkpt lat="47.50709" lon="-1.92295">
        <ele>4.2</ele>
        <time>2008-01-20T06:02:59Z</time>
      </trkpt>
      <trkpt lat="47.50617" lon="-1.92322">
        <ele>5.2</ele>
        <time>2008-01-20T06:03:15Z</time>
      </trkpt>
      <trkpt lat="47.50531" lon="-1.92375">
        <ele>4.1</ele>
        <time>2008-01-20T06:03:32Z</time>
      </trkpt>
      <trkpt lat="47.5047" lon="-1.92482">
        <ele>-5</ele>
        <time>2008-01-20T06:03:48Z</time>
      </trkpt>
      <trkpt lat="47.50427" lon="-1.92601">
        <ele>-5.1</ele>
        <time>2008-01-20T06:04:03Z</time>
      </trkpt>
      <trkpt lat="47.50409" lon="-1.92736">
        <ele>8.6</ele>
        <time>2008-01-20T06:06:43Z</time>
      </trkpt>
      <trkpt lat="47.50415" lon="-1.92868">
        <ele>4.3</ele>
        <time>2008-01-20T06:06:58Z</time>
      </trkpt>
      <trkpt lat="47.50429" lon="-1.93007">
        <ele>3.1</ele>
        <time>2008-01-20T06:07:14Z</time>
      </trkpt>
      <trkpt lat="47.50427" lon="-1.93143">
        <ele>2.5</ele>
        <time>2008-01-20T06:07:33Z</time>
      </trkpt>
      <trkpt lat="47.5036" lon="-1.9323">
        <ele>1.1</ele>
        <time>2008-01-20T06:07:49Z</time>
      </trkpt>
      <trkpt lat="47.50271" lon="-1.93285">
        <ele>3.2</ele>
        <time>2008-01-20T06:08:04Z</time>
      </trkpt>
      <trkpt lat="47.50177" lon="-1.93314">
        <ele>3.1</ele>
        <time>2008-01-20T06:08:19Z</time>
      </trkpt>
      <trkpt lat="47.50083" lon="-1.93318">
        <ele>2.3</ele>
        <time>2008-01-20T06:08:34Z</time>
      </trkpt>
      <trkpt lat="47.4999" lon="-1.93316">
        <ele>2.1</ele>
        <time>2008-01-20T06:08:50Z</time>
      </trkpt>
      <trkpt lat="47.49907" lon="-1.93265">
        <ele>2.3</ele>
        <time>2008-01-20T06:09:07Z</time>
      </trkpt>
      <trkpt lat="47.49826" lon="-1.93197">
        <ele>2.2</ele>
        <time>2008-01-20T06:09:24Z</time>
      </trkpt>
      <trkpt lat="47.49756" lon="-1.9311">
        <ele>1.8</ele>
        <time>2008-01-20T06:09:40Z</time>
      </trkpt>
      <trkpt lat="47.49737" lon="-1.92976">
        <ele>3.6</ele>
        <time>2008-01-20T06:10:01Z</time>
      </trkpt>
      <trkpt lat="47.49718" lon="-1.9284">
        <ele>3.7</ele>
        <time>2008-01-20T06:10:19Z</time>
      </trkpt>
      <trkpt lat="47.4971" lon="-1.92704">
        <ele>16.1</ele>
        <time>2008-01-20T06:10:37Z</time>
      </trkpt>
      <trkpt lat="47.49711" lon="-1.92532">
        <ele>9.2</ele>
        <time>2008-01-20T06:15:54Z</time>
      </trkpt>
      <trkpt lat="47.49724" lon="-1.92398">
        <ele>14.8</ele>
        <time>2008-01-20T06:16:12Z</time>
      </trkpt>
      <trkpt lat="47.49752" lon="-1.92267">
        <ele>14.1</ele>
        <time>2008-01-20T06:16:38Z</time>
      </trkpt>
      <trkpt lat="47.49783" lon="-1.92134">
        <ele>18.6</ele>
        <time>2008-01-20T06:17:44Z</time>
      </trkpt>
      <trkpt lat="47.49814" lon="-1.92008">
        <ele>22.8</ele>
        <time>2008-01-20T06:18:01Z</time>
      </trkpt>
      <trkpt lat="47.49838" lon="-1.91872">
        <ele>21.3</ele>
        <time>2008-01-20T06:18:17Z</time>
      </trkpt>
      <trkpt lat="47.49845" lon="-1.91734">
        <ele>25</ele>
        <time>2008-01-20T06:18:33Z</time>
      </trkpt>
      <trkpt lat="47.49812" lon="-1.91606">
        <ele>24.2</ele>
        <time>2008-01-20T06:18:50Z</time>
      </trkpt>
      <trkpt lat="47.49768" lon="-1.91483">
        <ele>22</ele>
        <time>2008-01-20T06:19:08Z</time>
      </trkpt>
      <trkpt lat="47.49726" lon="-1.91361">
        <ele>19.2</ele>
        <time>2008-01-20T06:19:25Z</time>
      </trkpt>
      <trkpt lat="47.49662" lon="-1.91269">
        <ele>15.5</ele>
        <time>2008-01-20T06:19:45Z</time>
      </trkpt>
      <trkpt lat="47.49586" lon="-1.91199">
        <ele>11.7</ele>
        <time>2008-01-20T06:20:01Z</time>
      </trkpt>
      <trkpt lat="47.49524" lon="-1.91099">
        <ele>12</ele>
        <time>2008-01-20T06:20:19Z</time>
      </trkpt>
      <trkpt lat="47.49436" lon="-1.91069">
        <ele>9.5</ele>
        <time>2008-01-20T06:20:34Z</time>
      </trkpt>
      <trkpt lat="47.49342" lon="-1.91069">
        <ele>6.2</ele>
        <time>2008-01-20T06:20:52Z</time>
      </trkpt>
      <trkpt lat="47.49262" lon="-1.91134">
        <ele>6.4</ele>
        <time>2008-01-20T06:21:09Z</time>
      </trkpt>
      <trkpt lat="47.49197" lon="-1.9123">
        <ele>6.1</ele>
        <time>2008-01-20T06:21:25Z</time>
      </trkpt>
      <trkpt lat="47.49107" lon="-1.91236">
        <ele>2.9</ele>
        <time>2008-01-20T06:21:40Z</time>
      </trkpt>
      <trkpt lat="47.49022" lon="-1.91183">
        <ele>3.1</ele>
        <time>2008-01-20T06:21:55Z</time>
      </trkpt>
      <trkpt lat="47.48929" lon="-1.91166">
        <ele>4.3</ele>
        <time>2008-01-20T06:22:11Z</time>
      </trkpt>
      <trkpt lat="47.48836" lon="-1.91187">
        <ele>3</ele>
        <time>2008-01-20T06:22:27Z</time>
      </trkpt>
      <trkpt lat="47.48748" lon="-1.91224">
        <ele>1.1</ele>
        <time>2008-01-20T06:22:42Z</time>
      </trkpt>
      <trkpt lat="47.48655" lon="-1.91226">
        <ele>3.2</ele>
        <time>2008-01-20T06:22:57Z</time>
      </trkpt>
      <trkpt lat="47.48568" lon="-1.91178">
        <ele>3.7</ele>
        <time>2008-01-20T06:23:12Z</time>
      </trkpt>
      <trkpt lat="47.48487" lon="-1.91118">
        <ele>3</ele>
        <time>2008-01-20T06:23:29Z</time>
      </trkpt>
      <trkpt lat="47.48413" lon="-1.91036">
        <ele>9.9</ele>
        <time>2008-01-20T06:25:15Z</time>
      </trkpt>
      <trkpt lat="47.48366" lon="-1.90919">
        <ele>10.5</ele>
        <time>2008-01-20T06:25:37Z</time>
      </trkpt>
      <trkpt lat="47.48382" lon="-1.90786">
        <ele>10.2</ele>
        <time>2008-01-20T06:25:53Z</time>
      </trkpt>
      <trkpt lat="47.48413" lon="-1.90661">
        <ele>11</ele>
        <time>2008-01-20T06:26:09Z</time>
      </trkpt>
      <trkpt lat="47.48414" lon="-1.90526">
        <ele>13.3</ele>
        <time>2008-01-20T06:26:26Z</time>
      </trkpt>
      <trkpt lat="47.48398" lon="-1.90395">
        <ele>16.9</ele>
        <time>2008-01-20T06:26:43Z</time>
      </trkpt>
      <trkpt lat="47.48366" lon="-1.90269">
        <ele>18.8</ele>
        <time>2008-01-20T06:27:00Z</time>
      </trkpt>
      <trkpt lat="47.48327" lon="-1.90146">
        <ele>25.3</ele>
        <time>2008-01-20T06:27:17Z</time>
      </trkpt>
      <trkpt lat="47.48288" lon="-1.90018">
        <ele>32.3</ele>
        <time>2008-01-20T06:27:35Z</time>
      </trkpt>
      <trkpt lat="47.48256" lon="-1.89888">
        <ele>34.1</ele>
        <time>2008-01-20T06:27:54Z</time>
      </trkpt>
      <trkpt lat="47.48241" lon="-1.89758">
        <ele>34.1</ele>
        <time>2008-01-20T06:28:12Z</time>
      </trkpt>
      <trkpt lat="47.48244" lon="-1.89622">
        <ele>30.5</ele>
        <time>2008-01-20T06:28:30Z</time>
      </trkpt>
      <trkpt lat="47.48284" lon="-1.89498">
        <ele>12.6</ele>
        <time>2008-01-20T06:28:47Z</time>
      </trkpt>
      <trkpt lat="47.48323" lon="-1.89378">
        <ele>8.6</ele>
        <time>2008-01-20T06:29:05Z</time>
      </trkpt>
      <trkpt lat="47.48358" lon="-1.89253">
        <ele>9.3</ele>
        <time>2008-01-20T06:29:23Z</time>
      </trkpt>
      <trkpt lat="47.48372" lon="-1.89119">
        <ele>14.6</ele>
        <time>2008-01-20T06:29:50Z</time>
      </trkpt>
      <trkpt lat="47.48351" lon="-1.88989">
        <ele>11.4</ele>
        <time>2008-01-20T06:34:49Z</time>
      </trkpt>
      <trkpt lat="47.48313" lon="-1.88867">
        <ele>14.4</ele>
        <time>2008-01-20T06:35:13Z</time>
      </trkpt>
      <trkpt lat="47.48261" lon="-1.88761">
        <ele>9.43</ele>
        <time>2008-01-20T06:36:16Z</time>
      </trkpt>
      <trkpt lat="47.48187" lon="-1.88681">
        <ele>6.9</ele>
        <time>2008-01-20T06:36:34Z</time>
      </trkpt>
      <trkpt lat="47.48123" lon="-1.88579">
        <ele>9.4</ele>
        <time>2008-01-20T06:36:50Z</time>
      </trkpt>
      <trkpt lat="47.48071" lon="-1.8847">
        <ele>15.6</ele>
        <time>2008-01-20T06:37:06Z</time>
      </trkpt>
      <trkpt lat="47.48018" lon="-1.88361">
        <ele>22</ele>
        <time>2008-01-20T06:37:23Z</time>
      </trkpt>
      <trkpt lat="47.47985" lon="-1.88241">
        <ele>22.5</ele>
        <time>2008-01-20T06:37:42Z</time>
      </trkpt>
      <trkpt lat="47.47975" lon="-1.8811">
        <ele>18.5</ele>
        <time>2008-01-20T06:39:01Z</time>
      </trkpt>
      <trkpt lat="47.47967" lon="-1.87976">
        <ele>15.4</ele>
        <time>2008-01-20T06:39:21Z</time>
      </trkpt>
      <trkpt lat="47.47891" lon="-1.879">
        <ele>13.2</ele>
        <time>2008-01-20T06:39:39Z</time>
      </trkpt>
      <trkpt lat="47.47842" lon="-1.87783">
        <ele>19.2</ele>
        <time>2008-01-20T06:39:58Z</time>
      </trkpt>
      <trkpt lat="47.4777" lon="-1.877">
        <ele>16</ele>
        <time>2008-01-20T06:40:17Z</time>
      </trkpt>
      <trkpt lat="47.47682" lon="-1.87682">
        <ele>10.5</ele>
        <time>2008-01-20T06:40:36Z</time>
      </trkpt>
      <trkpt lat="47.47591" lon="-1.87672">
        <ele>12</ele>
        <time>2008-01-20T06:40:55Z</time>
      </trkpt>
      <trkpt lat="47.47511" lon="-1.87604">
        <ele>13.6</ele>
        <time>2008-01-20T06:41:13Z</time>
      </trkpt>
      <trkpt lat="47.47469" lon="-1.87488">
        <ele>13.9</ele>
        <time>2008-01-20T06:41:31Z</time>
      </trkpt>
      <trkpt lat="47.47372" lon="-1.87357">
        <ele>8.8</ele>
        <time>2008-01-20T06:42:56Z</time>
      </trkpt>
      <trkpt lat="47.4728" lon="-1.87335">
        <ele>7.2</ele>
        <time>2008-01-20T06:43:19Z</time>
      </trkpt>
      <trkpt lat="47.4719" lon="-1.87313">
        <ele>7.6</ele>
        <time>2008-01-20T06:43:37Z</time>
      </trkpt>
      <trkpt lat="47.47101" lon="-1.87285">
        <ele>7.9</ele>
        <time>2008-01-20T06:43:53Z</time>
      </trkpt>
      <trkpt lat="47.47013" lon="-1.87258">
        <ele>8.5</ele>
        <time>2008-01-20T06:44:09Z</time>
      </trkpt>
      <trkpt lat="47.46925" lon="-1.87211">
        <ele>9.5</ele>
        <time>2008-01-20T06:44:29Z</time>
      </trkpt>
      <trkpt lat="47.46842" lon="-1.87155">
        <ele>12.5</ele>
        <time>2008-01-20T06:45:01Z</time>
      </trkpt>
      <trkpt lat="47.46757" lon="-1.87105">
        <ele>9.13</ele>
        <time>2008-01-20T06:45:25Z</time>
      </trkpt>
      <trkpt lat="47.46676" lon="-1.87049">
        <ele>12.93</ele>
        <time>2008-01-20T06:47:15Z</time>
      </trkpt>
      <trkpt lat="47.46597" lon="-1.86981">
        <ele>11.4</ele>
        <time>2008-01-20T06:47:36Z</time>
      </trkpt>
      <trkpt lat="47.46581" lon="-1.86852">
        <ele>14.1</ele>
        <time>2008-01-20T06:47:56Z</time>
      </trkpt>
      <trkpt lat="47.46617" lon="-1.86726">
        <ele>11.4</ele>
        <time>2008-01-20T06:48:17Z</time>
      </trkpt>
      <trkpt lat="47.46658" lon="-1.86608">
        <ele>19.8</ele>
        <time>2008-01-20T06:48:38Z</time>
      </trkpt>
      <trkpt lat="47.46697" lon="-1.86489">
        <ele>17.5</ele>
        <time>2008-01-20T06:48:58Z</time>
      </trkpt>
      <trkpt lat="47.46704" lon="-1.86356">
        <ele>5.67</ele>
        <time>2008-01-20T06:50:18Z</time>
      </trkpt>
      <trkpt lat="47.4665" lon="-1.86249">
        <ele>9</ele>
        <time>2008-01-20T06:52:29Z</time>
      </trkpt>
      <trkpt lat="47.4659" lon="-1.86148">
        <ele>9.4</ele>
        <time>2008-01-20T06:52:48Z</time>
      </trkpt>
      <trkpt lat="47.46556" lon="-1.86019">
        <ele>12.5</ele>
        <time>2008-01-20T06:53:07Z</time>
      </trkpt>
      <trkpt lat="47.4653" lon="-1.85891">
        <ele>15.4</ele>
        <time>2008-01-20T06:53:25Z</time>
      </trkpt>
      <trkpt lat="47.4654" lon="-1.85757">
        <ele>19.3</ele>
        <time>2008-01-20T06:53:44Z</time>
      </trkpt>
      <trkpt lat="47.4658" lon="-1.85632">
        <ele>19.4</ele>
        <time>2008-01-20T06:54:03Z</time>
      </trkpt>
      <trkpt lat="47.46626" lon="-1.85512">
        <ele>16</ele>
        <time>2008-01-20T06:54:21Z</time>
      </trkpt>
      <trkpt lat="47.4669" lon="-1.85414">
        <ele>12.8</ele>
        <time>2008-01-20T06:54:42Z</time>
      </trkpt>
      <trkpt lat="47.46773" lon="-1.85342">
        <ele>10.83</ele>
        <time>2008-01-20T06:55:19Z</time>
      </trkpt>
      <trkpt lat="47.46857" lon="-1.85294">
        <ele>6.07</ele>
        <time>2008-01-20T06:55:43Z</time>
      </trkpt>
      <trkpt lat="47.46943" lon="-1.85239">
        <ele>5.8</ele>
        <time>2008-01-20T06:56:07Z</time>
      </trkpt>
      <trkpt lat="47.47024" lon="-1.85174">
        <ele>8.8</ele>
        <time>2008-01-20T06:56:31Z</time>
      </trkpt>
      <trkpt lat="47.47088" lon="-1.85081">
        <ele>10.3</ele>
        <time>2008-01-20T06:56:54Z</time>
      </trkpt>
      <trkpt lat="47.4717" lon="-1.85014">
        <ele>13.6</ele>
        <time>2008-01-20T06:57:16Z</time>
      </trkpt>
      <trkpt lat="47.47237" lon="-1.8491">
        <ele>11.4</ele>
        <time>2008-01-20T06:57:41Z</time>
      </trkpt>
      <trkpt lat="47.47291" lon="-1.84804">
        <ele>13.7</ele>
        <time>2008-01-20T06:58:00Z</time>
      </trkpt>
      <trkpt lat="47.4737" lon="-1.84726">
        <ele>11.67</ele>
        <time>2008-01-20T06:58:23Z</time>
      </trkpt>
      <trkpt lat="47.47446" lon="-1.84671">
        <ele>10.1</ele>
        <time>2008-01-20T06:58:48Z</time>
      </trkpt>
      <trkpt lat="47.47478" lon="-1.84546">
        <ele>16.4</ele>
        <time>2008-01-20T07:02:47Z</time>
      </trkpt>
      <trkpt lat="47.47506" lon="-1.84415">
        <ele>15.7</ele>
        <time>2008-01-20T07:03:15Z</time>
      </trkpt>
      <trkpt lat="47.475" lon="-1.84281">
        <ele>16.2</ele>
        <time>2008-01-20T07:03:40Z</time>
      </trkpt>
      <trkpt lat="47.4744" lon="-1.84177">
        <ele>15.5</ele>
        <time>2008-01-20T07:03:59Z</time>
      </trkpt>
      <trkpt lat="47.47451" lon="-1.84052">
        <ele>17</ele>
        <time>2008-01-20T07:04:53Z</time>
      </trkpt>
      <trkpt lat="47.4748" lon="-1.83921">
        <ele>17.43</ele>
        <time>2008-01-20T07:06:53Z</time>
      </trkpt>
      <trkpt lat="47.47514" lon="-1.83791">
        <ele>18.8</ele>
        <time>2008-01-20T07:08:32Z</time>
      </trkpt>
      <trkpt lat="47.47546" lon="-1.83665">
        <ele>16.8</ele>
        <time>2008-01-20T07:09:19Z</time>
      </trkpt>
      <trkpt lat="47.47545" lon="-1.83531">
        <ele>19.1</ele>
        <time>2008-01-20T07:09:38Z</time>
      </trkpt>
      <trkpt lat="47.47532" lon="-1.83397">
        <ele>20.6</ele>
        <time>2008-01-20T07:09:55Z</time>
      </trkpt>
      <trkpt lat="47.47506" lon="-1.83269">
        <ele>18.8</ele>
        <time>2008-01-20T07:10:14Z</time>
      </trkpt>
      <trkpt lat="47.47466" lon="-1.83149">
        <ele>14.8</ele>
        <time>2008-01-20T07:10:33Z</time>
      </trkpt>
      <trkpt lat="47.47417" lon="-1.83035">
        <ele>12.3</ele>
        <time>2008-01-20T07:10:52Z</time>
      </trkpt>
      <trkpt lat="47.47344" lon="-1.82946">
        <ele>10.1</ele>
        <time>2008-01-20T07:11:11Z</time>
      </trkpt>
      <trkpt lat="47.47278" lon="-1.82852">
        <ele>8.7</ele>
        <time>2008-01-20T07:11:29Z</time>
      </trkpt>
      <trkpt lat="47.47225" lon="-1.82739">
        <ele>9.3</ele>
        <time>2008-01-20T07:11:48Z</time>
      </trkpt>
      <trkpt lat="47.47176" lon="-1.82623">
        <ele>8.7</ele>
        <time>2008-01-20T07:12:08Z</time>
      </trkpt>
      <trkpt lat="47.47142" lon="-1.82495">
        <ele>10.4</ele>
        <time>2008-01-20T07:12:28Z</time>
      </trkpt>
      <trkpt lat="47.47117" lon="-1.82368">
        <ele>13.8</ele>
        <time>2008-01-20T07:12:52Z</time>
      </trkpt>
      <trkpt lat="47.47067" lon="-1.82257">
        <ele>12.7</ele>
        <time>2008-01-20T07:13:12Z</time>
      </trkpt>
      <trkpt lat="47.47016" lon="-1.82147">
        <ele>12</ele>
        <time>2008-01-20T07:13:32Z</time>
      </trkpt>
      <trkpt lat="47.46983" lon="-1.82019">
        <ele>11.7</ele>
        <time>2008-01-20T07:13:53Z</time>
      </trkpt>
      <trkpt lat="47.46973" lon="-1.81882">
        <ele>12.4</ele>
        <time>2008-01-20T07:14:15Z</time>
      </trkpt>
      <trkpt lat="47.46993" lon="-1.81746">
        <ele>13.3</ele>
        <time>2008-01-20T07:14:36Z</time>
      </trkpt>
      <trkpt lat="47.47025" lon="-1.81615">
        <ele>13.2</ele>
        <time>2008-01-20T07:14:55Z</time>
      </trkpt>
      <trkpt lat="47.4703" lon="-1.8148">
        <ele>14.7</ele>
        <time>2008-01-20T07:15:14Z</time>
      </trkpt>
      <trkpt lat="47.47025" lon="-1.81345">
        <ele>15.6</ele>
        <time>2008-01-20T07:15:34Z</time>
      </trkpt>
      <trkpt lat="47.47008" lon="-1.81212">
        <ele>15.8</ele>
        <time>2008-01-20T07:15:54Z</time>
      </trkpt>
      <trkpt lat="47.46966" lon="-1.81092">
        <ele>15</ele>
        <time>2008-01-20T07:16:15Z</time>
      </trkpt>
      <trkpt lat="47.46904" lon="-1.80992">
        <ele>13.5</ele>
        <time>2008-01-20T07:16:34Z</time>
      </trkpt>
      <trkpt lat="47.46852" lon="-1.80883">
        <ele>13.2</ele>
        <time>2008-01-20T07:16:52Z</time>
      </trkpt>
      <trkpt lat="47.46827" lon="-1.80752">
        <ele>13.6</ele>
        <time>2008-01-20T07:17:12Z</time>
      </trkpt>
      <trkpt lat="47.46832" lon="-1.8062">
        <ele>14.4</ele>
        <time>2008-01-20T07:17:32Z</time>
      </trkpt>
      <trkpt lat="47.46848" lon="-1.80483">
        <ele>14.7</ele>
        <time>2008-01-20T07:17:54Z</time>
      </trkpt>
      <trkpt lat="47.46864" lon="-1.80346">
        <ele>13.2</ele>
        <time>2008-01-20T07:18:16Z</time>
      </trkpt>
      <trkpt lat="47.46881" lon="-1.8021">
        <ele>15.7</ele>
        <time>2008-01-20T07:18:37Z</time>
      </trkpt>
      <trkpt lat="47.46896" lon="-1.80076">
        <ele>17</ele>
        <time>2008-01-20T07:18:58Z</time>
      </trkpt>
      <trkpt lat="47.46912" lon="-1.7994">
        <ele>17</ele>
        <time>2008-01-20T07:19:18Z</time>
      </trkpt>
      <trkpt lat="47.46927" lon="-1.79808">
        <ele>16.3</ele>
        <time>2008-01-20T07:19:38Z</time>
      </trkpt>
      <trkpt lat="47.46945" lon="-1.79676">
        <ele>16.1</ele>
        <time>2008-01-20T07:20:02Z</time>
      </trkpt>
      <trkpt lat="47.46961" lon="-1.79525">
        <ele>14.4</ele>
        <time>2008-01-20T07:21:11Z</time>
      </trkpt>
      <trkpt lat="47.46979" lon="-1.79391">
        <ele>16.9</ele>
        <time>2008-01-20T07:21:34Z</time>
      </trkpt>
      <trkpt lat="47.47002" lon="-1.79261">
        <ele>18.5</ele>
        <time>2008-01-20T07:21:55Z</time>
      </trkpt>
      <trkpt lat="47.4703" lon="-1.79131">
        <ele>18.5</ele>
        <time>2008-01-20T07:22:16Z</time>
      </trkpt>
      <trkpt lat="47.47058" lon="-1.79001">
        <ele>21.6</ele>
        <time>2008-01-20T07:22:38Z</time>
      </trkpt>
      <trkpt lat="47.47084" lon="-1.78867">
        <ele>19</ele>
        <time>2008-01-20T07:23:00Z</time>
      </trkpt>
      <trkpt lat="47.47114" lon="-1.78735">
        <ele>20.6</ele>
        <time>2008-01-20T07:23:22Z</time>
      </trkpt>
      <trkpt lat="47.47143" lon="-1.78608">
        <ele>24.7</ele>
        <time>2008-01-20T07:23:44Z</time>
      </trkpt>
      <trkpt lat="47.4717" lon="-1.78477">
        <ele>26.7</ele>
        <time>2008-01-20T07:24:05Z</time>
      </trkpt>
      <trkpt lat="47.47198" lon="-1.78347">
        <ele>25.4</ele>
        <time>2008-01-20T07:24:27Z</time>
      </trkpt>
      <trkpt lat="47.47223" lon="-1.78214">
        <ele>24</ele>
        <time>2008-01-20T07:24:50Z</time>
      </trkpt>
      <trkpt lat="47.47249" lon="-1.78081">
        <ele>23.2</ele>
        <time>2008-01-20T07:25:20Z</time>
      </trkpt>
      <trkpt lat="47.47277" lon="-1.77949">
        <ele>23.5</ele>
        <time>2008-01-20T07:25:41Z</time>
      </trkpt>
      <trkpt lat="47.47308" lon="-1.77818">
        <ele>25.8</ele>
        <time>2008-01-20T07:26:02Z</time>
      </trkpt>
      <trkpt lat="47.47336" lon="-1.77687">
        <ele>26.4</ele>
        <time>2008-01-20T07:26:23Z</time>
      </trkpt>
      <trkpt lat="47.47343" lon="-1.77549">
        <ele>22.7</ele>
        <time>2008-01-20T07:26:45Z</time>
      </trkpt>
      <trkpt lat="47.47323" lon="-1.77419">
        <ele>21.1</ele>
        <time>2008-01-20T07:27:03Z</time>
      </trkpt>
      <trkpt lat="47.47295" lon="-1.77288">
        <ele>20.8</ele>
        <time>2008-01-20T07:27:24Z</time>
      </trkpt>
      <trkpt lat="47.47245" lon="-1.77171">
        <ele>17.1</ele>
        <time>2008-01-20T07:27:44Z</time>
      </trkpt>
      <trkpt lat="47.47193" lon="-1.77059">
        <ele>13.8</ele>
        <time>2008-01-20T07:28:03Z</time>
      </trkpt>
      <trkpt lat="47.4714" lon="-1.76948">
        <ele>-0.43</ele>
        <time>2008-01-20T07:29:49Z</time>
      </trkpt>
      <trkpt lat="47.47093" lon="-1.76834">
        <ele>10.7</ele>
        <time>2008-01-20T07:32:55Z</time>
      </trkpt>
      <trkpt lat="47.47046" lon="-1.76715">
        <ele>16.13</ele>
        <time>2008-01-20T07:33:34Z</time>
      </trkpt>
      <trkpt lat="47.47003" lon="-1.76602">
        <ele>12.5</ele>
        <time>2008-01-20T07:34:44Z</time>
      </trkpt>
      <trkpt lat="47.46953" lon="-1.76488">
        <ele>8.9</ele>
        <time>2008-01-20T07:37:17Z</time>
      </trkpt>
      <trkpt lat="47.46901" lon="-1.76379">
        <ele>7.5</ele>
        <time>2008-01-20T07:38:21Z</time>
      </trkpt>
      <trkpt lat="47.46843" lon="-1.7629">
        <ele>14.1</ele>
      </trkpt>
      <trkpt lat="47.46788" lon="-1.76168">
        <ele>13.4</ele>
      </trkpt>
      <trkpt lat="47.46719" lon="-1.76016">
        <ele>13.9</ele>
      </trkpt>
      <trkpt lat="47.46659" lon="-1.75888">
        <ele>14.5</ele>
      </trkpt>
      <trkpt lat="47.46571" lon="-1.75752">
        <ele>14.1</ele>
      </trkpt>
      <trkpt lat="47.4646" lon="-1.75619">
        <ele>13.8</ele>
      </trkpt>
      <trkpt lat="47.46347" lon="-1.75482">
        <ele>14.1</ele>
      </trkpt>
      <trkpt lat="47.46263" lon="-1.75379">
        <ele>14.9</ele>
      </trkpt>
      <trkpt lat="47.46206" lon="-1.75243">
        <ele>14.7</ele>
      </trkpt>
      <trkpt lat="47.46145" lon="-1.7514">
        <ele>14</ele>
      </trkpt>
      <trkpt lat="47.46094" lon="-1.75003">
        <ele>14.4</ele>
      </trkpt>
      <trkpt lat="47.46038" lon="-1.74847">
        <ele>14.4</ele>
      </trkpt>
      <trkpt lat="47.45986" lon="-1.74705">
        <ele>14.2</ele>
      </trkpt>
      <trkpt lat="47.45942" lon="-1.74581">
        <ele>14.8</ele>
      </trkpt>
      <trkpt lat="47.45858" lon="-1.74348">
        <ele>14.9</ele>
      </trkpt>
      <trkpt lat="47.45844" lon="-1.74121">
        <ele>14</ele>
      </trkpt>
      <trkpt lat="47.4586" lon="-1.7395">
        <ele>14.9</ele>
      </trkpt>
      <trkpt lat="47.45929" lon="-1.73757">
        <ele>14.6</ele>
      </trkpt>
      <trkpt lat="47.45981" lon="-1.73646">
        <ele>14.9</ele>
      </trkpt>
      <trkpt lat="47.46067" lon="-1.73583">
        <ele>16.5</ele>
      </trkpt>
      <trkpt lat="47.46134" lon="-1.73472">
        <ele>16.5</ele>
      </trkpt>
      <trkpt lat="47.46184" lon="-1.73273">
        <ele>15.8</ele>
      </trkpt>
      <trkpt lat="47.46216" lon="-1.73147">
        <ele>16.3</ele>
      </trkpt>
      <trkpt lat="47.46267" lon="-1.73022">
        <ele>15.9</ele>
      </trkpt>
      <trkpt lat="47.46321" lon="-1.7289">
        <ele>15.2</ele>
      </trkpt>
      <trkpt lat="47.46373" lon="-1.72772">
        <ele>15.3</ele>
      </trkpt>
      <trkpt lat="47.46456" lon="-1.72638">
        <ele>15</ele>
      </trkpt>
      <trkpt lat="47.46537" lon="-1.72576">
        <ele>15.2</ele>
      </trkpt>
      <trkpt lat="47.46636" lon="-1.72539">
        <ele>14.9</ele>
      </trkpt>
      <trkpt lat="47.46721" lon="-1.72485">
        <ele>15</ele>
      </trkpt>
      <trkpt lat="47.46833" lon="-1.72406">
        <ele>15.2</ele>
      </trkpt>
      <trkpt lat="47.46913" lon="-1.72321">
        <ele>16.7</ele>
      </trkpt>
      <trkpt lat="47.4697" lon="-1.722">
        <ele>17</ele>
      </trkpt>
      <trkpt lat="47.47022" lon="-1.72063">
        <ele>17.6</ele>
      </trkpt>
      <trkpt lat="47.47051" lon="-1.71912">
        <ele>16.7</ele>
      </trkpt>
      <trkpt lat="47.47051" lon="-1.71681">
        <ele>15.8</ele>
      </trkpt>
      <trkpt lat="47.47049" lon="-1.71505">
        <ele>16</ele>
      </trkpt>
      <trkpt lat="47.47048" lon="-1.71257">
        <ele>15.9</ele>
      </trkpt>
      <trkpt lat="47.47047" lon="-1.71121">
        <ele>16.4</ele>
      </trkpt>
      <trkpt lat="47.47046" lon="-1.70988">
        <ele>15.7</ele>
      </trkpt>
      <trkpt lat="47.47045" lon="-1.70819">
        <ele>15.6</ele>
      </trkpt>
      <trkpt lat="47.47044" lon="-1.70676">
        <ele>15.6</ele>
      </trkpt>
      <trkpt lat="47.47033" lon="-1.70541">
        <ele>15.8</ele>
      </trkpt>
      <trkpt lat="47.47008" lon="-1.70411">
        <ele>15.8</ele>
      </trkpt>
      <trkpt lat="47.46966" lon="-1.70263">
        <ele>16.6</ele>
      </trkpt>
      <trkpt lat="47.4695" lon="-1.70114">
        <ele>16</ele>
      </trkpt>
      <trkpt lat="47.46987" lon="-1.69974">
        <ele>16.1</ele>
      </trkpt>
      <trkpt lat="47.47018" lon="-1.69843">
        <ele>16.7</ele>
      </trkpt>
      <trkpt lat="47.47042" lon="-1.69698">
        <ele>15.5</ele>
      </trkpt>
      <trkpt lat="47.47052" lon="-1.6956">
        <ele>16.9</ele>
      </trkpt>
      <trkpt lat="47.47045" lon="-1.6941">
        <ele>16.8</ele>
      </trkpt>
      <trkpt lat="47.47042" lon="-1.69252">
        <ele>16.5</ele>
      </trkpt>
      <trkpt lat="47.47038" lon="-1.69111">
        <ele>16.6</ele>
      </trkpt>
      <trkpt lat="47.47034" lon="-1.68933">
        <ele>17.6</ele>
      </trkpt>
      <trkpt lat="47.47031" lon="-1.68759">
        <ele>17.8</ele>
      </trkpt>
      <trkpt lat="47.47026" lon="-1.68584">
        <ele>18</ele>
      </trkpt>
      <trkpt lat="47.47009" lon="-1.68426">
        <ele>16.7</ele>
      </trkpt>
      <trkpt lat="47.46955" lon="-1.6831">
        <ele>17.2</ele>
      </trkpt>
      <trkpt lat="47.46879" lon="-1.68223">
        <ele>17</ele>
      </trkpt>
      <trkpt lat="47.46791" lon="-1.68129">
        <ele>16.8</ele>
      </trkpt>
      <trkpt lat="47.46702" lon="-1.68031">
        <ele>17.4</ele>
      </trkpt>
      <trkpt lat="47.4661" lon="-1.67961">
        <ele>17.7</ele>
      </trkpt>
      <trkpt lat="47.46498" lon="-1.6796">
        <ele>17.4</ele>
      </trkpt>
      <trkpt lat="47.46367" lon="-1.67993">
        <ele>17.8</ele>
      </trkpt>
      <trkpt lat="47.46275" lon="-1.68">
        <ele>18</ele>
      </trkpt>
      <trkpt lat="47.46179" lon="-1.67949">
        <ele>17.9</ele>
      </trkpt>
      <trkpt lat="47.46016" lon="-1.67808">
        <ele>18.5</ele>
      </trkpt>
      <trkpt lat="47.45926" lon="-1.67693">
        <ele>17.7</ele>
      </trkpt>
      <trkpt lat="47.45881" lon="-1.67553">
        <ele>19.5</ele>
      </trkpt>
      <trkpt lat="47.45829" lon="-1.6736">
        <ele>19.7</ele>
      </trkpt>
      <trkpt lat="47.45782" lon="-1.67189">
        <ele>17.3</ele>
      </trkpt>
      <trkpt lat="47.45736" lon="-1.67066">
        <ele>18</ele>
      </trkpt>
      <trkpt lat="47.45669" lon="-1.66948">
        <ele>18</ele>
      </trkpt>
      <trkpt lat="47.45595" lon="-1.66831">
        <ele>18</ele>
      </trkpt>
      <trkpt lat="47.45532" lon="-1.66729">
        <ele>20.1</ele>
      </trkpt>
      <trkpt lat="47.45423" lon="-1.66546">
        <ele>19.4</ele>
      </trkpt>
      <trkpt lat="47.45359" lon="-1.66445">
        <ele>19.1</ele>
      </trkpt>
      <trkpt lat="47.45229" lon="-1.66239">
        <ele>19.2</ele>
      </trkpt>
      <trkpt lat="47.45162" lon="-1.66108">
        <ele>19</ele>
      </trkpt>
      <trkpt lat="47.45134" lon="-1.6598">
        <ele>19.2</ele>
      </trkpt>
      <trkpt lat="47.45092" lon="-1.6585">
        <ele>19.5</ele>
      </trkpt>
      <trkpt lat="47.45062" lon="-1.65658">
        <ele>20</ele>
      </trkpt>
      <trkpt lat="47.45034" lon="-1.65481">
        <ele>20.2</ele>
      </trkpt>
      <trkpt lat="47.45009" lon="-1.65327">
        <ele>20.7</ele>
      </trkpt>
      <trkpt lat="47.44998" lon="-1.65173">
        <ele>20.2</ele>
      </trkpt>
      <trkpt lat="47.4499" lon="-1.65023">
        <ele>20.4</ele>
      </trkpt>
      <trkpt lat="47.44983" lon="-1.64878">
        <ele>20.6</ele>
      </trkpt>
      <trkpt lat="47.44976" lon="-1.64731">
        <ele>20.9</ele>
      </trkpt>
      <trkpt lat="47.44967" lon="-1.64525">
        <ele>20.3</ele>
      </trkpt>
      <trkpt lat="47.44994" lon="-1.64362">
        <ele>20.2</ele>
      </trkpt>
      <trkpt lat="47.45113" lon="-1.64197">
        <ele>20</ele>
      </trkpt>
      <trkpt lat="47.4518" lon="-1.6411">
        <ele>20.5</ele>
      </trkpt>
      <trkpt lat="47.45255" lon="-1.63974">
        <ele>20</ele>
      </trkpt>
      <trkpt lat="47.45289" lon="-1.63799">
        <ele>21.9</ele>
      </trkpt>
      <trkpt lat="47.45333" lon="-1.63492">
        <ele>20.4</ele>
      </trkpt>
      <trkpt lat="47.45332" lon="-1.63333">
        <ele>20.2</ele>
      </trkpt>
      <trkpt lat="47.45303" lon="-1.63185">
        <ele>20.1</ele>
      </trkpt>
      <trkpt lat="47.45313" lon="-1.63053">
        <ele>20.8</ele>
      </trkpt>
      <trkpt lat="47.45397" lon="-1.62941">
        <ele>20</ele>
      </trkpt>
      <trkpt lat="47.45505" lon="-1.62883">
        <ele>20.2</ele>
      </trkpt>
      <trkpt lat="47.45611" lon="-1.62884">
        <ele>20.3</ele>
      </trkpt>
      <trkpt lat="47.45713" lon="-1.62951">
        <ele>20.6</ele>
      </trkpt>
      <trkpt lat="47.45806" lon="-1.63044">
        <ele>20</ele>
      </trkpt>
      <trkpt lat="47.45916" lon="-1.63034">
        <ele>20</ele>
      </trkpt>
      <trkpt lat="47.45987" lon="-1.62949">
        <ele>20</ele>
      </trkpt>
      <trkpt lat="47.46003" lon="-1.62806">
        <ele>20</ele>
      </trkpt>
      <trkpt lat="47.45986" lon="-1.62666">
        <ele>20.5</ele>
      </trkpt>
      <trkpt lat="47.45984" lon="-1.62492">
        <ele>20</ele>
      </trkpt>
      <trkpt lat="47.45988" lon="-1.62274">
        <ele>20.4</ele>
      </trkpt>
      <trkpt lat="47.45992" lon="-1.62081">
        <ele>20.3</ele>
      </trkpt>
      <trkpt lat="47.45996" lon="-1.61888">
        <ele>20.5</ele>
      </trkpt>
      <trkpt lat="47.45995" lon="-1.61727">
        <ele>21.2</ele>
      </trkpt>
      <trkpt lat="47.4595" lon="-1.61451">
        <ele>21.6</ele>
      </trkpt>
      <trkpt lat="47.45926" lon="-1.6131">
        <ele>22</ele>
      </trkpt>
      <trkpt lat="47.4595" lon="-1.61141">
        <ele>22.3</ele>
      </trkpt>
      <trkpt lat="47.46002" lon="-1.60968">
        <ele>22</ele>
      </trkpt>
      <trkpt lat="47.46015" lon="-1.60834">
        <ele>21.4</ele>
      </trkpt>
      <trkpt lat="47.45982" lon="-1.60697">
        <ele>21.9</ele>
      </trkpt>
      <trkpt lat="47.45819" lon="-1.60516">
        <ele>21.9</ele>
      </trkpt>
      <trkpt lat="47.45732" lon="-1.60426">
        <ele>22.4</ele>
      </trkpt>
      <trkpt lat="47.45554" lon="-1.60245">
        <ele>22.6</ele>
      </trkpt>
      <trkpt lat="47.45482" lon="-1.60151">
        <ele>23.2</ele>
      </trkpt>
      <trkpt lat="47.4541" lon="-1.59975">
        <ele>23.1</ele>
      </trkpt>
      <trkpt lat="47.45361" lon="-1.59836">
        <ele>23.2</ele>
      </trkpt>
      <trkpt lat="47.45303" lon="-1.59674">
        <ele>22.8</ele>
      </trkpt>
      <trkpt lat="47.45258" lon="-1.59546">
        <ele>23.3</ele>
      </trkpt>
      <trkpt lat="47.45217" lon="-1.59386">
        <ele>22.7</ele>
      </trkpt>
      <trkpt lat="47.45171" lon="-1.59112">
        <ele>23.5</ele>
      </trkpt>
      <trkpt lat="47.45136" lon="-1.58896">
        <ele>22.6</ele>
      </trkpt>
      <trkpt lat="47.4512" lon="-1.58727">
        <ele>22.7</ele>
      </trkpt>
      <trkpt lat="47.45117" lon="-1.58478">
        <ele>21.7</ele>
      </trkpt>
      <trkpt lat="47.45115" lon="-1.58369">
        <ele>20.7</ele>
      </trkpt>
      <trkpt lat="47.4506" lon="-1.58227">
        <ele>20.1</ele>
      </trkpt>
      <trkpt lat="47.4503" lon="-1.58034">
        <ele>20.1</ele>
      </trkpt>
      <trkpt lat="47.44988" lon="-1.57768">
        <ele>20.6</ele>
      </trkpt>
      <trkpt lat="47.44925" lon="-1.57584">
        <ele>20</ele>
      </trkpt>
      <trkpt lat="47.44859" lon="-1.57432">
        <ele>18</ele>
      </trkpt>
      <trkpt lat="47.44785" lon="-1.5726">
        <ele>17.7</ele>
      </trkpt>
      <trkpt lat="47.44696" lon="-1.57055">
        <ele>17.9</ele>
      </trkpt>
      <trkpt lat="47.44641" lon="-1.56921">
        <ele>17.8</ele>
      </trkpt>
      <trkpt lat="47.44581" lon="-1.56768">
        <ele>17.7</ele>
      </trkpt>
      <trkpt lat="47.44543" lon="-1.56631">
        <ele>17.3</ele>
      </trkpt>
      <trkpt lat="47.44537" lon="-1.5647">
        <ele>17</ele>
      </trkpt>
      <trkpt lat="47.44483" lon="-1.56354">
        <ele>17.3</ele>
      </trkpt>
      <trkpt lat="47.444" lon="-1.56298">
        <ele>17.4</ele>
      </trkpt>
      <trkpt lat="47.44386" lon="-1.56153">
        <ele>17.1</ele>
      </trkpt>
      <trkpt lat="47.44298" lon="-1.56055">
        <ele>18.7</ele>
      </trkpt>
      <trkpt lat="47.44207" lon="-1.55967">
        <ele>16.1</ele>
      </trkpt>
      <trkpt lat="47.44129" lon="-1.55831">
        <ele>15.7</ele>
      </trkpt>
      <trkpt lat="47.44078" lon="-1.55698">
        <ele>16</ele>
      </trkpt>
      <trkpt lat="47.44063" lon="-1.55565">
        <ele>15.2</ele>
      </trkpt>
      <trkpt lat="47.43994" lon="-1.55466">
        <ele>15.2</ele>
      </trkpt>
      <trkpt lat="47.43936" lon="-1.55363">
        <ele>15.4</ele>
      </trkpt>
      <trkpt lat="47.43938" lon="-1.55222">
        <ele>14.2</ele>
      </trkpt>
      <trkpt lat="47.43967" lon="-1.55063">
        <ele>14</ele>
      </trkpt>
      <trkpt lat="47.43995" lon="-1.54928">
        <ele>13.1</ele>
      </trkpt>
      <trkpt lat="47.4402" lon="-1.54794">
        <ele>12.6</ele>
      </trkpt>
      <trkpt lat="47.44053" lon="-1.54645">
        <ele>12.1</ele>
      </trkpt>
      <trkpt lat="47.44066" lon="-1.54475">
        <ele>12</ele>
      </trkpt>
      <trkpt lat="47.44047" lon="-1.54339">
        <ele>12</ele>
      </trkpt>
      <trkpt lat="47.43989" lon="-1.54068">
        <ele>11.7</ele>
      </trkpt>
      <trkpt lat="47.43944" lon="-1.53931">
        <ele>12</ele>
      </trkpt>
      <trkpt lat="47.43838" lon="-1.53855">
        <ele>12</ele>
      </trkpt>
      <trkpt lat="47.43721" lon="-1.5383">
        <ele>11.2</ele>
      </trkpt>
      <trkpt lat="47.43605" lon="-1.538">
        <ele>9.2</ele>
      </trkpt>
      <trkpt lat="47.43498" lon="-1.53697">
        <ele>9.1</ele>
      </trkpt>
      <trkpt lat="47.4342" lon="-1.53536">
        <ele>9.3</ele>
      </trkpt>
      <trkpt lat="47.43389" lon="-1.53388">
        <ele>9</ele>
      </trkpt>
      <trkpt lat="47.43413" lon="-1.53161">
        <ele>9.1</ele>
      </trkpt>
      <trkpt lat="47.43421" lon="-1.53025">
        <ele>9</ele>
      </trkpt>
      <trkpt lat="47.43385" lon="-1.52879">
        <ele>9</ele>
      </trkpt>
      <trkpt lat="47.4329" lon="-1.52825">
        <ele>9</ele>
      </trkpt>
      <trkpt lat="47.43184" lon="-1.5282">
        <ele>9.4</ele>
      </trkpt>
      <trkpt lat="47.43108" lon="-1.5289">
        <ele>9.8</ele>
      </trkpt>
      <trkpt lat="47.43048" lon="-1.53001">
        <ele>9.5</ele>
      </trkpt>
      <trkpt lat="47.42957" lon="-1.53056">
        <ele>10</ele>
      </trkpt>
      <trkpt lat="47.42857" lon="-1.53052">
        <ele>9.7</ele>
      </trkpt>
      <trkpt lat="47.42767" lon="-1.53054">
        <ele>9.5</ele>
      </trkpt>
      <trkpt lat="47.42672" lon="-1.53112">
        <ele>9.2</ele>
      </trkpt>
      <trkpt lat="47.42595" lon="-1.53214">
        <ele>9.8</ele>
      </trkpt>
      <trkpt lat="47.42498" lon="-1.5329">
        <ele>9.4</ele>
      </trkpt>
      <trkpt lat="47.42404" lon="-1.53321">
        <ele>9</ele>
      </trkpt>
      <trkpt lat="47.42309" lon="-1.53354">
        <ele>9</ele>
      </trkpt>
      <trkpt lat="47.4222" lon="-1.53405">
        <ele>9</ele>
      </trkpt>
      <trkpt lat="47.42116" lon="-1.53466">
        <ele>9</ele>
      </trkpt>
      <trkpt lat="47.42019" lon="-1.53522">
        <ele>9.7</ele>
      </trkpt>
      <trkpt lat="47.41931" lon="-1.53574">
        <ele>8.4</ele>
      </trkpt>
      <trkpt lat="47.41846" lon="-1.53609">
        <ele>7.5</ele>
      </trkpt>
      <trkpt lat="47.4176" lon="-1.53567">
        <ele>7.3</ele>
      </trkpt>
      <trkpt lat="47.41674" lon="-1.53513">
        <ele>7.5</ele>
      </trkpt>
      <trkpt lat="47.41575" lon="-1.53459">
        <ele>7</ele>
      </trkpt>
      <trkpt lat="47.41482" lon="-1.53451">
        <ele>7</ele>
      </trkpt>
      <trkpt lat="47.4138" lon="-1.53481">
        <ele>7.7</ele>
      </trkpt>
      <trkpt lat="47.41279" lon="-1.53515">
        <ele>7.1</ele>
      </trkpt>
      <trkpt lat="47.41189" lon="-1.53541">
        <ele>6.6</ele>
      </trkpt>
      <trkpt lat="47.41087" lon="-1.53523">
        <ele>6.8</ele>
      </trkpt>
      <trkpt lat="47.4101" lon="-1.53441">
        <ele>7.2</ele>
      </trkpt>
      <trkpt lat="47.40923" lon="-1.53382">
        <ele>6.7</ele>
      </trkpt>
      <trkpt lat="47.40825" lon="-1.5334">
        <ele>7.4</ele>
      </trkpt>
      <trkpt lat="47.40722" lon="-1.53296">
        <ele>7.3</ele>
      </trkpt>
      <trkpt lat="47.40647" lon="-1.53222">
        <ele>7.1</ele>
      </trkpt>
      <trkpt lat="47.40658" lon="-1.53091">
        <ele>7.1</ele>
      </trkpt>
      <trkpt lat="47.40684" lon="-1.52959">
        <ele>7.7</ele>
      </trkpt>
      <trkpt lat="47.40702" lon="-1.52828">
        <ele>7.7</ele>
      </trkpt>
      <trkpt lat="47.40691" lon="-1.5267">
        <ele>8</ele>
      </trkpt>
      <trkpt lat="47.40654" lon="-1.52529">
        <ele>8</ele>
      </trkpt>
      <trkpt lat="47.40584" lon="-1.52409">
        <ele>7.7</ele>
      </trkpt>
      <trkpt lat="47.40515" lon="-1.52312">
        <ele>7.6</ele>
      </trkpt>
      <trkpt lat="47.40441" lon="-1.52206">
        <ele>8</ele>
      </trkpt>
      <trkpt lat="47.4037" lon="-1.52106">
        <ele>7.1</ele>
      </trkpt>
      <trkpt lat="47.40302" lon="-1.5201">
        <ele>7.4</ele>
      </trkpt>
      <trkpt lat="47.4023" lon="-1.519">
        <ele>8.9</ele>
      </trkpt>
      <trkpt lat="47.40267" lon="-1.51994">
        <ele>7.9</ele>
      </trkpt>
      <trkpt lat="47.40365" lon="-1.52138">
        <ele>8</ele>
      </trkpt>
      <trkpt lat="47.40481" lon="-1.52302">
        <ele>8</ele>
      </trkpt>
      <trkpt lat="47.40558" lon="-1.5241">
        <ele>8</ele>
      </trkpt>
      <trkpt lat="47.40638" lon="-1.52543">
        <ele>8</ele>
      </trkpt>
      <trkpt lat="47.40674" lon="-1.52681">
        <ele>8</ele>
      </trkpt>
      <trkpt lat="47.40681" lon="-1.52851">
        <ele>8</ele>
      </trkpt>
      <trkpt lat="47.40659" lon="-1.52983">
        <ele>8.2</ele>
      </trkpt>
      <trkpt lat="47.40608" lon="-1.53057">
        <ele>7.9</ele>
      </trkpt>
      <trkpt lat="47.40473" lon="-1.53134">
        <ele>8</ele>
      </trkpt>
      <trkpt lat="47.40405" lon="-1.53222">
        <ele>8</ele>
      </trkpt>
      <trkpt lat="47.4031" lon="-1.53382">
        <ele>8.1</ele>
      </trkpt>
      <trkpt lat="47.40246" lon="-1.5349">
        <ele>8.2</ele>
      </trkpt>
      <trkpt lat="47.4022" lon="-1.53641">
        <ele>7.3</ele>
      </trkpt>
      <trkpt lat="47.4018" lon="-1.53539">
        <ele>9.5</ele>
      </trkpt>
      <trkpt lat="47.40115" lon="-1.53442">
        <ele>10.9</ele>
      </trkpt>
      <trkpt lat="47.40095" lon="-1.53312">
        <ele>10</ele>
      </trkpt>
      <trkpt lat="47.40026" lon="-1.53437">
        <ele>11.7</ele>
      </trkpt>
      <trkpt lat="47.39999" lon="-1.53571">
        <ele>14</ele>
      </trkpt>
      <trkpt lat="47.39967" lon="-1.53649">
        <ele>16.6</ele>
      </trkpt>
      <trkpt lat="47.39905" lon="-1.53523">
        <ele>15.9</ele>
      </trkpt>
      <trkpt lat="47.3984" lon="-1.53389">
        <ele>13</ele>
      </trkpt>
      <trkpt lat="47.39763" lon="-1.53237">
        <ele>10</ele>
      </trkpt>
      <trkpt lat="47.39697" lon="-1.53105">
        <ele>9</ele>
      </trkpt>
      <trkpt lat="47.39641" lon="-1.52993">
        <ele>9</ele>
      </trkpt>
      <trkpt lat="47.39584" lon="-1.5288">
        <ele>9</ele>
      </trkpt>
      <trkpt lat="47.39527" lon="-1.52777">
        <ele>10</ele>
      </trkpt>
      <trkpt lat="47.3944" lon="-1.52813">
        <ele>10</ele>
      </trkpt>
      <trkpt lat="47.39354" lon="-1.52863">
        <ele>11</ele>
      </trkpt>
      <trkpt lat="47.39251" lon="-1.52897">
        <ele>12</ele>
      </trkpt>
      <trkpt lat="47.39169" lon="-1.52955">
        <ele>13.3</ele>
      </trkpt>
      <trkpt lat="47.39084" lon="-1.53014">
        <ele>15</ele>
      </trkpt>
      <trkpt lat="47.39017" lon="-1.53135">
        <ele>15.9</ele>
      </trkpt>
      <trkpt lat="47.38968" lon="-1.53221">
        <ele>16.9</ele>
      </trkpt>
      <trkpt lat="47.38976" lon="-1.53078">
        <ele>14.1</ele>
      </trkpt>
      <trkpt lat="47.3889" lon="-1.52976">
        <ele>12.1</ele>
      </trkpt>
      <trkpt lat="47.3885" lon="-1.52907">
        <ele>12.8</ele>
      </trkpt>
      <trkpt lat="47.38881" lon="-1.5277">
        <ele>11.8</ele>
      </trkpt>
      <trkpt lat="47.38854" lon="-1.52629">
        <ele>11.2</ele>
      </trkpt>
      <trkpt lat="47.38827" lon="-1.52444">
        <ele>10.2</ele>
      </trkpt>
      <trkpt lat="47.38808" lon="-1.52303">
        <ele>10</ele>
      </trkpt>
      <trkpt lat="47.38781" lon="-1.52161">
        <ele>9</ele>
      </trkpt>
      <trkpt lat="47.38751" lon="-1.52006">
        <ele>8.2</ele>
      </trkpt>
      <trkpt lat="47.38687" lon="-1.51827">
        <ele>8</ele>
      </trkpt>
      <trkpt lat="47.3864" lon="-1.51697">
        <ele>8</ele>
      </trkpt>
      <trkpt lat="47.38588" lon="-1.51559">
        <ele>8</ele>
      </trkpt>
      <trkpt lat="47.38541" lon="-1.51438">
        <ele>8</ele>
      </trkpt>
      <trkpt lat="47.38484" lon="-1.51315">
        <ele>7.4</ele>
      </trkpt>
      <trkpt lat="47.38419" lon="-1.51203">
        <ele>6</ele>
      </trkpt>
      <trkpt lat="47.38356" lon="-1.51066">
        <ele>6.1</ele>
      </trkpt>
      <trkpt lat="47.38271" lon="-1.51067">
        <ele>7.6</ele>
      </trkpt>
      <trkpt lat="47.38164" lon="-1.51116">
        <ele>9.3</ele>
      </trkpt>
      <trkpt lat="47.38067" lon="-1.5118">
        <ele>14.1</ele>
      </trkpt>
      <trkpt lat="47.37978" lon="-1.51236">
        <ele>19.5</ele>
      </trkpt>
      <trkpt lat="47.37887" lon="-1.5127">
        <ele>18.9</ele>
      </trkpt>
      <trkpt lat="47.37815" lon="-1.51214">
        <ele>17.5</ele>
      </trkpt>
      <trkpt lat="47.37761" lon="-1.51098">
        <ele>14.7</ele>
      </trkpt>
      <trkpt lat="47.37718" lon="-1.50956">
        <ele>11.9</ele>
      </trkpt>
      <trkpt lat="47.3766" lon="-1.50788">
        <ele>8</ele>
      </trkpt>
      <trkpt lat="47.37618" lon="-1.5079">
        <ele>7.6</ele>
      </trkpt>
      <trkpt lat="47.37545" lon="-1.50885">
        <ele>7.5</ele>
      </trkpt>
      <trkpt lat="47.37444" lon="-1.50911">
        <ele>6</ele>
      </trkpt>
      <trkpt lat="47.3733" lon="-1.50903">
        <ele>6.9</ele>
      </trkpt>
      <trkpt lat="47.37197" lon="-1.50888">
        <ele>6.9</ele>
      </trkpt>
      <trkpt lat="47.37082" lon="-1.50877">
        <ele>6.6</ele>
      </trkpt>
      <trkpt lat="47.36991" lon="-1.50887">
        <ele>6.6</ele>
      </trkpt>
      <trkpt lat="47.369" lon="-1.50917">
        <ele>6</ele>
      </trkpt>
      <trkpt lat="47.36826" lon="-1.51034">
        <ele>6.9</ele>
      </trkpt>
      <trkpt lat="47.36749" lon="-1.51117">
        <ele>6</ele>
      </trkpt>
      <trkpt lat="47.36708" lon="-1.51245">
        <ele>6.8</ele>
      </trkpt>
      <trkpt lat="47.36703" lon="-1.51381">
        <ele>9.8</ele>
      </trkpt>
      <trkpt lat="47.36745" lon="-1.51538">
        <ele>12.5</ele>
      </trkpt>
      <trkpt lat="47.36785" lon="-1.5167">
        <ele>9.9</ele>
      </trkpt>
      <trkpt lat="47.36807" lon="-1.51803">
        <ele>8</ele>
      </trkpt>
      <trkpt lat="47.3677" lon="-1.51934">
        <ele>8.7</ele>
      </trkpt>
      <trkpt lat="47.36718" lon="-1.5207">
        <ele>9</ele>
      </trkpt>
      <trkpt lat="47.36658" lon="-1.52209">
        <ele>9.9</ele>
      </trkpt>
      <trkpt lat="47.3664" lon="-1.52341">
        <ele>11</ele>
      </trkpt>
      <trkpt lat="47.36612" lon="-1.52472">
        <ele>12</ele>
      </trkpt>
      <trkpt lat="47.36554" lon="-1.5258">
        <ele>11.1</ele>
      </trkpt>
      <trkpt lat="47.36467" lon="-1.52633">
        <ele>7.7</ele>
      </trkpt>
      <trkpt lat="47.36386" lon="-1.52598">
        <ele>8.2</ele>
      </trkpt>
      <trkpt lat="47.36318" lon="-1.52506">
        <ele>11.4</ele>
      </trkpt>
      <trkpt lat="47.36268" lon="-1.52394">
        <ele>13.1</ele>
      </trkpt>
      <trkpt lat="47.3622" lon="-1.52282">
        <ele>11.1</ele>
      </trkpt>
      <trkpt lat="47.36118" lon="-1.52247">
        <ele>9.1</ele>
      </trkpt>
      <trkpt lat="47.36042" lon="-1.52182">
        <ele>9.5</ele>
      </trkpt>
      <trkpt lat="47.35975" lon="-1.52152">
        <ele>11</ele>
      </trkpt>
      <trkpt lat="47.35915" lon="-1.52256">
        <ele>14</ele>
      </trkpt>
      <trkpt lat="47.35842" lon="-1.52383">
        <ele>16.7</ele>
      </trkpt>
      <trkpt lat="47.35781" lon="-1.52493">
        <ele>17.9</ele>
      </trkpt>
      <trkpt lat="47.35723" lon="-1.52324">
        <ele>18.7</ele>
      </trkpt>
      <trkpt lat="47.3567" lon="-1.52187">
        <ele>18.6</ele>
      </trkpt>
      <trkpt lat="47.35603" lon="-1.52109">
        <ele>19.7</ele>
      </trkpt>
      <trkpt lat="47.35503" lon="-1.52149">
        <ele>20.1</ele>
      </trkpt>
      <trkpt lat="47.35433" lon="-1.52223">
        <ele>17.6</ele>
      </trkpt>
      <trkpt lat="47.35343" lon="-1.5226">
        <ele>11.4</ele>
      </trkpt>
      <trkpt lat="47.35263" lon="-1.5232">
        <ele>11.1</ele>
      </trkpt>
      <trkpt lat="47.35166" lon="-1.52307">
        <ele>19.1</ele>
      </trkpt>
      <trkpt lat="47.35122" lon="-1.52394">
        <ele>25.2</ele>
      </trkpt>
      <trkpt lat="47.35035" lon="-1.52487">
        <ele>27.1</ele>
      </trkpt>
      <trkpt lat="47.34949" lon="-1.52545">
        <ele>27.2</ele>
      </trkpt>
      <trkpt lat="47.34853" lon="-1.52521">
        <ele>26.5</ele>
      </trkpt>
      <trkpt lat="47.34772" lon="-1.52471">
        <ele>24</ele>
      </trkpt>
      <trkpt lat="47.34689" lon="-1.52429">
        <ele>23.3</ele>
      </trkpt>
      <trkpt lat="47.34593" lon="-1.52466">
        <ele>21.5</ele>
      </trkpt>
      <trkpt lat="47.34514" lon="-1.52539">
        <ele>19</ele>
      </trkpt>
      <trkpt lat="47.34447" lon="-1.52643">
        <ele>19.3</ele>
      </trkpt>
      <trkpt lat="47.34376" lon="-1.52753">
        <ele>20</ele>
      </trkpt>
      <trkpt lat="47.34395" lon="-1.52823">
        <ele>22.3</ele>
        <time>2008-01-20T00:07:45Z</time>
      </trkpt>
      <trkpt lat="47.34473" lon="-1.52892">
        <ele>25</ele>
        <time>2008-01-20T00:08:07Z</time>
      </trkpt>
      <trkpt lat="47.34543" lon="-1.52972">
        <ele>28</ele>
        <time>2008-01-20T00:08:29Z</time>
      </trkpt>
      <trkpt lat="47.34579" lon="-1.5309">
        <ele>32.7</ele>
        <time>2008-01-20T00:08:51Z</time>
      </trkpt>
      <trkpt lat="47.34633" lon="-1.53198">
        <ele>36.6</ele>
        <time>2008-01-20T00:09:12Z</time>
      </trkpt>
      <trkpt lat="47.34687" lon="-1.53308">
        <ele>41.8</ele>
        <time>2008-01-20T00:09:37Z</time>
      </trkpt>
      <trkpt lat="47.34752" lon="-1.53407">
        <ele>44.6</ele>
        <time>2008-01-20T00:10:01Z</time>
      </trkpt>
      <trkpt lat="47.34823" lon="-1.53495">
        <ele>43.9</ele>
        <time>2008-01-20T00:10:22Z</time>
      </trkpt>
      <trkpt lat="47.34845" lon="-1.53621">
        <ele>37.3</ele>
        <time>2008-01-20T00:18:29Z</time>
      </trkpt>
      <trkpt lat="47.34875" lon="-1.5375">
        <ele>36.9</ele>
        <time>2008-01-20T00:18:47Z</time>
      </trkpt>
      <trkpt lat="47.34914" lon="-1.53871">
        <ele>36.5</ele>
        <time>2008-01-20T00:19:03Z</time>
      </trkpt>
      <trkpt lat="47.34963" lon="-1.5399">
        <ele>35.7</ele>
        <time>2008-01-20T00:19:18Z</time>
      </trkpt>
      <trkpt lat="47.35012" lon="-1.54107">
        <ele>35.5</ele>
        <time>2008-01-20T00:19:32Z</time>
      </trkpt>
      <trkpt lat="47.35057" lon="-1.54222">
        <ele>35.4</ele>
        <time>2008-01-20T00:19:46Z</time>
      </trkpt>
      <trkpt lat="47.35103" lon="-1.5434">
        <ele>34.1</ele>
        <time>2008-01-20T00:20:00Z</time>
      </trkpt>
      <trkpt lat="47.35144" lon="-1.54466">
        <ele>33.7</ele>
        <time>2008-01-20T00:20:14Z</time>
      </trkpt>
      <trkpt lat="47.35185" lon="-1.5459">
        <ele>34.3</ele>
        <time>2008-01-20T00:20:30Z</time>
      </trkpt>
      <trkpt lat="47.35228" lon="-1.54712">
        <ele>37.3</ele>
        <time>2008-01-20T00:20:49Z</time>
      </trkpt>
      <trkpt lat="47.3528" lon="-1.54823">
        <ele>40.9</ele>
        <time>2008-01-20T00:21:57Z</time>
      </trkpt>
      <trkpt lat="47.35332" lon="-1.54936">
        <ele>44.8</ele>
        <time>2008-01-20T00:22:21Z</time>
      </trkpt>
      <trkpt lat="47.35387" lon="-1.55045">
        <ele>46</ele>
        <time>2008-01-20T00:22:45Z</time>
      </trkpt>
      <trkpt lat="47.3539" lon="-1.55175">
        <ele>42.6</ele>
        <time>2008-01-20T00:24:40Z</time>
      </trkpt>
      <trkpt lat="47.35399" lon="-1.55312">
        <ele>39.9</ele>
        <time>2008-01-20T00:24:57Z</time>
      </trkpt>
      <trkpt lat="47.35407" lon="-1.55445">
        <ele>39.2</ele>
        <time>2008-01-20T00:25:16Z</time>
      </trkpt>
      <trkpt lat="47.35416" lon="-1.55583">
        <ele>38.8</ele>
        <time>2008-01-20T00:25:34Z</time>
      </trkpt>
      <trkpt lat="47.35423" lon="-1.55718">
        <ele>37.8</ele>
        <time>2008-01-20T00:25:48Z</time>
      </trkpt>
      <trkpt lat="47.35424" lon="-1.5585">
        <ele>39.51</ele>
        <time>2008-01-20T00:26:09Z</time>
      </trkpt>
      <trkpt lat="47.35333" lon="-1.55889">
        <ele>38.1</ele>
        <time>2008-01-20T00:27:41Z</time>
      </trkpt>
      <trkpt lat="47.35245" lon="-1.55925">
        <ele>36.8</ele>
        <time>2008-01-20T00:27:55Z</time>
      </trkpt>
      <trkpt lat="47.35152" lon="-1.55937">
        <ele>37.6</ele>
        <time>2008-01-20T00:28:09Z</time>
      </trkpt>
      <trkpt lat="47.35071" lon="-1.55889">
        <ele>36.9</ele>
        <time>2008-01-20T00:28:22Z</time>
      </trkpt>
      <trkpt lat="47.3498" lon="-1.5592">
        <ele>36.1</ele>
        <time>2008-01-20T00:28:36Z</time>
      </trkpt>
      <trkpt lat="47.34892" lon="-1.55965">
        <ele>36.1</ele>
        <time>2008-01-20T00:28:51Z</time>
      </trkpt>
      <trkpt lat="47.34802" lon="-1.55997">
        <ele>35.8</ele>
        <time>2008-01-20T00:29:06Z</time>
      </trkpt>
      <trkpt lat="47.34709" lon="-1.55994">
        <ele>36.7</ele>
        <time>2008-01-20T00:29:20Z</time>
      </trkpt>
      <trkpt lat="47.34621" lon="-1.5602">
        <ele>37</ele>
        <time>2008-01-20T00:29:35Z</time>
      </trkpt>
      <trkpt lat="47.34546" lon="-1.55937">
        <ele>35.4</ele>
        <time>2008-01-20T00:29:49Z</time>
      </trkpt>
      <trkpt lat="47.34467" lon="-1.55874">
        <ele>33</ele>
        <time>2008-01-20T00:30:01Z</time>
      </trkpt>
      <trkpt lat="47.34378" lon="-1.55868">
        <ele>29.8</ele>
        <time>2008-01-20T00:30:13Z</time>
      </trkpt>
      <trkpt lat="47.34284" lon="-1.55872">
        <ele>30.7</ele>
        <time>2008-01-20T00:30:27Z</time>
      </trkpt>
      <trkpt lat="47.34263" lon="-1.55748">
        <ele>28.5</ele>
        <time>2008-01-20T00:30:41Z</time>
      </trkpt>
      <trkpt lat="47.34235" lon="-1.55616">
        <ele>25.7</ele>
        <time>2008-01-20T00:30:54Z</time>
      </trkpt>
      <trkpt lat="47.34216" lon="-1.55482">
        <ele>24.3</ele>
        <time>2008-01-20T00:31:08Z</time>
      </trkpt>
      <trkpt lat="47.34188" lon="-1.55411">
        <ele>21.73</ele>
        <time>2008-01-20T00:33:10Z</time>
      </trkpt>
      <trkpt lat="47.34124" lon="-1.55513">
        <ele>21.1</ele>
        <time>2008-01-20T00:33:27Z</time>
      </trkpt>
      <trkpt lat="47.34083" lon="-1.55635">
        <ele>20.1</ele>
        <time>2008-01-20T00:33:41Z</time>
      </trkpt>
      <trkpt lat="47.34057" lon="-1.55771">
        <ele>16.9</ele>
        <time>2008-01-20T00:33:55Z</time>
      </trkpt>
      <trkpt lat="47.3407" lon="-1.55903">
        <ele>11.5</ele>
        <time>2008-01-20T00:34:06Z</time>
      </trkpt>
      <trkpt lat="47.34007" lon="-1.56001">
        <ele>11.1</ele>
        <time>2008-01-20T00:34:18Z</time>
      </trkpt>
      <trkpt lat="47.33993" lon="-1.56126">
        <ele>22</ele>
        <time>2008-01-20T00:36:03Z</time>
      </trkpt>
      <trkpt lat="47.34009" lon="-1.56258">
        <ele>21.9</ele>
        <time>2008-01-20T00:36:26Z</time>
      </trkpt>
      <trkpt lat="47.34021" lon="-1.56393">
        <ele>25.2</ele>
        <time>2008-01-20T00:36:48Z</time>
      </trkpt>
      <trkpt lat="47.34016" lon="-1.5653">
        <ele>27.3</ele>
        <time>2008-01-20T00:37:05Z</time>
      </trkpt>
      <trkpt lat="47.34011" lon="-1.56665">
        <ele>31.5</ele>
        <time>2008-01-20T00:37:26Z</time>
      </trkpt>
      <trkpt lat="47.33959" lon="-1.56751">
        <ele>35.6</ele>
        <time>2008-01-20T00:39:16Z</time>
      </trkpt>
      <trkpt lat="47.3387" lon="-1.56774">
        <ele>36.4</ele>
        <time>2008-01-20T00:39:34Z</time>
      </trkpt>
      <trkpt lat="47.3378" lon="-1.56777">
        <ele>34.7</ele>
        <time>2008-01-20T00:39:49Z</time>
      </trkpt>
      <trkpt lat="47.33766" lon="-1.56909">
        <ele>35.4</ele>
        <time>2008-01-20T00:40:05Z</time>
      </trkpt>
      <trkpt lat="47.33755" lon="-1.57043">
        <ele>35.8</ele>
        <time>2008-01-20T00:40:23Z</time>
      </trkpt>
      <trkpt lat="47.33726" lon="-1.57158">
        <ele>37.3</ele>
        <time>2008-01-20T00:40:47Z</time>
      </trkpt>
      <trkpt lat="47.33632" lon="-1.57168">
        <ele>36.3</ele>
        <time>2008-01-20T00:41:07Z</time>
      </trkpt>
      <trkpt lat="47.33538" lon="-1.57155">
        <ele>36.6</ele>
        <time>2008-01-20T00:41:24Z</time>
      </trkpt>
      <trkpt lat="47.33455" lon="-1.57107">
        <ele>36.8</ele>
        <time>2008-01-20T00:41:54Z</time>
      </trkpt>
      <trkpt lat="47.33374" lon="-1.5704">
        <ele>34.8</ele>
        <time>2008-01-20T00:42:16Z</time>
      </trkpt>
      <trkpt lat="47.33301" lon="-1.56974">
        <ele>33</ele>
        <time>2008-01-20T00:42:34Z</time>
      </trkpt>
      <trkpt lat="47.33235" lon="-1.56881">
        <ele>32.7</ele>
        <time>2008-01-20T00:42:49Z</time>
      </trkpt>
      <trkpt lat="47.3317" lon="-1.56784">
        <ele>32.6</ele>
        <time>2008-01-20T00:43:04Z</time>
      </trkpt>
      <trkpt lat="47.33103" lon="-1.56687">
        <ele>33.2</ele>
        <time>2008-01-20T00:43:19Z</time>
      </trkpt>
      <trkpt lat="47.33037" lon="-1.56592">
        <ele>33.5</ele>
        <time>2008-01-20T00:43:34Z</time>
      </trkpt>
      <trkpt lat="47.32967" lon="-1.56496">
        <ele>34.8</ele>
        <time>2008-01-20T00:43:50Z</time>
      </trkpt>
      <trkpt lat="47.32899" lon="-1.56409">
        <ele>33.6</ele>
        <time>2008-01-20T00:44:04Z</time>
      </trkpt>
      <trkpt lat="47.32835" lon="-1.56315">
        <ele>32.5</ele>
        <time>2008-01-20T00:44:17Z</time>
      </trkpt>
      <trkpt lat="47.32781" lon="-1.5621">
        <ele>31.6</ele>
        <time>2008-01-20T00:44:29Z</time>
      </trkpt>
      <trkpt lat="47.32722" lon="-1.56098">
        <ele>33.9</ele>
        <time>2008-01-20T00:44:43Z</time>
      </trkpt>
      <trkpt lat="47.32667" lon="-1.55993">
        <ele>36.2</ele>
        <time>2008-01-20T00:44:58Z</time>
      </trkpt>
      <trkpt lat="47.32603" lon="-1.5589">
        <ele>35.9</ele>
        <time>2008-01-20T00:45:15Z</time>
      </trkpt>
      <trkpt lat="47.32546" lon="-1.55783">
        <ele>34.4</ele>
        <time>2008-01-20T00:45:30Z</time>
      </trkpt>
      <trkpt lat="47.32489" lon="-1.55679">
        <ele>32.6</ele>
        <time>2008-01-20T00:45:44Z</time>
      </trkpt>
      <trkpt lat="47.3244" lon="-1.55561">
        <ele>32</ele>
        <time>2008-01-20T00:45:58Z</time>
      </trkpt>
      <trkpt lat="47.324" lon="-1.55435">
        <ele>33.3</ele>
        <time>2008-01-20T00:46:13Z</time>
      </trkpt>
      <trkpt lat="47.3236" lon="-1.55327">
        <ele>29.87</ele>
        <time>2008-01-20T01:03:27Z</time>
      </trkpt>
      <trkpt lat="47.32319" lon="-1.55207">
        <ele>33.9</ele>
        <time>2008-01-20T01:10:40Z</time>
      </trkpt>
      <trkpt lat="47.3223" lon="-1.55183">
        <ele>32.3</ele>
        <time>2008-01-20T01:10:57Z</time>
      </trkpt>
      <trkpt lat="47.32153" lon="-1.55114">
        <ele>30.2</ele>
        <time>2008-01-20T01:11:11Z</time>
      </trkpt>
      <trkpt lat="47.32081" lon="-1.55028">
        <ele>29.7</ele>
        <time>2008-01-20T01:11:26Z</time>
      </trkpt>
      <trkpt lat="47.31997" lon="-1.54985">
        <ele>29.6</ele>
        <time>2008-01-20T01:11:40Z</time>
      </trkpt>
      <trkpt lat="47.31924" lon="-1.54901">
        <ele>30.07</ele>
        <time>2008-01-20T01:11:56Z</time>
      </trkpt>
      <trkpt lat="47.31854" lon="-1.54811">
        <ele>26.6</ele>
        <time>2008-01-20T01:12:13Z</time>
      </trkpt>
      <trkpt lat="47.31785" lon="-1.5472">
        <ele>27.1</ele>
        <time>2008-01-20T01:12:26Z</time>
      </trkpt>
      <trkpt lat="47.31738" lon="-1.54608">
        <ele>25.5</ele>
        <time>2008-01-20T01:13:26Z</time>
      </trkpt>
      <trkpt lat="47.31701" lon="-1.54482">
        <ele>22.4</ele>
        <time>2008-01-20T01:14:44Z</time>
      </trkpt>
      <trkpt lat="47.31637" lon="-1.54379">
        <ele>14.3</ele>
        <time>2008-01-20T01:14:59Z</time>
      </trkpt>
      <trkpt lat="47.3157" lon="-1.54323">
        <ele>14.23</ele>
        <time>2008-01-20T01:17:35Z</time>
      </trkpt>
      <trkpt lat="47.31478" lon="-1.54317">
        <ele>14.1</ele>
        <time>2008-01-20T01:19:11Z</time>
      </trkpt>
      <trkpt lat="47.31383" lon="-1.54305">
        <ele>14.2</ele>
        <time>2008-01-20T01:19:29Z</time>
      </trkpt>
      <trkpt lat="47.31288" lon="-1.54295">
        <ele>13.9</ele>
        <time>2008-01-20T01:19:45Z</time>
      </trkpt>
      <trkpt lat="47.31204" lon="-1.54309">
        <ele>13.13</ele>
        <time>2008-01-20T01:21:34Z</time>
      </trkpt>
      <trkpt lat="47.31111" lon="-1.54288">
        <ele>10.4</ele>
        <time>2008-01-20T01:22:27Z</time>
      </trkpt>
      <trkpt lat="47.31017" lon="-1.5428">
        <ele>14.1</ele>
        <time>2008-01-20T01:22:47Z</time>
      </trkpt>
      <trkpt lat="47.30921" lon="-1.54269">
        <ele>16.87</ele>
        <time>2008-01-20T01:23:08Z</time>
      </trkpt>
      <trkpt lat="47.30829" lon="-1.54272">
        <ele>21.4</ele>
        <time>2008-01-20T01:23:31Z</time>
      </trkpt>
      <trkpt lat="47.30742" lon="-1.54308">
        <ele>25.03</ele>
        <time>2008-01-20T01:27:30Z</time>
      </trkpt>
      <trkpt lat="47.30664" lon="-1.54374">
        <ele>28.27</ele>
        <time>2008-01-20T01:28:14Z</time>
      </trkpt>
      <trkpt lat="47.30587" lon="-1.54444">
        <ele>29.2</ele>
        <time>2008-01-20T01:28:34Z</time>
      </trkpt>
      <trkpt lat="47.30506" lon="-1.54512">
        <ele>27.4</ele>
        <time>2008-01-20T01:28:53Z</time>
      </trkpt>
      <trkpt lat="47.30422" lon="-1.54578">
        <ele>22.2</ele>
        <time>2008-01-20T01:29:07Z</time>
      </trkpt>
      <trkpt lat="47.30351" lon="-1.54659">
        <ele>22.2</ele>
        <time>2008-01-20T01:29:20Z</time>
      </trkpt>
      <trkpt lat="47.30258" lon="-1.54661">
        <ele>27</ele>
        <time>2008-01-20T01:30:41Z</time>
      </trkpt>
      <trkpt lat="47.30173" lon="-1.54706">
        <ele>29.6</ele>
        <time>2008-01-20T01:31:33Z</time>
      </trkpt>
      <trkpt lat="47.30082" lon="-1.54753">
        <ele>30.6</ele>
        <time>2008-01-20T01:31:50Z</time>
      </trkpt>
      <trkpt lat="47.2999" lon="-1.54789">
        <ele>30.8</ele>
        <time>2008-01-20T01:32:05Z</time>
      </trkpt>
      <trkpt lat="47.29901" lon="-1.54818">
        <ele>30.5</ele>
        <time>2008-01-20T01:34:11Z</time>
      </trkpt>
      <trkpt lat="47.29812" lon="-1.54843">
        <ele>29</ele>
        <time>2008-01-20T01:34:30Z</time>
      </trkpt>
      <trkpt lat="47.29719" lon="-1.54854">
        <ele>31.02</ele>
        <time>2008-01-20T01:34:57Z</time>
      </trkpt>
      <trkpt lat="47.29628" lon="-1.54872">
        <ele>30.7</ele>
        <time>2008-01-20T01:36:03Z</time>
      </trkpt>
      <trkpt lat="47.29536" lon="-1.54887">
        <ele>32.5</ele>
        <time>2008-01-20T01:36:19Z</time>
      </trkpt>
      <trkpt lat="47.29444" lon="-1.54885">
        <ele>33.87</ele>
        <time>2008-01-20T01:36:36Z</time>
      </trkpt>
      <trkpt lat="47.29353" lon="-1.54899">
        <ele>38.3</ele>
        <time>2008-01-20T01:37:32Z</time>
      </trkpt>
      <trkpt lat="47.29263" lon="-1.54919">
        <ele>37.5</ele>
        <time>2008-01-20T01:37:51Z</time>
      </trkpt>
      <trkpt lat="47.2917" lon="-1.54911">
        <ele>33.6</ele>
        <time>2008-01-20T01:38:06Z</time>
      </trkpt>
      <trkpt lat="47.29078" lon="-1.54914">
        <ele>30.2</ele>
        <time>2008-01-20T01:38:19Z</time>
      </trkpt>
      <trkpt lat="47.28992" lon="-1.54936">
        <ele>24.1</ele>
        <time>2008-01-20T01:38:38Z</time>
      </trkpt>
      <trkpt lat="47.28902" lon="-1.54927">
        <ele>26.9</ele>
        <time>2008-01-20T01:39:01Z</time>
      </trkpt>
      <trkpt lat="47.28808" lon="-1.54943">
        <ele>26.8</ele>
        <time>2008-01-20T01:39:19Z</time>
      </trkpt>
      <trkpt lat="47.28713" lon="-1.54958">
        <ele>22.7</ele>
        <time>2008-01-20T01:39:37Z</time>
      </trkpt>
      <trkpt lat="47.28622" lon="-1.54971">
        <ele>22</ele>
        <time>2008-01-20T01:39:53Z</time>
      </trkpt>
      <trkpt lat="47.28553" lon="-1.55043">
        <ele>26.87</ele>
        <time>2008-01-20T01:40:16Z</time>
      </trkpt>
      <trkpt lat="47.28479" lon="-1.54979">
        <ele>27.4</ele>
        <time>2008-01-20T01:41:37Z</time>
      </trkpt>
      <trkpt lat="47.28385" lon="-1.54977">
        <ele>28.1</ele>
        <time>2008-01-20T01:41:55Z</time>
      </trkpt>
      <trkpt lat="47.28296" lon="-1.54983">
        <ele>29.57</ele>
        <time>2008-01-20T01:42:13Z</time>
      </trkpt>
      <trkpt lat="47.28286" lon="-1.55142">
        <ele>29.9</ele>
        <time>2008-01-20T01:42:21Z</time>
      </trkpt>
      <trkpt lat="47.28281" lon="-1.55284">
        <ele>29.7</ele>
        <time>2008-01-20T01:42:25Z</time>
      </trkpt>
      <trkpt lat="47.28254" lon="-1.55482">
        <ele>29.6</ele>
        <time>2008-01-20T01:42:28Z</time>
      </trkpt>
      <trkpt lat="47.28232" lon="-1.55611">
        <ele>29.4</ele>
        <time>2008-01-20T01:42:32Z</time>
      </trkpt>
      <trkpt lat="47.28135" lon="-1.55586">
        <ele>29.2</ele>
        <time>2008-01-20T01:42:37Z</time>
      </trkpt>
      <trkpt lat="47.28048" lon="-1.55539">
        <ele>29.2</ele>
        <time>2008-01-20T01:42:39Z</time>
      </trkpt>
      <trkpt lat="47.27854" lon="-1.55432">
        <ele>28.5</ele>
        <time>2008-01-20T01:43:41Z</time>
      </trkpt>
      <trkpt lat="47.27684" lon="-1.55335">
        <ele>28.4</ele>
        <time>2008-01-20T01:43:45Z</time>
      </trkpt>
      <trkpt lat="47.27579" lon="-1.55276">
        <ele>28.4</ele>
        <time>2008-01-20T01:43:46Z</time>
      </trkpt>
      <trkpt lat="47.27446" lon="-1.55177">
        <ele>28.3</ele>
        <time>2008-01-20T01:43:49Z</time>
      </trkpt>
      <trkpt lat="47.27378" lon="-1.55104">
        <ele>28.3</ele>
        <time>2008-01-20T01:43:53Z</time>
      </trkpt>
      <trkpt lat="47.27413" lon="-1.5498">
        <ele>28.5</ele>
        <time>2008-01-20T01:44:02Z</time>
      </trkpt>
      <trkpt lat="47.27396" lon="-1.54846">
        <ele>28.5</ele>
        <time>2008-01-20T01:44:03Z</time>
      </trkpt>
      <trkpt lat="47.27357" lon="-1.54725">
        <ele>35.73</ele>
        <time>2008-01-20T01:44:41Z</time>
      </trkpt>
      <trkpt lat="47.27273" lon="-1.54686">
        <ele>34.8</ele>
        <time>2008-01-20T01:51:45Z</time>
      </trkpt>
      <trkpt lat="47.27181" lon="-1.5466">
        <ele>34.9</ele>
        <time>2008-01-20T01:52:03Z</time>
      </trkpt>
      <trkpt lat="47.27092" lon="-1.54634">
        <ele>35.2</ele>
        <time>2008-01-20T01:52:18Z</time>
      </trkpt>
      <trkpt lat="47.27" lon="-1.54617">
        <ele>35.3</ele>
        <time>2008-01-20T01:52:33Z</time>
      </trkpt>
      <trkpt lat="47.26909" lon="-1.54623">
        <ele>30.4</ele>
        <time>2008-01-20T01:52:48Z</time>
      </trkpt>
      <trkpt lat="47.26818" lon="-1.54601">
        <ele>30.23</ele>
        <time>2008-01-20T01:53:07Z</time>
      </trkpt>
      <trkpt lat="47.26742" lon="-1.54572">
        <ele>33.33</ele>
        <time>2008-01-20T01:55:06Z</time>
      </trkpt>
      <trkpt lat="47.2672" lon="-1.5447">
        <ele>29.4</ele>
        <time>2008-01-20T01:55:36Z</time>
      </trkpt>
      <trkpt lat="47.26629" lon="-1.54466">
        <ele>26.4</ele>
        <time>2008-01-20T01:55:54Z</time>
      </trkpt>
      <trkpt lat="47.26566" lon="-1.54395">
        <ele>26.48</ele>
        <time>2008-01-20T01:56:17Z</time>
      </trkpt>
      <trkpt lat="47.26477" lon="-1.54435">
        <ele>25.3</ele>
        <time>2008-01-20T01:56:37Z</time>
      </trkpt>
      <trkpt lat="47.26392" lon="-1.54412">
        <ele>22.8</ele>
        <time>2008-01-20T01:56:51Z</time>
      </trkpt>
      <trkpt lat="47.26315" lon="-1.54337">
        <ele>21.8</ele>
        <time>2008-01-20T01:57:05Z</time>
      </trkpt>
      <trkpt lat="47.2623" lon="-1.54282">
        <ele>22.3</ele>
        <time>2008-01-20T01:57:22Z</time>
      </trkpt>
      <trkpt lat="47.26139" lon="-1.54272">
        <ele>22.3</ele>
        <time>2008-01-20T01:57:41Z</time>
      </trkpt>
      <trkpt lat="47.26043" lon="-1.54263">
        <ele>22.07</ele>
        <time>2008-01-20T01:58:02Z</time>
      </trkpt>
      <trkpt lat="47.25923" lon="-1.54296">
        <ele>35.2</ele>
        <time>2008-01-20T01:59:34Z</time>
      </trkpt>
      <trkpt lat="47.25835" lon="-1.54259">
        <ele>27.1</ele>
        <time>2008-01-20T01:59:51Z</time>
      </trkpt>
      <trkpt lat="47.25786" lon="-1.54147">
        <ele>24.6</ele>
        <time>2008-01-20T02:00:05Z</time>
      </trkpt>
      <trkpt lat="47.25746" lon="-1.54023">
        <ele>17.5</ele>
        <time>2008-01-20T02:00:17Z</time>
      </trkpt>
      <trkpt lat="47.2568" lon="-1.53947">
        <ele>11.17</ele>
        <time>2008-01-20T02:00:30Z</time>
      </trkpt>
      <trkpt lat="47.2559" lon="-1.53981">
        <ele>14</ele>
        <time>2008-01-20T02:02:18Z</time>
      </trkpt>
      <trkpt lat="47.25503" lon="-1.5402">
        <ele>11.81</ele>
        <time>2008-01-20T02:06:08Z</time>
      </trkpt>
      <trkpt lat="47.25412" lon="-1.54029">
        <ele>6.2</ele>
        <time>2008-01-20T02:06:40Z</time>
      </trkpt>
      <trkpt lat="47.2532" lon="-1.54052">
        <ele>4.5</ele>
        <time>2008-01-20T02:07:00Z</time>
      </trkpt>
      <trkpt lat="47.25228" lon="-1.54075">
        <ele>4.7</ele>
        <time>2008-01-20T02:08:39Z</time>
      </trkpt>
      <trkpt lat="47.25156" lon="-1.54137">
        <ele>4.1</ele>
        <time>2008-01-20T02:11:26Z</time>
      </trkpt>
      <trkpt lat="47.25187" lon="-1.54243">
        <ele>6.4</ele>
        <time>2008-01-20T02:13:03Z</time>
      </trkpt>
      <trkpt lat="47.25215" lon="-1.54462">
        <ele>6.02</ele>
        <time>2008-01-20T02:13:08Z</time>
      </trkpt>
      <trkpt lat="47.25258" lon="-1.5476">
        <ele>11.4</ele>
        <time>2008-01-20T02:17:03Z</time>
      </trkpt>
      <trkpt lat="47.25235" lon="-1.54894">
        <ele>10.93</ele>
        <time>2008-01-20T02:17:07Z</time>
      </trkpt>
      <trkpt lat="47.25143" lon="-1.54961">
        <ele>8.12</ele>
        <time>2008-01-20T02:18:49Z</time>
      </trkpt>
      <trkpt lat="47.24983" lon="-1.55045">
        <ele>7.74</ele>
        <time>2008-01-20T02:19:14Z</time>
      </trkpt>
      <trkpt lat="47.24858" lon="-1.55139">
        <ele>14.98</ele>
        <time>2008-01-20T02:20:59Z</time>
      </trkpt>
      <trkpt lat="47.24747" lon="-1.55285">
        <ele>16.9</ele>
        <time>2008-01-20T02:21:05Z</time>
      </trkpt>
      <trkpt lat="47.24673" lon="-1.55386">
        <ele>15.9</ele>
        <time>2008-01-20T02:21:06Z</time>
      </trkpt>
      <trkpt lat="47.24635" lon="-1.55497">
        <ele>13.4</ele>
        <time>2008-01-20T02:21:09Z</time>
      </trkpt>
      <trkpt lat="47.2459" lon="-1.55562">
        <ele>11.4</ele>
        <time>2008-01-20T02:21:12Z</time>
      </trkpt>
      <trkpt lat="47.24469" lon="-1.55627">
        <ele>10</ele>
        <time>2008-01-20T02:21:15Z</time>
      </trkpt>
      <trkpt lat="47.2438" lon="-1.55641">
        <ele>9.7</ele>
        <time>2008-01-20T02:21:16Z</time>
      </trkpt>
      <trkpt lat="47.24263" lon="-1.5565">
        <ele>9.5</ele>
        <time>2008-01-20T02:30:06Z</time>
      </trkpt>
      <trkpt lat="47.24124" lon="-1.55667">
        <ele>9.6</ele>
        <time>2008-01-20T02:30:08Z</time>
      </trkpt>
      <trkpt lat="47.24" lon="-1.55551">
        <ele>9.9</ele>
        <time>2008-01-20T02:30:15Z</time>
      </trkpt>
      <trkpt lat="47.23897" lon="-1.55517">
        <ele>7.4</ele>
        <time>2008-01-20T02:30:22Z</time>
      </trkpt>
      <trkpt lat="47.23932" lon="-1.55399">
        <ele>9</ele>
        <time>2008-01-20T02:30:27Z</time>
      </trkpt>
      <trkpt lat="47.23859" lon="-1.55297">
        <ele>9</ele>
        <time>2008-01-20T02:30:28Z</time>
      </trkpt>
      <trkpt lat="47.23802" lon="-1.55185">
        <ele>11.47</ele>
        <time>2008-01-20T02:30:35Z</time>
      </trkpt>
      <trkpt lat="47.2371" lon="-1.55153">
        <ele>14.6</ele>
        <time>2008-01-20T02:30:46Z</time>
      </trkpt>
      <trkpt lat="47.23655" lon="-1.55071">
        <ele>10.17</ele>
        <time>2008-01-20T02:41:37Z</time>
      </trkpt>
      <trkpt lat="47.23586" lon="-1.54992">
        <ele>4.9</ele>
        <time>2008-01-20T02:48:58Z</time>
      </trkpt>
      <trkpt lat="47.23509" lon="-1.54914">
        <ele>4.8</ele>
        <time>2008-01-20T02:49:23Z</time>
      </trkpt>
      <trkpt lat="47.2342" lon="-1.54896">
        <ele>11.47</ele>
        <time>2008-01-20T02:50:20Z</time>
      </trkpt>
      <trkpt lat="47.23312" lon="-1.54872">
        <ele>11.53</ele>
        <time>2008-01-20T02:53:20Z</time>
      </trkpt>
      <trkpt lat="47.23222" lon="-1.54892">
        <ele>9.23</ele>
        <time>2008-01-20T02:57:15Z</time>
      </trkpt>
      <trkpt lat="47.23132" lon="-1.54967">
        <ele>8.8</ele>
        <time>2008-01-20T02:57:28Z</time>
      </trkpt>
      <trkpt lat="47.23062" lon="-1.5505">
        <ele>9.73</ele>
        <time>2008-01-20T02:57:53Z</time>
      </trkpt>
      <trkpt lat="47.22995" lon="-1.55136">
        <ele>7.58</ele>
        <time>2008-01-20T02:59:12Z</time>
      </trkpt>
      <trkpt lat="47.22905" lon="-1.55238">
        <ele>1.4</ele>
        <time>2008-01-20T03:02:09Z</time>
      </trkpt>
      <trkpt lat="47.22825" lon="-1.55338">
        <ele>4.55</ele>
        <time>2008-01-20T03:02:44Z</time>
      </trkpt>
      <trkpt lat="47.22756" lon="-1.55435">
        <ele>-0.44</ele>
        <time>2008-01-20T03:05:25Z</time>
      </trkpt>
      <trkpt lat="47.22698" lon="-1.55537">
        <ele>11.99</ele>
        <time>2008-01-20T03:07:02Z</time>
      </trkpt>
      <trkpt lat="47.22599" lon="-1.55577">
        <ele>-48.6</ele>
        <time>2008-01-20T00:01:42Z</time>
      </trkpt>
      <trkpt lat="47.22514" lon="-1.55529">
        <ele>-48.6</ele>
        <time>2008-01-20T00:01:47Z</time>
      </trkpt>
      <trkpt lat="47.22455" lon="-1.55411">
        <ele>-48.6</ele>
        <time>2008-01-20T00:01:50Z</time>
      </trkpt>
      <trkpt lat="47.22347" lon="-1.55348">
        <ele>-48.6</ele>
        <time>2008-01-20T00:02:53Z</time>
      </trkpt>
      <trkpt lat="47.22248" lon="-1.55333">
        <ele>-48.6</ele>
        <time>2008-01-20T00:02:57Z</time>
      </trkpt>
      <trkpt lat="47.22147" lon="-1.55373">
        <ele>-48.6</ele>
        <time>2008-01-20T00:03:38Z</time>
      </trkpt>
      <trkpt lat="47.2206" lon="-1.55501">
        <ele>-48.6</ele>
        <time>2008-01-20T00:03:47Z</time>
      </trkpt>
      <trkpt lat="47.21995" lon="-1.5551">
        <ele>62.3</ele>
        <time>2008-01-20T00:07:50Z</time>
      </trkpt>
      <trkpt lat="47.21932" lon="-1.55617">
        <ele>26.59</ele>
        <time>2008-01-20T00:07:54Z</time>
      </trkpt>
      <trkpt lat="47.21855" lon="-1.55708">
        <ele>36.3</ele>
        <time>2008-01-20T00:09:42Z</time>
      </trkpt>
      <trkpt lat="47.21728" lon="-1.55697">
        <ele>45.3</ele>
        <time>2008-01-20T00:10:11Z</time>
      </trkpt>
      <trkpt lat="47.21641" lon="-1.55663">
        <ele>45.13</ele>
        <time>2008-01-20T00:10:21Z</time>
      </trkpt>
      <trkpt lat="47.21552" lon="-1.55632">
        <ele>43.2</ele>
        <time>2008-01-20T00:10:55Z</time>
      </trkpt>
      <trkpt lat="47.21468" lon="-1.55586">
        <ele>56.6</ele>
        <time>2008-01-20T00:11:12Z</time>
      </trkpt>
      <trkpt lat="47.21397" lon="-1.55509">
        <ele>12.4</ele>
        <time>2008-01-20T00:38:56Z</time>
      </trkpt>
      <trkpt lat="47.21306" lon="-1.55426">
        <ele>13.4</ele>
        <time>2008-01-20T00:39:08Z</time>
      </trkpt>
      <trkpt lat="47.21255" lon="-1.55414">
        <ele>15.1</ele>
        <time>2008-01-20T00:39:19Z</time>
      </trkpt>
      <trkpt lat="47.21201" lon="-1.55542">
        <ele>15.7</ele>
        <time>2008-01-20T00:39:26Z</time>
      </trkpt>
      <trkpt lat="47.21161" lon="-1.55668">
        <ele>18</ele>
        <time>2008-01-20T00:39:30Z</time>
      </trkpt>
      <trkpt lat="47.21142" lon="-1.55805">
        <ele>16.17</ele>
        <time>2008-01-20T00:39:43Z</time>
      </trkpt>
      <trkpt lat="47.21121" lon="-1.55926">
        <ele>12.8</ele>
        <time>2008-01-20T00:43:01Z</time>
      </trkpt>
      <trkpt lat="47.21055" lon="-1.5602">
        <ele>12.2</ele>
        <time>2008-01-20T00:43:16Z</time>
      </trkpt>
      <trkpt lat="47.21007" lon="-1.56139">
        <ele>12.8</ele>
        <time>2008-01-20T00:43:33Z</time>
      </trkpt>
      <trkpt lat="47.20995" lon="-1.56163">
        <ele>13.2</ele>
        <time>2008-01-20T00:43:41Z</time>
      </trkpt>
    </trkseg>
  </trk>
</gpx>